# Wetter Temperatur Luftdruck Luftfeuchtigkeit Sichtweite Windgeschwindigkeit Windrichtung Zeit
1 Clouds 19 1013 82 10000 2.06 340 10:55 14.08.2022
2 Mist 18 1012 89 5000 0.51 0 08:52 14.08.2022
3 Clouds 16 1012 95 8000 1.54 310 06:22 14.08.2022
4 Clouds 16 1012 93 7000 1.54 100 03:36 14.08.2022
5 Clouds 16 1014 92 10000 1.54 190 00:33 14.08.2022
6 Clouds 16 1014 96 6000 0 0 22:56 13.08.2022
7 Clouds 17 1014 95 7000 1.54 310 21:43 13.08.2022
8 Clear 18 1014 92 10000 0.51 0 20:46 13.08.2022
9 Clouds 18 1014 91 10000 2.06 80 19:45 13.08.2022
10 Clouds 18 1012 88 10000 2.06 0 17:59 13.08.2022
11 Rain 21 1013 68 10000 2.57 230 15:40 13.08.2022
12 Rain 22 1013 64 10000 5.14 260 14:28 13.08.2022
13 Rain 21 1015 74 10000 4.63 260 13:41 13.08.2022
14 Clouds 20 1015 74 10000 2.06 310 11:53 13.08.2022
15 Clouds 20 1014 73 10000 2.06 320 10:31 13.08.2022
16 Clouds 19 1014 88 10000 1.54 320 09:19 13.08.2022
17 Clear 18 1015 81 10000 1.03 0 05:57 13.08.2022
18 Clouds 18 1017 76 10000 0 0 00:30 13.08.2022
19 Clouds 20 1017 73 10000 1.54 100 22:23 12.08.2022
20 Clouds 21 1017 62 10000 2.06 140 20:58 12.08.2022
21 Clear 21 1017 65 10000 2.06 100 19:43 12.08.2022
22 Clouds 24 1017 55 10000 3.6 130 18:52 12.08.2022
23 Clouds 25 1015 47 10000 3.09 130 17:36 12.08.2022
24 Clouds 26 1020 47 10000 6.17 120 16:24 12.08.2022
25 Clouds 27 1018 45 10000 3.09 40 14:44 12.08.2022
26 Clouds 26 1018 46 10000 1.54 40 12:55 12.08.2022
27 Clouds 26 1019 50 10000 3.6 130 11:19 12.08.2022
28 Rain 19 1020 84 10000 1.54 310 08:31 12.08.2022
29 Rain 17 1020 85 10000 25.48 315 06:56 12.08.2022
30 Clouds 19 1019 73 10000 1.54 80 03:20 12.08.2022
31 Clouds 19 1020 72 10000 2.57 150 00:27 12.08.2022
32 Clouds 19 1020 68 10000 2.57 80 23:35 11.08.2022
33 Clouds 20 1019 67 10000 1.03 140 22:28 11.08.2022
34 Clouds 21 1017 64 10000 1.54 230 21:43 11.08.2022
35 Clouds 23 1017 49 10000 2.06 50 20:59 11.08.2022
36 Clouds 23 1019 51 10000 2.57 20 20:20 11.08.2022
37 Clouds 24 1016 50 10000 2.57 40 19:32 11.08.2022
38 Clouds 26 1018 45 10000 4.12 10 17:48 11.08.2022
39 Clouds 29 1021 39 10000 3.09 40 16:37 11.08.2022
40 Clouds 27 1021 48 10000 5.14 10 15:25 11.08.2022
41 Clouds 26 1017 47 10000 4.12 310 13:37 11.08.2022
42 Clouds 24 1018 53 10000 2.57 280 10:58 11.08.2022
43 Clear 18 1018 77 10000 2.57 300 07:47 11.08.2022
44 Clouds 17 1020 81 10000 3.09 290 03:54 11.08.2022
45 Clouds 19 1018 72 10000 2.57 280 00:50 11.08.2022
46 Clouds 19 1021 71 10000 3.09 290 22:32 10.08.2022
47 Clouds 19 1021 70 10000 3.6 280 21:34 10.08.2022
48 Clouds 20 1021 69 10000 4.63 280 20:55 10.08.2022
49 Clouds 20 1021 70 10000 5.14 280 19:31 10.08.2022
50 Rain 21 1022 68 10000 7.72 280 18:23 10.08.2022
51 Clouds 26 1020 49 10000 3.09 70 16:41 10.08.2022
52 Clouds 27 1018 44 10000 5.66 350 13:36 10.08.2022
53 Clouds 27 1018 44 10000 5.14 340 12:44 10.08.2022
54 Clear 23 1019 60 10000 3.6 290 09:25 10.08.2022
55 Clear 24 1021 60 10000 4.12 290 08:34 10.08.2022
56 Clear 18 1019 77 10000 2.57 280 07:20 10.08.2022
57 Clouds 17 1020 70 10000 2.57 280 03:32 10.08.2022
58 Clouds 20 1021 57 10000 3.09 270 23:51 09.08.2022
59 Clouds 20 1021 58 10000 3.09 150 23:24 09.08.2022
60 Clouds 23 1020 43 10000 1.54 210 21:36 09.08.2022
61 Clouds 25 1017 36 10000 1.03 0 20:36 09.08.2022
62 Clouds 29 1016 28 10000 6.17 60 18:44 09.08.2022
63 Clouds 30 1016 25 10000 5.66 70 17:28 09.08.2022
64 Clouds 30 1016 25 10000 5.66 70 17:28 09.08.2022
65 Clouds 31 1019 26 10000 5.66 40 16:41 09.08.2022
66 Clouds 30 1021 28 10000 6.69 60 15:58 09.08.2022
67 Clouds 32 1020 27 10000 5.66 20 12:52 09.08.2022
68 Clear 26 1019 44 10000 1.54 0 09:56 09.08.2022
69 Clear 23 1019 56 10000 2.06 280 08:50 09.08.2022
70 Clear 20 1019 68 10000 1.54 350 07:53 09.08.2022
71 Clouds 20 1020 65 10000 1.54 280 04:25 09.08.2022
72 Clouds 22 1020 55 10000 1.54 230 23:27 08.08.2022
73 Clouds 22 1020 52 10000 1.54 230 22:55 08.08.2022
74 Clear 22 1020 50 10000 1.03 0 22:18 08.08.2022
75 Clouds 23 1020 47 10000 2.57 110 21:22 08.08.2022
76 Clouds 27 1017 36 10000 3.6 90 19:51 08.08.2022
77 Clouds 29 1016 30 10000 4.63 40 18:50 08.08.2022
78 Clouds 31 1020 33 10000 5.14 50 16:44 08.08.2022
79 Clouds 30 1019 30 10000 5.66 50 15:40 08.08.2022
80 Clouds 32 1019 31 10000 5.66 50 13:55 08.08.2022
81 Clouds 31 1021 35 10000 3.09 140 12:19 08.08.2022
82 Clear 24 1019 60 10000 1.54 260 09:46 08.08.2022
83 Clear 16 1018 94 10000 1.54 140 06:51 08.08.2022
84 Clear 18 1020 84 10000 0.51 0 02:56 08.08.2022
85 Clouds 22 1019 70 10000 1.03 0 22:42 07.08.2022
86 Clouds 24 1019 63 10000 1.54 310 21:40 07.08.2022
87 Clouds 25 1020 58 10000 3.09 10 20:26 07.08.2022
88 Clouds 25 1016 53 10000 3.6 50 19:56 07.08.2022
89 Clouds 26 1015 50 10000 3.6 30 19:38 07.08.2022
90 Clouds 26 1015 53 10000 3.09 130 18:23 07.08.2022
91 Clouds 27 1015 50 10000 5.66 100 16:54 07.08.2022
92 Clouds 29 1015 39 10000 5.14 40 16:35 07.08.2022
93 Clouds 29 1015 39 10000 5.14 40 16:35 07.08.2022
94 Clouds 27 1015 47 10000 4.63 360 15:20 07.08.2022
95 Clouds 30 1018 43 10000 5.66 60 13:26 07.08.2022
96 Clouds 29 1019 46 10000 4.12 40 11:27 07.08.2022
97 Clouds 27 1016 50 10000 3.6 20 10:34 07.08.2022
98 Clouds 21 1015 83 10000 1.54 280 07:36 07.08.2022
99 Clouds 19 1016 70 10000 1.03 0 03:20 07.08.2022
100 Clouds 21 1016 62 10000 1.03 0 00:31 07.08.2022
101 Clouds 25 1016 50 10000 1.54 0 22:24 06.08.2022
102 Clear 26 1018 45 10000 1.03 0 20:42 06.08.2022
103 Clear 29 1013 34 10000 3.09 50 19:41 06.08.2022
104 Clear 30 1013 32 10000 5.14 50 18:28 06.08.2022
105 Clear 31 1016 31 10000 5.14 40 17:31 06.08.2022
106 Clouds 30 1014 32 10000 2.57 0 14:35 06.08.2022
107 Clouds 30 1014 35 10000 3.6 360 13:44 06.08.2022
108 Clouds 28 1015 42 10000 1.54 0 11:33 06.08.2022
109 Clear 24 1015 53 10000 1.54 330 09:51 06.08.2022
110 Clear 30 1020 42 10000 1.03 0 08:32 06.08.2022
111 Clear 17 1019 74 10000 2.06 110 03:51 06.08.2022
112 Clear 21 1017 57 10000 1.54 0 23:34 05.08.2022
113 Clear 23 1018 50 10000 1.54 190 22:22 05.08.2022
114 Clouds 29 1014 34 10000 3.6 20 19:32 05.08.2022
115 Clouds 30 1014 32 10000 4.12 20 18:44 05.08.2022
116 Clouds 33 1017 27 10000 2.06 0 17:27 05.08.2022
117 Clouds 32 1017 28 10000 2.57 320 16:48 05.08.2022
118 Clouds 32 1017 28 10000 2.57 320 16:48 05.08.2022
119 Clouds 31 1018 32 10000 3.09 310 15:21 05.08.2022
120 Clouds 32 1019 29 10000 2.68 180 13:59 05.08.2022
121 Clouds 30 1016 32 10000 2.06 0 13:23 05.08.2022
122 Clouds 29 1017 32 10000 2.06 0 12:24 05.08.2022
123 Clear 25 1018 47 10000 1.54 0 10:44 05.08.2022
124 Clear 18 1018 72 10000 1.03 0 07:58 05.08.2022
125 Clear 14 1018 88 10000 1.54 330 06:41 05.08.2022
126 Clouds 18 1020 69 10000 1.54 160 00:30 05.08.2022
127 Clear 21 1020 65 10000 0 0 22:26 04.08.2022
128 Clouds 23 1020 54 10000 1.54 140 21:26 04.08.2022
129 Clouds 23 1020 60 10000 0.51 0 20:42 04.08.2022
130 Clouds 27 1017 39 10000 3.09 50 19:37 04.08.2022
131 Clouds 29 1016 34 10000 2.06 0 18:36 04.08.2022
132 Clouds 29 1019 33 10000 2.57 20 17:37 04.08.2022
133 Clouds 28 1018 36 10000 1.54 300 13:57 04.08.2022
134 Clouds 26 1018 50 10000 1.54 340 12:44 04.08.2022
135 Clouds 23 1019 64 10000 1.54 0 10:51 04.08.2022
136 Clear 17 1019 82 10000 0.51 0 07:53 04.08.2022
137 Clouds 15 1020 91 10000 2.06 120 04:43 04.08.2022
138 Clear 16 1020 89 10000 1.03 0 02:29 04.08.2022
139 Clouds 18 1022 81 10000 1.54 170 23:45 03.08.2022
140 Clouds 18 1020 83 10000 1.54 140 22:30 03.08.2022
141 Clouds 20 1020 74 10000 2.06 170 20:50 03.08.2022
142 Clouds 22 1019 64 10000 6.17 210 19:35 03.08.2022
143 Rain 22 1019 68 10000 6.69 230 18:23 03.08.2022
144 Clouds 28 1019 41 10000 5.66 150 16:24 03.08.2022
145 Clouds 29 1017 34 10000 4.12 340 14:45 03.08.2022
146 Clouds 28 1018 36 10000 1.54 0 12:32 03.08.2022
147 Clear 20 1018 64 10000 1.03 0 08:50 03.08.2022
148 Clear 15 1019 83 10000 1.03 180 04:47 03.08.2022
149 Clear 15 1019 79 10000 2.06 130 03:30 03.08.2022
150 Clouds 18 1019 70 10000 0 0 01:35 03.08.2022
151 Clouds 19 1019 65 10000 1.03 0 23:23 02.08.2022
152 Clouds 20 1019 62 10000 2.06 200 21:55 02.08.2022
153 Clouds 21 1019 56 10000 1.03 0 21:30 02.08.2022
154 Clouds 27 1018 38 10000 3.6 10 18:59 02.08.2022
155 Clouds 29 1018 35 10000 3.09 0 16:27 02.08.2022
156 Clouds 28 1018 37 10000 3.09 260 12:53 02.08.2022
157 Clear 21 1016 52 10000 3.09 290 09:40 02.08.2022
158 Clear 17 1016 72 10000 0 0 07:56 02.08.2022
159 Clear 15 1016 77 10000 1.54 170 07:25 02.08.2022
160 Clear 13 1017 80 10000 1.03 0 04:55 02.08.2022
161 Clear 13 1017 80 10000 1.03 0 04:55 02.08.2022
162 Clear 18 1018 59 10000 3.09 280 23:52 01.08.2022
163 Clear 20 1016 52 10000 3.6 260 22:50 01.08.2022
164 Clouds 23 1015 46 10000 1.54 290 20:53 01.08.2022
165 Clouds 26 1016 39 10000 3.58 293 19:34 01.08.2022
166 Clouds 26 1016 41 10000 4.02 315 18:42 01.08.2022
167 Clouds 26 1016 41 10000 4.02 315 18:42 01.08.2022
168 Clouds 27 1016 37 10000 6.17 290 16:54 01.08.2022
169 Clouds 27 1016 37 10000 5.66 280 16:28 01.08.2022
170 Clouds 27 1016 37 10000 5.66 280 15:30 01.08.2022
171 Clouds 28 1016 36 10000 6.69 290 14:43 01.08.2022
172 Clouds 27 1017 36 10000 7.72 290 12:47 01.08.2022
173 Clouds 25 1017 40 10000 7.2 290 10:22 01.08.2022
174 Clear 20 1015 52 10000 4.12 300 08:34 01.08.2022
175 Clear 14 1015 82 10000 1.03 0 04:56 01.08.2022
176 Clear 16 1015 72 10000 3.09 280 03:49 01.08.2022
177 Clear 18 1016 68 10000 5.66 270 00:49 01.08.2022
178 Clouds 19 1015 68 10000 3.09 280 22:40 31.07.2022
179 Clear 21 1015 60 10000 2.57 290 21:33 31.07.2022
180 Clouds 24 1014 50 10000 4.63 280 19:56 31.07.2022
181 Clouds 26 1013 44 10000 6.17 280 18:35 31.07.2022
182 Clouds 27 1017 48 10000 6.69 290 15:45 31.07.2022
183 Clouds 27 1017 48 10000 7.72 280 13:44 31.07.2022
184 Clouds 25 1018 58 10000 7.2 270 12:28 31.07.2022
185 Clouds 25 1020 66 10000 5.81 293 09:55 31.07.2022
186 Clouds 21 1018 78 8000 2.24 293 08:18 31.07.2022
187 Clouds 17 1017 93 10000 0 0 03:28 31.07.2022
188 Rain 19 1018 89 10000 4.63 150 23:46 30.07.2022
189 Rain 19 1020 92 7000 6.69 280 22:19 30.07.2022
190 Thunderstorm 18 1022 91 7000 8.75 280 21:49 30.07.2022
191 Thunderstorm 18 1022 88 10000 5.14 280 20:57 30.07.2022
192 Thunderstorm 18 1021 87 10000 5.14 280 20:57 30.07.2022
193 Clouds 24 1019 56 10000 2.06 320 19:59 30.07.2022
194 Clouds 26 1012 47 10000 3.09 30 18:53 30.07.2022
195 Clouds 24 1012 53 8000 7.2 310 17:44 30.07.2022
196 Clouds 33 1012 31 10000 4.12 170 15:54 30.07.2022
197 Clouds 33 1015 32 10000 4.12 120 15:24 30.07.2022
198 Clouds 33 1017 31 10000 4.12 90 13:18 30.07.2022
199 Clouds 31 1015 33 10000 3.6 0 12:19 30.07.2022
200 Clear 27 1016 41 10000 4.12 90 10:31 30.07.2022
201 Clear 27 1016 41 10000 4.12 90 10:31 30.07.2022
202 Clear 27 1016 41 10000 4.12 90 10:31 30.07.2022
203 Clear 27 1016 44 10000 4.12 120 09:56 30.07.2022
204 Clear 21 1017 64 10000 3.6 110 07:55 30.07.2022
205 Clear 20 1019 63 10000 2.57 120 03:55 30.07.2022
206 Clouds 22 1019 57 10000 5.14 110 02:25 30.07.2022
207 Clouds 24 1019 52 10000 3.09 150 22:44 29.07.2022
208 Clouds 24 1019 49 10000 3.09 110 21:24 29.07.2022
209 Clouds 26 1019 45 10000 2.68 113 20:41 29.07.2022
210 Clouds 29 1018 37 10000 3.6 150 18:26 29.07.2022
211 Clouds 32 1019 32 10000 4.63 110 15:38 29.07.2022
212 Clear 32 1019 36 10000 6.17 100 13:37 29.07.2022
213 Clear 29 1020 44 10000 4.63 100 11:28 29.07.2022
214 Clear 22 1018 68 10000 3.6 110 08:50 29.07.2022
215 Clear 20 1018 77 10000 3.09 100 08:18 29.07.2022
216 Clouds 18 1020 85 10000 2.57 160 01:58 29.07.2022
217 Clouds 20 1023 75 10000 4.47 113 22:53 28.07.2022
218 Clouds 21 1021 67 10000 6.17 170 21:28 28.07.2022
219 Rain 20 1021 73 10000 4.02 158 20:32 28.07.2022
220 Rain 26 1016 61 10000 2.57 230 19:44 28.07.2022
221 Rain 26 1016 65 10000 1.54 310 19:24 28.07.2022
222 Rain 27 1015 54 10000 3.09 110 17:44 28.07.2022
223 Rain 25 1015 69 10000 3.6 160 16:57 28.07.2022
224 Rain 28 1015 51 10000 6.17 110 16:28 28.07.2022
225 Clouds 30 1018 47 10000 2.57 130 13:30 28.07.2022
226 Clouds 23 1017 68 10000 1.54 0 11:27 28.07.2022
227 Rain 19 1018 92 10000 5.14 100 06:45 28.07.2022
228 Rain 19 1018 87 10000 2.06 330 05:31 28.07.2022
229 Clouds 22 1015 60 10000 3.09 280 01:23 28.07.2022
230 Clouds 23 1016 61 10000 2.57 40 22:45 27.07.2022
231 Clear 24 1016 55 10000 2.57 110 21:29 27.07.2022
232 Clouds 28 1012 39 10000 2.57 310 19:43 27.07.2022
233 Clouds 31 1017 35 10000 5.14 10 17:50 27.07.2022
234 Clouds 34 1011 27 10000 3.09 90 15:52 27.07.2022
235 Clouds 33 1012 27 10000 2.57 0 14:58 27.07.2022
236 Clouds 33 1012 27 10000 2.57 0 14:35 27.07.2022
237 Clear 34 1015 31 10000 2.57 230 12:50 27.07.2022
238 Clear 21 1014 64 10000 1.54 160 07:54 27.07.2022
239 Clear 18 1014 72 10000 2.06 90 06:56 27.07.2022
240 Clear 20 1015 65 10000 2.06 360 01:59 27.07.2022
241 Clear 25 1014 50 10000 1.03 0 22:29 26.07.2022
242 Clear 27 1014 47 10000 2.57 190 21:20 26.07.2022
243 Clear 27 1016 46 10000 1.03 0 20:31 26.07.2022
244 Clear 33 1010 27 10000 1.54 280 18:44 26.07.2022
245 Clear 33 1010 27 10000 1.54 0 17:59 26.07.2022
246 Clear 35 1014 24 10000 2.06 20 16:31 26.07.2022
247 Clear 35 1014 26 10000 2.06 0 15:30 26.07.2022
248 Clear 35 1015 26 10000 2.06 0 13:38 26.07.2022
249 Clear 33 1018 38 10000 2.57 210 11:38 26.07.2022
250 Clear 23 1014 64 10000 2.06 70 08:57 26.07.2022
251 Clear 17 1017 80 10000 1.54 350 05:53 26.07.2022
252 Clear 20 1017 69 10000 2.57 140 00:44 26.07.2022
253 Clear 21 1018 69 10000 2.57 100 23:32 25.07.2022
254 Clear 23 1018 58 10000 2.57 210 22:25 25.07.2022
255 Clear 24 1018 57 10000 3.09 200 21:41 25.07.2022
256 Clear 26 1014 47 10000 1.54 70 20:41 25.07.2022
257 Clear 28 1014 42 10000 3.6 50 19:46 25.07.2022
258 Clouds 30 1014 35 10000 4.63 40 18:19 25.07.2022
259 Clouds 31 1014 35 10000 3.09 70 17:27 25.07.2022
260 Clouds 31 1014 35 10000 3.09 70 17:27 25.07.2022
261 Clouds 32 1017 31 10000 3.13 338 14:59 25.07.2022
262 Clouds 29 1016 37 10000 4.12 310 12:22 25.07.2022
263 Clear 26 1017 50 10000 4.12 300 09:50 25.07.2022
264 Clouds 22 1017 68 10000 3.09 220 04:38 25.07.2022
265 Clouds 25 1018 53 10000 4.63 280 23:54 24.07.2022
266 Clouds 24 1021 61 10000 3.6 290 23:18 24.07.2022
267 Clouds 27 1020 47 10000 5.66 280 22:29 24.07.2022
268 Clear 27 1020 46 10000 4.12 280 21:23 24.07.2022
269 Clear 28 1016 42 10000 4.63 290 20:50 24.07.2022
270 Clouds 28 1019 44 10000 4.12 280 20:26 24.07.2022
271 Rain 31 1018 37 10000 4.63 300 18:46 24.07.2022
272 Clouds 33 1018 28 10000 3.6 130 16:29 24.07.2022
273 Clouds 34 1015 26 10000 3.6 350 15:50 24.07.2022
274 Clouds 35 1015 24 10000 4.63 270 14:35 24.07.2022
275 Clear 36 1020 25 10000 2.06 0 12:54 24.07.2022
276 Clear 35 1020 29 10000 1.54 0 11:40 24.07.2022
277 Clear 33 1020 31 10000 1.54 330 11:18 24.07.2022
278 Clear 24 1018 46 10000 1.03 0 08:33 24.07.2022
279 Clear 20 1018 60 10000 1.03 0 07:52 24.07.2022
280 Clear 18 1022 68 10000 2.06 320 05:49 24.07.2022
281 Clear 21 1022 60 10000 2.06 140 00:29 24.07.2022
282 Clear 26 1020 41 10000 2.06 150 21:37 23.07.2022
283 Clear 27 1019 37 10000 2.57 150 20:28 23.07.2022
284 Clear 34 1016 22 10000 3.6 120 18:50 23.07.2022
285 Clear 35 1017 23 10000 4.12 80 17:28 23.07.2022
286 Clear 36 1017 14 10000 2.57 280 16:35 23.07.2022
287 Clouds 36 1017 12 10000 2.06 0 15:31 23.07.2022
288 Clouds 36 1017 17 10000 2.06 0 14:59 23.07.2022
289 Clouds 35 1018 21 10000 1.54 0 14:28 23.07.2022
290 Clear 35 1018 20 10000 1.54 0 13:36 23.07.2022
291 Clear 33 1022 33 10000 1.79 90 10:49 23.07.2022
292 Clear 36 1024 31 10000 1.54 0 10:21 23.07.2022
293 Clear 32 1025 35 10000 1.54 0 08:39 23.07.2022
294 Clear 17 1024 69 10000 2.06 180 03:39 23.07.2022
295 Clear 19 1024 65 10000 2.06 120 01:27 23.07.2022
296 Clear 21 1022 54 10000 1.54 70 22:42 22.07.2022
297 Clear 26 1021 40 10000 2.06 180 20:52 22.07.2022
298 Clear 28 1018 39 10000 2.57 130 19:35 22.07.2022
299 Clear 32 1014 19 10000 3.8 44 18:28 22.07.2022
300 Clear 35 1021 24 10000 4.63 90 16:49 22.07.2022
301 Clear 34 1017 26 10000 5.66 120 14:51 22.07.2022
302 Clear 29 1018 34 10000 2.57 280 11:22 22.07.2022
303 Clear 24 1018 50 10000 1.54 0 09:25 22.07.2022
304 Clear 21 1018 56 10000 1.03 0 08:29 22.07.2022
305 Clear 17 1022 74 10000 1.54 0 05:18 22.07.2022
306 Clear 20 1017 60 10000 2.06 140 00:40 22.07.2022
307 Clear 24 1020 48 10000 2.06 220 22:25 21.07.2022
308 Clear 24 1019 44 10000 1.03 30 20:48 21.07.2022
309 Clear 31 1016 27 10000 3.6 360 19:26 21.07.2022
310 Clear 34 1019 27 10000 6.17 270 17:39 21.07.2022
311 Clouds 34 1019 26 10000 6.17 280 17:19 21.07.2022
312 Clear 34 1020 26 10000 4.63 270 14:55 21.07.2022
313 Clear 32 1017 27 10000 4.63 260 14:29 21.07.2022
314 Clear 30 1018 32 10000 3.6 290 12:27 21.07.2022
315 Clear 27 1019 39 10000 4.12 300 10:48 21.07.2022
316 Clear 22 1019 49 10000 1.54 0 09:18 21.07.2022
317 Clear 20 1020 56 10000 1.03 0 08:45 21.07.2022
318 Clear 16 1020 67 10000 1.54 110 07:23 21.07.2022
319 Clear 15 1023 72 10000 2.57 150 03:55 21.07.2022
320 Clear 19 1022 55 10000 1.03 0 23:26 20.07.2022
321 Clear 20 1023 51 10000 4.63 200 22:21 20.07.2022
322 Clear 23 1023 45 10000 1.54 150 20:50 20.07.2022
323 Clear 26 1020 36 10000 3.09 90 19:49 20.07.2022
324 Clouds 27 1020 34 10000 4.12 80 19:20 20.07.2022
325 Clear 29 1020 26 10000 4.12 90 18:33 20.07.2022
326 Clear 29 1020 26 10000 3.6 90 17:43 20.07.2022
327 Clear 29 1020 24 10000 2.57 0 16:19 20.07.2022
328 Clouds 29 1021 28 10000 2.57 0 14:57 20.07.2022
329 Clouds 28 1022 30 10000 2.57 140 13:53 20.07.2022
330 Clear 29 1025 30 10000 3.58 90 11:32 20.07.2022
331 Clear 17 1024 59 10000 1.03 0 07:50 20.07.2022
332 Clear 15 1025 65 10000 2.06 130 02:45 20.07.2022
333 Clouds 17 1025 61 10000 1.54 110 00:46 20.07.2022
334 Clear 18 1025 55 10000 2.06 170 23:37 19.07.2022
335 Clouds 19 1025 51 10000 2.57 170 22:21 19.07.2022
336 Clear 21 1026 44 10000 2.06 40 20:54 19.07.2022
337 Clear 23 1026 39 10000 3.09 50 20:18 19.07.2022
338 Clear 26 1021 31 10000 5.14 50 18:43 19.07.2022
339 Clear 27 1021 29 10000 3.6 60 17:56 19.07.2022
340 Clouds 27 1021 28 10000 3.6 60 16:25 19.07.2022
341 Clouds 26 1023 34 10000 3.09 0 14:20 19.07.2022
342 Clouds 27 1026 33 10000 3.6 110 11:35 19.07.2022
343 Clear 23 1024 43 10000 2.06 80 09:58 19.07.2022
344 Clear 21 1024 56 10000 3.09 100 08:48 19.07.2022
345 Clear 20 1024 56 10000 4.12 100 08:21 19.07.2022
346 Clear 17 1024 72 10000 3.09 110 07:18 19.07.2022
347 Clear 14 1024 77 10000 3.09 120 05:26 19.07.2022
348 Clear 14 1024 77 10000 3.09 120 04:41 19.07.2022
349 Clouds 17 1028 63 10000 1.79 113 00:31 19.07.2022
350 Clouds 18 1026 59 10000 1.54 190 23:21 18.07.2022
351 Clouds 17 1028 61 10000 2.57 220 22:55 18.07.2022
352 Clouds 18 1028 57 10000 1.03 0 21:50 18.07.2022
353 Clear 21 1023 46 10000 1.03 0 20:50 18.07.2022
354 Clear 25 1025 36 10000 5.14 40 19:24 18.07.2022
355 Clear 26 1022 34 10000 4.63 30 16:52 18.07.2022
356 Clouds 29 1025 28 10000 4.12 20 15:42 18.07.2022
357 Clear 26 1023 29 10000 3.09 0 13:45 18.07.2022
358 Clear 27 1026 28 10000 2.06 0 12:37 18.07.2022
359 Clear 21 1024 30 10000 2.06 0 10:34 18.07.2022
360 Clear 19 1025 39 10000 2.57 290 08:50 18.07.2022
361 Clear 13 1025 67 10000 1.03 0 06:54 18.07.2022
362 Clear 20 1024 49 10000 3.6 280 23:31 17.07.2022
363 Clear 21 1023 46 10000 2.06 310 22:32 17.07.2022
364 Clear 22 1023 46 10000 2.57 290 21:44 17.07.2022
365 Clear 24 1022 43 10000 1.54 300 20:53 17.07.2022
366 Clear 24 1022 43 10000 1.03 0 20:35 17.07.2022
367 Clouds 27 1024 38 10000 2.57 320 19:26 17.07.2022
368 Clouds 28 1024 38 10000 4.02 0 18:26 17.07.2022
369 Clouds 29 1023 37 10000 2.06 300 17:37 17.07.2022
370 Clouds 30 1024 34 10000 4.02 293 16:50 17.07.2022
371 Clouds 31 1024 34 10000 2.57 0 16:25 17.07.2022
372 Clouds 29 1022 32 10000 4.12 310 14:20 17.07.2022
373 Clouds 29 1022 30 10000 5.14 310 13:24 17.07.2022
374 Clear 25 1023 41 10000 3.6 290 10:34 17.07.2022
375 Clear 24 1023 38 10000 2.57 280 08:38 17.07.2022
376 Clouds 18 1020 72 10000 0.51 0 02:43 17.07.2022
377 Clear 21 1022 59 10000 2.57 300 00:41 17.07.2022
378 Clear 22 1020 56 10000 2.06 310 23:19 16.07.2022
379 Clear 25 1018 50 10000 1.54 320 20:59 16.07.2022
380 Clear 30 1017 35 10000 2.57 350 18:59 16.07.2022
381 Clouds 31 1017 35 10000 3.09 350 17:53 16.07.2022
382 Clouds 32 1017 31 10000 2.06 0 16:24 16.07.2022
383 Clouds 33 1021 29 10000 3.6 270 13:47 16.07.2022
384 Clear 29 1021 42 10000 3.09 280 10:35 16.07.2022
385 Clear 27 1021 47 10000 2.68 293 09:29 16.07.2022
386 Clear 21 1019 56 10000 1.03 0 08:42 16.07.2022
387 Clear 18 1019 63 10000 1.03 0 07:41 16.07.2022
388 Clear 16 1021 73 10000 1.03 120 03:39 16.07.2022
389 Clear 18 1021 67 10000 0 0 01:39 16.07.2022
390 Clear 20 1019 58 10000 1.54 120 23:21 15.07.2022
391 Clear 21 1019 52 10000 1.03 0 22:37 15.07.2022
392 Clear 24 1019 44 10000 2.57 170 20:47 15.07.2022
393 Clear 27 1016 34 10000 3.09 70 19:49 15.07.2022
394 Clouds 30 1015 26 10000 4.12 90 18:30 15.07.2022
395 Clear 31 1018 27 10000 2.06 140 17:19 15.07.2022
396 Clear 30 1016 26 10000 2.57 0 14:35 15.07.2022
397 Clear 31 1018 27 10000 2.68 113 12:43 15.07.2022
398 Clear 25 1017 41 10000 1.54 0 10:53 15.07.2022
399 Clear 17 1018 63 10000 1.54 90 07:55 15.07.2022
400 Clear 15 1021 79 10000 1.54 120 05:54 15.07.2022
401 Clear 16 1020 69 10000 2.06 150 00:47 15.07.2022
402 Clear 17 1021 63 10000 2.06 120 23:25 14.07.2022
403 Clear 19 1020 57 10000 3.09 200 22:32 14.07.2022
404 Clear 20 1021 53 10000 2.57 190 21:41 14.07.2022
405 Clear 21 1021 48 10000 2.06 210 21:23 14.07.2022
406 Clear 20 1018 56 10000 0.51 290 20:43 14.07.2022
407 Clear 24 1020 40 10000 1.54 60 20:19 14.07.2022
408 Clear 27 1018 32 10000 4.63 40 18:38 14.07.2022
409 Clear 30 1021 26 10000 2.57 0 16:20 14.07.2022
410 Clear 28 1019 30 10000 1.54 0 15:26 14.07.2022
411 Clear 27 1020 28 10000 2.57 210 13:52 14.07.2022
412 Clear 28 1023 29 10000 2.57 0 12:36 14.07.2022
413 Clear 24 1021 38 10000 1.54 0 11:28 14.07.2022
414 Clear 23 1022 40 10000 1.54 230 10:52 14.07.2022
415 Clear 18 1022 55 10000 1.54 0 08:58 14.07.2022
416 Clear 11 1024 81 10000 1.54 90 05:18 14.07.2022
417 Clear 14 1022 67 10000 2.57 310 01:21 14.07.2022
418 Clear 14 1022 67 10000 2.57 310 01:21 14.07.2022
419 Clear 14 1022 67 10000 1.54 0 00:51 14.07.2022
420 Clouds 16 1022 63 10000 1.54 270 22:31 13.07.2022
421 Clouds 17 1022 55 10000 2.06 280 21:47 13.07.2022
422 Clouds 20 1021 45 10000 2.06 340 20:41 13.07.2022
423 Clouds 24 1022 37 10000 4.63 290 18:40 13.07.2022
424 Clouds 25 1022 34 10000 2.57 300 17:31 13.07.2022
425 Clouds 28 1024 31 10000 4.12 310 16:19 13.07.2022
426 Clouds 25 1022 33 10000 2.57 270 14:47 13.07.2022
427 Clouds 22 1021 37 10000 3.6 280 11:54 13.07.2022
428 Clouds 21 1021 40 10000 3.6 270 10:45 13.07.2022
429 Clear 20 1021 45 10000 4.12 290 09:54 13.07.2022
430 Clear 19 1021 48 10000 2.57 290 09:20 13.07.2022
431 Clear 10 1024 86 10000 1.54 30 05:22 13.07.2022
432 Clouds 13 1024 65 10000 1.54 280 01:22 13.07.2022
433 Clouds 15 1024 57 10000 1.03 0 23:21 12.07.2022
434 Clouds 16 1021 55 10000 3.09 280 21:53 12.07.2022
435 Clouds 19 1021 45 10000 3.6 290 20:57 12.07.2022
436 Clouds 19 1021 45 10000 3.6 290 20:37 12.07.2022
437 Clouds 21 1020 35 10000 5.66 290 18:53 12.07.2022
438 Clouds 24 1024 33 10000 6.17 290 17:32 12.07.2022
439 Clouds 23 1020 33 10000 6.17 280 15:37 12.07.2022
440 Clouds 22 1021 33 10000 4.63 290 13:55 12.07.2022
441 Clouds 20 1021 37 10000 2.57 350 11:59 12.07.2022
442 Clouds 20 1022 42 10000 2.06 0 10:47 12.07.2022
443 Clouds 17 1022 51 10000 3.09 290 09:19 12.07.2022
444 Clear 13 1022 67 10000 1.03 0 07:57 12.07.2022
445 Clouds 10 1024 83 10000 1.54 300 05:54 12.07.2022
446 Clouds 9 1024 84 10000 1.54 300 05:35 12.07.2022
447 Clear 10 1021 76 10000 3.09 300 01:36 12.07.2022
448 Clear 14 1021 58 10000 2.06 340 22:52 11.07.2022
449 Clear 14 1020 58 10000 3.6 290 21:44 11.07.2022
450 Clear 17 1020 48 10000 2.57 290 20:33 11.07.2022
451 Clear 19 1019 42 10000 4.63 290 19:32 11.07.2022
452 Clouds 22 1021 35 10000 6.69 290 18:30 11.07.2022
453 Clouds 21 1018 37 10000 5.66 300 17:31 11.07.2022
454 Clouds 22 1020 35 10000 6.69 290 15:34 11.07.2022
455 Clouds 23 1021 34 10000 7.72 280 13:37 11.07.2022
456 Clouds 21 1020 37 10000 8.75 290 11:33 11.07.2022
457 Clouds 19 1018 42 10000 8.23 310 10:18 11.07.2022
458 Clouds 18 1018 42 10000 8.23 300 09:40 11.07.2022
459 Clouds 17 1018 51 10000 6.69 290 08:33 11.07.2022
460 Clouds 14 1016 77 10000 3.09 300 02:59 11.07.2022
461 Clouds 16 1016 72 10000 2.06 290 00:18 11.07.2022
462 Clouds 17 1016 67 10000 3.6 280 22:52 10.07.2022
463 Clouds 18 1015 63 10000 4.63 280 21:20 10.07.2022
464 Clouds 19 1015 59 10000 4.12 280 20:41 10.07.2022
465 Clouds 20 1017 55 10000 5.66 280 19:40 10.07.2022
466 Clouds 22 1014 46 10000 6.69 290 18:43 10.07.2022
467 Clouds 23 1013 40 10000 7.72 280 17:36 10.07.2022
468 Clouds 24 1018 41 10000 6.69 290 16:41 10.07.2022
469 Clouds 23 1013 43 10000 2.57 330 15:20 10.07.2022
470 Clouds 24 1015 47 10000 2.57 330 13:48 10.07.2022
471 Clouds 22 1014 53 10000 3.09 250 12:26 10.07.2022
472 Clouds 20 1014 64 10000 5.14 270 09:57 10.07.2022
473 Clouds 18 1015 72 10000 4.12 300 08:44 10.07.2022
474 Clouds 16 1015 82 10000 4.63 280 07:29 10.07.2022
475 Clouds 15 1016 88 10000 2.57 280 01:23 10.07.2022
476 Clouds 16 1019 83 10000 5.14 270 22:27 09.07.2022
477 Clouds 16 1021 83 10000 5.14 270 21:56 09.07.2022
478 Clear 17 1018 80 10000 4.63 280 20:45 09.07.2022
479 Clouds 19 1018 74 10000 4.12 280 18:35 09.07.2022
480 Clouds 19 1018 76 10000 4.63 290 17:33 09.07.2022
481 Clouds 19 1017 72 10000 5.66 280 16:44 09.07.2022
482 Clouds 18 1019 77 10000 5.66 280 15:40 09.07.2022
483 Clouds 19 1020 78 10000 6.17 280 14:27 09.07.2022
484 Clouds 18 1021 82 10000 5.36 293 13:49 09.07.2022
485 Rain 19 1018 80 10000 3.09 330 12:43 09.07.2022
486 Rain 18 1018 83 10000 3.6 290 11:19 09.07.2022
487 Clouds 18 1020 83 10000 4.63 290 10:22 09.07.2022
488 Rain 16 1018 92 10000 3.6 280 07:45 09.07.2022
489 Clouds 16 1017 93 10000 4.12 280 04:53 09.07.2022
490 Rain 16 1018 86 10000 3.09 240 00:59 09.07.2022
491 Rain 16 1018 91 10000 3.09 190 22:53 08.07.2022
492 Rain 18 1018 78 10000 3.6 150 21:34 08.07.2022
493 Rain 20 1017 71 8000 5.14 120 20:40 08.07.2022
494 Clouds 21 1017 60 10000 2.06 100 19:48 08.07.2022
495 Clouds 22 1016 52 10000 3.09 120 18:23 08.07.2022
496 Rain 22 1016 62 10000 3.09 160 16:40 08.07.2022
497 Rain 22 1019 61 10000 7.2 140 14:51 08.07.2022
498 Rain 22 1019 61 10000 7.2 140 14:51 08.07.2022
499 Clouds 27 1014 41 10000 2.06 0 13:26 08.07.2022
500 Clouds 24 1016 53 10000 1.54 0 11:28 08.07.2022
501 Clouds 23 1016 56 10000 2.06 120 10:27 08.07.2022
502 Clear 19 1017 72 10000 1.03 0 08:26 08.07.2022
503 Clear 15 1017 88 10000 1.54 310 06:47 08.07.2022
504 Clouds 16 1019 80 10000 1.54 190 01:19 08.07.2022
505 Clouds 18 1019 76 10000 1.54 200 22:57 07.07.2022
506 Clouds 19 1019 73 10000 1.54 220 22:27 07.07.2022
507 Clouds 23 1015 56 10000 2.57 20 19:53 07.07.2022
508 Clouds 26 1015 44 10000 4.63 30 18:18 07.07.2022
509 Clouds 27 1020 41 10000 3.09 320 16:43 07.07.2022
510 Clouds 25 1016 41 10000 3.09 0 14:32 07.07.2022
511 Clouds 27 1019 42 10000 5.14 270 12:53 07.07.2022
512 Clouds 25 1017 47 10000 4.12 290 12:23 07.07.2022
513 Clouds 27 1019 41 10000 3.6 300 11:35 07.07.2022
514 Clouds 24 1017 46 10000 3.6 290 10:47 07.07.2022
515 Clouds 23 1017 49 10000 4.12 280 10:29 07.07.2022
516 Clear 22 1017 56 10000 4.12 300 09:52 07.07.2022
517 Clouds 18 1017 68 10000 4.63 280 06:32 07.07.2022
518 Clear 16 1016 66 10000 1.55 276 00:31 07.07.2022
519 Clear 16 1016 64 10000 1.51 256 23:36 06.07.2022
520 Clouds 20 1017 64 10000 2.57 290 23:18 06.07.2022
521 Clouds 20 1017 64 10000 2.57 290 22:52 06.07.2022
522 Clouds 20 1017 68 10000 2.57 290 22:33 06.07.2022
523 Clouds 20 1017 68 10000 2.57 290 22:33 06.07.2022
524 Clouds 23 1016 49 10000 2.57 300 20:30 06.07.2022
525 Clouds 24 1016 43 10000 5.14 290 19:32 06.07.2022
526 Clouds 26 1015 47 10000 6.69 280 17:21 06.07.2022
527 Clouds 26 1016 50 10000 7.2 290 15:57 06.07.2022
528 Clouds 23 1017 60 10000 5.66 280 12:57 06.07.2022
529 Clouds 23 1017 64 10000 5.14 300 12:21 06.07.2022
530 Clouds 22 1017 68 10000 4.12 280 10:55 06.07.2022
531 Clouds 20 1017 77 10000 4.12 280 09:27 06.07.2022
532 Clouds 20 1017 77 10000 4.12 280 09:27 06.07.2022
533 Clouds 19 1017 82 10000 4.12 290 07:44 06.07.2022
534 Clouds 19 1017 82 10000 4.12 290 07:44 06.07.2022
535 Clouds 18 1016 88 10000 3.09 280 06:44 06.07.2022
536 Thunderstorm 19 1018 88 9000 10.8 260 00:24 06.07.2022
537 Rain 24 1016 57 10000 3.6 90 22:43 05.07.2022
538 Clouds 25 1014 53 10000 4.12 120 20:49 05.07.2022
539 Clouds 26 1014 50 10000 4.12 120 20:21 05.07.2022
540 Clouds 28 1015 42 10000 5.14 120 19:37 05.07.2022
541 Clouds 31 1014 35 10000 6.17 120 17:50 05.07.2022
542 Clouds 31 1014 35 10000 6.17 120 17:19 05.07.2022
543 Clouds 32 1015 33 10000 4.63 130 16:25 05.07.2022
544 Clouds 30 1015 37 10000 4.12 110 14:54 05.07.2022
545 Clear 31 1016 37 10000 4.63 100 13:34 05.07.2022
546 Clear 29 1017 37 10000 2.57 90 12:22 05.07.2022
547 Clear 27 1018 34 10000 1.03 0 10:45 05.07.2022
548 Clear 25 1018 38 10000 1.03 0 09:52 05.07.2022
549 Clear 21 1018 49 10000 1.03 0 08:21 05.07.2022
550 Clear 18 1018 63 10000 2.06 60 06:48 05.07.2022
551 Clear 17 1018 63 10000 2.06 140 04:30 05.07.2022
552 Clear 20 1018 52 10000 4.63 110 00:47 05.07.2022
553 Clear 20 1018 73 10000 3.6 100 23:37 04.07.2022
554 Clear 21 1017 68 10000 3.09 120 22:54 04.07.2022
555 Clear 24 1017 57 10000 2.06 120 21:56 04.07.2022
556 Clear 25 1017 53 10000 1.03 0 20:55 04.07.2022
557 Clear 26 1016 50 10000 3.09 140 20:35 04.07.2022
558 Clear 27 1017 50 10000 2.57 150 19:56 04.07.2022
559 Clouds 28 1016 51 10000 4.63 150 19:36 04.07.2022
560 Clouds 30 1018 44 10000 3.6 150 18:34 04.07.2022
561 Clouds 30 1016 45 10000 3.6 110 16:36 04.07.2022
562 Clouds 30 1017 42 10000 5.14 100 15:34 04.07.2022
563 Clouds 32 1020 39 10000 3.09 0 13:35 04.07.2022
564 Clear 31 1021 39 10000 3.09 110 12:36 04.07.2022
565 Clear 26 1019 47 10000 1.54 0 10:35 04.07.2022
566 Clear 25 1019 44 10000 1.54 0 09:53 04.07.2022
567 Clear 21 1019 56 10000 1.54 120 08:31 04.07.2022
568 Clear 17 1022 76 10000 0 0 05:18 04.07.2022
569 Clouds 19 1019 82 10000 4.12 120 00:42 04.07.2022
570 Clouds 22 1024 68 10000 2.68 113 23:25 03.07.2022
571 Clear 24 1021 63 10000 2.57 90 20:59 03.07.2022
572 Clear 25 1023 57 10000 3.09 120 20:41 03.07.2022
573 Clear 26 1019 50 10000 3.6 100 19:41 03.07.2022
574 Clear 27 1021 51 10000 3.6 120 19:23 03.07.2022
575 Clear 29 1021 46 10000 5.66 90 17:45 03.07.2022
576 Clouds 30 1022 44 10000 8.23 90 15:55 03.07.2022
577 Clouds 32 1022 35 10000 5.14 100 15:24 03.07.2022
578 Clouds 30 1019 39 10000 4.63 120 14:32 03.07.2022
579 Clouds 32 1022 35 10000 4.12 110 13:48 03.07.2022
580 Clear 31 1023 40 10000 6.26 135 12:35 03.07.2022
581 Clear 30 1023 44 10000 2.57 100 11:29 03.07.2022
582 Clouds 29 1023 50 10000 2.06 110 10:39 03.07.2022
583 Clear 24 1021 60 10000 1.54 150 09:55 03.07.2022
584 Clear 19 1021 82 10000 1.03 0 07:35 03.07.2022
585 Clouds 17 1023 87 10000 2.06 130 04:22 03.07.2022
586 Clouds 20 1023 79 10000 3.09 100 00:22 03.07.2022
587 Clouds 22 1023 70 10000 2.06 180 22:34 02.07.2022
588 Clouds 23 1024 64 10000 3.6 260 21:28 02.07.2022
589 Rain 25 1023 63 10000 1.03 0 19:52 02.07.2022
590 Rain 25 1023 63 10000 2.06 230 19:20 02.07.2022
591 Clouds 25 1019 65 10000 3.09 210 17:42 02.07.2022
592 Clouds 28 1019 51 10000 2.57 200 16:53 02.07.2022
593 Clouds 31 1019 37 10000 4.63 30 14:40 02.07.2022
594 Clouds 31 1019 42 10000 2.06 0 12:21 02.07.2022
595 Clear 29 1020 45 10000 1.54 250 11:26 02.07.2022
596 Clear 27 1019 54 10000 1.03 0 10:39 02.07.2022
597 Clear 24 1019 60 10000 1.03 0 09:18 02.07.2022
598 Clear 22 1019 68 10000 0.51 0 08:20 02.07.2022
599 Clear 20 1019 77 10000 1.54 80 07:48 02.07.2022
600 Clear 18 1021 81 10000 1.54 110 02:50 02.07.2022
601 Clouds 21 1020 69 10000 2.57 140 23:59 01.07.2022
602 Clouds 24 1020 58 10000 1.54 190 22:41 01.07.2022
603 Clouds 24 1020 59 10000 1.03 0 21:48 01.07.2022
604 Clouds 24 1020 59 10000 2.06 170 21:28 01.07.2022
605 Clear 27 1019 49 10000 1.54 150 20:40 01.07.2022
606 Clear 28 1016 47 10000 3.09 170 19:46 01.07.2022
607 Clouds 31 1016 33 10000 4.12 110 17:53 01.07.2022
608 Clouds 32 1021 37 10000 6.17 90 16:22 01.07.2022
609 Clouds 32 1016 27 10000 2.57 130 13:55 01.07.2022
610 Clear 30 1017 35 10000 2.06 80 12:41 01.07.2022
611 Clear 26 1018 47 10000 1.03 0 10:20 01.07.2022
612 Clear 26 1018 47 10000 1.03 0 10:20 01.07.2022
613 Clear 25 1018 50 10000 1.03 0 09:43 01.07.2022
614 Clear 17 1020 82 10000 2.06 10 04:49 01.07.2022
615 Clouds 20 1019 68 10000 3.09 110 00:26 01.07.2022
616 Clouds 22 1019 62 10000 2.06 110 22:59 30.06.2022
617 Clouds 22 1019 61 10000 2.68 135 22:41 30.06.2022
618 Clouds 23 1019 60 10000 2.06 120 22:22 30.06.2022
619 Clouds 23 1018 62 10000 2.57 140 21:41 30.06.2022
620 Clear 26 1015 53 10000 3.09 110 20:30 30.06.2022
621 Clear 28 1015 47 10000 2.06 140 19:54 30.06.2022
622 Clear 29 1015 42 10000 3.6 160 19:24 30.06.2022
623 Clouds 30 1014 37 10000 3.6 150 18:42 30.06.2022
624 Clouds 31 1014 35 10000 3.6 140 17:44 30.06.2022
625 Clouds 31 1014 33 10000 3.09 120 16:55 30.06.2022
626 Clouds 31 1015 30 10000 3.09 140 15:39 30.06.2022
627 Clear 29 1016 37 10000 3.09 90 13:34 30.06.2022
628 Clear 29 1016 32 10000 3.09 100 12:35 30.06.2022
629 Clear 27 1016 44 10000 1.03 0 11:37 30.06.2022
630 Clear 23 1017 56 10000 1.03 0 09:55 30.06.2022
631 Clear 23 1017 60 10000 1.03 0 09:34 30.06.2022
632 Clear 21 1017 68 10000 0.51 0 08:18 30.06.2022
633 Clear 18 1017 77 10000 1.54 100 07:18 30.06.2022
634 Clear 17 1019 80 10000 1.54 160 01:42 30.06.2022
635 Clear 19 1019 75 10000 1.54 120 23:34 29.06.2022
636 Clear 21 1019 69 10000 2.06 120 22:40 29.06.2022
637 Clear 23 1018 63 10000 3.09 130 21:39 29.06.2022
638 Clear 25 1015 57 10000 2.57 60 20:34 29.06.2022
639 Clear 27 1016 50 10000 4.63 80 19:37 29.06.2022
640 Clear 29 1016 37 10000 3.6 50 17:45 29.06.2022
641 Clouds 30 1016 32 10000 2.57 360 16:43 29.06.2022
642 Clouds 30 1017 32 10000 2.06 0 15:26 29.06.2022
643 Clear 30 1021 40 10000 2.57 0 12:47 29.06.2022
644 Clear 25 1019 53 10000 1.03 0 11:32 29.06.2022
645 Clear 20 1019 77 10000 1.54 280 09:33 29.06.2022
646 Clear 17 1019 82 8000 1.03 0 08:26 29.06.2022
647 Clear 13 1022 97 10000 2.57 100 04:57 29.06.2022
648 Clear 15 1022 93 10000 0.51 0 01:41 29.06.2022
649 Clear 15 1022 92 10000 1.54 130 00:36 29.06.2022
650 Clear 17 1022 88 10000 2.06 160 22:55 28.06.2022
651 Rain 17 1022 87 10000 1.54 150 22:34 28.06.2022
652 Rain 17 1022 88 10000 2.06 200 21:55 28.06.2022
653 Rain 18 1022 82 10000 0.51 0 21:33 28.06.2022
654 Rain 19 1022 83 10000 1.54 180 20:50 28.06.2022
655 Thunderstorm 19 1018 77 10000 3.6 340 19:34 28.06.2022
656 Thunderstorm 23 1021 59 10000 5.14 50 18:53 28.06.2022
657 Clouds 27 1017 47 10000 2.06 110 17:42 28.06.2022
658 Clouds 29 1017 39 10000 2.06 0 16:21 28.06.2022
659 Clouds 29 1017 39 10000 2.06 70 15:42 28.06.2022
660 Clouds 28 1018 39 10000 2.57 0 14:21 28.06.2022
661 Clouds 28 1018 39 10000 4.12 70 13:54 28.06.2022
662 Clouds 27 1019 44 10000 1.54 0 12:57 28.06.2022
663 Clear 26 1019 50 10000 2.06 0 11:18 28.06.2022
664 Clear 21 1020 68 10000 1.54 220 09:30 28.06.2022
665 Clear 20 1020 73 10000 1.54 0 08:44 28.06.2022
666 Clear 19 1020 77 10000 1.03 0 07:42 28.06.2022
667 Clear 16 1020 88 10000 1.03 0 06:56 28.06.2022
668 Clear 17 1022 87 10000 1.03 0 00:58 28.06.2022
669 Clear 18 1022 81 10000 1.03 0 23:41 27.06.2022
670 Clear 19 1022 74 10000 1.03 0 22:52 27.06.2022
671 Clouds 21 1022 69 9000 2.06 160 21:38 27.06.2022
672 Clear 21 1019 68 10000 1.54 100 20:52 27.06.2022
673 Clouds 25 1019 53 10000 3.6 30 19:33 27.06.2022
674 Clouds 26 1019 44 10000 0.51 0 18:25 27.06.2022
675 Clouds 27 1019 47 10000 1.54 0 16:20 27.06.2022
676 Clouds 26 1019 47 10000 4.63 80 15:22 27.06.2022
677 Clouds 25 1019 53 10000 1.03 0 13:36 27.06.2022
678 Clouds 26 1020 53 10000 1.03 0 12:56 27.06.2022
679 Clouds 23 1020 56 10000 1.54 260 10:34 27.06.2022
680 Clear 20 1020 77 10000 1.54 0 09:20 27.06.2022
681 Clear 18 1020 82 10000 1.03 0 08:29 27.06.2022
682 Clear 14 1020 94 10000 1.54 100 06:38 27.06.2022
683 Clear 15 1023 90 10000 1.54 160 03:24 27.06.2022
684 Clear 17 1023 83 10000 1.03 160 23:56 26.06.2022
685 Clouds 20 1023 73 10000 2.06 130 21:59 26.06.2022
686 Clear 21 1023 68 10000 1.54 280 20:44 26.06.2022
687 Clouds 21 1018 64 10000 2.57 20 19:40 26.06.2022
688 Clouds 22 1018 64 10000 5.14 300 18:31 26.06.2022
689 Rain 24 1020 58 10000 4.63 300 16:45 26.06.2022
690 Rain 23 1017 64 10000 4.12 360 14:42 26.06.2022
691 Clouds 25 1017 61 10000 2.06 20 13:38 26.06.2022
692 Clouds 25 1017 61 10000 2.06 20 13:18 26.06.2022
693 Clouds 23 1018 64 10000 2.06 0 11:26 26.06.2022
694 Clouds 22 1018 78 10000 1.54 60 10:26 26.06.2022
695 Clouds 20 1018 77 10000 2.06 270 09:22 26.06.2022
696 Clouds 19 1019 84 10000 2.57 280 07:41 26.06.2022
697 Rain 17 1018 90 10000 3.09 290 01:53 26.06.2022
698 Rain 18 1018 89 10000 1.54 360 00:20 26.06.2022
699 Rain 18 1018 89 10000 2.68 270 23:49 25.06.2022
700 Rain 18 1018 86 10000 7.2 250 22:57 25.06.2022
701 Rain 18 1018 81 10000 7.2 260 22:27 25.06.2022
702 Rain 19 1018 82 10000 4.12 300 21:40 25.06.2022
703 Rain 19 1018 82 10000 4.12 300 21:18 25.06.2022
704 Rain 21 1017 65 8000 4.47 293 20:27 25.06.2022
705 Rain 24 1016 67 10000 2.06 140 19:20 25.06.2022
706 Clear 28 1013 47 10000 1.54 0 17:53 25.06.2022
707 Clouds 27 1014 47 10000 0.51 0 17:19 25.06.2022
708 Clouds 29 1014 48 10000 3.09 40 14:59 25.06.2022
709 Clear 27 1015 47 10000 3.09 320 12:57 25.06.2022
710 Clouds 26 1015 50 10000 3.09 320 12:37 25.06.2022
711 Clear 23 1015 64 10000 1.03 0 10:32 25.06.2022
712 Clouds 19 1016 77 10000 1.03 0 08:57 25.06.2022
713 Clouds 18 1015 82 10000 0.51 0 08:35 25.06.2022
714 Clouds 20 1017 71 10000 1.03 0 07:45 25.06.2022
715 Clouds 15 1017 87 10000 1.54 100 03:30 25.06.2022
716 Clouds 17 1017 80 10000 2.06 160 00:33 25.06.2022
717 Clouds 18 1017 74 10000 2.57 100 22:51 24.06.2022
718 Clouds 20 1017 69 10000 1.54 100 21:31 24.06.2022
719 Clear 23 1019 54 10000 1.03 0 20:25 24.06.2022
720 Clear 25 1014 50 10000 1.54 340 19:52 24.06.2022
721 Clear 25 1014 50 10000 2.06 320 19:19 24.06.2022
722 Clouds 25 1014 47 10000 3.09 310 18:47 24.06.2022
723 Clouds 26 1014 44 10000 3.09 310 18:29 24.06.2022
724 Clouds 26 1015 44 10000 2.06 0 16:52 24.06.2022
725 Clouds 25 1016 47 10000 1.54 0 15:27 24.06.2022
726 Clouds 25 1015 50 10000 2.57 330 14:25 24.06.2022
727 Clouds 25 1016 47 10000 2.57 0 13:46 24.06.2022
728 Clouds 24 1016 57 10000 2.06 0 11:42 24.06.2022
729 Clouds 21 1016 68 10000 2.06 0 10:42 24.06.2022
730 Clouds 20 1016 73 10000 2.06 310 09:42 24.06.2022
731 Clouds 19 1016 77 10000 2.06 250 08:54 24.06.2022
732 Clouds 18 1016 82 10000 2.06 230 08:32 24.06.2022
733 Clouds 15 1018 88 10000 1.54 120 06:45 24.06.2022
734 Clouds 15 1018 88 10000 1.54 120 06:26 24.06.2022
735 Clouds 14 1018 91 10000 2.06 70 04:50 24.06.2022
736 Clouds 19 1020 74 10000 2.06 120 23:43 23.06.2022
737 Clouds 18 1018 81 10000 1.79 293 23:43 23.06.2022
738 Clear 19 1016 77 10000 2.57 130 22:43 23.06.2022
739 Clear 20 1016 77 10000 0.51 300 21:22 23.06.2022
740 Clouds 21 1015 68 10000 2.06 300 20:37 23.06.2022
741 Clouds 22 1015 64 10000 1.54 310 19:54 23.06.2022
742 Clouds 25 1019 56 10000 2.57 20 18:27 23.06.2022
743 Clouds 25 1013 57 10000 5.66 300 17:34 23.06.2022
744 Clouds 26 1016 55 10000 4.92 315 16:29 23.06.2022
745 Clouds 26 1016 58 10000 6.71 315 15:26 23.06.2022
746 Clouds 24 1014 64 10000 2.57 290 14:34 23.06.2022
747 Clouds 20 1014 68 10000 2.57 90 11:41 23.06.2022
748 Clouds 26 1019 59 10000 2.57 10 10:40 23.06.2022
749 Clouds 17 1014 88 10000 3.6 220 09:19 23.06.2022
750 Clouds 16 1015 82 10000 1.03 0 04:48 23.06.2022
751 Clouds 21 1016 63 10000 4.92 293 00:27 23.06.2022
752 Clouds 22 1018 61 10000 4.63 280 23:52 22.06.2022
753 Clouds 22 1014 60 10000 4.63 280 22:53 22.06.2022
754 Clouds 23 1014 56 10000 2.06 330 21:28 22.06.2022
755 Clouds 24 1013 50 10000 2.57 300 20:48 22.06.2022
756 Clouds 24 1013 50 10000 4.12 280 20:18 22.06.2022
757 Clear 26 1012 47 10000 8.23 280 18:57 22.06.2022
758 Clouds 27 1012 47 10000 8.23 290 17:31 22.06.2022
759 Clouds 28 1012 44 10000 8.75 300 16:40 22.06.2022
760 Clouds 30 1017 49 10000 7.2 280 15:28 22.06.2022
761 Clouds 28 1012 51 10000 6.69 300 14:40 22.06.2022
762 Clouds 28 1015 51 10000 9.26 290 13:45 22.06.2022
763 Clouds 28 1012 51 10000 7.72 300 13:23 22.06.2022
764 Clouds 27 1012 54 10000 9.26 280 11:50 22.06.2022
765 Clouds 27 1012 54 10000 9.26 280 11:50 22.06.2022
766 Clouds 27 1013 57 10000 6.69 290 10:58 22.06.2022
767 Clear 26 1013 61 10000 5.14 300 10:26 22.06.2022
768 Clear 24 1013 69 10000 5.14 280 08:48 22.06.2022
769 Clear 17 1013 94 10000 2.06 50 06:21 22.06.2022
770 Clouds 20 1015 76 10000 1.54 330 01:52 22.06.2022
771 Clear 22 1013 68 10000 3.6 290 00:56 22.06.2022
772 Clear 24 1013 60 10000 4.12 290 22:40 21.06.2022
773 Clear 25 1012 57 10000 4.12 290 20:40 21.06.2022
774 Clouds 27 1015 51 10000 5.14 290 19:18 21.06.2022
775 Clouds 28 1012 47 10000 7.2 290 17:44 21.06.2022
776 Clouds 29 1012 45 10000 6.17 290 16:34 21.06.2022
777 Clear 27 1013 47 10000 8.23 290 11:56 21.06.2022
778 Clear 22 1013 60 10000 1.54 0 10:27 21.06.2022
779 Clear 19 1013 63 10000 1.03 0 08:51 21.06.2022
780 Clear 15 1013 77 10000 2.06 90 07:35 21.06.2022
781 Clear 13 1017 83 10000 1.54 140 04:40 21.06.2022
782 Clear 17 1015 68 10000 1.54 100 23:27 20.06.2022
783 Clear 19 1015 57 10000 3.6 200 21:59 20.06.2022
784 Clear 19 1015 61 10000 1.54 160 21:32 20.06.2022
785 Clear 22 1013 53 10000 2.06 60 20:25 20.06.2022
786 Clear 26 1013 36 10000 1.54 340 18:56 20.06.2022
787 Clear 26 1013 34 10000 2.06 350 18:24 20.06.2022
788 Clear 26 1013 31 10000 1.54 280 17:41 20.06.2022
789 Clear 26 1013 38 10000 1.54 280 16:21 20.06.2022
790 Clear 26 1014 34 10000 1.54 360 14:29 20.06.2022
791 Clouds 24 1016 38 10000 2.06 0 11:47 20.06.2022
792 Clear 20 1016 56 10000 1.54 90 09:55 20.06.2022
793 Clear 18 1017 68 10000 1.03 0 08:45 20.06.2022
794 Clear 14 1017 77 10000 0.51 0 07:35 20.06.2022
795 Clear 12 1020 84 10000 1.03 260 03:51 20.06.2022
796 Clear 15 1020 76 10000 2.06 150 00:52 20.06.2022
797 Clear 16 1021 70 10000 2.06 110 23:29 19.06.2022
798 Clear 18 1021 61 10000 2.57 140 22:19 19.06.2022
799 Clear 16 1019 72 10000 1.54 150 21:42 19.06.2022
800 Clear 20 1019 52 10000 2.06 80 20:48 19.06.2022
801 Clear 22 1018 43 10000 3.6 50 19:48 19.06.2022
802 Clouds 23 1018 43 10000 3.6 40 19:24 19.06.2022
803 Clouds 22 1018 49 10000 5.14 90 18:31 19.06.2022
804 Clouds 24 1019 41 10000 3.09 90 17:39 19.06.2022
805 Clouds 24 1019 41 10000 3.09 360 16:39 19.06.2022
806 Clouds 24 1021 39 10000 2.57 90 15:44 19.06.2022
807 Clouds 25 1019 36 10000 3.09 30 15:26 19.06.2022
808 Clouds 25 1020 33 10000 4.12 80 14:35 19.06.2022
809 Clouds 24 1020 33 10000 4.12 100 13:44 19.06.2022
810 Clouds 23 1021 43 10000 3.6 100 11:53 19.06.2022
811 Clouds 22 1021 43 10000 3.6 110 10:52 19.06.2022
812 Clear 18 1022 72 10000 1.03 0 08:55 19.06.2022
813 Clear 16 1022 82 10000 1.54 170 08:30 19.06.2022
814 Clear 13 1022 94 8000 2.06 80 06:48 19.06.2022
815 Clear 12 1023 95 10000 1.03 110 03:37 19.06.2022
816 Clear 13 1023 90 10000 0 0 00:28 19.06.2022
817 Clouds 13 1023 90 10000 1.54 160 23:52 18.06.2022
818 Clear 14 1023 83 10000 1.54 230 23:34 18.06.2022
819 Clear 16 1023 78 10000 1.54 210 21:54 18.06.2022
820 Clouds 18 1020 72 10000 1.54 140 20:50 18.06.2022
821 Clouds 19 1020 68 10000 1.03 0 20:18 18.06.2022
822 Clouds 21 1019 56 10000 2.57 120 18:55 18.06.2022
823 Clouds 21 1019 60 10000 4.12 120 18:30 18.06.2022
824 Clouds 22 1019 56 10000 5.66 100 17:29 18.06.2022
825 Clouds 22 1019 56 10000 4.12 50 15:46 18.06.2022
826 Clouds 23 1020 53 10000 5.14 20 14:50 18.06.2022
827 Clouds 21 1022 67 10000 6.69 50 13:58 18.06.2022
828 Clouds 20 1019 68 10000 2.06 300 12:28 18.06.2022
829 Clouds 21 1020 56 10000 3.6 300 10:59 18.06.2022
830 Clear 20 1020 64 10000 3.6 310 09:31 18.06.2022
831 Clear 18 1020 77 10000 3.6 290 08:40 18.06.2022
832 Clouds 17 1019 77 8000 4.12 280 07:34 18.06.2022
833 Clouds 14 1019 94 10000 3.6 300 05:20 18.06.2022
834 Clouds 15 1020 94 10000 1.03 0 01:47 18.06.2022
835 Clouds 15 1020 94 10000 1.54 10 01:21 18.06.2022
836 Clouds 16 1020 94 10000 2.06 340 00:23 18.06.2022
837 Clouds 16 1019 88 10000 1.54 280 23:36 17.06.2022
838 Clouds 16 1019 94 10000 2.06 310 22:27 17.06.2022
839 Clouds 18 1021 76 10000 1.79 293 20:29 17.06.2022
840 Clouds 19 1020 74 10000 3.6 260 19:24 17.06.2022
841 Rain 19 1023 72 10000 3.6 340 17:56 17.06.2022
842 Clouds 25 1017 47 10000 3.09 350 16:44 17.06.2022
843 Clouds 24 1017 50 10000 2.57 330 16:25 17.06.2022
844 Clouds 25 1018 44 10000 2.57 320 15:37 17.06.2022
845 Clouds 22 1018 49 10000 2.57 340 14:23 17.06.2022
846 Clouds 27 1022 42 10000 4.12 320 13:58 17.06.2022
847 Clouds 25 1018 38 10000 3.6 290 13:38 17.06.2022
848 Clouds 24 1018 53 10000 1.54 0 12:24 17.06.2022
849 Clear 24 1019 50 10000 1.03 0 11:50 17.06.2022
850 Clear 23 1019 53 10000 1.03 0 11:32 17.06.2022
851 Clear 19 1020 63 10000 1.54 120 08:56 17.06.2022
852 Clear 18 1020 68 10000 2.06 110 08:25 17.06.2022
853 Clear 15 1020 77 10000 2.06 100 06:42 17.06.2022
854 Clear 14 1021 80 10000 2.57 120 03:42 17.06.2022
855 Clear 15 1022 79 10000 3.09 110 01:55 17.06.2022
856 Clouds 16 1020 82 10000 5.14 100 23:35 16.06.2022
857 Clouds 16 1020 82 10000 3.09 120 22:41 16.06.2022
858 Clear 19 1019 72 10000 4.63 110 21:21 16.06.2022
859 Clear 20 1019 68 10000 5.66 90 20:51 16.06.2022
860 Clouds 22 1019 60 10000 5.14 100 20:27 16.06.2022
861 Clouds 23 1018 56 10000 6.17 90 19:31 16.06.2022
862 Clouds 26 1018 38 10000 2.57 140 17:54 16.06.2022
863 Clouds 26 1019 38 10000 2.06 110 17:33 16.06.2022
864 Clouds 26 1019 41 10000 1.54 150 16:24 16.06.2022
865 Clouds 25 1019 41 10000 2.57 160 15:21 16.06.2022
866 Clouds 25 1020 44 10000 1.54 0 14:27 16.06.2022
867 Clouds 25 1020 44 10000 2.06 0 12:56 16.06.2022
868 Clouds 23 1020 46 10000 2.57 110 12:34 16.06.2022
869 Clouds 23 1021 53 10000 2.06 110 11:49 16.06.2022
870 Clouds 21 1021 64 10000 3.6 100 10:42 16.06.2022
871 Clouds 21 1021 68 10000 3.09 100 09:43 16.06.2022
872 Clouds 20 1021 68 10000 3.09 80 09:19 16.06.2022
873 Clear 15 1021 88 10000 1.03 0 07:57 16.06.2022
874 Clouds 14 1021 88 10000 1.54 350 06:49 16.06.2022
875 Clouds 12 1024 89 10000 0 0 04:27 16.06.2022
876 Clouds 13 1023 89 10000 1.54 160 01:53 16.06.2022
877 Clouds 14 1023 86 10000 2.06 110 01:32 16.06.2022
878 Clouds 14 1023 86 10000 1.03 0 00:31 16.06.2022
879 Clouds 15 1025 80 10000 1.03 0 22:59 15.06.2022
880 Clouds 16 1025 75 10000 3.13 338 21:55 15.06.2022
881 Clouds 17 1025 69 10000 2.06 160 21:20 15.06.2022
882 Clouds 20 1020 60 10000 2.06 80 20:37 15.06.2022
883 Clouds 20 1020 60 10000 2.06 80 20:18 15.06.2022
884 Clear 22 1020 56 10000 3.6 30 18:47 15.06.2022
885 Clear 23 1020 49 10000 3.6 20 17:54 15.06.2022
886 Clouds 24 1020 46 10000 3.6 0 16:35 15.06.2022
887 Clear 24 1020 43 10000 2.57 0 15:22 15.06.2022
888 Clear 23 1021 43 10000 3.09 0 13:29 15.06.2022
889 Clouds 22 1021 43 10000 3.6 280 12:51 15.06.2022
890 Clear 21 1021 46 10000 3.6 290 11:37 15.06.2022
891 Clear 20 1021 49 10000 3.6 300 10:22 15.06.2022
892 Clear 19 1021 52 10000 4.12 300 09:34 15.06.2022
893 Clear 16 1021 67 10000 3.6 300 07:58 15.06.2022
894 Clear 12 1020 82 10000 4.12 320 05:58 15.06.2022
895 Clear 14 1020 72 10000 1.54 20 02:56 15.06.2022
896 Clear 16 1020 67 10000 5.14 280 01:37 15.06.2022
897 Clouds 16 1020 72 10000 6.17 270 00:37 15.06.2022
898 Clouds 17 1020 67 10000 5.66 270 23:38 14.06.2022
899 Clouds 17 1020 67 10000 5.66 280 22:48 14.06.2022
900 Clouds 18 1019 68 10000 6.69 270 21:44 14.06.2022
901 Clouds 18 1019 68 10000 6.69 280 21:21 14.06.2022
902 Clear 20 1018 60 10000 7.2 280 20:40 14.06.2022
903 Clear 21 1018 56 10000 6.69 280 19:58 14.06.2022
904 Clouds 23 1017 46 10000 6.69 280 18:40 14.06.2022
905 Clouds 24 1016 41 10000 6.69 280 17:19 14.06.2022
906 Clouds 24 1017 46 10000 6.17 290 16:42 14.06.2022
907 Clouds 24 1017 53 10000 5.14 290 15:43 14.06.2022
908 Clouds 20 1017 73 10000 5.66 270 14:56 14.06.2022
909 Clouds 21 1017 64 8000 5.66 250 14:18 14.06.2022
910 Rain 18 1018 77 10000 5.14 280 13:24 14.06.2022
911 Rain 23 1018 64 10000 5.66 290 11:58 14.06.2022
912 Clouds 23 1018 64 10000 5.14 280 10:52 14.06.2022
913 Clouds 21 1018 73 10000 4.63 280 10:29 14.06.2022
914 Clouds 20 1018 77 10000 3.6 290 09:22 14.06.2022
915 Clouds 20 1020 80 10000 1.03 0 08:37 14.06.2022
916 Clear 20 1020 84 10000 1.03 0 06:32 14.06.2022
917 Clear 15 1018 94 9000 1.03 0 03:52 14.06.2022
918 Clear 16 1016 94 10000 0 0 01:37 14.06.2022
919 Clear 17 1016 82 10000 1.03 0 00:21 14.06.2022
920 Clear 19 1016 77 10000 3.09 300 22:45 13.06.2022
921 Clear 19 1016 82 10000 1.54 310 22:22 13.06.2022
922 Clear 21 1015 68 10000 1.54 300 21:26 13.06.2022
923 Clouds 23 1014 60 10000 2.06 300 19:59 13.06.2022
924 Clouds 25 1014 47 10000 2.06 350 18:54 13.06.2022
925 Clouds 25 1014 47 10000 1.54 0 17:55 13.06.2022
926 Clouds 26 1014 38 10000 2.57 80 17:24 13.06.2022
927 Clouds 26 1014 41 10000 2.06 0 16:30 13.06.2022
928 Clouds 25 1015 53 10000 1.54 0 14:49 13.06.2022
929 Clouds 25 1015 53 10000 0 0 14:31 13.06.2022
930 Clouds 25 1016 53 10000 2.57 0 13:31 13.06.2022
931 Clouds 24 1016 57 10000 2.06 0 12:22 13.06.2022
932 Clouds 21 1016 73 10000 1.54 310 10:37 13.06.2022
933 Clouds 20 1016 77 10000 1.03 0 09:54 13.06.2022
934 Clouds 17 1016 94 8000 1.03 0 08:40 13.06.2022
935 Fog 14 1016 100 1500 1.54 300 06:36 13.06.2022
936 Clouds 13 1018 97 10000 1.03 260 04:43 13.06.2022
937 Clouds 15 1018 94 7000 0 0 01:45 13.06.2022
938 Clouds 15 1018 96 10000 2.06 250 01:18 13.06.2022
939 Clouds 15 1019 93 10000 1.54 290 23:43 12.06.2022
940 Clouds 15 1019 96 10000 1.54 280 22:36 12.06.2022
941 Rain 16 1019 92 10000 2.57 290 21:46 12.06.2022
942 Clouds 17 1018 90 10000 2.57 270 20:49 12.06.2022
943 Rain 16 1018 90 10000 4.12 260 19:49 12.06.2022
944 Rain 17 1018 89 6000 2.06 310 18:54 12.06.2022
945 Clouds 20 1018 83 10000 1.54 260 17:24 12.06.2022
946 Rain 22 1014 64 10000 2.06 120 15:44 12.06.2022
947 Clouds 22 1014 68 10000 1.03 0 14:50 12.06.2022
948 Rain 21 1018 72 10000 1.54 110 14:18 12.06.2022
949 Clouds 21 1015 68 10000 1.03 0 13:44 12.06.2022
950 Rain 19 1017 83 10000 2.06 290 12:22 12.06.2022
951 Rain 18 1015 82 10000 1.54 220 10:46 12.06.2022
952 Rain 18 1014 82 10000 3.09 280 09:36 12.06.2022
953 Clouds 17 1014 88 10000 3.6 280 08:50 12.06.2022
954 Clouds 17 1014 88 10000 6.17 270 07:51 12.06.2022
955 Clouds 16 1015 90 10000 4.63 280 06:27 12.06.2022
956 Clouds 16 1015 91 10000 4.63 280 03:44 12.06.2022
957 Clouds 16 1016 90 10000 2.57 270 01:49 12.06.2022
958 Clouds 16 1016 90 10000 3.09 270 01:29 12.06.2022
959 Clouds 17 1016 88 10000 2.57 300 00:43 12.06.2022
960 Clouds 17 1016 89 10000 1.54 290 00:18 12.06.2022
961 Clouds 17 1016 90 10000 2.06 290 22:58 11.06.2022
962 Clouds 17 1016 90 10000 1.03 0 22:31 11.06.2022
963 Rain 17 1016 89 10000 1.54 250 21:18 11.06.2022
964 Clouds 17 1015 89 10000 2.57 230 20:26 11.06.2022
965 Rain 17 1015 86 8000 2.06 360 19:33 11.06.2022
966 Rain 17 1015 86 8000 2.06 360 19:33 11.06.2022
967 Rain 18 1015 85 8000 2.57 20 18:42 11.06.2022
968 Rain 18 1015 85 8000 2.57 20 18:24 11.06.2022
969 Clouds 18 1013 88 10000 2.57 290 17:38 11.06.2022
970 Clouds 18 1013 88 10000 2.57 290 17:19 11.06.2022
971 Rain 17 1013 94 10000 2.57 300 16:42 11.06.2022
972 Rain 18 1015 85 10000 3.09 350 15:47 11.06.2022
973 Clouds 19 1012 82 10000 2.57 280 14:23 11.06.2022
974 Clouds 18 1012 88 10000 2.57 310 13:47 11.06.2022
975 Clouds 20 1012 73 10000 2.06 320 11:36 11.06.2022
976 Clouds 18 1012 82 10000 1.03 0 10:29 11.06.2022
977 Clouds 17 1012 88 8000 1.54 240 09:40 11.06.2022
978 Rain 16 1014 93 7000 1.54 280 08:21 11.06.2022
979 Rain 16 1013 95 6000 1.03 0 06:32 11.06.2022
980 Rain 15 1012 95 5000 0 0 05:26 11.06.2022
981 Rain 16 1012 97 5000 2.06 180 02:35 11.06.2022
982 Rain 17 1012 94 7000 2.57 190 01:41 11.06.2022
983 Rain 16 1013 96 6000 0.51 0 00:37 11.06.2022
984 Clouds 16 1013 92 9000 1.54 60 22:38 10.06.2022
985 Clouds 16 1013 91 8000 1.54 30 21:56 10.06.2022
986 Clouds 16 1012 91 10000 25.48 225 20:55 10.06.2022
987 Clouds 16 1012 92 10000 2.06 180 20:36 10.06.2022
988 Clouds 16 1012 92 10000 2.06 180 20:18 10.06.2022
989 Rain 17 1012 89 8000 2.57 180 19:18 10.06.2022
990 Rain 17 1012 89 8000 2.57 180 19:18 10.06.2022
991 Rain 17 1012 92 6000 25.48 270 18:20 10.06.2022
992 Rain 17 1011 88 8000 1.03 0 17:37 10.06.2022
993 Rain 20 1012 77 8000 5.36 113 16:59 10.06.2022
994 Clouds 22 1011 66 10000 2.06 60 16:20 10.06.2022
995 Clouds 20 1009 77 10000 1.54 0 15:36 10.06.2022
996 Rain 20 1012 86 5000 1.54 270 13:52 10.06.2022
997 Rain 17 1010 88 4400 2.06 320 12:41 10.06.2022
998 Rain 20 1012 71 10000 2.68 90 11:40 10.06.2022
999 Rain 20 1012 77 10000 1.79 90 10:43 10.06.2022
1000 Clouds 19 1013 83 10000 2.57 120 09:44 10.06.2022
1001 Clouds 17 1011 90 10000 2.06 110 08:28 10.06.2022
1002 Rain 16 1011 92 10000 1.54 100 06:53 10.06.2022
1003 Rain 16 1010 90 10000 1.54 110 06:32 10.06.2022
1004 Rain 16 1010 89 10000 1.54 130 05:48 10.06.2022
1005 Clouds 16 1010 90 10000 2.57 130 03:41 10.06.2022
1006 Rain 16 1010 87 10000 1.03 0 01:38 10.06.2022
1007 Clouds 16 1010 85 10000 1.54 340 00:25 10.06.2022
1008 Clouds 17 1012 82 10000 2.57 290 23:25 09.06.2022
1009 Rain 17 1011 80 10000 2.57 60 21:47 09.06.2022
1010 Rain 17 1011 80 10000 5.66 100 21:29 09.06.2022
1011 Clouds 19 1012 67 10000 5.14 90 20:54 09.06.2022
1012 Clouds 19 1011 68 10000 6.17 100 19:55 09.06.2022
1013 Rain 20 1009 68 10000 6.17 120 18:47 09.06.2022
1014 Clouds 21 1010 62 10000 7.72 120 17:56 09.06.2022
1015 Clouds 20 1007 77 10000 2.57 120 16:44 09.06.2022
1016 Clouds 22 1009 59 6000 3.6 330 15:44 09.06.2022
1017 Clouds 26 1011 46 10000 1.54 40 14:34 09.06.2022
1018 Clouds 25 1007 38 10000 1.54 0 13:46 09.06.2022
1019 Clouds 24 1008 53 10000 1.54 0 13:26 09.06.2022
1020 Clouds 22 1009 56 10000 2.06 130 11:53 09.06.2022
1021 Clouds 20 1009 73 10000 1.54 50 10:40 09.06.2022
1022 Clouds 19 1010 77 10000 1.54 30 09:42 09.06.2022
1023 Clouds 18 1010 77 10000 1.03 0 09:23 09.06.2022
1024 Clouds 15 1010 94 8000 1.03 0 07:34 09.06.2022
1025 Fog 14 1012 95 300 1.54 310 05:27 09.06.2022
1026 Clouds 15 1013 95 10000 1.03 0 01:44 09.06.2022
1027 Clouds 15 1014 95 10000 3.6 110 23:24 08.06.2022
1028 Rain 16 1014 92 10000 3.6 100 22:50 08.06.2022
1029 Rain 16 1014 92 10000 3.09 90 22:25 08.06.2022
1030 Rain 16 1014 91 10000 2.06 170 21:48 08.06.2022
1031 Rain 16 1014 91 8000 2.06 140 20:33 08.06.2022
1032 Thunderstorm 16 1014 92 8000 0.51 0 19:49 08.06.2022
1033 Thunderstorm 16 1012 94 8000 4.63 280 18:56 08.06.2022
1034 Thunderstorm 15 1012 100 3000 9.26 270 18:22 08.06.2022
1035 Clouds 25 1012 43 10000 3.09 60 16:30 08.06.2022
1036 Clouds 26 1010 36 10000 2.57 140 14:54 08.06.2022
1037 Clouds 25 1010 38 10000 2.06 0 13:36 08.06.2022
1038 Clouds 24 1011 43 10000 2.06 0 11:50 08.06.2022
1039 Clear 23 1011 46 10000 2.57 100 11:22 08.06.2022
1040 Clouds 21 1012 52 10000 1.54 100 09:46 08.06.2022
1041 Clear 19 1012 63 10000 1.03 0 09:19 08.06.2022
1042 Clear 15 1012 77 10000 1.54 90 07:30 08.06.2022
1043 Clear 13 1014 89 10000 1.03 0 05:20 08.06.2022
1044 Clear 13 1015 84 10000 2.06 150 02:28 08.06.2022
1045 Clouds 17 1017 70 10000 3.09 90 23:41 07.06.2022
1046 Clear 17 1018 68 10000 3.6 100 23:22 07.06.2022
1047 Clear 17 1014 72 10000 2.57 150 22:38 07.06.2022
1048 Clear 18 1014 68 10000 3.6 150 21:45 07.06.2022
1049 Clouds 18 1013 68 10000 3.6 150 21:24 07.06.2022
1050 Clouds 19 1013 63 10000 2.57 80 20:43 07.06.2022
1051 Clouds 21 1013 56 10000 4.12 60 19:59 07.06.2022
1052 Clouds 23 1013 46 10000 4.63 50 18:42 07.06.2022
1053 Clouds 24 1013 46 10000 4.63 50 17:51 07.06.2022
1054 Clouds 24 1013 43 10000 4.12 70 16:49 07.06.2022
1055 Clouds 24 1013 43 10000 4.12 80 16:31 07.06.2022
1056 Clouds 25 1014 41 10000 3.6 80 15:38 07.06.2022
1057 Clouds 25 1014 41 10000 3.6 60 15:19 07.06.2022
1058 Clouds 25 1014 44 10000 3.6 90 14:44 07.06.2022
1059 Clouds 25 1017 47 10000 3.6 100 13:42 07.06.2022
1060 Clouds 25 1016 45 10000 4.12 120 13:42 07.06.2022
1061 Clouds 25 1017 47 10000 3.6 100 13:23 07.06.2022
1062 Clouds 23 1016 49 10000 3.09 0 11:56 07.06.2022
1063 Clouds 23 1016 49 10000 3.09 0 11:56 07.06.2022
1064 Clear 22 1016 60 10000 2.06 0 10:57 07.06.2022
1065 Clouds 19 1017 77 10000 1.54 130 09:28 07.06.2022
1066 Clouds 17 1017 88 8000 2.06 30 08:28 07.06.2022
1067 Clouds 17 1019 89 7000 2.24 0 07:19 07.06.2022
1068 Clouds 14 1019 96 10000 0 0 04:52 07.06.2022
1069 Clouds 14 1019 95 10000 2.57 150 01:43 07.06.2022
1070 Clouds 16 1019 90 10000 1.03 260 23:59 06.06.2022
1071 Clouds 17 1019 86 10000 1.54 270 22:59 06.06.2022
1072 Clouds 17 1019 85 10000 2.57 270 22:30 06.06.2022
1073 Clouds 18 1019 80 10000 2.57 280 21:28 06.06.2022
1074 Clouds 21 1019 71 10000 2.06 290 19:29 06.06.2022
1075 Clouds 21 1017 73 10000 2.06 290 18:59 06.06.2022
1076 Clouds 22 1016 64 10000 0.51 0 18:32 06.06.2022
1077 Clouds 22 1017 68 10000 1.03 0 17:27 06.06.2022
1078 Clouds 22 1019 70 10000 1.54 150 16:21 06.06.2022
1079 Clouds 22 1018 71 10000 2.24 113 15:33 06.06.2022
1080 Clouds 21 1016 73 10000 1.54 130 14:36 06.06.2022
1081 Clouds 19 1016 77 10000 2.57 210 13:26 06.06.2022
1082 Thunderstorm 19 1016 77 10000 1.54 80 12:36 06.06.2022
1083 Clouds 17 1017 88 8000 2.57 40 11:53 06.06.2022
1084 Clouds 22 1015 78 10000 1.54 0 10:41 06.06.2022
1085 Clouds 20 1016 83 10000 1.54 320 09:40 06.06.2022
1086 Clouds 19 1016 88 10000 0.51 0 08:32 06.06.2022
1087 Clouds 19 1018 92 10000 1.54 60 07:28 06.06.2022
1088 Clouds 17 1017 92 10000 2.57 240 05:28 06.06.2022
1089 Clouds 17 1017 81 10000 4.02 293 03:39 06.06.2022
1090 Clouds 18 1017 78 10000 0 0 01:23 06.06.2022
1091 Clouds 18 1018 75 10000 1.54 240 00:38 06.06.2022
1092 Clouds 19 1018 72 10000 1.03 0 23:40 05.06.2022
1093 Clear 20 1018 69 10000 1.54 10 22:45 05.06.2022
1094 Clear 23 1020 56 10000 0 0 20:47 05.06.2022
1095 Clear 27 1016 41 10000 2.06 360 19:41 05.06.2022
1096 Clouds 28 1015 39 10000 2.06 320 18:30 05.06.2022
1097 Clouds 28 1015 39 10000 1.54 330 17:54 05.06.2022
1098 Clouds 28 1015 36 10000 2.57 300 17:25 05.06.2022
1099 Clouds 30 1016 35 10000 3.09 330 16:51 05.06.2022
1100 Clouds 30 1016 32 10000 3.6 360 16:32 05.06.2022
1101 Clouds 29 1017 37 10000 2.57 10 14:25 05.06.2022
1102 Clouds 28 1017 47 10000 3.6 300 12:55 05.06.2022
1103 Clouds 28 1017 47 10000 3.6 300 12:55 05.06.2022
1104 Clouds 27 1018 47 10000 3.6 310 11:45 05.06.2022
1105 Clear 25 1018 65 10000 3.6 310 10:34 05.06.2022
1106 Clear 25 1019 65 10000 4.12 310 09:59 05.06.2022
1107 Clear 21 1019 73 10000 0.51 0 08:32 05.06.2022
1108 Clear 19 1019 77 10000 0 0 07:43 05.06.2022
1109 Clear 17 1020 88 10000 0.51 360 05:22 05.06.2022
1110 Clear 17 1021 87 10000 0 0 03:46 05.06.2022
1111 Clouds 18 1021 82 10000 1.54 240 01:32 05.06.2022
1112 Clouds 18 1021 78 10000 0.51 0 00:33 05.06.2022
1113 Clouds 21 1021 69 10000 1.54 0 22:22 04.06.2022
1114 Clouds 24 1018 60 10000 3.09 90 20:31 04.06.2022
1115 Clouds 29 1017 30 10000 1.03 0 18:19 04.06.2022
1116 Clouds 29 1018 34 10000 1.54 10 16:44 04.06.2022
1117 Clouds 28 1018 39 10000 2.57 330 16:18 04.06.2022
1118 Clouds 28 1019 42 10000 3.09 350 14:53 04.06.2022
1119 Clear 27 1020 47 10000 1.54 0 12:35 04.06.2022
1120 Clear 26 1020 53 10000 3.6 110 11:18 04.06.2022
1121 Clear 30 1025 46 10000 2.68 113 10:43 04.06.2022
1122 Clear 23 1021 64 10000 1.03 0 09:44 04.06.2022
1123 Clear 21 1022 73 10000 0 0 08:41 04.06.2022
1124 Clear 19 1022 82 10000 1.54 330 07:41 04.06.2022
1125 Clear 16 1023 91 9000 0 0 05:29 04.06.2022
1126 Clear 18 1023 85 10000 0 0 01:27 04.06.2022
1127 Clouds 18 1024 83 10000 2.06 100 23:59 03.06.2022
1128 Clear 21 1024 70 10000 1.54 190 22:40 03.06.2022
1129 Clear 22 1024 71 10000 2.06 230 21:30 03.06.2022
1130 Clear 23 1021 64 10000 2.06 90 20:37 03.06.2022
1131 Clouds 27 1020 50 10000 3.6 30 18:27 03.06.2022
1132 Clouds 26 1020 53 10000 4.63 40 16:47 03.06.2022
1133 Clouds 30 1025 38 10000 5.14 30 15:23 03.06.2022
1134 Clouds 26 1020 53 10000 3.6 340 13:22 03.06.2022
1135 Clouds 26 1021 57 10000 2.06 0 11:40 03.06.2022
1136 Clouds 24 1020 64 10000 2.06 310 09:45 03.06.2022
1137 Clear 22 1021 68 10000 1.54 0 08:58 03.06.2022
1138 Clear 17 1021 88 10000 1.03 0 07:26 03.06.2022
1139 Clear 17 1020 88 10000 1.54 50 06:35 03.06.2022
1140 Clear 18 1022 86 10000 1.54 270 05:52 03.06.2022
1141 Clouds 18 1021 78 10000 1.03 0 00:30 03.06.2022
1142 Clouds 20 1021 72 10000 0 0 22:45 02.06.2022
1143 Clouds 20 1021 68 10000 0 0 21:51 02.06.2022
1144 Clear 23 1023 58 10000 2.06 20 20:22 02.06.2022
1145 Clear 23 1023 58 10000 2.06 20 20:22 02.06.2022
1146 Clear 23 1023 58 10000 2.06 20 20:22 02.06.2022
1147 Clear 25 1018 50 10000 2.57 20 19:50 02.06.2022
1148 Clear 25 1017 47 10000 2.06 30 19:31 02.06.2022
1149 Clouds 27 1017 47 10000 2.06 340 17:32 02.06.2022
1150 Clouds 29 1017 37 10000 3.6 340 16:27 02.06.2022
1151 Clouds 29 1017 42 10000 3.09 120 14:20 02.06.2022
1152 Clouds 28 1017 39 10000 2.57 0 13:30 02.06.2022
1153 Clouds 28 1018 36 10000 2.06 0 12:21 02.06.2022
1154 Clear 23 1018 60 10000 0 0 10:20 02.06.2022
1155 Clear 21 1018 64 10000 1.54 0 09:28 02.06.2022
1156 Clear 19 1019 77 10000 1.03 0 08:27 02.06.2022
1157 Clear 17 1018 82 10000 1.03 0 07:25 02.06.2022
1158 Clouds 14 1020 90 10000 0 0 04:52 02.06.2022
1159 Clear 15 1020 88 10000 0 0 02:38 02.06.2022
1160 Rain 18 1020 74 10000 1.54 90 23:47 01.06.2022
1161 Clouds 20 1018 64 10000 2.57 170 22:32 01.06.2022
1162 Clear 21 1020 58 10000 3.09 170 21:35 01.06.2022
1163 Clouds 22 1017 60 10000 3.09 130 20:58 01.06.2022
1164 Clear 23 1017 56 10000 3.6 130 20:37 01.06.2022
1165 Clouds 25 1017 50 10000 3.09 50 19:25 01.06.2022
1166 Clouds 27 1016 44 10000 3.09 10 17:44 01.06.2022
1167 Clouds 28 1016 39 10000 2.57 330 16:38 01.06.2022
1168 Clouds 28 1016 32 10000 2.06 350 14:54 01.06.2022
1169 Clouds 27 1017 36 10000 1.54 160 13:51 01.06.2022
1170 Clear 25 1018 47 10000 1.03 0 12:26 01.06.2022
1171 Clear 25 1018 47 10000 1.03 0 12:26 01.06.2022
1172 Clear 19 1018 77 8000 1.03 0 09:41 01.06.2022
1173 Clouds 18 1018 77 8000 1.03 0 08:40 01.06.2022
1174 Clouds 14 1018 94 8000 0 0 07:24 01.06.2022
1175 Clouds 15 1022 94 8000 1.54 170 05:52 01.06.2022
1176 Clouds 14 1021 92 10000 0 0 00:40 01.06.2022
1177 Clouds 15 1021 89 10000 1.03 0 23:28 31.05.2022
1178 Clouds 16 1021 87 10000 2.06 220 22:36 31.05.2022
1179 Clouds 16 1021 90 10000 2.06 130 21:45 31.05.2022
1180 Clouds 17 1021 83 10000 5.14 100 20:45 31.05.2022
1181 Clouds 17 1020 85 10000 4.12 130 20:18 31.05.2022
1182 Clouds 18 1020 83 8000 4.63 200 18:52 31.05.2022
1183 Thunderstorm 18 1020 73 5000 7.2 140 17:50 31.05.2022
1184 Thunderstorm 22 1019 51 10000 8.75 90 16:57 31.05.2022
1185 Rain 27 1015 32 10000 2.06 0 15:41 31.05.2022
1186 Clouds 26 1016 38 10000 3.09 330 14:18 31.05.2022
1187 Clouds 25 1017 47 10000 1.54 0 12:20 31.05.2022
1188 Clouds 23 1018 60 10000 2.06 240 10:55 31.05.2022
1189 Clear 20 1018 68 10000 1.03 0 09:29 31.05.2022
1190 Clear 17 1018 77 10000 0 0 07:24 31.05.2022
1191 Clear 13 1019 93 10000 3.6 80 05:20 31.05.2022
1192 Clouds 16 1018 83 10000 1.03 0 00:52 31.05.2022
1193 Clear 17 1017 74 10000 2.06 110 23:27 30.05.2022
1194 Clear 17 1017 72 10000 1.54 150 22:56 30.05.2022
1195 Clear 18 1017 72 10000 2.06 170 21:52 30.05.2022
1196 Clear 19 1017 69 10000 2.06 0 21:32 30.05.2022
1197 Clouds 21 1016 61 10000 3.6 140 20:20 30.05.2022
1198 Clouds 26 1012 36 10000 1.03 0 18:40 30.05.2022
1199 Clear 26 1012 36 10000 1.54 0 17:35 30.05.2022
1200 Clouds 26 1012 36 10000 2.57 320 16:41 30.05.2022
1201 Clouds 24 1013 46 10000 4.12 300 14:35 30.05.2022
1202 Clouds 21 1013 60 10000 4.12 300 12:24 30.05.2022
1203 Clouds 18 1013 77 10000 2.57 320 10:41 30.05.2022
1204 Clouds 16 1013 82 10000 2.57 300 09:19 30.05.2022
1205 Clouds 11 1011 100 8000 3.09 300 06:40 30.05.2022
1206 Clouds 12 1013 95 10000 2.57 280 05:48 30.05.2022
1207 Clouds 13 1011 93 9000 1.03 0 01:42 30.05.2022
1208 Clouds 14 1010 92 10000 1.54 40 22:57 29.05.2022
1209 Clouds 14 1010 92 10000 1.03 0 22:36 29.05.2022
1210 Clouds 14 1010 89 10000 2.06 320 20:54 29.05.2022
1211 Thunderstorm 14 1011 91 8000 5.14 290 19:32 29.05.2022
1212 Thunderstorm 15 1006 82 8000 8.75 280 18:44 29.05.2022
1213 Clouds 23 1007 61 10000 7.15 0 17:31 29.05.2022
1214 Clouds 25 1007 53 10000 8.23 130 15:48 29.05.2022
1215 Clouds 25 1008 52 10000 9.77 120 14:57 29.05.2022
1216 Clouds 25 1007 50 10000 9.77 120 13:52 29.05.2022
1217 Clouds 24 1008 50 10000 9.77 120 11:41 29.05.2022
1218 Clear 22 1009 64 10000 6.69 110 10:38 29.05.2022
1219 Clear 19 1010 72 10000 5.66 110 08:51 29.05.2022
1220 Clouds 15 1012 95 10000 2.57 130 05:54 29.05.2022
1221 Clouds 15 1013 93 10000 2.57 110 04:43 29.05.2022
1222 Clouds 15 1013 93 10000 2.57 130 03:41 29.05.2022
1223 Rain 17 1016 92 7000 2.06 30 23:49 28.05.2022
1224 Rain 17 1016 92 10000 1.54 320 23:26 28.05.2022
1225 Rain 17 1015 89 10000 2.57 150 22:33 28.05.2022
1226 Thunderstorm 18 1016 87 10000 6.17 270 21:34 28.05.2022
1227 Clear 19 1012 77 10000 3.09 70 19:41 28.05.2022
1228 Clear 20 1011 77 10000 4.63 130 18:47 28.05.2022
1229 Rain 19 1012 88 10000 3.09 40 17:36 28.05.2022
1230 Rain 19 1012 88 10000 3.09 0 16:37 28.05.2022
1231 Thunderstorm 21 1014 70 10000 4.12 150 15:39 28.05.2022
1232 Rain 26 1015 48 10000 3.6 90 14:18 28.05.2022
1233 Clear 26 1012 47 10000 3.09 90 12:44 28.05.2022
1234 Clear 25 1013 47 10000 3.6 90 11:57 28.05.2022
1235 Clear 24 1013 50 10000 3.6 80 10:51 28.05.2022
1236 Clear 22 1014 60 10000 3.09 120 09:57 28.05.2022
1237 Rain 20 1014 64 10000 3.6 160 08:45 28.05.2022
1238 Clouds 17 1016 78 8000 3.09 50 07:23 28.05.2022
1239 Clouds 17 1016 71 10000 3.09 250 05:24 28.05.2022
1240 Clouds 17 1016 78 10000 1.54 0 02:38 28.05.2022
1241 Clouds 19 1018 68 10000 1.54 150 00:31 28.05.2022
1242 Clouds 20 1016 64 10000 1.54 100 22:50 27.05.2022
1243 Clouds 21 1016 60 10000 2.57 90 21:37 27.05.2022
1244 Clear 22 1016 56 10000 1.54 180 20:48 27.05.2022
1245 Clear 23 1016 53 10000 1.54 130 20:21 27.05.2022
1246 Clouds 25 1016 47 10000 2.06 90 19:41 27.05.2022
1247 Clouds 25 1016 47 10000 2.06 90 19:41 27.05.2022
1248 Clouds 26 1020 44 10000 3.6 90 19:21 27.05.2022
1249 Clouds 28 1016 36 10000 3.6 20 17:34 27.05.2022
1250 Clouds 28 1017 39 10000 4.12 20 16:36 27.05.2022
1251 Clouds 30 1017 30 10000 3.09 310 15:20 27.05.2022
1252 Clear 28 1019 34 10000 2.57 340 13:41 27.05.2022
1253 Clear 26 1020 38 10000 3.09 270 12:28 27.05.2022
1254 Clear 25 1021 38 10000 2.06 0 11:31 27.05.2022
1255 Clear 24 1021 43 10000 1.54 0 10:47 27.05.2022
1256 Clear 23 1021 49 10000 2.06 0 09:59 27.05.2022
1257 Clear 21 1022 60 10000 2.06 310 09:31 27.05.2022
1258 Clear 18 1022 72 10000 1.03 0 07:40 27.05.2022
1259 Clouds 15 1024 81 10000 2.06 300 05:25 27.05.2022
1260 Clouds 16 1022 82 10000 1.54 330 01:44 27.05.2022
1261 Clear 19 1023 72 10000 3.6 280 23:31 26.05.2022
1262 Clear 20 1022 68 10000 2.06 290 22:28 26.05.2022
1263 Clear 21 1022 64 10000 1.54 300 21:32 26.05.2022
1264 Clear 26 1020 44 10000 2.57 320 19:39 26.05.2022
1265 Clear 26 1020 41 10000 5.14 290 18:52 26.05.2022
1266 Clear 28 1020 42 10000 3.09 310 17:36 26.05.2022
1267 Clear 27 1020 47 10000 3.09 10 16:31 26.05.2022
1268 Clouds 26 1021 50 10000 4.12 360 15:33 26.05.2022
1269 Clouds 28 1021 30 10000 6.69 300 14:20 26.05.2022
1270 Clear 28 1021 39 10000 4.12 290 12:18 26.05.2022
1271 Clear 27 1021 39 10000 2.57 330 11:21 26.05.2022
1272 Clouds 20 1021 73 7000 1.03 0 09:39 26.05.2022
1273 Mist 24 1025 63 4600 0.51 0 08:48 26.05.2022
1274 Mist 18 1024 84 2500 1.54 0 06:47 26.05.2022
1275 Mist 15 1021 91 5000 0 0 02:54 26.05.2022
1276 Clouds 17 1020 86 7000 3.09 110 00:19 26.05.2022
1277 Clouds 18 1020 83 8000 4.12 120 22:58 25.05.2022
1278 Clouds 19 1021 79 9000 4.63 80 21:44 25.05.2022
1279 Clear 21 1017 68 10000 5.66 110 20:50 25.05.2022
1280 Clear 22 1017 68 10000 6.17 100 19:56 25.05.2022
1281 Clear 24 1016 60 10000 9.26 90 18:48 25.05.2022
1282 Clouds 31 1015 37 10000 4.63 100 17:26 25.05.2022
1283 Clouds 30 1015 35 10000 2.57 70 16:34 25.05.2022
1284 Clouds 31 1015 30 10000 2.06 330 15:36 25.05.2022
1285 Clouds 31 1015 30 10000 1.54 0 14:50 25.05.2022
1286 Clouds 31 1015 30 10000 1.54 0 14:32 25.05.2022
1287 Clear 28 1016 44 10000 1.03 0 13:23 25.05.2022
1288 Clouds 26 1015 44 10000 0.55 19 11:50 25.05.2022
1289 Clear 22 1017 60 10000 2.06 0 10:42 25.05.2022
1290 Clear 20 1017 68 10000 1.54 0 09:45 25.05.2022
1291 Clouds 17 1016 70 10000 0.84 119 07:42 25.05.2022
1292 Clouds 14 1018 89 10000 1.03 0 05:57 25.05.2022
1293 Clouds 14 1017 86 10000 2.57 80 02:44 25.05.2022
1294 Clouds 17 1016 76 10000 4.63 90 23:50 24.05.2022
1295 Clouds 17 1016 74 10000 5.66 90 22:59 24.05.2022
1296 Clouds 18 1016 68 10000 6.17 90 21:58 24.05.2022
1297 Clouds 19 1016 65 10000 6.69 90 21:37 24.05.2022
1298 Clouds 19 1016 65 10000 6.69 90 21:19 24.05.2022
1299 Rain 21 1015 60 10000 9.77 100 19:27 24.05.2022
1300 Rain 23 1012 56 10000 6.17 80 18:38 24.05.2022
1301 Clear 27 1010 44 10000 2.06 0 16:40 24.05.2022
1302 Clear 27 1010 44 10000 2.06 50 15:52 24.05.2022
1303 Clear 27 1011 44 10000 1.03 0 14:41 24.05.2022
1304 Clear 26 1011 47 10000 3.09 160 13:47 24.05.2022
1305 Clouds 24 1012 46 10000 2.06 0 12:31 24.05.2022
1306 Clear 19 1013 59 10000 3.6 70 09:52 24.05.2022
1307 Clouds 18 1013 63 10000 4.12 90 08:57 24.05.2022
1308 Clouds 17 1013 63 10000 5.14 100 08:38 24.05.2022
1309 Clouds 15 1012 72 10000 4.12 110 06:41 24.05.2022
1310 Clouds 15 1012 67 10000 3.09 120 03:41 24.05.2022
1311 Clouds 14 1012 72 10000 2.06 150 01:47 24.05.2022
1312 Clouds 14 1012 72 10000 3.09 130 00:34 24.05.2022
1313 Clouds 18 1012 59 10000 3.09 280 22:24 23.05.2022
1314 Clouds 17 1012 63 10000 1.54 290 21:53 23.05.2022
1315 Clouds 20 1011 52 10000 2.57 300 20:49 23.05.2022
1316 Clear 21 1010 46 10000 4.12 290 19:55 23.05.2022
1317 Clouds 21 1015 48 10000 5.66 290 19:27 23.05.2022
1318 Clouds 24 1010 35 10000 6.69 290 18:41 23.05.2022
1319 Clouds 24 1010 33 10000 6.17 290 17:56 23.05.2022
1320 Clouds 25 1009 31 10000 6.69 280 16:40 23.05.2022
1321 Clouds 25 1010 31 10000 6.17 280 14:20 23.05.2022
1322 Clouds 24 1011 31 10000 7.72 300 11:57 23.05.2022
1323 Clear 23 1013 37 10000 7.2 290 10:58 23.05.2022
1324 Clear 21 1011 43 10000 6.17 290 09:48 23.05.2022
1325 Clouds 18 1011 59 10000 4.12 300 08:47 23.05.2022
1326 Clouds 13 1012 76 10000 1.54 300 07:37 23.05.2022
1327 Clouds 12 1012 76 10000 1.54 0 06:41 23.05.2022
1328 Clear 13 1014 73 10000 1.79 0 03:52 23.05.2022
1329 Clear 12 1012 82 10000 3.6 300 02:18 23.05.2022
1330 Clear 13 1012 76 10000 3.09 310 01:32 23.05.2022
1331 Clear 15 1012 72 10000 1.54 10 23:18 22.05.2022
1332 Clear 16 1012 67 10000 2.06 310 22:27 22.05.2022
1333 Clear 17 1012 63 10000 2.57 320 21:52 22.05.2022
1334 Clear 19 1012 55 10000 3.09 290 20:50 22.05.2022
1335 Clouds 20 1012 52 10000 3.09 300 20:23 22.05.2022
1336 Clouds 22 1012 43 10000 6.69 290 19:39 22.05.2022
1337 Clouds 22 1011 46 10000 6.69 280 18:52 22.05.2022
1338 Clouds 22 1011 43 10000 6.17 280 18:21 22.05.2022
1339 Clouds 22 1011 43 10000 6.69 280 17:26 22.05.2022
1340 Clouds 21 1014 50 10000 8.23 270 15:57 22.05.2022
1341 Rain 23 1015 45 10000 8.23 280 14:47 22.05.2022
1342 Rain 23 1015 45 10000 8.23 280 14:47 22.05.2022
1343 Clouds 24 1013 41 10000 6.69 290 13:21 22.05.2022
1344 Clouds 24 1013 41 10000 6.17 280 12:45 22.05.2022
1345 Clouds 22 1014 40 10000 3.6 310 10:55 22.05.2022
1346 Clouds 22 1017 40 10000 3.6 280 09:40 22.05.2022
1347 Clouds 20 1014 40 10000 2.57 280 07:54 22.05.2022
1348 Clouds 20 1014 45 10000 3.09 280 07:20 22.05.2022
1349 Clouds 20 1014 56 10000 4.63 280 04:49 22.05.2022
1350 Clouds 20 1014 60 10000 2.06 290 01:20 22.05.2022
1351 Clouds 21 1015 52 10000 3.6 240 00:26 22.05.2022
1352 Clouds 20 1015 56 10000 2.06 250 23:47 21.05.2022
1353 Clouds 21 1015 49 10000 2.06 330 22:24 21.05.2022
1354 Clouds 21 1015 52 10000 3.6 280 21:39 21.05.2022
1355 Clear 23 1014 43 10000 3.6 290 20:48 21.05.2022
1356 Clear 23 1014 40 10000 2.57 300 20:19 21.05.2022
1357 Clear 26 1014 31 10000 1.54 320 19:24 21.05.2022
1358 Clear 29 1014 24 10000 1.54 0 17:35 21.05.2022
1359 Clear 29 1016 24 10000 3.09 280 15:37 21.05.2022
1360 Clear 27 1016 26 10000 3.09 290 14:36 21.05.2022
1361 Clear 27 1017 24 10000 2.57 0 13:36 21.05.2022
1362 Clear 25 1018 31 10000 4.63 280 12:40 21.05.2022
1363 Clear 23 1019 35 10000 1.54 0 11:52 21.05.2022
1364 Clear 19 1019 42 10000 1.03 0 10:22 21.05.2022
1365 Clear 17 1020 51 10000 1.03 0 09:20 21.05.2022
1366 Clear 15 1020 55 10000 1.03 0 08:47 21.05.2022
1367 Clear 11 1021 68 10000 0.73 245 06:22 21.05.2022
1368 Clear 8 1023 77 10000 2.06 200 02:23 21.05.2022
1369 Clear 13 1024 60 10000 2.06 90 23:42 20.05.2022
1370 Clear 15 1024 54 10000 2.06 160 22:41 20.05.2022
1371 Clear 15 1024 52 10000 2.06 170 22:18 20.05.2022
1372 Clouds 18 1024 43 10000 3.6 220 21:19 20.05.2022
1373 Clear 17 1026 48 10000 4.12 200 20:51 20.05.2022
1374 Clear 21 1022 35 10000 1.03 0 19:55 20.05.2022
1375 Clear 24 1023 25 10000 1.54 160 18:58 20.05.2022
1376 Clear 25 1023 20 10000 1.03 0 18:24 20.05.2022
1377 Clear 25 1024 15 10000 2.06 180 16:28 20.05.2022
1378 Clear 25 1024 16 10000 1.54 0 15:54 20.05.2022
1379 Clear 25 1024 16 10000 1.54 0 15:32 20.05.2022
1380 Clear 23 1025 20 10000 2.57 150 14:27 20.05.2022
1381 Clear 22 1027 23 10000 1.54 0 12:45 20.05.2022
1382 Clear 17 1028 45 10000 1.54 0 10:48 20.05.2022
1383 Clear 16 1028 48 10000 0.51 0 09:32 20.05.2022
1384 Clear 12 1029 62 10000 1.03 0 08:37 20.05.2022
1385 Clear 7 1029 76 10000 1.03 0 06:44 20.05.2022
1386 Clear 10 1032 85 10000 2.06 100 05:52 20.05.2022
1387 Clear 6 1030 80 10000 1.54 90 02:52 20.05.2022
1388 Clear 9 1030 70 10000 0.51 0 23:47 19.05.2022
1389 Clear 11 1030 55 10000 2.57 180 22:37 19.05.2022
1390 Clear 11 1031 54 10000 3.09 200 21:51 19.05.2022
1391 Clear 12 1031 50 10000 3.09 180 21:24 19.05.2022
1392 Clear 14 1031 44 10000 2.06 180 20:52 19.05.2022
1393 Clear 17 1026 34 10000 3.09 50 19:57 19.05.2022
1394 Clear 19 1026 24 10000 3.6 20 19:19 19.05.2022
1395 Clear 21 1026 17 10000 4.12 10 17:46 19.05.2022
1396 Clouds 21 1026 28 10000 2.06 0 15:58 19.05.2022
1397 Clouds 20 1027 32 10000 3.09 190 14:49 19.05.2022
1398 Clouds 18 1027 36 10000 3.09 0 14:20 19.05.2022
1399 Clear 17 1029 42 10000 2.06 0 11:55 19.05.2022
1400 Clear 12 1030 66 10000 1.54 0 10:31 19.05.2022
1401 Clouds 9 1030 81 10000 1.03 0 08:44 19.05.2022
1402 Clouds 7 1031 91 10000 0 0 07:18 19.05.2022
1403 Clouds 5 1030 96 10000 0 0 03:52 19.05.2022
1404 Clouds 6 1029 91 10000 2.57 80 00:58 19.05.2022
1405 Clouds 7 1029 90 10000 1.54 200 23:40 18.05.2022
1406 Clouds 8 1029 84 10000 1.03 0 22:43 18.05.2022
1407 Clouds 9 1028 83 10000 2.06 360 21:43 18.05.2022
1408 Clouds 9 1028 85 10000 1.03 0 21:23 18.05.2022
1409 Clouds 10 1026 84 10000 1.54 240 20:19 18.05.2022
1410 Rain 11 1023 82 8000 5.14 50 18:53 18.05.2022
1411 Clouds 16 1021 63 10000 6.17 80 17:42 18.05.2022
1412 Clouds 15 1024 70 10000 5.14 60 17:24 18.05.2022
1413 Clouds 17 1024 61 10000 4.63 10 16:53 18.05.2022
1414 Clouds 18 1022 60 10000 2.06 0 15:52 18.05.2022
1415 Clouds 17 1020 63 10000 2.06 0 15:33 18.05.2022
1416 Clouds 16 1018 72 10000 3.6 350 14:21 18.05.2022
1417 Rain 16 1020 77 10000 3.6 320 12:54 18.05.2022
1418 Clouds 18 1017 77 8000 4.63 280 11:48 18.05.2022
1419 Clouds 18 1017 72 10000 6.69 280 11:30 18.05.2022
1420 Clouds 18 1019 77 10000 6.17 280 10:43 18.05.2022
1421 Rain 15 1018 81 10000 4.63 290 07:59 18.05.2022
1422 Rain 15 1017 84 10000 3.09 300 06:54 18.05.2022
1423 Clouds 14 1017 85 10000 3.09 300 03:34 18.05.2022
1424 Clouds 16 1020 84 10000 2.57 290 00:42 18.05.2022
1425 Rain 17 1021 76 10000 10.8 300 23:21 17.05.2022
1426 Clouds 22 1013 43 10000 1.54 320 21:21 17.05.2022
1427 Clouds 23 1013 38 10000 2.06 170 20:38 17.05.2022
1428 Clear 26 1013 31 10000 2.06 320 19:30 17.05.2022
1429 Clear 27 1013 28 10000 2.57 300 18:43 17.05.2022
1430 Clear 28 1013 24 10000 3.6 280 17:31 17.05.2022
1431 Clear 28 1014 24 10000 2.57 310 16:53 17.05.2022
1432 Clear 28 1015 24 10000 2.57 0 15:45 17.05.2022
1433 Clear 28 1016 26 10000 3.09 300 14:48 17.05.2022
1434 Clear 27 1016 28 10000 2.57 0 14:23 17.05.2022
1435 Clear 25 1017 29 10000 2.57 0 12:36 17.05.2022
1436 Clear 21 1019 46 10000 1.54 0 10:23 17.05.2022
1437 Clear 16 1019 63 10000 1.03 0 08:45 17.05.2022
1438 Clear 14 1020 67 10000 0 0 07:41 17.05.2022
1439 Clear 15 1023 77 10000 0.51 0 05:58 17.05.2022
1440 Clear 13 1022 70 10000 0 0 00:47 17.05.2022
1441 Clear 15 1021 66 10000 3.09 80 22:51 16.05.2022
1442 Clear 16 1021 63 10000 2.06 190 22:30 16.05.2022
1443 Clear 18 1023 54 10000 2.57 200 20:56 16.05.2022
1444 Clear 20 1023 47 10000 1.03 0 20:25 16.05.2022
1445 Clouds 24 1018 38 10000 4.63 50 18:39 16.05.2022
1446 Clouds 26 1018 29 10000 2.57 330 16:41 16.05.2022
1447 Clouds 25 1019 27 10000 4.12 280 14:48 16.05.2022
1448 Clear 25 1020 27 10000 3.09 280 13:27 16.05.2022
1449 Clear 23 1021 38 10000 2.06 0 11:42 16.05.2022
1450 Clear 20 1021 56 10000 1.03 0 10:30 16.05.2022
1451 Clear 13 1021 82 10000 0 0 07:45 16.05.2022
1452 Mist 11 1024 88 9000 2.57 100 05:40 16.05.2022
1453 Clear 12 1022 84 10000 0 0 00:35 16.05.2022
1454 Clear 14 1022 77 10000 1.03 0 22:39 15.05.2022
1455 Clouds 15 1022 74 10000 2.06 150 21:54 15.05.2022
1456 Clouds 16 1022 72 10000 2.06 150 21:34 15.05.2022
1457 Clear 19 1023 62 10000 2.06 10 20:35 15.05.2022
1458 Clouds 23 1018 46 10000 3.09 30 18:30 15.05.2022
1459 Clouds 24 1018 41 10000 3.09 330 16:37 15.05.2022
1460 Clouds 24 1019 41 10000 4.12 310 14:18 15.05.2022
1461 Clouds 24 1019 38 10000 4.63 290 13:35 15.05.2022
1462 Clouds 21 1019 43 10000 4.63 300 11:55 15.05.2022
1463 Clear 20 1019 49 10000 6.17 300 10:40 15.05.2022
1464 Clear 18 1019 63 10000 2.57 310 08:52 15.05.2022
1465 Clouds 11 1019 100 8000 0 0 06:59 15.05.2022
1466 Clouds 11 1019 100 8000 0 0 06:39 15.05.2022
1467 Mist 13 1020 87 4400 1.34 293 02:24 15.05.2022
1468 Clouds 15 1020 79 8000 1.03 0 23:56 14.05.2022
1469 Clouds 15 1020 79 8000 1.34 293 23:34 14.05.2022
1470 Clouds 16 1020 84 10000 2.57 350 21:45 14.05.2022
1471 Clouds 15 1020 81 10000 3.09 260 21:24 14.05.2022
1472 Clouds 17 1021 76 10000 2.57 330 19:54 14.05.2022
1473 Clouds 19 1019 71 10000 3.6 320 19:20 14.05.2022
1474 Clouds 20 1017 73 10000 2.06 330 18:47 14.05.2022
1475 Rain 18 1020 75 10000 3.09 300 17:36 14.05.2022
1476 Rain 23 1016 46 10000 6.69 270 15:47 14.05.2022
1477 Clouds 24 1020 48 10000 5.14 130 14:36 14.05.2022
1478 Rain 19 1017 77 10000 4.63 110 12:51 14.05.2022
1479 Thunderstorm 24 1017 46 10000 2.57 120 11:37 14.05.2022
1480 Clouds 20 1017 60 10000 3.09 80 10:23 14.05.2022
1481 Clouds 20 1017 60 10000 3.09 100 09:56 14.05.2022
1482 Clouds 16 1017 67 10000 1.54 140 08:59 14.05.2022
1483 Clear 18 1020 62 10000 1.54 120 07:20 14.05.2022
1484 Clouds 12 1018 78 10000 1.03 0 03:41 14.05.2022
1485 Rain 16 1016 63 10000 2.06 130 23:48 13.05.2022
1486 Clouds 18 1016 55 10000 3.09 120 23:22 13.05.2022
1487 Clouds 19 1016 52 10000 2.57 130 22:52 13.05.2022
1488 Clouds 19 1016 52 10000 3.09 130 22:20 13.05.2022
1489 Clouds 21 1016 46 10000 3.6 100 20:56 13.05.2022
1490 Clouds 20 1015 49 10000 4.12 100 20:28 13.05.2022
1491 Clouds 22 1015 69 10000 3.09 80 19:40 13.05.2022
1492 Clear 26 1015 34 10000 3.6 30 18:41 13.05.2022
1493 Clear 28 1015 24 10000 1.54 0 17:29 13.05.2022
1494 Clear 28 1015 23 10000 2.06 120 16:23 13.05.2022
1495 Clear 27 1016 19 10000 2.57 0 15:43 13.05.2022
1496 Clear 26 1017 34 10000 2.57 0 13:57 13.05.2022
1497 Clear 25 1018 33 10000 2.06 0 12:33 13.05.2022
1498 Clear 23 1019 40 10000 1.54 0 11:23 13.05.2022
1499 Clear 19 1020 52 10000 0.51 0 09:43 13.05.2022
1500 Clear 16 1021 59 10000 0.51 0 08:50 13.05.2022
1501 Clear 14 1021 67 10000 0 0 07:48 13.05.2022
1502 Clear 11 1021 76 10000 1.03 0 06:34 13.05.2022
1503 Clouds 10 1023 79 10000 1.03 320 04:22 13.05.2022
1504 Clouds 13 1022 66 10000 2.57 160 00:39 13.05.2022
1505 Clear 16 1022 59 10000 2.06 100 22:46 12.05.2022
1506 Clear 17 1022 57 10000 3.09 120 21:58 12.05.2022
1507 Clouds 20 1020 42 10000 0 0 20:37 12.05.2022
1508 Clear 24 1019 33 10000 2.06 320 19:18 12.05.2022
1509 Clear 26 1019 29 10000 2.06 320 17:27 12.05.2022
1510 Clear 26 1019 27 10000 2.06 0 16:23 12.05.2022
1511 Clear 25 1020 27 10000 3.09 10 14:42 12.05.2022
1512 Clear 24 1021 31 10000 3.09 0 13:47 12.05.2022
1513 Clear 20 1022 49 10000 1.54 0 10:52 12.05.2022
1514 Clear 17 1023 59 10000 1.03 0 09:31 12.05.2022
1515 Clear 15 1023 67 10000 1.03 0 08:51 12.05.2022
1516 Clear 12 1023 76 10000 1.54 100 07:40 12.05.2022
1517 Clear 10 1023 81 10000 1.03 0 06:34 12.05.2022
1518 Clouds 9 1024 85 10000 1.54 360 02:58 12.05.2022
1519 Clouds 11 1024 78 10000 1.54 170 00:36 12.05.2022
1520 Clouds 13 1023 68 10000 2.06 120 22:36 11.05.2022
1521 Clouds 16 1023 60 10000 2.57 200 21:50 11.05.2022
1522 Clouds 15 1023 60 10000 1.54 160 21:24 11.05.2022
1523 Clouds 20 1019 42 10000 0 0 18:58 11.05.2022
1524 Clouds 20 1020 49 10000 2.06 290 16:55 11.05.2022
1525 Clouds 23 1023 40 10000 5.14 300 15:38 11.05.2022
1526 Clouds 22 1024 44 10000 2.68 0 14:39 11.05.2022
1527 Clouds 23 1024 39 10000 5.66 280 14:18 11.05.2022
1528 Clear 21 1021 37 10000 3.09 280 11:54 11.05.2022
1529 Clear 20 1021 42 10000 1.54 0 11:19 11.05.2022
1530 Clear 15 1021 63 10000 1.54 290 08:40 11.05.2022
1531 Clouds 8 1024 90 10000 0.51 0 05:31 11.05.2022
1532 Clouds 11 1022 79 10000 1.03 0 00:45 11.05.2022
1533 Clouds 13 1022 78 10000 0.51 0 22:32 10.05.2022
1534 Clouds 14 1022 71 10000 1.54 90 21:57 10.05.2022
1535 Clouds 15 1021 66 10000 25.48 315 20:57 10.05.2022
1536 Rain 15 1023 69 10000 1.34 0 19:47 10.05.2022
1537 Clouds 19 1022 45 10000 7.72 100 17:59 10.05.2022
1538 Clouds 19 1021 46 10000 9.77 100 17:29 10.05.2022
1539 Clouds 23 1019 31 10000 5.14 60 15:31 10.05.2022
1540 Clouds 21 1021 32 10000 3.09 0 12:45 10.05.2022
1541 Clear 21 1021 32 10000 1.03 0 11:51 10.05.2022
1542 Clear 20 1021 32 10000 1.54 0 11:20 10.05.2022
1543 Clear 17 1022 48 10000 1.03 0 10:26 10.05.2022
1544 Clear 15 1022 51 10000 0.51 0 09:25 10.05.2022
1545 Clear 9 1022 71 10000 0.51 0 07:22 10.05.2022
1546 Clouds 7 1024 77 10000 0.51 0 03:57 10.05.2022
1547 Clouds 10 1024 68 10000 2.06 110 00:57 10.05.2022
1548 Clouds 12 1024 59 10000 1.54 140 22:56 09.05.2022
1549 Clouds 13 1024 56 10000 2.57 120 21:50 09.05.2022
1550 Clear 16 1021 44 10000 3.09 100 20:52 09.05.2022
1551 Clear 20 1020 32 10000 4.12 40 18:43 09.05.2022
1552 Clear 22 1020 28 10000 4.63 30 17:44 09.05.2022
1553 Clouds 23 1020 23 10000 5.14 30 16:33 09.05.2022
1554 Clear 23 1020 23 10000 4.63 10 15:52 09.05.2022
1555 Clear 23 1020 21 10000 4.12 360 15:21 09.05.2022
1556 Clear 22 1021 20 10000 2.06 60 14:29 09.05.2022
1557 Clear 22 1021 20 10000 2.57 10 13:40 09.05.2022
1558 Clear 20 1022 28 10000 1.54 0 12:18 09.05.2022
1559 Clear 18 1022 42 10000 1.54 140 10:55 09.05.2022
1560 Clear 18 1022 42 10000 1.54 140 10:36 09.05.2022
1561 Clear 11 1022 62 10000 1.54 250 08:31 09.05.2022
1562 Clear 9 1022 71 10000 1.03 0 07:49 09.05.2022
1563 Clouds 7 1024 74 10000 1.54 180 03:19 09.05.2022
1564 Clouds 9 1022 71 10000 3.6 130 23:34 08.05.2022
1565 Clouds 10 1021 66 10000 3.6 120 22:52 08.05.2022
1566 Clouds 11 1021 62 10000 3.6 100 21:48 08.05.2022
1567 Clouds 11 1021 62 10000 3.6 100 21:48 08.05.2022
1568 Clear 12 1020 54 10000 4.63 100 20:34 08.05.2022
1569 Clear 16 1020 36 10000 4.63 120 19:43 08.05.2022
1570 Clear 19 1019 27 10000 5.66 120 18:52 08.05.2022
1571 Clear 20 1019 30 10000 6.17 120 17:52 08.05.2022
1572 Clear 21 1019 26 10000 6.17 130 16:33 08.05.2022
1573 Clear 22 1019 21 10000 6.17 110 15:25 08.05.2022
1574 Clear 22 1019 15 10000 6.17 90 14:39 08.05.2022
1575 Clear 19 1021 30 10000 4.12 90 12:21 08.05.2022
1576 Clear 15 1021 38 10000 1.54 0 10:27 08.05.2022
1577 Clear 13 1022 44 10000 1.54 100 09:56 08.05.2022
1578 Clear 11 1022 50 10000 2.57 130 08:52 08.05.2022
1579 Clear 6 1022 70 10000 2.57 140 06:51 08.05.2022
1580 Clouds 7 1024 68 10000 3.6 110 03:25 08.05.2022
1581 Clouds 8 1024 64 10000 5.14 90 02:23 08.05.2022
1582 Clouds 9 1022 66 10000 6.17 90 00:20 08.05.2022
1583 Clouds 9 1022 66 10000 5.14 90 23:46 07.05.2022
1584 Clouds 10 1021 66 10000 5.66 110 22:46 07.05.2022
1585 Clouds 11 1021 62 10000 4.63 110 21:57 07.05.2022
1586 Clouds 11 1021 62 10000 5.14 90 21:32 07.05.2022
1587 Clear 14 1020 51 10000 5.66 110 20:27 07.05.2022
1588 Clear 17 1019 39 10000 6.17 130 18:59 07.05.2022
1589 Clear 20 1019 34 10000 6.69 120 17:31 07.05.2022
1590 Clear 21 1021 30 10000 6.17 140 15:18 07.05.2022
1591 Clear 18 1021 42 10000 5.14 80 12:23 07.05.2022
1592 Clear 15 1022 51 10000 4.63 100 10:18 07.05.2022
1593 Clear 13 1022 62 10000 5.14 100 08:37 07.05.2022
1594 Clear 11 1022 66 10000 4.63 110 07:37 07.05.2022
1595 Clear 8 1022 71 10000 3.09 140 06:42 07.05.2022
1596 Clouds 7 1022 76 10000 2.57 100 04:21 07.05.2022
1597 Clouds 10 1022 76 10000 3.6 120 00:49 07.05.2022
1598 Clouds 10 1022 76 10000 4.63 100 22:41 06.05.2022
1599 Clouds 11 1022 71 10000 4.63 100 22:21 06.05.2022
1600 Clouds 12 1021 66 10000 5.14 90 21:32 06.05.2022
1601 Clear 14 1020 54 10000 4.12 130 19:49 06.05.2022
1602 Clouds 17 1022 46 10000 4.63 140 19:27 06.05.2022
1603 Clouds 17 1023 40 10000 4.12 120 18:43 06.05.2022
1604 Clouds 19 1020 39 10000 5.66 100 17:37 06.05.2022
1605 Clouds 21 1024 31 10000 4.63 120 15:54 06.05.2022
1606 Clouds 20 1023 35 10000 5.14 110 15:30 06.05.2022
1607 Clouds 21 1024 40 10000 5.14 120 13:50 06.05.2022
1608 Clouds 20 1025 46 10000 5.14 100 12:51 06.05.2022
1609 Clear 20 1025 50 10000 5.66 100 11:58 06.05.2022
1610 Clear 17 1023 59 10000 5.14 90 11:24 06.05.2022
1611 Clear 14 1024 67 10000 4.63 100 09:47 06.05.2022
1612 Clear 14 1024 67 10000 3.6 110 09:18 06.05.2022
1613 Clear 12 1026 79 10000 3.13 338 07:49 06.05.2022
1614 Clear 8 1025 86 10000 3.09 120 06:26 06.05.2022
1615 Clear 9 1025 83 10000 3.09 110 02:58 06.05.2022
1616 Clear 9 1025 83 10000 3.09 110 02:38 06.05.2022
1617 Clear 12 1025 70 10000 2.06 160 22:58 05.05.2022
1618 Clear 12 1024 72 10000 0 0 21:49 05.05.2022
1619 Clear 13 1025 67 10000 1.54 120 20:36 05.05.2022
1620 Clear 17 1021 55 10000 1.03 0 18:56 05.05.2022
1621 Clouds 20 1021 45 10000 5.14 20 16:42 05.05.2022
1622 Clouds 20 1021 42 10000 2.57 50 15:30 05.05.2022
1623 Clouds 19 1022 45 10000 1.54 0 13:30 05.05.2022
1624 Clouds 17 1022 59 10000 1.03 0 12:56 05.05.2022
1625 Clouds 13 1022 82 10000 1.54 0 11:22 05.05.2022
1626 Clouds 14 1024 79 6000 1.54 0 09:40 05.05.2022
1627 Mist 10 1024 87 3000 1.03 0 08:34 05.05.2022
1628 Fog 7 1025 92 450 1.03 0 06:23 05.05.2022
1629 Clouds 6 1022 95 10000 0 0 02:23 05.05.2022
1630 Clouds 7 1022 91 10000 1.54 340 01:37 05.05.2022
1631 Clouds 8 1022 90 9000 1.54 350 23:57 04.05.2022
1632 Clouds 9 1022 88 10000 2.06 50 22:54 04.05.2022
1633 Clouds 10 1022 83 10000 3.6 150 21:59 04.05.2022
1634 Clouds 10 1022 83 10000 4.12 190 21:30 04.05.2022
1635 Clouds 10 1022 82 8000 4.63 50 20:42 04.05.2022
1636 Rain 11 1023 76 8000 5.14 360 19:59 04.05.2022
1637 Rain 12 1023 70 8000 5.14 360 19:35 04.05.2022
1638 Clouds 15 1020 62 6000 4.63 10 18:22 04.05.2022
1639 Thunderstorm 17 1021 48 10000 4.63 90 17:59 04.05.2022
1640 Clouds 19 1017 39 10000 2.06 70 15:57 04.05.2022
1641 Clouds 19 1017 45 10000 4.12 50 15:30 04.05.2022
1642 Clouds 19 1017 39 10000 2.57 0 14:22 04.05.2022
1643 Clouds 19 1017 42 10000 4.12 280 13:50 04.05.2022
1644 Clouds 17 1018 45 10000 3.6 270 12:34 04.05.2022
1645 Clear 13 1018 62 10000 2.06 0 10:57 04.05.2022
1646 Clear 10 1019 71 10000 1.54 0 09:46 04.05.2022
1647 Clouds 7 1019 81 10000 1.03 0 08:49 04.05.2022
1648 Clouds 9 1022 73 10000 0.51 0 07:33 04.05.2022
1649 Clouds 3 1020 95 10000 1.03 0 02:59 04.05.2022
1650 Clouds 4 1020 90 10000 1.54 320 01:41 04.05.2022
1651 Clouds 6 1019 86 10000 2.06 140 22:54 03.05.2022
1652 Clouds 7 1018 82 10000 0 0 21:47 03.05.2022
1653 Clouds 7 1018 81 10000 1.03 0 21:20 03.05.2022
1654 Clouds 9 1018 74 10000 0 0 20:31 03.05.2022
1655 Clouds 11 1015 66 10000 2.57 210 18:55 03.05.2022
1656 Clouds 11 1015 66 10000 2.57 210 18:37 03.05.2022
1657 Clouds 11 1017 61 10000 3.09 200 17:19 03.05.2022
1658 Clouds 12 1017 63 10000 4.92 135 15:43 03.05.2022
1659 Clouds 12 1015 58 10000 4.63 110 13:32 03.05.2022
1660 Clouds 12 1017 64 10000 4.63 120 12:30 03.05.2022
1661 Clouds 10 1018 73 10000 7.2 100 10:58 03.05.2022
1662 Clouds 11 1018 69 10000 7.72 110 09:58 03.05.2022
1663 Clouds 9 1016 77 10000 4.12 130 07:59 03.05.2022
1664 Clouds 8 1016 88 10000 7.15 90 06:45 03.05.2022
1665 Rain 8 1017 85 8000 2.68 113 01:53 03.05.2022
1666 Rain 10 1016 79 10000 2.57 180 22:45 02.05.2022
1667 Clouds 10 1016 77 10000 2.57 150 22:25 02.05.2022
1668 Clouds 11 1016 65 10000 2.24 113 21:24 02.05.2022
1669 Clouds 13 1015 56 10000 5.81 113 18:57 02.05.2022
1670 Clouds 13 1015 53 10000 5.66 120 18:25 02.05.2022
1671 Clouds 14 1015 52 10000 7.2 120 17:37 02.05.2022
1672 Clouds 15 1015 49 10000 7.2 110 16:25 02.05.2022
1673 Clouds 15 1016 45 10000 7.72 120 15:40 02.05.2022
1674 Clouds 16 1016 44 10000 8.23 110 14:19 02.05.2022
1675 Clouds 16 1017 41 10000 6.69 120 12:45 02.05.2022
1676 Clouds 16 1017 47 10000 7.2 130 11:20 02.05.2022
1677 Clouds 14 1018 57 10000 7.72 100 09:32 02.05.2022
1678 Clear 10 1016 71 10000 6.17 100 07:57 02.05.2022
1679 Clouds 9 1018 78 10000 5.14 90 05:37 02.05.2022
1680 Clouds 12 1018 66 10000 5.66 110 00:26 02.05.2022
1681 Clouds 12 1018 66 10000 7.2 130 23:52 01.05.2022
1682 Clouds 12 1018 62 10000 4.63 110 22:49 01.05.2022
1683 Clouds 12 1018 58 10000 4.12 90 21:41 01.05.2022
1684 Clouds 13 1017 50 10000 3.09 120 20:23 01.05.2022
1685 Clouds 15 1020 44 10000 4.12 140 19:18 01.05.2022
1686 Clouds 16 1020 42 10000 4.63 90 18:50 01.05.2022
1687 Clouds 17 1019 40 10000 5.66 110 17:47 01.05.2022
1688 Clouds 17 1020 39 10000 5.14 110 16:24 01.05.2022
1689 Clouds 18 1017 39 10000 6.69 100 15:43 01.05.2022
1690 Clouds 19 1020 39 10000 5.14 70 14:22 01.05.2022
1691 Clouds 17 1020 42 10000 5.66 110 11:53 01.05.2022
1692 Clouds 15 1023 59 10000 6.71 113 09:33 01.05.2022
1693 Clear 12 1021 76 10000 5.66 100 08:49 01.05.2022
1694 Clouds 7 1022 90 10000 3.09 110 05:31 01.05.2022
1695 Clouds 9 1022 79 10000 3.09 110 00:43 01.05.2022
1696 Clouds 11 1022 70 10000 3.09 100 21:52 30.04.2022
1697 Clouds 11 1022 70 10000 3.6 100 21:30 30.04.2022
1698 Clouds 11 1022 70 10000 3.6 100 21:30 30.04.2022
1699 Clouds 13 1019 62 10000 3.09 100 19:47 30.04.2022
1700 Clouds 15 1019 58 10000 3.6 100 18:50 30.04.2022
1701 Clouds 16 1019 55 10000 6.17 120 17:20 30.04.2022
1702 Clouds 16 1021 57 10000 5.14 140 15:50 30.04.2022
1703 Clouds 17 1019 48 10000 4.63 60 14:54 30.04.2022
1704 Clouds 18 1019 45 10000 4.63 60 13:41 30.04.2022
1705 Clouds 15 1020 55 10000 5.14 20 11:34 30.04.2022
1706 Clouds 15 1020 58 10000 3.6 20 10:55 30.04.2022
1707 Clouds 14 1021 62 10000 1.54 260 09:50 30.04.2022
1708 Clouds 11 1021 76 10000 0 0 07:31 30.04.2022
1709 Clouds 10 1023 83 10000 1.54 90 03:34 30.04.2022
1710 Rain 11 1023 73 10000 1.03 0 23:54 29.04.2022
1711 Clouds 12 1023 70 10000 2.06 140 22:35 29.04.2022
1712 Clouds 13 1023 68 10000 1.54 160 21:54 29.04.2022
1713 Clouds 13 1023 69 10000 1.54 220 21:19 29.04.2022
1714 Clouds 14 1024 63 10000 2.57 50 19:48 29.04.2022
1715 Clouds 15 1023 62 10000 3.6 40 18:47 29.04.2022
1716 Clouds 16 1022 55 10000 3.6 60 17:26 29.04.2022
1717 Clouds 17 1020 48 10000 2.06 80 15:52 29.04.2022
1718 Clouds 16 1020 48 10000 2.06 210 14:34 29.04.2022
1719 Clouds 16 1021 51 10000 4.63 240 13:27 29.04.2022
1720 Clouds 17 1025 50 10000 3.6 280 11:51 29.04.2022
1721 Clouds 12 1022 71 10000 4.12 280 09:23 29.04.2022
1722 Clouds 9 1022 81 10000 4.12 290 07:28 29.04.2022
1723 Clouds 10 1024 78 10000 3.6 290 06:46 29.04.2022
1724 Clouds 9 1022 76 10000 4.12 280 05:44 29.04.2022
1725 Clouds 11 1024 67 10000 4.63 280 00:46 29.04.2022
1726 Clouds 12 1024 61 10000 4.63 290 23:34 28.04.2022
1727 Clouds 12 1024 66 10000 2.57 290 22:45 28.04.2022
1728 Clouds 12 1024 69 10000 3.13 338 21:47 28.04.2022
1729 Clouds 12 1024 70 10000 3.13 293 21:22 28.04.2022
1730 Clouds 12 1023 70 10000 3.13 293 20:35 28.04.2022
1731 Clouds 13 1024 67 10000 3.6 310 19:46 28.04.2022
1732 Clouds 13 1024 62 10000 3.09 340 19:23 28.04.2022
1733 Clouds 14 1023 64 10000 3.09 350 18:36 28.04.2022
1734 Clouds 15 1023 68 10000 3.09 340 17:26 28.04.2022
1735 Clouds 15 1023 68 10000 3.6 340 16:41 28.04.2022
1736 Clouds 15 1023 68 10000 4.12 280 16:19 28.04.2022
1737 Clouds 14 1019 72 10000 3.6 290 15:29 28.04.2022
1738 Clouds 14 1019 72 10000 4.63 260 14:36 28.04.2022
1739 Clouds 12 1020 76 10000 3.09 280 12:55 28.04.2022
1740 Clouds 13 1022 74 10000 4.12 280 11:59 28.04.2022
1741 Clouds 12 1021 80 10000 5.66 270 10:46 28.04.2022
1742 Clouds 11 1021 81 10000 5.66 270 09:56 28.04.2022
1743 Clouds 11 1020 82 10000 6.17 270 08:31 28.04.2022
1744 Clouds 11 1020 83 10000 5.14 280 07:36 28.04.2022
1745 Clouds 12 1019 78 10000 1.79 0 05:56 28.04.2022
1746 Clouds 12 1019 77 10000 1.54 30 05:38 28.04.2022
1747 Clouds 12 1019 78 10000 2.24 0 04:40 28.04.2022
1748 Clouds 15 1018 70 10000 6.69 110 00:30 28.04.2022
1749 Clouds 14 1016 77 10000 5.14 90 22:40 27.04.2022
1750 Clouds 14 1016 77 10000 4.63 110 21:55 27.04.2022
1751 Clouds 14 1015 77 10000 4.63 110 21:18 27.04.2022
1752 Clear 14 1015 77 10000 5.66 100 20:37 27.04.2022
1753 Clouds 17 1015 72 10000 5.14 100 19:38 27.04.2022
1754 Clouds 18 1014 63 10000 4.63 80 19:18 27.04.2022
1755 Clouds 20 1014 52 10000 3.6 80 18:22 27.04.2022
1756 Clouds 20 1014 52 10000 3.6 80 18:22 27.04.2022
1757 Clouds 21 1014 49 10000 3.6 80 16:58 27.04.2022
1758 Clouds 24 1018 38 10000 4.63 120 14:33 27.04.2022
1759 Clouds 20 1016 52 10000 2.57 90 12:23 27.04.2022
1760 Clear 18 1016 63 10000 1.03 0 11:20 27.04.2022
1761 Rain 14 1017 77 10000 0.51 0 09:43 27.04.2022
1762 Clear 12 1017 76 10000 0.51 0 07:18 27.04.2022
1763 Clear 8 1018 86 10000 3.09 130 04:30 27.04.2022
1764 Clear 12 1018 80 10000 4.12 110 01:34 27.04.2022
1765 Clear 10 1016 87 10000 5.14 110 00:37 27.04.2022
1766 Clouds 13 1019 67 10000 3.6 80 23:39 26.04.2022
1767 Rain 12 1018 77 10000 3.6 80 23:18 26.04.2022
1768 Rain 13 1018 69 10000 4.63 140 22:39 26.04.2022
1769 Clouds 13 1018 72 10000 4.92 113 21:35 26.04.2022
1770 Clouds 13 1015 76 10000 4.63 120 20:42 26.04.2022
1771 Rain 15 1017 68 10000 3.09 160 19:53 26.04.2022
1772 Rain 15 1016 70 10000 2.06 160 19:32 26.04.2022
1773 Clouds 16 1018 59 10000 3.6 120 18:44 26.04.2022
1774 Clouds 19 1018 48 10000 4.12 360 17:59 26.04.2022
1775 Clouds 20 1018 47 10000 6.71 0 16:49 26.04.2022
1776 Clouds 22 1013 35 10000 3.09 230 13:59 26.04.2022
1777 Clouds 22 1013 37 10000 1.03 0 13:32 26.04.2022
1778 Clouds 20 1014 45 10000 2.06 0 11:49 26.04.2022
1779 Clear 17 1014 45 10000 1.54 0 10:34 26.04.2022
1780 Clear 14 1014 58 10000 1.54 320 08:54 26.04.2022
1781 Clouds 7 1014 87 10000 1.03 120 06:57 26.04.2022
1782 Clear 8 1015 81 10000 1.54 110 04:23 26.04.2022
1783 Clouds 11 1016 64 10000 1.54 260 01:22 26.04.2022
1784 Clouds 12 1016 60 10000 2.06 260 00:25 26.04.2022
1785 Clouds 16 1011 51 10000 1.54 0 22:21 25.04.2022
1786 Clouds 17 1011 42 10000 2.57 330 21:39 25.04.2022
1787 Clear 15 1010 47 10000 2.57 340 20:35 25.04.2022
1788 Clouds 21 1009 28 10000 3.6 320 18:54 25.04.2022
1789 Clouds 23 1008 27 10000 4.12 330 17:43 25.04.2022
1790 Clouds 23 1008 25 10000 6.17 310 16:51 25.04.2022
1791 Clouds 24 1008 27 10000 2.57 300 15:23 25.04.2022
1792 Clouds 23 1008 31 10000 4.12 330 14:34 25.04.2022
1793 Clouds 23 1008 23 10000 6.69 250 13:29 25.04.2022
1794 Clouds 20 1009 42 10000 2.57 290 10:58 25.04.2022
1795 Clear 18 1009 55 10000 1.54 90 09:55 25.04.2022
1796 Clear 15 1009 67 10000 2.57 100 08:23 25.04.2022
1797 Clear 12 1010 77 10000 1.54 160 06:18 25.04.2022
1798 Clouds 12 1011 76 10000 4.63 100 02:20 25.04.2022
1799 Clouds 15 1012 66 10000 5.14 120 23:58 24.04.2022
1800 Clouds 16 1012 61 10000 4.12 110 23:30 24.04.2022
1801 Clouds 17 1009 59 10000 5.66 90 22:40 24.04.2022
1802 Clouds 16 1009 67 10000 4.12 100 21:58 24.04.2022
1803 Clouds 18 1009 59 10000 6.17 110 21:23 24.04.2022
1804 Clouds 18 1009 59 10000 4.63 100 20:47 24.04.2022
1805 Clouds 19 1009 55 10000 6.17 110 20:21 24.04.2022
1806 Clouds 20 1008 56 10000 5.14 120 18:54 24.04.2022
1807 Clouds 22 1008 46 10000 6.17 120 17:54 24.04.2022
1808 Clouds 22 1008 46 10000 6.17 90 17:21 24.04.2022
1809 Clouds 23 1008 40 10000 5.14 110 16:56 24.04.2022
1810 Clear 24 1009 38 10000 4.12 100 16:29 24.04.2022
1811 Clear 24 1009 38 10000 4.12 100 16:29 24.04.2022
1812 Clear 25 1012 36 10000 3.6 130 15:52 24.04.2022
1813 Clear 23 1010 35 10000 2.57 90 14:40 24.04.2022
1814 Clear 22 1010 43 10000 1.54 0 13:38 24.04.2022
1815 Clear 22 1010 43 10000 1.54 0 13:18 24.04.2022
1816 Clear 19 1011 48 10000 1.03 0 11:50 24.04.2022
1817 Clear 17 1012 59 10000 1.03 0 10:48 24.04.2022
1818 Clear 15 1013 58 10000 0.51 0 09:47 24.04.2022
1819 Clear 10 1013 76 8000 0 0 07:55 24.04.2022
1820 Clear 5 1013 93 8000 1.03 330 05:45 24.04.2022
1821 Clear 7 1014 88 10000 1.03 0 02:30 24.04.2022
1822 Clear 8 1014 82 10000 2.06 140 00:45 24.04.2022
1823 Clear 10 1013 77 10000 1.54 130 23:52 23.04.2022
1824 Clear 10 1013 75 10000 1.54 120 23:25 23.04.2022
1825 Clear 10 1013 75 10000 1.54 120 23:25 23.04.2022
1826 Clear 12 1015 68 10000 2.06 230 21:59 23.04.2022
1827 Clear 12 1014 66 10000 2.06 230 21:38 23.04.2022
1828 Clear 13 1014 63 10000 4.12 270 20:59 23.04.2022
1829 Clouds 15 1013 60 10000 4.12 280 19:56 23.04.2022
1830 Clouds 16 1013 55 10000 4.12 280 19:20 23.04.2022
1831 Clouds 18 1009 48 10000 5.66 290 18:54 23.04.2022
1832 Clouds 18 1009 48 10000 5.66 290 18:31 23.04.2022
1833 Clouds 19 1008 45 10000 6.69 290 17:44 23.04.2022
1834 Clouds 19 1008 48 10000 3.6 290 16:45 23.04.2022
1835 Clouds 19 1008 45 10000 4.63 300 15:36 23.04.2022
1836 Clouds 17 1009 55 10000 3.6 280 12:59 23.04.2022
1837 Clouds 17 1011 57 10000 3.6 300 11:29 23.04.2022
1838 Clouds 15 1008 67 10000 2.06 350 09:39 23.04.2022
1839 Clouds 15 1011 61 10000 1.54 360 07:52 23.04.2022
1840 Clouds 12 1006 58 10000 2.06 0 03:56 23.04.2022
1841 Clouds 12 1006 58 10000 2.57 20 01:59 23.04.2022
1842 Clouds 13 1006 62 10000 2.57 0 23:34 22.04.2022
1843 Clouds 13 1006 67 10000 2.06 0 22:32 22.04.2022
1844 Clouds 13 1010 61 10000 2.57 0 21:46 22.04.2022
1845 Clouds 13 1010 65 10000 2.06 0 21:20 22.04.2022
1846 Clear 14 1010 66 10000 5.66 140 20:28 22.04.2022
1847 Clear 16 1009 62 10000 8.23 120 19:23 22.04.2022
1848 Clear 17 1006 59 10000 9.26 120 18:53 22.04.2022
1849 Clear 18 1006 55 10000 10.29 110 18:20 22.04.2022
1850 Clear 19 1007 52 10000 9.26 100 16:53 22.04.2022
1851 Clear 20 1009 50 10000 8.23 110 15:56 22.04.2022
1852 Clear 18 1008 55 10000 8.23 100 15:23 22.04.2022
1853 Clear 19 1008 48 10000 6.17 120 14:21 22.04.2022
1854 Clear 18 1009 55 10000 4.63 100 13:27 22.04.2022
1855 Clear 16 1010 59 10000 4.63 90 12:30 22.04.2022
1856 Clouds 17 1013 55 10000 7.2 100 11:23 22.04.2022
1857 Clouds 17 1013 57 10000 7.72 100 10:53 22.04.2022
1858 Clouds 16 1013 58 10000 7.72 100 10:32 22.04.2022
1859 Clear 14 1013 69 10000 7.2 100 09:54 22.04.2022
1860 Clear 12 1014 75 10000 8.23 110 08:56 22.04.2022
1861 Clouds 10 1014 80 10000 6.69 90 08:24 22.04.2022
1862 Clouds 7 1016 90 9000 1.03 0 05:20 22.04.2022
1863 Rain 10 1019 77 10000 0.51 0 00:53 22.04.2022
1864 Clouds 10 1017 76 10000 2.06 130 23:28 21.04.2022
1865 Clouds 11 1018 71 10000 1.54 90 22:29 21.04.2022
1866 Clouds 11 1018 68 10000 1.03 0 20:55 21.04.2022
1867 Clouds 12 1016 70 10000 3.09 80 20:26 21.04.2022
1868 Clouds 13 1018 58 10000 0 0 18:48 21.04.2022
1869 Clouds 14 1016 55 10000 0.89 293 18:19 21.04.2022
1870 Clouds 15 1016 53 10000 1.03 0 16:49 21.04.2022
1871 Clouds 13 1017 57 10000 1.03 0 15:23 21.04.2022
1872 Clouds 13 1017 57 10000 1.54 0 14:50 21.04.2022
1873 Clear 13 1017 58 10000 1.03 0 13:44 21.04.2022
1874 Clear 12 1018 59 10000 1.54 30 13:18 21.04.2022
1875 Clouds 10 1018 62 10000 1.54 10 11:19 21.04.2022
1876 Clouds 7 1019 74 6000 2.57 110 08:57 21.04.2022
1877 Mist 1 1016 93 5000 2.06 150 07:49 21.04.2022
1878 Mist -1 1016 93 5000 2.06 50 06:21 21.04.2022
1879 Clouds 0 1019 90 10000 1.54 220 03:33 21.04.2022
1880 Clouds 0 1019 94 9000 1.54 250 02:48 21.04.2022
1881 Clouds 0 1019 94 9000 1.54 250 02:48 21.04.2022
1882 Clouds 0 1019 90 10000 2.06 210 01:41 21.04.2022
1883 Clouds 3 1016 87 10000 3.09 320 23:51 20.04.2022
1884 Clouds 3 1016 87 10000 2.57 340 23:23 20.04.2022
1885 Clouds 4 1016 75 10000 2.06 350 22:51 20.04.2022
1886 Clouds 4 1020 75 10000 2.06 350 22:32 20.04.2022
1887 Clouds 4 1018 82 10000 5.14 290 21:33 20.04.2022
1888 Clouds 4 1017 86 10000 5.14 300 20:41 20.04.2022
1889 Clouds 3 1017 87 10000 5.66 300 19:53 20.04.2022
1890 Clouds 4 1016 84 10000 5.66 300 19:22 20.04.2022
1891 Clouds 4 1016 83 10000 5.14 280 18:23 20.04.2022
1892 Rain 2 1016 92 6000 2.57 300 16:56 20.04.2022
1893 Snow 1 1015 96 4000 4.12 290 16:37 20.04.2022
1894 Rain 5 1011 87 10000 5.14 100 14:26 20.04.2022
1895 Clouds 4 1014 90 10000 6.17 100 11:55 20.04.2022
1896 Rain 4 1014 87 8000 2.57 100 11:25 20.04.2022
1897 Rain 3 1015 87 7000 1.54 150 10:24 20.04.2022
1898 Clouds 2 1015 89 6000 1.54 310 09:25 20.04.2022
1899 Rain 2 1015 86 10000 0 0 08:22 20.04.2022
1900 Clouds 2 1015 86 10000 1.54 0 07:42 20.04.2022
1901 Clouds 0 1016 88 10000 2.57 30 03:54 20.04.2022
1902 Clouds 1 1015 84 10000 2.57 150 00:24 20.04.2022
1903 Clouds 1 1015 80 10000 3.09 120 23:59 19.04.2022
1904 Clouds 1 1016 77 10000 3.09 120 22:28 19.04.2022
1905 Clouds 2 1016 75 10000 3.09 130 21:57 19.04.2022
1906 Clouds 2 1016 74 10000 3.09 120 21:33 19.04.2022
1907 Clear 3 1016 68 10000 3.09 120 20:48 19.04.2022
1908 Clouds 4 1016 65 10000 3.09 120 20:26 19.04.2022
1909 Clouds 7 1015 49 10000 4.63 100 19:19 19.04.2022
1910 Clouds 9 1013 42 10000 3.09 360 17:51 19.04.2022
1911 Clouds 10 1013 42 10000 2.57 330 16:43 19.04.2022
1912 Clouds 10 1013 44 10000 4.63 350 16:24 19.04.2022
1913 Clouds 10 1014 40 10000 4.63 300 14:51 19.04.2022
1914 Clouds 9 1011 43 10000 2.57 0 14:27 19.04.2022
1915 Clouds 6 1012 65 10000 4.12 360 12:51 19.04.2022
1916 Clouds 6 1012 65 10000 1.54 0 12:26 19.04.2022
1917 Clouds 4 1013 87 10000 3.09 300 10:50 19.04.2022
1918 Clouds 3 1014 89 10000 2.57 310 09:23 19.04.2022
1919 Clouds 1 1013 92 10000 1.54 80 06:30 19.04.2022
1920 Snow 1 1013 92 9000 2.57 110 03:59 19.04.2022
1921 Clouds 1 1014 95 10000 3.09 60 00:56 19.04.2022
1922 Clouds 2 1014 90 10000 3.09 70 23:36 18.04.2022
1923 Clouds 3 1014 85 10000 3.09 140 21:37 18.04.2022
1924 Clouds 3 1014 85 10000 3.58 113 21:18 18.04.2022
1925 Clouds 3 1014 83 10000 3.6 140 20:35 18.04.2022
1926 Clouds 4 1013 77 10000 2.57 120 19:54 18.04.2022
1927 Clouds 5 1013 68 10000 3.09 50 18:57 18.04.2022
1928 Clouds 5 1013 67 10000 2.06 20 17:58 18.04.2022
1929 Clouds 5 1013 66 10000 2.06 20 17:36 18.04.2022
1930 Clouds 5 1013 66 10000 3.09 20 17:18 18.04.2022
1931 Clouds 5 1013 64 10000 3.09 30 16:32 18.04.2022
1932 Clouds 6 1013 59 10000 2.57 20 15:18 18.04.2022
1933 Clouds 6 1013 65 10000 3.6 50 13:42 18.04.2022
1934 Clouds 6 1014 64 10000 3.6 40 12:34 18.04.2022
1935 Clouds 5 1014 69 10000 3.09 30 11:35 18.04.2022
1936 Clouds 5 1014 69 10000 4.12 30 10:32 18.04.2022
1937 Clouds 5 1014 71 10000 4.63 30 09:31 18.04.2022
1938 Clouds 3 1012 75 10000 2.57 10 08:18 18.04.2022
1939 Clouds 2 1013 80 10000 2.57 350 05:51 18.04.2022
1940 Clouds 3 1015 81 10000 2.57 280 01:34 18.04.2022
1941 Clouds 3 1015 78 10000 3.09 10 22:43 17.04.2022
1942 Clouds 3 1015 78 10000 3.6 360 21:50 17.04.2022
1943 Clouds 3 1015 78 10000 3.6 360 21:27 17.04.2022
1944 Clouds 3 1015 78 10000 4.12 10 20:50 17.04.2022
1945 Rain 4 1014 76 10000 5.14 350 19:40 17.04.2022
1946 Clouds 5 1014 79 10000 4.63 10 18:24 17.04.2022
1947 Clouds 6 1014 86 10000 4.63 360 16:32 17.04.2022
1948 Rain 7 1014 83 10000 4.12 350 15:28 17.04.2022
1949 Clouds 7 1016 88 10000 3.09 10 14:25 17.04.2022
1950 Clouds 8 1016 87 10000 3.09 10 13:18 17.04.2022
1951 Clouds 9 1016 84 10000 2.57 340 12:28 17.04.2022
1952 Clouds 8 1016 86 10000 3.6 290 10:46 17.04.2022
1953 Clouds 8 1016 87 8000 3.6 290 10:28 17.04.2022
1954 Clouds 7 1016 90 6000 3.09 290 09:37 17.04.2022
1955 Clouds 7 1016 90 8000 3.6 280 08:54 17.04.2022
1956 Clouds 8 1016 84 10000 2.06 320 07:53 17.04.2022
1957 Clouds 9 1016 78 10000 4.63 280 04:51 17.04.2022
1958 Clouds 11 1017 67 10000 4.63 280 01:38 17.04.2022
1959 Clouds 12 1017 60 10000 1.34 293 23:54 16.04.2022
1960 Clouds 12 1017 61 10000 3.6 310 22:39 16.04.2022
1961 Clouds 13 1017 59 10000 4.63 290 21:40 16.04.2022
1962 Clouds 13 1019 57 10000 4.12 280 20:32 16.04.2022
1963 Clouds 16 1017 47 10000 4.12 30 18:59 16.04.2022
1964 Clouds 17 1017 44 10000 4.12 30 18:28 16.04.2022
1965 Clouds 19 1013 37 10000 4.12 50 16:40 16.04.2022
1966 Clouds 20 1013 34 10000 1.54 20 15:45 16.04.2022
1967 Clouds 20 1013 34 10000 1.54 20 15:45 16.04.2022
1968 Clear 20 1014 37 10000 2.06 50 14:57 16.04.2022
1969 Clear 19 1014 37 10000 1.54 0 13:58 16.04.2022
1970 Clear 19 1015 34 10000 0.51 0 13:37 16.04.2022
1971 Clear 18 1015 39 10000 0.51 0 12:26 16.04.2022
1972 Clear 15 1016 41 10000 3.6 280 10:50 16.04.2022
1973 Clear 17 1018 40 10000 2.24 293 09:56 16.04.2022
1974 Clear 11 1017 54 10000 0 0 08:59 16.04.2022
1975 Clear 8 1017 66 10000 1.03 0 07:57 16.04.2022
1976 Clear 14 1020 55 10000 0 0 06:58 16.04.2022
1977 Clouds 8 1019 65 10000 1.03 10 02:52 16.04.2022
1978 Clouds 10 1019 57 10000 3.6 150 00:30 16.04.2022
1979 Clouds 11 1019 59 10000 1.54 130 23:21 15.04.2022
1980 Clouds 12 1019 53 10000 4.12 120 22:32 15.04.2022
1981 Clouds 13 1019 49 10000 3.6 110 21:55 15.04.2022
1982 Clouds 13 1019 50 10000 4.12 90 21:18 15.04.2022
1983 Clear 17 1020 38 10000 4.63 110 20:22 15.04.2022
1984 Clear 17 1019 35 10000 2.06 180 19:40 15.04.2022
1985 Clear 22 1015 23 10000 1.54 140 18:54 15.04.2022
1986 Clear 23 1015 20 10000 1.54 60 18:25 15.04.2022
1987 Clear 23 1016 23 10000 1.54 60 17:34 15.04.2022
1988 Clear 23 1016 20 10000 2.06 110 16:48 15.04.2022
1989 Clear 24 1020 21 10000 2.06 140 16:18 15.04.2022
1990 Clear 25 1020 21 10000 2.24 0 15:24 15.04.2022
1991 Clear 21 1019 23 10000 1.54 0 13:41 15.04.2022
1992 Clear 18 1019 29 10000 1.54 0 12:42 15.04.2022
1993 Clear 17 1020 34 10000 1.54 0 11:57 15.04.2022
1994 Clear 15 1021 36 10000 1.03 0 11:34 15.04.2022
1995 Clear 14 1021 44 10000 1.03 0 10:43 15.04.2022
1996 Clear 11 1022 46 10000 0.51 0 09:46 15.04.2022
1997 Clear 10 1022 50 10000 1.03 0 09:21 15.04.2022
1998 Clear 3 1022 81 10000 0 0 07:32 15.04.2022
1999 Clear 7 1025 74 10000 1.03 0 06:36 15.04.2022
2000 Clear 5 1024 68 10000 0.51 0 02:48 15.04.2022
2001 Clear 8 1024 54 10000 2.57 150 23:31 14.04.2022
2002 Clear 9 1024 52 10000 2.57 150 22:49 14.04.2022
2003 Clear 9 1023 51 10000 2.57 120 22:30 14.04.2022
2004 Clear 10 1023 49 10000 4.63 90 21:59 14.04.2022
2005 Clear 12 1024 40 10000 2.57 100 20:43 14.04.2022
2006 Clear 14 1023 34 10000 2.57 40 19:23 14.04.2022
2007 Clear 19 1020 22 10000 0 0 18:22 14.04.2022
2008 Clear 19 1019 24 10000 1.03 0 17:40 14.04.2022
2009 Clear 19 1020 22 10000 0 0 16:46 14.04.2022
2010 Clear 21 1023 25 10000 1.54 0 15:24 14.04.2022
2011 Clear 17 1021 29 10000 2.06 0 13:46 14.04.2022
2012 Clear 16 1021 27 10000 1.54 0 12:56 14.04.2022
2013 Clear 16 1021 31 10000 1.54 0 12:31 14.04.2022
2014 Clear 14 1022 38 10000 1.54 350 11:29 14.04.2022
2015 Clear 13 1022 44 10000 1.03 0 10:52 14.04.2022
2016 Clear 11 1022 46 10000 1.03 0 10:26 14.04.2022
2017 Clear 6 1022 65 10000 1.54 310 08:54 14.04.2022
2018 Clear 2 1022 75 10000 1.03 0 07:27 14.04.2022
2019 Clouds 3 1024 73 10000 1.03 40 03:32 14.04.2022
2020 Clear 6 1023 65 10000 1.03 0 23:26 13.04.2022
2021 Clear 8 1022 56 10000 1.54 140 22:20 13.04.2022
2022 Clear 9 1022 53 10000 3.6 0 21:36 13.04.2022
2023 Clear 11 1021 46 10000 2.57 0 20:22 13.04.2022
2024 Clear 14 1018 38 10000 4.12 30 19:36 13.04.2022
2025 Clear 16 1017 29 10000 2.06 100 18:27 13.04.2022
2026 Clear 17 1017 23 10000 1.03 0 17:24 13.04.2022
2027 Clear 17 1017 27 10000 2.57 0 16:34 13.04.2022
2028 Clear 17 1017 27 10000 2.57 230 15:40 13.04.2022
2029 Clear 16 1018 31 10000 3.6 300 14:51 13.04.2022
2030 Clear 15 1019 25 10000 3.09 260 14:26 13.04.2022
2031 Clear 14 1019 30 10000 1.03 0 13:28 13.04.2022
2032 Clear 14 1020 33 10000 2.06 0 12:25 13.04.2022
2033 Clear 10 1021 46 10000 1.54 0 10:54 13.04.2022
2034 Clear 8 1021 57 10000 1.03 0 09:44 13.04.2022
2035 Clear 5 1021 60 10000 1.03 0 08:43 13.04.2022
2036 Clear 1 1020 75 10000 2.57 340 06:52 13.04.2022
2037 Clear 2 1022 81 10000 0 0 06:26 13.04.2022
2038 Clear 1 1021 78 10000 2.06 330 05:36 13.04.2022
2039 Clear 4 1022 70 10000 1.54 180 00:22 13.04.2022
2040 Clear 5 1021 67 10000 3.09 160 23:45 12.04.2022
2041 Clear 6 1021 62 10000 2.57 80 22:19 12.04.2022
2042 Clear 7 1021 54 10000 1.54 110 21:18 12.04.2022
2043 Clear 9 1022 45 10000 0.51 0 20:41 12.04.2022
2044 Clear 10 1018 46 10000 2.06 40 19:48 12.04.2022
2045 Clear 12 1018 37 10000 3.09 10 19:30 12.04.2022
2046 Clear 15 1017 25 10000 6.17 290 18:26 12.04.2022
2047 Clear 15 1017 26 10000 4.63 310 17:23 12.04.2022
2048 Clear 16 1021 26 10000 6.17 320 16:22 12.04.2022
2049 Clear 16 1021 27 10000 6.17 310 15:29 12.04.2022
2050 Clear 14 1019 30 10000 4.12 300 14:21 12.04.2022
2051 Clear 12 1020 35 10000 4.12 290 13:29 12.04.2022
2052 Clear 11 1020 35 10000 4.12 310 12:49 12.04.2022
2053 Clear 10 1021 40 10000 4.12 300 11:46 12.04.2022
2054 Clear 8 1022 53 10000 2.57 320 10:32 12.04.2022
2055 Clear 4 1022 65 10000 1.54 330 09:18 12.04.2022
2056 Clear 1 1022 80 10000 0 0 07:51 12.04.2022
2057 Clear -1 1023 80 10000 0 0 05:49 12.04.2022
2058 Clear 0 1023 76 10000 1.03 0 04:46 12.04.2022
2059 Clouds 4 1025 58 10000 4.63 280 23:49 11.04.2022
2060 Clouds 4 1021 52 10000 4.12 280 22:44 11.04.2022
2061 Clouds 5 1021 52 10000 3.6 280 21:37 11.04.2022
2062 Clouds 6 1021 49 10000 4.12 290 20:54 11.04.2022
2063 Clouds 6 1024 51 10000 5.14 290 20:28 11.04.2022
2064 Clouds 8 1019 39 10000 4.63 300 19:36 11.04.2022
2065 Clouds 8 1021 42 10000 4.92 0 19:18 11.04.2022
2066 Clouds 7 1019 49 10000 2.57 330 18:37 11.04.2022
2067 Clouds 9 1020 44 10000 4.12 330 17:44 11.04.2022
2068 Clouds 9 1020 45 10000 4.12 320 16:54 11.04.2022
2069 Clouds 9 1020 44 10000 6.71 0 15:24 11.04.2022
2070 Clouds 9 1018 43 10000 6.17 310 13:51 11.04.2022
2071 Clouds 7 1020 53 10000 6.69 310 12:43 11.04.2022
2072 Clouds 7 1018 53 10000 7.2 290 12:22 11.04.2022
2073 Clouds 7 1017 61 10000 8.23 290 10:56 11.04.2022
2074 Clouds 8 1021 55 10000 7.2 290 09:58 11.04.2022
2075 Clouds 4 1018 71 10000 5.66 300 08:24 11.04.2022
2076 Clouds 3 1016 85 10000 4.12 310 05:26 11.04.2022
2077 Clouds 3 1013 89 10000 6.69 280 00:49 11.04.2022
2078 Clouds 3 1011 91 9000 7.2 280 22:33 10.04.2022
2079 Clouds 3 1011 92 8000 7.2 280 21:54 10.04.2022
2080 Clouds 3 1011 92 7000 6.17 280 21:23 10.04.2022
2081 Clouds 3 1011 92 7000 5.14 290 20:21 10.04.2022
2082 Clouds 3 1011 92 8000 4.63 280 19:37 10.04.2022
2083 Clouds 3 1010 89 10000 5.14 280 18:50 10.04.2022
2084 Clouds 2 1010 91 7000 5.14 280 18:27 10.04.2022
2085 Clouds 2 1010 92 5000 5.66 270 17:46 10.04.2022
2086 Snow 2 1010 92 5000 6.17 280 16:59 10.04.2022
2087 Clouds 3 1009 89 8000 7.72 280 15:40 10.04.2022
2088 Clouds 3 1009 88 10000 8.75 290 14:42 10.04.2022
2089 Clouds 3 1009 89 10000 7.72 280 13:28 10.04.2022
2090 Clouds 4 1010 83 10000 9.26 270 12:32 10.04.2022
2091 Clouds 4 1009 82 10000 10.29 280 11:38 10.04.2022
2092 Clouds 5 1009 81 10000 11.32 270 11:18 10.04.2022
2093 Clouds 7 1010 72 10000 7.72 270 10:31 10.04.2022
2094 Clouds 6 1009 80 10000 6.17 270 09:41 10.04.2022
2095 Clouds 7 1006 81 8000 7.72 280 08:28 10.04.2022
2096 Clouds 7 1005 81 10000 8.75 280 07:56 10.04.2022
2097 Clouds 8 1007 76 10000 3.6 270 06:59 10.04.2022
2098 Clouds 8 1006 70 10000 0.89 293 03:37 10.04.2022
2099 Clouds 8 1007 67 10000 2.57 140 02:18 10.04.2022
2100 Clouds 11 1007 54 10000 0 0 23:53 09.04.2022
2101 Clouds 12 1007 51 10000 2.06 290 22:54 09.04.2022
2102 Clouds 12 1007 51 10000 2.06 290 22:54 09.04.2022
2103 Clouds 14 1007 43 10000 2.57 240 22:24 09.04.2022
2104 Clouds 16 1009 39 10000 2.57 280 21:18 09.04.2022
2105 Clear 16 1006 36 10000 4.12 300 20:27 09.04.2022
2106 Clear 17 1008 30 10000 2.57 300 19:49 09.04.2022
2107 Clear 17 1008 29 10000 5.14 310 19:30 09.04.2022
2108 Clouds 21 859 55 10000 5.14 290 18:23 09.04.2022
2109 Clouds 21 727 81 10000 6.17 260 17:43 09.04.2022
2110 Clouds 21 727 81 10000 4.63 230 16:56 09.04.2022
2111 Clouds 21 727 81 10000 5.14 240 16:29 09.04.2022
2112 Clouds 21 727 81 10000 4.63 240 15:48 09.04.2022
2113 Clouds 21 859 55 10000 5.66 240 15:25 09.04.2022
2114 Clouds 21 859 58 10000 6.17 210 14:25 09.04.2022
2115 Clouds 21 727 81 10000 8.23 240 13:24 09.04.2022
2116 Clouds 21 859 60 10000 5.14 290 12:53 09.04.2022
2117 Clear 21 727 81 10000 1.54 0 11:44 09.04.2022
2118 Clear 15 1007 55 10000 1.03 0 10:22 09.04.2022
2119 Clear 14 1007 54 10000 1.03 0 09:53 09.04.2022
2120 Clear 12 1007 66 10000 1.03 0 08:59 09.04.2022
2121 Clear 11 1007 66 10000 2.06 60 07:49 09.04.2022
2122 Clouds 11 1008 62 10000 3.09 310 03:22 09.04.2022
2123 Clouds 17 1008 42 10000 7.2 270 00:32 09.04.2022
2124 Clouds 15 1007 44 10000 2.57 10 22:58 08.04.2022
2125 Clouds 15 1007 47 10000 3.09 60 21:35 08.04.2022
2126 Clear 17 1007 39 10000 1.54 0 20:41 08.04.2022
2127 Clear 18 1007 39 10000 2.06 30 19:41 08.04.2022
2128 Clouds 20 1007 34 10000 2.06 360 18:38 08.04.2022
2129 Clouds 21 1007 28 10000 1.54 350 17:59 08.04.2022
2130 Clouds 21 727 81 10000 2.06 290 17:27 08.04.2022
2131 Clear 21 727 81 10000 3.09 300 16:52 08.04.2022
2132 Clear 22 862 58 10000 4.12 290 16:22 08.04.2022
2133 Clear 21 727 81 10000 5.14 310 15:28 08.04.2022
2134 Clear 21 727 81 10000 3.6 330 14:40 08.04.2022
2135 Clear 20 861 61 10000 4.12 320 13:55 08.04.2022
2136 Clear 18 1008 42 10000 4.12 350 13:30 08.04.2022
2137 Clear 18 1008 45 10000 6.17 320 12:42 08.04.2022
2138 Clear 15 1008 55 10000 5.66 330 10:56 08.04.2022
2139 Clear 12 1008 66 10000 4.63 330 09:41 08.04.2022
2140 Clear 11 1007 66 10000 4.63 350 08:58 08.04.2022
2141 Clear 9 1007 76 10000 3.09 350 07:42 08.04.2022
2142 Clear 7 1006 87 10000 4.12 310 06:44 08.04.2022
2143 Clouds 10 1005 77 10000 4.02 0 02:27 08.04.2022
2144 Clouds 10 1005 82 10000 3.13 293 00:28 08.04.2022
2145 Clouds 10 1005 84 10000 3.09 350 23:41 07.04.2022
2146 Clouds 10 1004 84 10000 5.36 0 22:41 07.04.2022
2147 Clouds 10 1004 85 10000 3.09 300 22:22 07.04.2022
2148 Clouds 10 1004 87 10000 4.63 290 21:56 07.04.2022
2149 Clouds 10 1004 90 10000 2.57 290 21:19 07.04.2022
2150 Clouds 10 1003 89 6000 3.09 330 20:42 07.04.2022
2151 Clouds 11 1002 83 7000 2.06 250 18:58 07.04.2022
2152 Clouds 12 1002 72 10000 1.54 190 17:28 07.04.2022
2153 Clouds 13 1003 69 6000 1.54 190 16:45 07.04.2022
2154 Clouds 13 1004 66 10000 1.54 100 16:25 07.04.2022
2155 Clouds 15 1004 60 10000 1.54 20 15:37 07.04.2022
2156 Clouds 12 1003 72 10000 2.57 310 13:51 07.04.2022
2157 Clouds 10 1004 78 10000 2.57 300 13:22 07.04.2022
2158 Clouds 11 1004 55 10000 5.14 110 11:40 07.04.2022
2159 Clouds 11 1004 56 10000 4.12 90 10:30 07.04.2022
2160 Clouds 10 1005 58 10000 4.63 110 08:39 07.04.2022
2161 Clouds 10 1006 59 10000 6.17 130 06:58 07.04.2022
2162 Clouds 8 1008 65 10000 3.6 110 03:59 07.04.2022
2163 Clouds 9 1010 58 10000 0 0 02:28 07.04.2022
2164 Clouds 10 1011 57 10000 3.09 140 00:42 07.04.2022
2165 Clouds 11 1013 54 10000 2.57 80 22:54 06.04.2022
2166 Clouds 11 1013 54 10000 2.57 80 22:54 06.04.2022
2167 Clouds 11 1013 53 10000 2.57 140 22:30 06.04.2022
2168 Clear 12 1013 46 10000 3.09 130 21:45 06.04.2022
2169 Clear 13 1013 43 10000 4.63 110 20:40 06.04.2022
2170 Clear 14 1013 44 10000 3.6 130 19:57 06.04.2022
2171 Clear 18 1009 34 10000 3.09 130 18:52 06.04.2022
2172 Clear 18 1009 34 10000 3.09 130 18:33 06.04.2022
2173 Clear 20 1010 28 10000 0 0 17:35 06.04.2022
2174 Clear 20 1010 28 10000 2.06 300 16:39 06.04.2022
2175 Clear 20 1014 32 10000 1.03 0 15:49 06.04.2022
2176 Clear 20 1014 31 10000 3.58 135 15:21 06.04.2022
2177 Clear 20 1014 31 10000 3.58 135 15:21 06.04.2022
2178 Clear 17 1013 31 10000 1.03 0 13:28 06.04.2022
2179 Clear 16 1014 33 10000 1.54 0 12:27 06.04.2022
2180 Clear 12 1015 50 10000 1.03 0 10:52 06.04.2022
2181 Clear 11 1015 54 10000 0.51 0 10:30 06.04.2022
2182 Clear 9 1015 57 10000 1.03 0 09:41 06.04.2022
2183 Clear 6 1015 65 10000 1.03 0 08:34 06.04.2022
2184 Clear 2 1015 75 10000 0 0 07:53 06.04.2022
2185 Clear 1 1013 86 10000 2.06 120 04:30 06.04.2022
2186 Clear 7 1014 59 10000 1.54 170 23:54 05.04.2022
2187 Clear 7 1013 62 10000 1.34 293 22:58 05.04.2022
2188 Clear 10 1013 53 10000 1.03 0 21:23 05.04.2022
2189 Clear 11 1012 47 10000 3.09 180 20:26 05.04.2022
2190 Clear 10 1013 50 10000 2.06 0 19:47 05.04.2022
2191 Clear 15 1009 31 10000 0.51 0 18:18 05.04.2022
2192 Clear 16 1009 29 10000 2.57 160 16:54 05.04.2022
2193 Clear 16 1013 33 10000 1.54 0 15:57 05.04.2022
2194 Clear 17 1013 30 10000 2.68 270 15:35 05.04.2022
2195 Clear 17 1013 32 10000 2.57 270 14:36 05.04.2022
2196 Clear 13 1011 38 10000 1.54 0 13:37 05.04.2022
2197 Clear 11 1013 54 10000 1.54 0 11:51 05.04.2022
2198 Clear 11 1013 54 10000 1.54 0 11:51 05.04.2022
2199 Clear 11 1013 54 10000 1.54 0 11:32 05.04.2022
2200 Clear 9 1013 57 10000 1.03 0 10:41 05.04.2022
2201 Clear 4 1014 81 10000 1.54 180 08:55 05.04.2022
2202 Clear 1 1016 89 10000 1.03 0 07:22 05.04.2022
2203 Clouds 4 1017 74 10000 1.03 0 01:58 05.04.2022
2204 Clouds 7 1017 62 10000 3.6 300 22:44 04.04.2022
2205 Clouds 7 1018 62 10000 3.6 300 22:26 04.04.2022
2206 Clouds 7 1019 61 10000 3.09 270 21:21 04.04.2022
2207 Clouds 7 1018 59 10000 2.06 290 20:50 04.04.2022
2208 Clouds 8 1019 58 10000 2.24 0 19:58 04.04.2022
2209 Clouds 8 1017 55 10000 0 0 19:26 04.04.2022
2210 Clouds 9 1019 52 10000 2.24 0 18:33 04.04.2022
2211 Clouds 10 1018 45 10000 1.54 0 16:37 04.04.2022
2212 Clouds 10 1016 43 10000 1.03 0 15:47 04.04.2022
2213 Clouds 10 1017 46 10000 0.51 0 15:29 04.04.2022
2214 Clouds 9 1017 46 10000 1.54 0 14:46 04.04.2022
2215 Clouds 8 1018 49 10000 2.57 300 13:31 04.04.2022
2216 Clouds 6 1020 52 10000 2.57 320 11:56 04.04.2022
2217 Clouds 6 1020 52 10000 2.57 330 11:29 04.04.2022
2218 Clouds 3 1020 70 10000 3.6 290 09:18 04.04.2022
2219 Clouds 2 1021 67 10000 3.13 0 05:21 04.04.2022
2220 Clouds 3 1020 66 10000 6.17 280 01:36 04.04.2022
2221 Clouds 3 1019 75 10000 8.23 270 22:45 03.04.2022
2222 Clouds 3 1018 76 10000 6.69 270 21:47 03.04.2022
2223 Clouds 4 1017 78 10000 7.2 270 20:57 03.04.2022
2224 Clouds 4 1015 81 10000 7.2 270 19:51 03.04.2022
2225 Clouds 6 1014 72 10000 6.17 280 18:33 03.04.2022
2226 Clouds 8 1013 62 10000 8.49 293 17:48 03.04.2022
2227 Clouds 8 1012 63 10000 4.63 280 16:59 03.04.2022
2228 Clouds 8 1012 63 10000 4.63 280 16:41 03.04.2022
2229 Clouds 7 1012 72 8000 5.66 310 14:52 03.04.2022
2230 Clouds 8 1011 58 10000 6.26 0 13:55 03.04.2022
2231 Clouds 8 1009 57 10000 5.66 310 12:46 03.04.2022
2232 Clouds 6 1009 70 10000 4.63 320 11:29 03.04.2022
2233 Clouds 9 1010 55 10000 7.72 250 09:39 03.04.2022
2234 Clouds 7 1007 61 10000 5.14 300 08:40 03.04.2022
2235 Clouds 5 1007 71 10000 2.68 293 05:42 03.04.2022
2236 Clouds 6 1007 77 10000 1.34 293 02:53 03.04.2022
2237 Clouds 7 1007 74 10000 2.06 20 23:21 02.04.2022
2238 Clouds 8 1007 68 10000 2.06 0 22:18 02.04.2022
2239 Clouds 8 1007 66 10000 2.06 230 21:47 02.04.2022
2240 Clouds 9 1007 63 10000 2.57 300 21:19 02.04.2022
2241 Clouds 9 1006 65 10000 1.54 0 20:29 02.04.2022
2242 Clouds 9 1005 74 10000 4.02 293 18:23 02.04.2022
2243 Clouds 10 1006 71 10000 4.63 320 17:53 02.04.2022
2244 Clouds 13 1004 58 10000 3.09 0 16:30 02.04.2022
2245 Clouds 11 1002 62 10000 3.09 350 15:23 02.04.2022
2246 Clouds 11 1004 72 10000 8.75 280 14:51 02.04.2022
2247 Clouds 14 1001 47 10000 11.83 220 13:56 02.04.2022
2248 Clouds 17 1003 33 10000 12.35 230 13:19 02.04.2022
2249 Clouds 14 1002 38 10000 2.57 0 11:39 02.04.2022
2250 Clouds 14 1001 47 10000 2.06 0 09:31 02.04.2022
2251 Clouds 9 1000 66 10000 5.66 320 06:56 02.04.2022
2252 Clouds 12 1001 57 10000 8.23 240 03:55 02.04.2022
2253 Clouds 9 1001 86 10000 3.13 270 00:25 02.04.2022
2254 Clouds 9 1001 85 10000 2.57 80 23:45 01.04.2022
2255 Rain 9 1003 83 10000 5.14 250 21:55 01.04.2022
2256 Clouds 11 1001 74 10000 6.17 270 20:54 01.04.2022
2257 Clouds 10 1000 82 10000 2.57 350 20:31 01.04.2022
2258 Clouds 11 1000 82 10000 5.14 240 19:38 01.04.2022
2259 Clear 11 1001 81 10000 1.54 0 18:52 01.04.2022
2260 Clouds 11 1001 79 10000 0.89 23 17:59 01.04.2022
2261 Rain 11 1001 80 10000 3.58 90 17:35 01.04.2022
2262 Rain 11 1001 80 10000 3.58 90 17:35 01.04.2022
2263 Rain 15 1000 68 10000 4.92 315 15:43 01.04.2022
2264 Clouds 17 998 50 10000 25.48 315 14:39 01.04.2022
2265 Clouds 22 1000 36 10000 4.63 340 13:35 01.04.2022
2266 Clouds 19 997 37 8000 3.09 0 12:33 01.04.2022
2267 Clouds 19 998 37 8000 5.14 180 11:44 01.04.2022
2268 Clouds 18 998 42 8000 3.6 20 10:19 01.04.2022
2269 Clouds 17 998 48 8000 3.09 50 09:30 01.04.2022
2270 Clouds 13 998 62 7000 2.57 0 06:55 01.04.2022
2271 Clouds 13 999 62 10000 3.09 30 04:54 01.04.2022
2272 Clouds 13 999 62 10000 3.09 30 04:36 01.04.2022
2273 Clouds 15 1000 55 10000 5.14 50 01:59 01.04.2022
2274 Clouds 13 1004 65 10000 4.63 120 00:44 01.04.2022
2275 Clouds 16 1001 48 10000 1.03 0 21:55 31.03.2022
2276 Clouds 16 1001 48 10000 1.03 0 21:33 31.03.2022
2277 Clouds 17 1001 42 10000 3.09 0 20:30 31.03.2022
2278 Clouds 16 1002 50 10000 4.63 0 19:50 31.03.2022
2279 Clouds 16 1001 47 10000 5.36 135 18:52 31.03.2022
2280 Clouds 18 1001 38 10000 7.15 23 17:54 31.03.2022
2281 Clouds 19 1001 41 10000 5.66 80 16:40 31.03.2022
2282 Clouds 19 1002 44 10000 4.12 20 15:48 31.03.2022
2283 Clouds 19 1003 43 10000 3.6 20 15:20 31.03.2022
2284 Clouds 19 1003 46 10000 4.12 40 14:40 31.03.2022
2285 Clouds 19 1005 43 10000 6.69 130 12:30 31.03.2022
2286 Clouds 18 1003 45 10000 6.69 130 12:30 31.03.2022
2287 Clouds 17 1004 48 10000 7.2 160 11:26 31.03.2022
2288 Clouds 14 1007 57 10000 3.6 210 09:47 31.03.2022
2289 Clouds 13 1006 62 10000 2.68 113 08:20 31.03.2022
2290 Clouds 11 1006 53 10000 5.14 80 05:42 31.03.2022
2291 Clouds 13 1006 50 10000 4.12 50 00:32 31.03.2022
2292 Clouds 15 1007 38 10000 3.6 180 22:44 30.03.2022
2293 Clouds 15 1009 39 10000 2.57 240 21:39 30.03.2022
2294 Clear 15 1009 39 10000 2.57 160 20:54 30.03.2022
2295 Clear 15 1009 40 10000 3.6 150 20:20 30.03.2022
2296 Clear 15 1009 40 10000 3.6 150 20:20 30.03.2022
2297 Clear 15 1009 37 10000 1.54 300 19:28 30.03.2022
2298 Clear 16 1009 34 10000 3.58 0 18:28 30.03.2022
2299 Clear 17 1010 35 10000 4.92 113 17:47 30.03.2022
2300 Clear 18 1009 32 10000 5.14 260 16:57 30.03.2022
2301 Clear 18 1009 31 10000 5.14 260 16:33 30.03.2022
2302 Clear 19 1010 29 10000 1.79 203 15:24 30.03.2022
2303 Clear 21 1012 27 10000 3.6 270 13:42 30.03.2022
2304 Clear 17 1010 34 10000 1.54 0 12:47 30.03.2022
2305 Clear 13 1012 47 10000 1.03 0 10:58 30.03.2022
2306 Clear 11 1012 54 10000 1.54 280 10:23 30.03.2022
2307 Clear 8 1012 66 10000 0 0 09:23 30.03.2022
2308 Clear 12 1015 61 10000 1.03 0 07:32 30.03.2022
2309 Clear 5 1015 74 10000 1.03 90 05:40 30.03.2022
2310 Clouds 3 1013 74 10000 2.06 120 03:39 30.03.2022
2311 Clouds 7 1014 62 10000 1.03 0 00:31 30.03.2022
2312 Clouds 9 1014 58 10000 1.54 150 22:20 29.03.2022
2313 Clouds 9 1014 57 10000 1.03 110 21:44 29.03.2022
2314 Clear 12 1015 48 10000 2.57 20 20:49 29.03.2022
2315 Clouds 12 1015 45 10000 2.57 190 19:47 29.03.2022
2316 Clouds 14 1015 43 10000 4.63 260 18:54 29.03.2022
2317 Clouds 15 1011 38 10000 6.17 250 18:18 29.03.2022
2318 Clouds 16 1015 41 10000 8.23 270 17:21 29.03.2022
2319 Clouds 16 1015 41 10000 8.23 270 17:21 29.03.2022
2320 Clouds 16 1015 41 10000 7.72 270 16:56 29.03.2022
2321 Clouds 17 1012 31 10000 2.57 0 15:57 29.03.2022
2322 Clouds 16 1013 33 10000 3.6 270 14:48 29.03.2022
2323 Clouds 16 1013 33 10000 5.14 270 13:52 29.03.2022
2324 Clouds 16 1014 33 10000 2.06 0 12:46 29.03.2022
2325 Clear 15 1016 41 10000 2.06 120 11:28 29.03.2022
2326 Clear 12 1016 50 10000 0.51 0 10:23 29.03.2022
2327 Clear 9 1017 61 10000 0.51 0 09:20 29.03.2022
2328 Clear 3 1017 81 10000 1.54 0 06:54 29.03.2022
2329 Clouds 8 1021 63 10000 0 0 03:19 29.03.2022
2330 Clouds 10 1022 56 10000 2.06 10 23:49 28.03.2022
2331 Clouds 10 1023 57 10000 1.03 0 22:58 28.03.2022
2332 Clouds 10 1023 57 10000 25.48 315 22:35 28.03.2022
2333 Clouds 11 1023 53 10000 5.14 90 21:48 28.03.2022
2334 Clear 11 1023 49 10000 5.66 80 20:47 28.03.2022
2335 Clear 13 1023 42 10000 5.66 80 19:59 28.03.2022
2336 Clear 13 1023 41 10000 5.66 80 19:40 28.03.2022
2337 Clear 15 1023 32 10000 1.03 0 18:51 28.03.2022
2338 Clear 17 1023 32 10000 2.57 80 18:18 28.03.2022
2339 Clear 17 1021 34 10000 1.54 90 17:28 28.03.2022
2340 Clear 18 1022 32 10000 1.03 0 15:38 28.03.2022
2341 Clear 17 1024 36 10000 0.51 0 14:24 28.03.2022
2342 Clear 16 1025 41 10000 1.54 40 13:26 28.03.2022
2343 Clear 14 1026 47 10000 2.06 0 11:53 28.03.2022
2344 Clear 12 1027 50 10000 2.06 0 10:35 28.03.2022
2345 Clear 8 1028 57 10000 1.54 0 09:21 28.03.2022
2346 Clear 5 1028 70 10000 2.06 160 08:40 28.03.2022
2347 Clear 4 1028 75 10000 1.54 140 08:20 28.03.2022
2348 Clear 0 1027 86 10000 2.57 150 06:55 28.03.2022
2349 Clear 3 1028 65 10000 1.54 90 02:20 28.03.2022
2350 Clear 9 1027 43 10000 2.06 340 22:36 27.03.2022
2351 Clear 9 1026 43 10000 2.06 280 21:47 27.03.2022
2352 Clear 11 1026 37 10000 2.57 300 21:25 27.03.2022
2353 Clear 14 1026 30 10000 3.09 300 20:24 27.03.2022
2354 Clear 14 1025 30 10000 3.6 290 19:37 27.03.2022
2355 Clear 17 1025 23 10000 4.63 290 18:44 27.03.2022
2356 Clear 17 1025 25 10000 5.14 300 18:23 27.03.2022
2357 Clear 17 1025 25 10000 5.14 300 18:23 27.03.2022
2358 Clear 18 1024 25 10000 6.17 300 17:35 27.03.2022
2359 Clear 19 1028 24 10000 5.66 290 15:51 27.03.2022
2360 Clear 18 1025 20 10000 7.72 280 13:58 27.03.2022
2361 Clear 18 1026 22 10000 7.72 280 13:20 27.03.2022
2362 Clear 16 1027 27 10000 8.23 280 11:33 27.03.2022
2363 Clear 8 1028 49 10000 1.54 0 09:37 27.03.2022
2364 Clear 5 1031 67 10000 1.54 110 06:58 27.03.2022
2365 Clear 3 1029 57 10000 2.06 80 03:39 27.03.2022
2366 Clear 8 1030 46 10000 0 0 00:26 27.03.2022
2367 Clear 5 1026 48 10000 1.54 10 22:49 26.03.2022
2368 Clear 6 1026 45 10000 2.06 280 21:54 26.03.2022
2369 Clear 8 1028 43 10000 2.06 290 21:29 26.03.2022
2370 Clear 10 1028 37 10000 2.06 290 19:32 26.03.2022
2371 Clear 13 1024 30 10000 3.09 300 18:40 26.03.2022
2372 Clear 15 1024 23 10000 4.63 300 17:34 26.03.2022
2373 Clear 16 1024 21 10000 5.66 290 16:33 26.03.2022
2374 Clear 17 1024 20 10000 6.17 280 15:37 26.03.2022
2375 Clear 17 1029 25 10000 5.14 280 13:55 26.03.2022
2376 Clear 15 1026 29 10000 2.57 200 13:19 26.03.2022
2377 Clear 13 1027 30 10000 4.12 310 11:42 26.03.2022
2378 Clear 12 1028 28 10000 1.03 0 10:44 26.03.2022
2379 Clear 6 1028 52 10000 1.03 0 08:46 26.03.2022
2380 Clear 8 1031 51 10000 1.03 90 06:37 26.03.2022
2381 Clear -2 1027 80 10000 1.54 160 05:29 26.03.2022
2382 Clouds 3 1028 51 10000 1.03 0 00:41 26.03.2022
2383 Clouds 9 1027 35 10000 2.06 20 21:58 25.03.2022
2384 Clouds 10 1026 30 10000 5.14 300 20:47 25.03.2022
2385 Clouds 10 1025 29 10000 5.14 280 20:20 25.03.2022
2386 Clear 12 1022 24 10000 6.17 300 18:51 25.03.2022
2387 Clear 14 1020 18 10000 8.23 290 17:53 25.03.2022
2388 Clear 14 1020 18 10000 9.26 290 17:27 25.03.2022
2389 Clear 16 1019 13 10000 10.29 280 16:19 25.03.2022
2390 Clear 17 1019 15 10000 9.77 280 14:49 25.03.2022
2391 Clear 17 1019 19 10000 7.72 290 13:24 25.03.2022
2392 Clear 16 1020 21 10000 9.26 280 10:35 25.03.2022
2393 Clear 13 1020 26 10000 8.23 290 09:28 25.03.2022
2394 Clear 12 1020 28 10000 3.09 310 08:24 25.03.2022
2395 Clear 2 1020 60 10000 0 0 07:28 25.03.2022
2396 Clear 0 1020 64 10000 0.51 0 06:29 25.03.2022
2397 Clear 6 1020 39 10000 5.14 300 01:32 25.03.2022
2398 Clear 8 1021 34 10000 2.06 30 22:53 24.03.2022
2399 Clear 8 1021 31 10000 2.57 250 21:52 24.03.2022
2400 Clear 9 1021 31 10000 3.09 310 20:37 24.03.2022
2401 Clear 13 1020 24 10000 3.09 310 19:47 24.03.2022
2402 Clear 16 1019 20 10000 5.66 290 17:48 24.03.2022
2403 Clear 17 1019 19 10000 7.2 290 17:19 24.03.2022
2404 Clear 18 1020 11 10000 4.63 340 15:45 24.03.2022
2405 Clear 19 1020 9 10000 5.14 350 14:50 24.03.2022
2406 Clear 19 1021 10 10000 6.17 300 14:18 24.03.2022
2407 Clear 17 1021 17 10000 3.09 320 13:23 24.03.2022
2408 Clear 15 1023 23 10000 4.12 280 11:47 24.03.2022
2409 Clear 8 1024 42 10000 2.06 310 09:55 24.03.2022
2410 Clear 4 1025 56 10000 1.03 0 08:42 24.03.2022
2411 Clear 8 1028 55 10000 1.54 120 06:49 24.03.2022
2412 Clear -2 1027 71 10000 1.54 80 02:24 24.03.2022
2413 Clear 1 1029 63 8000 1.54 230 23:20 23.03.2022
2414 Clear 1 1029 63 8000 1.54 230 23:20 23.03.2022
2415 Clear 2 1029 52 8000 1.03 0 21:27 23.03.2022
2416 Clear 4 1029 46 10000 1.54 250 20:59 23.03.2022
2417 Clear 5 1031 43 10000 1.54 330 19:46 23.03.2022
2418 Clear 7 1031 39 10000 2.06 30 18:45 23.03.2022
2419 Clear 9 1027 29 10000 3.6 70 17:36 23.03.2022
2420 Clear 10 1027 25 10000 6.17 50 16:33 23.03.2022
2421 Clouds 11 1030 35 10000 3.09 80 14:51 23.03.2022
2422 Clouds 10 1030 35 10000 4.92 113 14:24 23.03.2022
2423 Clouds 10 1028 37 10000 4.63 60 12:45 23.03.2022
2424 Clouds 9 1033 42 10000 3.6 60 09:38 23.03.2022
2425 Clouds 4 1031 58 10000 3.58 90 06:41 23.03.2022
2426 Clear 2 1031 53 10000 4.12 50 04:31 23.03.2022
2427 Clear 6 1029 39 10000 7.72 70 00:29 23.03.2022
2428 Clouds 6 1032 50 10000 4.12 80 22:33 22.03.2022
2429 Clear 6 1032 48 10000 1.03 0 21:29 22.03.2022
2430 Clouds 6 1028 45 10000 2.06 100 20:39 22.03.2022
2431 Clouds 9 1031 43 10000 4.63 60 19:39 22.03.2022
2432 Clouds 9 1031 42 10000 6.17 50 19:18 22.03.2022
2433 Clouds 11 1027 32 10000 5.66 40 17:58 22.03.2022
2434 Clouds 11 1026 32 10000 4.12 20 17:25 22.03.2022
2435 Clouds 11 1030 35 10000 6.69 10 15:54 22.03.2022
2436 Clouds 11 1029 32 10000 5.66 30 15:22 22.03.2022
2437 Clouds 12 1031 34 10000 7.2 50 14:46 22.03.2022
2438 Clouds 12 1029 32 10000 5.14 50 14:26 22.03.2022
2439 Clouds 12 1031 37 10000 5.66 70 12:55 22.03.2022
2440 Clouds 11 1033 43 10000 3.6 50 11:48 22.03.2022
2441 Clouds 8 1033 42 10000 3.6 40 10:35 22.03.2022
2442 Clouds 0 1031 59 8000 1.54 0 07:57 22.03.2022
2443 Clouds -3 1033 74 8000 2.06 220 05:20 22.03.2022
2444 Clouds -2 1034 69 8000 1.54 80 03:41 22.03.2022
2445 Clouds -2 1034 69 8000 0 0 23:49 21.03.2022
2446 Clear 0 1034 56 10000 1.54 340 21:58 21.03.2022
2447 Clear 2 1034 47 10000 3.09 350 20:45 21.03.2022
2448 Clear 3 1034 44 10000 2.57 350 20:26 21.03.2022
2449 Clear 2 1034 48 10000 1.54 310 19:53 21.03.2022
2450 Clear 3 1034 44 10000 2.06 40 19:23 21.03.2022
2451 Clear 5 1035 40 10000 5.36 113 17:45 21.03.2022
2452 Clear 5 1032 36 10000 7.2 50 17:18 21.03.2022
2453 Clear 6 1031 33 10000 6.17 40 16:39 21.03.2022
2454 Clear 6 1035 35 10000 7.2 30 15:47 21.03.2022
2455 Clouds 7 1035 34 10000 6.69 60 14:51 21.03.2022
2456 Clouds 7 1035 32 10000 6.17 60 13:43 21.03.2022
2457 Clouds 7 1033 31 10000 6.17 40 12:33 21.03.2022
2458 Clouds 6 1033 33 10000 7.2 60 11:43 21.03.2022
2459 Clouds 6 1037 35 10000 7.2 50 10:20 21.03.2022
2460 Clouds -1 1035 64 10000 1.54 290 08:26 21.03.2022
2461 Clouds -7 1034 79 8000 1.03 0 06:31 21.03.2022
2462 Clear -4 1036 68 10000 2.06 100 02:33 21.03.2022
2463 Clear -3 1038 61 10000 0 0 23:32 20.03.2022
2464 Clear -2 1038 53 10000 1.03 170 22:42 20.03.2022
2465 Clear -1 1038 50 10000 1.54 170 21:49 20.03.2022
2466 Clear 0 1039 46 10000 2.06 120 20:59 20.03.2022
2467 Clear 0 1039 46 10000 2.06 120 20:59 20.03.2022
2468 Clear 0 1039 46 10000 2.24 113 20:39 20.03.2022
2469 Clear 0 1039 45 10000 4.12 60 19:56 20.03.2022
2470 Clear 1 1039 42 10000 3.6 50 19:25 20.03.2022
2471 Clear 2 1039 36 10000 4.12 40 17:50 20.03.2022
2472 Clear 4 1038 33 10000 4.63 40 17:28 20.03.2022
2473 Clear 5 1035 26 10000 5.66 50 16:41 20.03.2022
2474 Clear 6 1039 33 10000 3.6 50 14:54 20.03.2022
2475 Clear 6 1039 32 10000 3.6 0 13:46 20.03.2022
2476 Clear 4 1037 30 10000 3.09 110 12:21 20.03.2022
2477 Clear 3 1038 32 10000 4.63 100 10:39 20.03.2022
2478 Clear 1 1041 48 10000 2.68 113 08:35 20.03.2022
2479 Clear -6 1039 79 10000 0 0 06:40 20.03.2022
2480 Clear -7 1040 74 10000 1.03 0 03:27 20.03.2022
2481 Clear -5 1040 67 10000 2.57 90 00:54 20.03.2022
2482 Clear -5 1040 67 10000 2.57 90 00:35 20.03.2022
2483 Clear -3 1040 60 10000 3.09 140 22:42 19.03.2022
2484 Clear -3 1040 61 10000 2.24 113 21:27 19.03.2022
2485 Clouds -2 1040 55 10000 1.54 0 19:42 19.03.2022
2486 Clear -1 1039 54 10000 2.06 50 18:44 19.03.2022
2487 Clear 0 1040 50 10000 5.66 50 17:55 19.03.2022
2488 Clear 1 1039 47 10000 5.66 50 17:33 19.03.2022
2489 Clouds 3 1039 42 10000 5.14 40 15:41 19.03.2022
2490 Clouds 3 1038 40 10000 4.12 40 14:21 19.03.2022
2491 Clouds 4 1038 37 10000 5.14 50 12:56 19.03.2022
2492 Clouds 4 1038 36 10000 5.14 50 12:37 19.03.2022
2493 Clouds 4 1039 37 10000 4.63 60 11:46 19.03.2022
2494 Clouds 1 1038 51 10000 1.54 90 09:31 19.03.2022
2495 Clear -7 1037 86 10000 0 0 05:44 19.03.2022
2496 Clear -6 1038 79 10000 0 0 02:34 19.03.2022
2497 Clear -4 1040 70 10000 2.57 90 00:54 19.03.2022
2498 Clear -3 1040 62 10000 1.54 110 23:19 18.03.2022
2499 Clear -2 1040 59 10000 2.06 150 22:22 18.03.2022
2500 Clear -2 1040 59 10000 2.06 150 22:22 18.03.2022
2501 Clear -2 1041 57 10000 3.6 160 20:40 18.03.2022
2502 Clear -1 1040 57 10000 2.06 150 19:45 18.03.2022
2503 Clear -1 1040 56 10000 2.06 170 19:18 18.03.2022
2504 Clear 4 1040 41 10000 5.66 60 16:59 18.03.2022
2505 Clear 3 1036 38 10000 5.66 60 16:34 18.03.2022
2506 Clouds 4 1038 40 10000 5.14 30 14:29 18.03.2022
2507 Clouds 5 1039 43 10000 5.14 40 13:41 18.03.2022
2508 Clouds 3 1037 48 10000 4.63 80 11:43 18.03.2022
2509 Clouds 2 1037 51 10000 4.12 130 10:27 18.03.2022
2510 Clouds 2 1039 64 10000 5.66 100 08:50 18.03.2022
2511 Clouds 0 1038 78 10000 5.14 90 07:26 18.03.2022
2512 Clouds 0 1038 84 10000 4.63 100 05:20 18.03.2022
2513 Clouds 1 1035 85 10000 4.02 90 01:51 18.03.2022
2514 Clouds 1 1035 87 10000 4.63 90 00:20 18.03.2022
2515 Clouds 1 1035 85 10000 2.68 90 22:50 17.03.2022
2516 Clouds 1 1034 85 10000 1.03 0 22:19 17.03.2022
2517 Clouds 1 1034 85 10000 2.68 113 21:31 17.03.2022
2518 Clouds 1 1034 85 10000 4.02 90 20:54 17.03.2022
2519 Clouds 1 1033 85 10000 2.24 135 20:20 17.03.2022
2520 Clouds 1 1033 86 10000 4.47 113 19:38 17.03.2022
2521 Clouds 1 1033 88 10000 0.45 113 18:53 17.03.2022
2522 Clouds 2 1032 89 8000 1.79 90 17:40 17.03.2022
2523 Clouds 2 1031 88 10000 3.6 50 16:20 17.03.2022
2524 Clouds 2 1031 86 10000 4.02 90 15:43 17.03.2022
2525 Clouds 4 1031 79 10000 4.63 120 14:59 17.03.2022
2526 Clouds 4 1030 81 10000 3.6 140 13:45 17.03.2022
2527 Clouds 3 1030 85 10000 3.13 113 12:46 17.03.2022
2528 Clouds 4 1030 82 10000 1.03 0 11:33 17.03.2022
2529 Clouds 3 1030 86 10000 1.54 270 10:43 17.03.2022
2530 Clouds 3 1030 87 10000 0.51 0 09:36 17.03.2022
2531 Rain 2 1029 90 8000 1.03 0 08:19 17.03.2022
2532 Clouds 3 1027 82 10000 3.58 90 05:51 17.03.2022
2533 Clouds 4 1026 83 10000 2.57 280 04:30 17.03.2022
2534 Clouds 6 1025 82 10000 1.54 330 00:25 17.03.2022
2535 Clouds 6 1025 82 10000 3.6 280 22:52 16.03.2022
2536 Clouds 6 1025 82 10000 3.6 280 22:34 16.03.2022
2537 Clouds 6 1025 83 10000 3.09 300 21:55 16.03.2022
2538 Clouds 5 1024 83 8000 2.57 280 20:40 16.03.2022
2539 Clouds 6 1024 83 8000 2.68 0 19:23 16.03.2022
2540 Clouds 6 1024 80 8000 2.68 293 18:42 16.03.2022
2541 Clouds 8 1024 61 10000 1.54 270 17:46 16.03.2022
2542 Clouds 8 1024 57 10000 1.54 210 17:28 16.03.2022
2543 Clouds 9 1023 50 10000 2.06 120 15:56 16.03.2022
2544 Clouds 9 1023 47 10000 2.57 80 14:38 16.03.2022
2545 Clouds 10 1023 44 10000 2.24 113 13:35 16.03.2022
2546 Clouds 9 1024 47 10000 1.03 0 12:18 16.03.2022
2547 Clouds 8 1025 45 10000 0.51 0 11:23 16.03.2022
2548 Clouds 7 1025 50 10000 1.54 70 10:28 16.03.2022
2549 Clouds 8 1026 52 10000 1.03 0 09:56 16.03.2022
2550 Clouds 2 1026 72 8000 2.57 110 07:23 16.03.2022
2551 Clear 2 1028 68 10000 2.06 150 02:44 16.03.2022
2552 Clear 3 1030 56 10000 2.57 130 22:54 15.03.2022
2553 Clear 3 1030 56 10000 2.57 130 22:33 15.03.2022
2554 Clouds 3 1029 60 8000 1.03 0 20:51 15.03.2022
2555 Clear 6 1029 49 10000 1.54 280 19:34 15.03.2022
2556 Clear 11 1029 30 10000 1.54 260 17:41 15.03.2022
2557 Clear 12 1029 24 10000 2.57 290 16:34 15.03.2022
2558 Clear 13 1030 21 10000 2.57 260 15:28 15.03.2022
2559 Clear 12 1030 22 10000 2.06 320 14:47 15.03.2022
2560 Clear 11 1031 28 10000 3.09 290 13:55 15.03.2022
2561 Clear 11 1032 28 10000 2.06 280 13:20 15.03.2022
2562 Clear 8 1033 39 10000 2.06 340 11:32 15.03.2022
2563 Clear 5 1035 48 10000 1.03 0 10:21 15.03.2022
2564 Clouds 0 1035 69 8000 0.51 0 08:50 15.03.2022
2565 Clouds -3 1035 86 7000 1.54 10 07:53 15.03.2022
2566 Clouds -3 1035 86 7000 1.54 10 07:35 15.03.2022
2567 Clear -7 1035 86 8000 0 0 05:42 15.03.2022
2568 Clear -3 1037 77 10000 0 0 23:58 14.03.2022
2569 Clear -2 1037 75 10000 1.54 170 23:25 14.03.2022
2570 Clear -2 1037 72 10000 1.54 160 22:30 14.03.2022
2571 Clear -2 1036 72 10000 2.06 90 21:35 14.03.2022
2572 Clear -1 1036 71 10000 1.54 100 20:54 14.03.2022
2573 Clear 0 1037 64 10000 1.03 0 20:20 14.03.2022
2574 Clear 2 1037 55 10000 2.06 110 18:55 14.03.2022
2575 Clear 3 1036 49 10000 2.57 50 17:54 14.03.2022
2576 Clear 5 1036 43 10000 2.57 60 17:23 14.03.2022
2577 Clear 8 1035 38 10000 2.68 90 15:56 14.03.2022
2578 Clear 7 1035 37 10000 1.54 0 14:40 14.03.2022
2579 Clear 6 1033 36 10000 1.03 0 12:29 14.03.2022
2580 Clear 4 1033 41 10000 1.03 0 10:54 14.03.2022
2581 Clear 1 1034 51 8000 1.03 0 09:52 14.03.2022
2582 Clear 0 1034 55 8000 0.51 0 09:22 14.03.2022
2583 Clear -1 1034 64 8000 1.03 0 08:55 14.03.2022
2584 Clear -4 1033 74 8000 1.03 0 07:32 14.03.2022
2585 Clear -7 1032 86 10000 1.03 0 05:45 14.03.2022
2586 Clear -6 1032 81 10000 1.54 90 01:55 14.03.2022
2587 Clear -5 1031 77 10000 0.51 0 01:24 14.03.2022
2588 Clear -3 1031 70 10000 2.06 80 22:43 13.03.2022
2589 Clear -1 1030 54 10000 1.54 210 21:29 13.03.2022
2590 Clear -2 1030 59 10000 2.57 190 20:55 13.03.2022
2591 Clear -2 1029 60 10000 2.06 140 20:30 13.03.2022
2592 Clear -2 1031 55 10000 2.06 90 19:49 13.03.2022
2593 Clear 0 1030 52 10000 2.06 80 19:28 13.03.2022
2594 Clear 0 1029 51 10000 1.54 140 18:59 13.03.2022
2595 Clear 1 1029 44 10000 1.54 140 18:31 13.03.2022
2596 Clouds 2 1029 38 10000 2.06 110 17:41 13.03.2022
2597 Clouds 4 1028 33 10000 2.68 0 16:57 13.03.2022
2598 Clouds 5 1027 30 10000 1.54 80 16:29 13.03.2022
2599 Clouds 5 1025 24 10000 1.03 0 15:44 13.03.2022
2600 Clouds 5 1025 22 10000 2.06 280 14:51 13.03.2022
2601 Clouds 4 1025 26 10000 3.09 300 13:43 13.03.2022
2602 Clouds 3 1025 38 10000 1.54 260 12:38 13.03.2022
2603 Clouds 2 1026 44 10000 1.03 0 11:51 13.03.2022
2604 Clear 0 1026 47 10000 1.54 0 11:31 13.03.2022
2605 Clear 0 1026 47 10000 1.54 0 11:31 13.03.2022
2606 Clear -1 1026 59 10000 1.03 0 10:46 13.03.2022
2607 Clear -3 1027 59 10000 1.03 0 09:59 13.03.2022
2608 Clear -3 1027 59 10000 1.03 0 09:40 13.03.2022
2609 Clear -4 1027 68 10000 1.03 0 08:45 13.03.2022
2610 Clear -1 1030 72 10000 0 0 07:40 13.03.2022
2611 Clear -8 1029 84 10000 0 0 05:40 13.03.2022
2612 Clear -8 1028 79 10000 0.51 0 02:27 13.03.2022
2613 Clear -7 1030 74 10000 2.06 210 23:31 12.03.2022
2614 Clear -5 1030 68 10000 1.54 120 21:49 12.03.2022
2615 Clear -4 1031 62 10000 2.06 170 20:29 12.03.2022
2616 Clear -4 1031 60 10000 2.06 170 19:47 12.03.2022
2617 Clear -3 1031 58 10000 2.06 110 18:55 12.03.2022
2618 Clear -3 1031 55 10000 2.06 90 18:21 12.03.2022
2619 Clouds -1 1029 50 10000 2.24 135 17:23 12.03.2022
2620 Clouds 0 1030 47 10000 1.03 0 16:23 12.03.2022
2621 Clouds 0 1030 47 10000 3.13 90 15:22 12.03.2022
2622 Clouds -2 1028 54 10000 2.57 50 13:55 12.03.2022
2623 Clouds -1 1028 51 10000 2.57 160 12:33 12.03.2022
2624 Clouds -2 1029 54 10000 3.6 50 11:55 12.03.2022
2625 Clouds -2 1029 59 10000 1.54 0 11:34 12.03.2022
2626 Clouds -3 1029 59 10000 3.6 260 10:32 12.03.2022
2627 Clouds -4 1029 63 10000 2.06 360 09:44 12.03.2022
2628 Clouds -4 1028 74 10000 1.54 20 08:24 12.03.2022
2629 Fog -5 1029 88 8000 0 0 06:44 12.03.2022
2630 Clouds -4 1027 75 10000 2.57 90 00:55 12.03.2022
2631 Clouds -4 1027 78 10000 3.09 260 23:46 11.03.2022
2632 Clouds -3 1028 69 10000 1.79 293 22:36 11.03.2022
2633 Clouds -3 1027 62 10000 2.68 293 21:24 11.03.2022
2634 Clouds -3 1027 62 10000 2.68 293 21:24 11.03.2022
2635 Clouds -3 1027 60 10000 2.06 340 20:47 11.03.2022
2636 Clouds -3 1027 58 10000 1.54 330 20:26 11.03.2022
2637 Clouds -2 1028 58 10000 2.06 360 19:33 11.03.2022
2638 Clouds -2 1027 65 10000 2.06 340 18:33 11.03.2022
2639 Clouds -1 1026 56 10000 2.24 293 17:26 11.03.2022
2640 Clouds 0 1026 48 10000 3.09 340 16:25 11.03.2022
2641 Clouds 0 1026 45 10000 3.09 50 15:36 11.03.2022
2642 Clouds 1 1026 42 10000 5.14 340 13:42 11.03.2022
2643 Clouds 0 1027 50 10000 1.54 190 12:39 11.03.2022
2644 Clouds 0 1027 50 10000 2.06 260 12:19 11.03.2022
2645 Clouds -2 1025 54 10000 2.06 0 10:53 11.03.2022
2646 Clouds -4 1025 63 10000 1.03 0 09:35 11.03.2022
2647 Clouds -5 1025 68 10000 1.54 210 08:28 11.03.2022
2648 Clouds -4 1027 75 10000 1.54 220 07:48 11.03.2022
2649 Clouds -8 1027 82 10000 1.54 140 06:42 11.03.2022
2650 Clear -8 1026 80 10000 1.54 190 04:37 11.03.2022
2651 Clouds -6 1026 74 10000 2.06 180 01:29 11.03.2022
2652 Clouds -4 1026 70 8000 2.06 230 22:32 10.03.2022
2653 Clouds -5 1026 72 10000 1.03 0 21:53 10.03.2022
2654 Clouds -4 1026 69 10000 1.54 80 21:24 10.03.2022
2655 Clouds -4 1027 70 10000 0.51 0 20:34 10.03.2022
2656 Clouds -3 1027 69 10000 1.54 40 19:20 10.03.2022
2657 Clouds -2 1026 63 10000 5.66 60 17:50 10.03.2022
2658 Clouds 0 1025 55 10000 3.6 40 16:52 10.03.2022
2659 Clouds 1 1025 45 10000 5.14 50 15:27 10.03.2022
2660 Clouds 1 1023 49 10000 4.63 30 13:41 10.03.2022
2661 Clouds 1 1024 45 10000 5.14 50 12:38 10.03.2022
2662 Clouds 0 1021 43 10000 4.12 30 11:28 10.03.2022
2663 Clouds -3 1021 59 10000 0.51 0 09:28 10.03.2022
2664 Clear -3 1020 68 10000 0.51 0 07:47 10.03.2022
2665 Clouds -5 1020 78 10000 3.09 10 05:30 10.03.2022
2666 Clouds -3 1021 86 10000 2.06 300 01:56 10.03.2022
2667 Clouds -3 1020 89 1100 2.06 330 23:30 09.03.2022
2668 Clouds -2 1021 74 10000 3.09 270 21:56 09.03.2022
2669 Clouds -2 1021 74 10000 3.13 293 21:36 09.03.2022
2670 Clouds -2 1021 80 10000 3.6 280 19:56 09.03.2022
2671 Clouds -2 1019 84 10000 5.14 270 18:34 09.03.2022
2672 Clouds 0 1019 76 10000 6.17 270 17:27 09.03.2022
2673 Clouds 0 1018 75 10000 6.17 270 16:34 09.03.2022
2674 Clouds 2 1018 63 10000 6.26 0 15:31 09.03.2022
2675 Clouds 2 1017 51 10000 3.6 290 13:54 09.03.2022
2676 Clouds 2 1015 51 10000 4.12 300 12:48 09.03.2022
2677 Clouds 2 1016 55 10000 4.63 280 12:18 09.03.2022
2678 Clouds 1 1016 64 10000 3.6 280 11:35 09.03.2022
2679 Clouds 0 1016 64 10000 3.6 290 10:38 09.03.2022
2680 Clouds -1 1018 70 8000 3.6 300 08:59 09.03.2022
2681 Clouds -3 1016 74 8000 3.6 280 08:23 09.03.2022
2682 Clouds -3 1019 80 8000 3.6 280 02:59 09.03.2022
2683 Clouds -2 1019 78 8000 4.63 270 00:46 09.03.2022
2684 Clouds -2 1018 76 10000 3.09 280 22:48 08.03.2022
2685 Clouds -2 1018 76 10000 3.09 280 22:27 08.03.2022
2686 Clouds -2 1018 77 10000 3.6 280 21:23 08.03.2022
2687 Clouds -2 1019 79 10000 4.47 293 20:42 08.03.2022
2688 Clouds -2 1019 77 10000 3.6 300 19:42 08.03.2022
2689 Clouds -2 1019 77 10000 3.6 300 19:42 08.03.2022
2690 Clouds -2 1019 79 8000 3.6 280 18:44 08.03.2022
2691 Clouds 1 1019 72 8000 3.09 310 17:32 08.03.2022
2692 Clouds 1 1017 75 10000 3.6 300 15:56 08.03.2022
2693 Snow 2 1017 72 8000 2.57 280 14:19 08.03.2022
2694 Clouds 3 1018 67 8000 3.09 280 12:43 08.03.2022
2695 Clouds 2 1019 71 7000 4.63 280 11:45 08.03.2022
2696 Clouds 0 1017 78 8000 5.66 280 10:48 08.03.2022
2697 Clouds 0 1017 79 10000 4.92 293 09:51 08.03.2022
2698 Clouds -1 1016 87 8000 2.06 290 06:59 08.03.2022
2699 Clouds -1 1016 87 10000 2.57 270 04:52 08.03.2022
2700 Clouds -1 1016 91 3000 2.57 280 23:51 07.03.2022
2701 Clouds 0 1016 86 10000 3.13 293 21:57 07.03.2022
2702 Clouds 0 1016 86 10000 3.09 290 21:32 07.03.2022
2703 Clouds 0 1016 87 10000 3.6 280 20:46 07.03.2022
2704 Clouds 0 1016 85 10000 4.12 280 19:55 07.03.2022
2705 Clouds 1 1017 78 10000 3.6 280 19:31 07.03.2022
2706 Clouds 1 1016 81 10000 3.6 280 18:42 07.03.2022
2707 Clouds 1 1015 82 10000 3.6 290 17:47 07.03.2022
2708 Clouds 2 1015 79 10000 4.12 290 16:55 07.03.2022
2709 Clouds 2 1015 81 10000 3.6 300 15:35 07.03.2022
2710 Clouds 2 1015 80 10000 2.57 300 13:24 07.03.2022
2711 Clouds 3 1015 81 10000 2.06 260 12:23 07.03.2022
2712 Clouds 2 1016 82 10000 0 0 10:38 07.03.2022
2713 Clouds 2 1016 82 10000 0 0 10:38 07.03.2022
2714 Clouds 2 1015 86 8000 1.54 140 08:48 07.03.2022
2715 Clouds 0 1015 92 10000 4.12 90 03:49 07.03.2022
2716 Clouds 1 1015 88 8000 4.63 100 00:22 07.03.2022
2717 Clouds 1 1016 88 10000 5.66 110 23:31 06.03.2022
2718 Clouds 1 1016 88 6000 6.17 120 22:37 06.03.2022
2719 Clouds 1 1016 89 8000 6.71 90 21:46 06.03.2022
2720 Clouds 1 1016 89 10000 4.63 90 20:30 06.03.2022
2721 Mist 1 1016 90 3700 4.63 90 19:51 06.03.2022
2722 Clouds 1 1017 88 6000 4.12 90 18:51 06.03.2022
2723 Clouds 1 1017 88 2000 4.63 100 17:57 06.03.2022
2724 Clouds 1 1016 91 2200 4.92 90 17:21 06.03.2022
2725 Clouds 1 1016 92 2800 5.36 90 16:41 06.03.2022
2726 Clouds 1 1015 92 1200 4.63 110 15:45 06.03.2022
2727 Clouds 0 1015 94 1800 5.14 120 14:49 06.03.2022
2728 Clouds 1 1015 94 1700 4.63 120 14:30 06.03.2022
2729 Clouds 1 1015 88 1500 6.17 130 12:44 06.03.2022
2730 Clouds 2 1016 86 5000 7.72 120 11:56 06.03.2022
2731 Clouds 2 1015 91 7000 8.23 110 10:52 06.03.2022
2732 Snow 1 1016 90 5000 6.69 110 09:43 06.03.2022
2733 Clouds 1 1015 89 2300 7.2 110 08:29 06.03.2022
2734 Clouds 1 1015 91 7000 6.17 120 07:34 06.03.2022
2735 Clouds 1 1016 89 10000 6.17 100 04:45 06.03.2022
2736 Clouds 1 1015 90 8000 7.2 100 00:42 06.03.2022
2737 Clouds 2 1015 88 8000 6.69 100 00:23 06.03.2022
2738 Clouds 2 1016 88 9000 5.14 110 23:19 05.03.2022
2739 Clouds 2 1016 87 10000 4.63 120 22:42 05.03.2022
2740 Drizzle 2 1016 86 8000 4.63 120 21:36 05.03.2022
2741 Clouds 2 1016 86 8000 4.92 113 20:57 05.03.2022
2742 Clouds 2 1016 86 7000 4.12 130 19:23 05.03.2022
2743 Clouds 2 1016 85 7000 3.6 160 18:50 05.03.2022
2744 Mist 2 1016 83 3800 1.79 113 17:39 05.03.2022
2745 Clouds 2 1016 82 8000 3.09 90 16:20 05.03.2022
2746 Clouds 3 1016 81 7000 4.63 90 15:30 05.03.2022
2747 Clouds 4 1016 72 6000 5.14 90 14:37 05.03.2022
2748 Clouds 4 1016 70 10000 4.12 120 13:46 05.03.2022
2749 Clouds 5 1016 64 10000 4.63 120 12:46 05.03.2022
2750 Clouds 6 1016 55 8000 2.57 80 11:21 05.03.2022
2751 Clouds 4 1017 58 8000 1.54 110 10:53 05.03.2022
2752 Clouds 4 1017 52 8000 0.51 0 09:37 05.03.2022
2753 Clouds 2 1017 70 7000 0 0 08:31 05.03.2022
2754 Clouds -1 1017 81 7000 0 0 07:23 05.03.2022
2755 Clouds -1 1017 81 7000 0 0 07:23 05.03.2022
2756 Clouds -1 1016 71 10000 0 0 05:39 05.03.2022
2757 Clear -1 1016 65 10000 2.57 290 00:51 05.03.2022
2758 Clear -1 1016 71 10000 0 0 23:20 04.03.2022
2759 Clear 0 1016 61 10000 1.03 0 22:39 04.03.2022
2760 Clear 1 1016 58 10000 2.57 300 21:43 04.03.2022
2761 Clear 2 1015 52 10000 1.03 310 20:45 04.03.2022
2762 Clouds 3 1015 57 10000 1.34 293 19:38 04.03.2022
2763 Clear 3 1014 60 10000 2.06 250 18:58 04.03.2022
2764 Clear 2 1016 64 10000 2.06 250 18:35 04.03.2022
2765 Clouds 5 1014 46 10000 3.09 260 17:29 04.03.2022
2766 Clouds 8 1014 41 10000 4.63 280 15:58 04.03.2022
2767 Clouds 8 1014 39 10000 3.6 350 15:27 04.03.2022
2768 Clouds 8 1014 42 10000 3.09 300 13:36 04.03.2022
2769 Clear 7 1013 43 10000 1.03 0 12:48 04.03.2022
2770 Clear 4 1013 56 10000 1.54 0 11:37 04.03.2022
2771 Clear 1 1014 64 10000 1.03 0 10:26 04.03.2022
2772 Clear 2 1016 67 10000 1.54 170 09:28 04.03.2022
2773 Clouds 1 1017 70 7000 1.03 0 07:49 04.03.2022
2774 Clouds -3 1015 81 7000 1.03 0 06:26 04.03.2022
2775 Clouds -2 1015 79 6000 0 0 02:26 04.03.2022
2776 Clouds -3 1015 86 7000 0.51 0 23:41 03.03.2022
2777 Clouds -1 1016 75 9000 1.54 100 22:18 03.03.2022
2778 Clouds 0 1017 67 10000 1.54 150 21:36 03.03.2022
2779 Clear 1 1017 63 10000 1.79 293 20:48 03.03.2022
2780 Clouds 3 1014 56 10000 3.09 260 19:29 03.03.2022
2781 Clouds 3 1013 56 10000 4.12 270 18:26 03.03.2022
2782 Clouds 3 1013 56 10000 4.12 270 17:31 03.03.2022
2783 Clouds 4 1016 56 10000 7.72 260 16:41 03.03.2022
2784 Clouds 5 1015 53 10000 7.72 270 15:44 03.03.2022
2785 Clouds 6 1016 52 10000 7.72 270 14:45 03.03.2022
2786 Clouds 5 1015 54 10000 7.72 270 14:27 03.03.2022
2787 Clouds 4 1015 56 10000 7.72 270 12:35 03.03.2022
2788 Clouds 4 1016 58 10000 7.2 280 11:26 03.03.2022
2789 Clouds 4 1016 58 10000 7.72 280 10:38 03.03.2022
2790 Clouds 2 1016 66 10000 6.69 280 08:43 03.03.2022
2791 Clouds 0 1016 77 8000 5.14 290 06:58 03.03.2022
2792 Clouds 0 1017 76 10000 6.17 280 05:44 03.03.2022
2793 Clouds 1 1018 73 10000 5.66 280 00:30 03.03.2022
2794 Clouds 0 1018 73 10000 5.66 280 23:18 02.03.2022
2795 Clouds 0 1018 73 10000 5.66 280 22:42 02.03.2022
2796 Clouds 1 1019 69 10000 5.66 280 21:22 02.03.2022
2797 Clouds 1 1019 68 10000 5.14 280 20:30 02.03.2022
2798 Clouds 1 1019 68 10000 5.14 280 20:30 02.03.2022
2799 Clouds 1 1019 67 10000 5.14 280 19:43 02.03.2022
2800 Clouds 1 1017 66 10000 5.14 280 19:24 02.03.2022
2801 Clouds 1 1018 66 10000 5.66 280 18:39 02.03.2022
2802 Clouds 2 1019 66 10000 5.66 280 17:45 02.03.2022
2803 Clouds 2 1017 59 10000 5.14 280 16:54 02.03.2022
2804 Clouds 3 1017 56 10000 5.66 280 16:25 02.03.2022
2805 Clouds 4 1017 55 10000 5.14 270 14:39 02.03.2022
2806 Clouds 3 1016 56 10000 4.63 290 13:18 02.03.2022
2807 Clouds 2 1017 60 10000 5.14 270 12:39 02.03.2022
2808 Clouds 1 1018 75 10000 3.6 300 11:28 02.03.2022
2809 Clouds 1 1018 75 10000 3.09 280 10:58 02.03.2022
2810 Clouds 0 1021 79 10000 2.06 300 09:40 02.03.2022
2811 Clouds 1 1021 72 10000 2.24 293 08:45 02.03.2022
2812 Clouds 0 1023 79 10000 2.06 330 07:25 02.03.2022
2813 Clouds -2 1023 78 10000 2.68 293 05:42 02.03.2022
2814 Clouds 0 1024 76 10000 2.06 290 00:51 02.03.2022
2815 Clouds 0 1025 76 10000 1.54 320 23:40 01.03.2022
2816 Clouds 0 1025 75 10000 1.03 0 22:42 01.03.2022
2817 Clouds 0 1025 72 10000 1.03 210 21:55 01.03.2022
2818 Clouds 0 1025 72 10000 0 0 20:44 01.03.2022
2819 Clouds 0 1025 72 10000 0 0 20:22 01.03.2022
2820 Clouds 0 1025 69 10000 2.06 50 18:59 01.03.2022
2821 Clouds 1 1025 68 10000 2.06 40 18:26 01.03.2022
2822 Clouds 1 1025 70 10000 0 0 17:55 01.03.2022
2823 Clouds 1 1023 66 10000 4.12 40 16:50 01.03.2022
2824 Clouds 2 1023 64 10000 1.54 0 15:49 01.03.2022
2825 Clouds 3 1023 55 10000 2.24 90 14:54 01.03.2022
2826 Clouds 3 1023 56 10000 1.34 113 14:33 01.03.2022
2827 Clouds 2 1024 63 10000 3.6 20 13:26 01.03.2022
2828 Clouds 1 1022 60 10000 2.06 130 12:38 01.03.2022
2829 Clouds 2 1025 61 10000 1.34 113 11:44 01.03.2022
2830 Clouds 0 1023 64 10000 1.03 0 09:53 01.03.2022
2831 Clouds -4 1023 86 8000 1.03 90 08:31 01.03.2022
2832 Clouds -2 1026 73 10000 1.03 0 07:32 01.03.2022
2833 Clear -4 1024 88 10000 1.03 0 03:27 01.03.2022
2834 Clouds -3 1025 83 10000 1.54 20 00:58 01.03.2022
2835 Clouds -2 1025 77 10000 2.06 140 23:47 28.02.2022
2836 Clouds -2 1025 80 10000 1.54 190 22:50 28.02.2022
2837 Clouds -3 1025 82 10000 1.54 0 21:48 28.02.2022
2838 Clouds -2 1025 82 10000 1.54 210 20:56 28.02.2022
2839 Clouds -3 1025 84 10000 1.54 210 19:51 28.02.2022
2840 Clouds -3 1025 82 10000 2.06 230 19:22 28.02.2022
2841 Clouds -1 1025 77 10000 1.54 190 18:35 28.02.2022
2842 Clouds 0 1024 76 10000 2.06 20 17:23 28.02.2022
2843 Clouds 2 1024 70 10000 3.09 30 16:32 28.02.2022
2844 Clouds 2 1023 69 10000 4.12 20 15:21 28.02.2022
2845 Clouds 2 1023 69 10000 3.09 30 14:29 28.02.2022
2846 Clouds 2 1023 69 10000 6.17 30 13:24 28.02.2022
2847 Clouds 3 1023 69 10000 5.66 30 12:31 28.02.2022
2848 Clouds 3 1023 71 10000 1.54 350 11:21 28.02.2022
2849 Clouds 2 1023 76 10000 1.54 270 10:24 28.02.2022
2850 Clouds 2 1023 77 10000 2.06 260 09:53 28.02.2022
2851 Clouds 1 1022 79 10000 2.06 220 09:24 28.02.2022
2852 Clouds 1 1022 79 10000 2.06 220 09:24 28.02.2022
2853 Clouds 0 1022 83 10000 1.54 20 08:22 28.02.2022
2854 Clouds 0 1022 83 10000 1.54 20 08:22 28.02.2022
2855 Clouds -1 1022 81 10000 2.57 350 06:44 28.02.2022
2856 Clouds -1 1021 81 10000 1.03 0 04:31 28.02.2022
2857 Clouds -1 1022 96 9000 2.57 250 01:42 28.02.2022
2858 Clouds 0 1022 93 8000 2.06 240 22:57 27.02.2022
2859 Clouds 0 1022 93 8000 2.06 240 22:32 27.02.2022
2860 Clouds 0 1022 96 2500 1.54 210 21:42 27.02.2022
2861 Clouds 1 1022 90 4000 2.06 210 20:51 27.02.2022
2862 Clouds 1 1022 90 4000 1.54 210 20:22 27.02.2022
2863 Clouds 1 1022 90 2700 1.54 210 19:50 27.02.2022
2864 Clouds 1 1022 90 2300 1.03 0 19:24 27.02.2022
2865 Clouds 1 1022 90 2100 0 0 18:37 27.02.2022
2866 Clouds 1 1022 90 3000 1.03 0 17:53 27.02.2022
2867 Clouds 2 1022 90 1300 0.51 0 16:31 27.02.2022
2868 Clouds 2 1021 90 2000 1.54 180 15:39 27.02.2022
2869 Clouds 2 1022 88 6000 4.63 110 12:53 27.02.2022
2870 Clouds 2 1022 87 8000 5.66 110 12:29 27.02.2022
2871 Clouds 2 1023 88 3000 6.17 90 10:47 27.02.2022
2872 Clouds 2 1023 88 8000 7.2 100 09:58 27.02.2022
2873 Clouds 2 1023 87 3000 7.2 90 09:27 27.02.2022
2874 Clouds 2 1023 87 6000 7.2 90 08:54 27.02.2022
2875 Clouds 2 1023 81 7000 8.23 110 06:42 27.02.2022
2876 Clouds 4 1023 65 10000 8.23 130 04:26 27.02.2022
2877 Clouds 4 1023 65 10000 6.26 113 00:34 27.02.2022
2878 Clouds 5 1023 62 10000 4.47 90 22:50 26.02.2022
2879 Clouds 5 1023 60 10000 3.6 130 21:38 26.02.2022
2880 Clouds 6 1024 54 10000 2.57 150 20:48 26.02.2022
2881 Clouds 6 1024 53 10000 3.6 140 19:59 26.02.2022
2882 Clouds 5 1023 58 10000 3.6 140 19:34 26.02.2022
2883 Clouds 7 1023 51 10000 1.79 90 18:46 26.02.2022
2884 Clouds 7 1021 55 10000 3.6 70 17:40 26.02.2022
2885 Clouds 8 1021 54 10000 5.66 50 16:48 26.02.2022
2886 Clouds 10 1022 48 10000 6.17 40 15:48 26.02.2022
2887 Clouds 10 1022 47 10000 5.66 40 15:20 26.02.2022
2888 Clouds 10 1022 45 10000 6.69 20 14:51 26.02.2022
2889 Clouds 11 1019 40 10000 5.14 360 14:25 26.02.2022
2890 Clear 12 1022 38 10000 3.13 90 13:18 26.02.2022
2891 Clear 9 1020 43 10000 1.54 0 11:54 26.02.2022
2892 Clear 8 1020 53 10000 1.03 0 11:28 26.02.2022
2893 Clear 5 1020 60 10000 2.06 310 10:31 26.02.2022
2894 Clouds 5 1023 66 10000 2.06 90 08:45 26.02.2022
2895 Clouds 4 1023 70 8000 3.58 293 06:46 26.02.2022
2896 Clear -2 1018 80 9000 1.54 0 00:38 26.02.2022
2897 Clear 1 1018 60 8000 1.54 190 22:45 25.02.2022
2898 Clear 2 1019 62 10000 1.54 180 21:37 25.02.2022
2899 Clear 2 1019 61 10000 0 0 21:18 25.02.2022
2900 Clear 3 1019 60 9000 2.57 160 20:31 25.02.2022
2901 Clear 5 1018 50 10000 1.54 150 18:35 25.02.2022
2902 Clear 8 1017 40 10000 2.06 160 17:21 25.02.2022
2903 Clear 11 1018 36 10000 1.79 113 16:20 25.02.2022
2904 Clear 11 1017 32 10000 1.03 0 15:42 25.02.2022
2905 Clear 11 1017 32 10000 1.54 270 15:18 25.02.2022
2906 Clear 11 1019 34 10000 2.06 320 14:39 25.02.2022
2907 Clear 12 1019 34 10000 1.54 0 13:30 25.02.2022
2908 Clear 8 1017 34 10000 2.06 330 12:42 25.02.2022
2909 Clear 5 1018 56 10000 1.54 0 11:23 25.02.2022
2910 Clear 3 1019 65 10000 0.51 0 10:24 25.02.2022
2911 Clouds 2 1019 69 8000 0.51 0 09:52 25.02.2022
2912 Clouds 2 1022 73 8000 1.03 0 08:44 25.02.2022
2913 Clouds 3 1022 76 8000 0 0 07:36 25.02.2022
2914 Clouds -6 1020 93 8000 1.03 0 05:45 25.02.2022
2915 Clear -5 1020 93 10000 2.06 130 02:49 25.02.2022
2916 Clear -1 1023 80 10000 2.06 140 22:55 24.02.2022
2917 Clear -1 1023 77 10000 2.57 110 21:51 24.02.2022
2918 Clear 0 1023 73 10000 2.57 90 21:31 24.02.2022
2919 Clear 0 1023 70 10000 3.09 90 20:53 24.02.2022
2920 Clear 2 1024 63 10000 3.09 170 19:38 24.02.2022
2921 Clear 3 1024 61 10000 3.09 160 18:36 24.02.2022
2922 Clouds 3 1024 62 10000 4.12 150 18:18 24.02.2022
2923 Clouds 4 1023 57 10000 4.63 120 17:33 24.02.2022
2924 Clouds 7 1023 50 10000 5.14 140 16:28 24.02.2022
2925 Clouds 6 1023 51 10000 4.63 150 15:44 24.02.2022
2926 Clouds 7 1024 51 10000 3.6 140 14:51 24.02.2022
2927 Clouds 6 1024 52 10000 3.09 120 14:19 24.02.2022
2928 Clouds 7 1024 54 10000 3.6 150 13:39 24.02.2022
2929 Clouds 7 1024 54 10000 3.6 150 13:39 24.02.2022
2930 Clouds 6 1026 58 10000 1.34 90 11:56 24.02.2022
2931 Clouds 5 1028 65 10000 4.63 60 10:39 24.02.2022
2932 Clouds 5 1026 57 10000 4.12 280 08:46 24.02.2022
2933 Clouds 2 1024 69 10000 3.6 280 08:22 24.02.2022
2934 Clouds 1 1024 76 10000 3.6 280 05:50 24.02.2022
2935 Clouds 4 1023 67 10000 7.72 290 00:32 24.02.2022
2936 Clouds 5 1026 65 10000 6.17 270 22:29 23.02.2022
2937 Clouds 5 1022 60 10000 6.69 290 20:51 23.02.2022
2938 Clouds 5 1022 60 10000 6.69 290 20:30 23.02.2022
2939 Clouds 5 1022 56 10000 7.2 290 19:36 23.02.2022
2940 Clouds 7 1021 45 10000 6.17 280 18:31 23.02.2022
2941 Clouds 7 1024 57 10000 5.14 290 16:43 23.02.2022
2942 Clouds 8 1023 58 10000 6.69 280 14:33 23.02.2022
2943 Clouds 7 1019 65 10000 5.14 280 12:37 23.02.2022
2944 Clouds 6 1020 70 10000 4.12 260 11:23 23.02.2022
2945 Clouds 5 1019 75 10000 4.63 280 10:24 23.02.2022
2946 Clouds 4 1021 82 10000 5.14 270 08:56 23.02.2022
2947 Clouds 3 1021 85 10000 4.02 293 07:56 23.02.2022
2948 Clouds 4 1018 83 10000 2.57 280 03:47 23.02.2022
2949 Clouds 3 1017 92 7000 4.12 260 00:19 23.02.2022
2950 Clouds 3 1017 92 6000 4.12 260 23:34 22.02.2022
2951 Clouds 3 1016 92 6000 3.09 270 22:28 22.02.2022
2952 Clouds 3 1016 92 7000 3.6 280 21:48 22.02.2022
2953 Clouds 3 1016 89 8000 3.6 280 21:24 22.02.2022
2954 Clouds 4 1015 89 8000 4.12 280 20:47 22.02.2022
2955 Clouds 4 1015 89 10000 5.14 280 20:28 22.02.2022
2956 Clouds 3 1014 92 8000 6.69 270 19:34 22.02.2022
2957 Clouds 3 1013 92 8000 5.14 280 18:50 22.02.2022
2958 Clouds 3 1013 89 10000 5.66 280 17:36 22.02.2022
2959 Clouds 3 1011 85 8000 6.17 280 16:58 22.02.2022
2960 Clouds 3 1011 84 10000 5.36 293 16:26 22.02.2022
2961 Clouds 4 1010 84 10000 6.69 280 15:36 22.02.2022
2962 Clouds 4 1009 87 10000 7.72 270 14:37 22.02.2022
2963 Clouds 4 1010 89 10000 8.75 270 11:41 22.02.2022
2964 Clouds 8 1007 83 10000 3.6 290 10:22 22.02.2022
2965 Clouds 6 1007 91 5000 2.06 350 07:41 22.02.2022
2966 Clouds 6 1007 94 3000 3.09 330 07:23 22.02.2022
2967 Clouds 8 1005 80 10000 3.58 293 02:51 22.02.2022
2968 Clouds 9 1006 74 10000 3.6 40 23:48 21.02.2022
2969 Clouds 9 1007 69 10000 3.6 100 22:37 21.02.2022
2970 Clouds 10 1007 65 10000 6.69 100 21:24 21.02.2022
2971 Clouds 10 1005 66 10000 5.14 90 19:36 21.02.2022
2972 Clouds 13 1006 47 10000 2.57 200 18:39 21.02.2022
2973 Clouds 14 1009 48 10000 6.69 200 16:37 21.02.2022
2974 Clouds 16 1010 49 10000 4.92 135 14:24 21.02.2022
2975 Clouds 17 1011 49 10000 1.03 0 13:54 21.02.2022
2976 Clouds 16 1012 53 10000 1.54 0 12:57 21.02.2022
2977 Clouds 12 1010 58 10000 1.54 0 12:21 21.02.2022
2978 Clouds 14 1016 57 10000 1.34 23 10:32 21.02.2022
2979 Clouds 4 1015 93 7000 2.06 130 07:52 21.02.2022
2980 Clouds 6 1020 82 10000 4.63 280 00:36 21.02.2022
2981 Rain 7 1020 80 10000 4.63 280 22:37 20.02.2022
2982 Rain 7 1020 79 10000 6.17 290 21:51 20.02.2022
2983 Clouds 7 1020 76 10000 3.6 280 21:25 20.02.2022
2984 Clouds 8 1019 73 10000 3.6 270 20:45 20.02.2022
2985 Clouds 9 1019 72 10000 4.12 280 19:51 20.02.2022
2986 Clouds 9 1019 71 10000 5.14 270 18:57 20.02.2022
2987 Clouds 10 1019 69 10000 5.14 270 18:37 20.02.2022
2988 Clouds 10 1018 68 10000 4.63 280 17:56 20.02.2022
2989 Clouds 12 1018 64 10000 3.6 280 17:24 20.02.2022
2990 Clouds 14 1017 49 10000 3.09 280 15:28 20.02.2022
2991 Clouds 14 1018 48 10000 3.09 290 13:59 20.02.2022
2992 Clouds 12 1016 50 10000 1.54 0 12:47 20.02.2022
2993 Clouds 10 1017 57 10000 1.54 280 11:55 20.02.2022
2994 Clear 10 1020 57 10000 2.06 60 10:21 20.02.2022
2995 Clear 12 1021 55 10000 2.57 100 09:35 20.02.2022
2996 Clear 6 1022 68 10000 1.79 293 06:29 20.02.2022
2997 Clear 3 1018 70 10000 1.03 280 00:32 20.02.2022
2998 Clear 4 1018 65 10000 1.54 170 23:33 19.02.2022
2999 Clear 5 1018 60 10000 2.06 40 22:24 19.02.2022
3000 Clear 6 1021 63 10000 2.57 120 21:45 19.02.2022
3001 Clear 6 1019 61 10000 2.06 130 20:26 19.02.2022
3002 Clear 8 1019 52 10000 2.06 80 19:34 19.02.2022
3003 Clear 9 1018 49 10000 3.6 50 18:40 19.02.2022
3004 Clear 9 1018 49 10000 3.6 50 18:40 19.02.2022
3005 Clear 11 1018 42 10000 1.03 0 17:57 19.02.2022
3006 Clear 13 1019 40 10000 0.51 210 16:47 19.02.2022
3007 Clear 16 1019 34 10000 1.54 150 15:59 19.02.2022
3008 Clear 15 1018 30 10000 2.06 90 14:53 19.02.2022
3009 Clear 16 1020 31 10000 2.06 0 13:55 19.02.2022
3010 Clear 9 1019 43 10000 2.06 0 11:42 19.02.2022
3011 Clear 8 1018 46 10000 1.03 0 10:45 19.02.2022
3012 Clear 2 1019 69 10000 1.54 170 08:56 19.02.2022
3013 Clear -4 1018 93 10000 0.51 0 06:45 19.02.2022
3014 Clear 1 1021 68 10000 1.54 20 00:23 19.02.2022
3015 Clear 2 1020 63 10000 1.54 270 22:24 18.02.2022
3016 Clear 4 1020 57 10000 1.54 70 21:18 18.02.2022
3017 Clear 7 1019 45 10000 4.12 280 19:56 18.02.2022
3018 Clear 7 1020 45 10000 2.68 293 18:51 18.02.2022
3019 Clear 8 1019 42 10000 5.14 280 18:25 18.02.2022
3020 Clear 9 1019 40 10000 6.17 290 17:56 18.02.2022
3021 Clouds 11 1018 33 10000 8.75 280 15:35 18.02.2022
3022 Clouds 12 1020 32 10000 10.29 300 13:56 18.02.2022
3023 Clouds 11 1016 32 10000 9.26 290 13:28 18.02.2022
3024 Clouds 11 1016 35 10000 9.77 280 12:41 18.02.2022
3025 Clouds 9 1016 40 10000 9.77 280 11:55 18.02.2022
3026 Clear 8 1016 53 10000 8.23 280 10:24 18.02.2022
3027 Clouds 5 1017 66 10000 7.72 280 06:58 18.02.2022
3028 Clouds 5 1016 84 10000 8.23 270 05:41 18.02.2022
3029 Clear 6 1010 71 10000 3.09 310 23:43 17.02.2022
3030 Clear 7 1008 67 10000 3.6 300 21:46 17.02.2022
3031 Clear 8 1009 66 10000 4.12 270 21:20 17.02.2022
3032 Clear 7 1008 65 10000 1.54 260 20:39 17.02.2022
3033 Clear 8 1008 64 10000 1.79 293 19:52 17.02.2022
3034 Clear 9 1008 60 10000 3.09 90 18:54 17.02.2022
3035 Clouds 11 1008 53 10000 2.06 40 17:55 17.02.2022
3036 Clouds 13 1008 46 10000 2.57 160 16:43 17.02.2022
3037 Clouds 14 1008 41 10000 3.09 0 15:38 17.02.2022
3038 Clouds 14 1008 44 10000 1.54 80 14:28 17.02.2022
3039 Clouds 12 1009 50 10000 1.54 0 12:43 17.02.2022
3040 Clouds 9 1011 61 8000 1.03 0 11:27 17.02.2022
3041 Mist 7 1015 80 2200 1.79 113 08:53 17.02.2022
3042 Clouds 1 1017 89 8000 0 0 02:26 17.02.2022
3043 Clear 2 1018 85 10000 1.54 160 23:21 16.02.2022
3044 Clear 3 1018 82 10000 2.06 170 21:40 16.02.2022
3045 Clear 4 1017 79 10000 2.06 90 19:47 16.02.2022
3046 Clear 6 1017 70 10000 5.14 90 18:39 16.02.2022
3047 Clouds 7 1017 66 10000 3.09 70 17:53 16.02.2022
3048 Clouds 12 1017 52 10000 4.63 100 15:39 16.02.2022
3049 Clouds 12 1017 52 10000 4.63 100 15:18 16.02.2022
3050 Clouds 12 1018 54 10000 3.6 80 12:59 16.02.2022
3051 Clouds 8 1018 66 10000 1.03 0 11:58 16.02.2022
3052 Clouds 9 1020 65 8000 1.54 360 11:24 16.02.2022
3053 Clouds 7 1020 68 8000 0.51 0 10:33 16.02.2022
3054 Mist 3 1022 83 4500 1.54 190 07:21 16.02.2022
3055 Mist 2 1022 85 4000 1.03 0 05:20 16.02.2022
3056 Clear 2 1022 84 10000 1.54 70 23:44 15.02.2022
3057 Clear 3 1022 77 10000 2.06 130 22:28 15.02.2022
3058 Clear 3 1022 79 10000 2.06 140 21:46 15.02.2022
3059 Clear 4 1022 75 10000 2.57 120 21:27 15.02.2022
3060 Clouds 4 1022 74 10000 3.6 90 20:56 15.02.2022
3061 Clear 6 1021 69 10000 4.63 80 19:57 15.02.2022
3062 Clear 6 1021 65 10000 3.6 90 18:52 15.02.2022
3063 Clear 6 1021 67 10000 1.54 130 18:20 15.02.2022
3064 Clear 7 1021 61 10000 1.54 120 17:48 15.02.2022
3065 Clear 10 1021 51 10000 2.06 130 16:32 15.02.2022
3066 Clear 10 1021 49 10000 1.79 113 15:22 15.02.2022
3067 Clear 10 1021 53 10000 3.13 90 13:27 15.02.2022
3068 Clear 6 1021 70 10000 1.54 0 11:58 15.02.2022
3069 Mist 3 1022 93 5000 1.03 0 10:59 15.02.2022
3070 Fog 7 1025 74 200 1.03 0 09:28 15.02.2022
3071 Fog -1 1024 96 200 1.54 90 06:50 15.02.2022
3072 Fog -3 1021 100 10000 0.51 0 02:36 15.02.2022
3073 Clouds 1 1024 90 8000 1.54 110 22:26 14.02.2022
3074 Clouds 2 1024 86 8000 1.54 160 21:27 14.02.2022
3075 Clouds 3 1023 87 6000 0 0 20:24 14.02.2022
3076 Clouds 2 1023 84 6000 0.51 0 19:30 14.02.2022
3077 Clouds 3 1023 82 8000 1.03 80 18:27 14.02.2022
3078 Clouds 3 1023 81 10000 1.54 100 17:58 14.02.2022
3079 Clouds 4 1023 77 10000 1.54 140 17:24 14.02.2022
3080 Clouds 6 1023 72 10000 1.79 90 15:58 14.02.2022
3081 Clouds 7 1024 70 8000 1.03 0 13:40 14.02.2022
3082 Clouds 7 1024 71 8000 1.03 0 13:22 14.02.2022
3083 Clouds 6 1024 71 8000 1.79 90 12:32 14.02.2022
3084 Clouds 5 1025 80 7000 1.03 0 11:47 14.02.2022
3085 Clouds 4 1027 80 2500 1.54 340 10:25 14.02.2022
3086 Clouds 1 1026 80 6000 0 0 08:34 14.02.2022
3087 Clouds 0 1025 88 10000 0.45 293 07:26 14.02.2022
3088 Clouds 0 1027 79 10000 4.63 90 23:37 13.02.2022
3089 Clouds 0 1027 77 10000 4.63 90 22:41 13.02.2022
3090 Clouds 1 1027 74 10000 5.14 90 22:23 13.02.2022
3091 Clouds 1 1027 75 10000 4.63 100 21:27 13.02.2022
3092 Clouds 2 1027 72 10000 4.63 100 20:30 13.02.2022
3093 Clouds 2 1027 73 10000 4.12 100 19:24 13.02.2022
3094 Clouds 3 1028 70 10000 1.79 90 18:42 13.02.2022
3095 Clouds 3 1028 69 10000 3.09 140 17:54 13.02.2022
3096 Clouds 5 1028 58 10000 7.2 100 15:54 13.02.2022
3097 Clouds 5 1028 58 10000 7.2 100 15:54 13.02.2022
3098 Clouds 6 1028 55 10000 6.17 90 14:57 13.02.2022
3099 Clouds 7 1030 55 10000 7.2 110 13:59 13.02.2022
3100 Clouds 6 1030 56 10000 6.69 120 12:49 13.02.2022
3101 Clouds 5 1031 64 10000 8.23 120 11:24 13.02.2022
3102 Clouds 3 1032 69 10000 8.75 120 10:28 13.02.2022
3103 Clouds 2 1032 74 10000 8.75 120 09:36 13.02.2022
3104 Clouds 2 1032 67 10000 7.72 110 06:21 13.02.2022
3105 Clouds 5 1032 78 10000 7.2 120 00:35 13.02.2022
3106 Clouds 5 1032 71 10000 5.66 110 22:59 12.02.2022
3107 Clouds 5 1032 69 10000 5.66 110 22:33 12.02.2022
3108 Clouds 4 1032 57 8000 2.57 160 21:19 12.02.2022
3109 Clouds 5 1031 54 10000 1.54 260 20:25 12.02.2022
3110 Clouds 5 1031 50 10000 1.54 230 19:18 12.02.2022
3111 Clouds 5 1031 51 10000 1.54 0 18:41 12.02.2022
3112 Clouds 5 1030 50 10000 0.51 0 18:23 12.02.2022
3113 Clear 8 1028 39 10000 4.63 40 16:55 12.02.2022
3114 Clear 9 1027 37 10000 4.12 20 16:25 12.02.2022
3115 Clear 10 1027 34 10000 4.63 50 15:49 12.02.2022
3116 Clear 10 1027 43 10000 4.12 270 14:30 12.02.2022
3117 Clear 9 1028 46 10000 4.12 280 12:55 12.02.2022
3118 Clear 6 1029 65 10000 7.2 280 10:35 12.02.2022
3119 Clear 6 1028 65 10000 6.69 280 09:38 12.02.2022
3120 Clouds 5 1030 75 10000 6.17 280 08:48 12.02.2022
3121 Clouds 4 1029 83 10000 5.66 280 07:50 12.02.2022
3122 Clouds 5 1029 70 8000 2.24 293 05:33 12.02.2022
3123 Clouds 1 1027 81 8000 1.54 200 02:20 12.02.2022
3124 Clouds 1 1027 81 8000 1.03 0 01:44 12.02.2022
3125 Clear 1 1024 79 8000 0 0 22:27 11.02.2022
3126 Clear 1 1024 78 10000 2.06 170 21:45 11.02.2022
3127 Clear 3 1023 72 10000 1.54 120 20:38 11.02.2022
3128 Clear 5 1023 67 10000 2.06 160 19:33 11.02.2022
3129 Clear 5 1023 66 10000 3.6 170 18:58 11.02.2022
3130 Clear 8 1022 59 10000 2.06 100 17:28 11.02.2022
3131 Clear 10 1022 52 10000 1.54 120 16:58 11.02.2022
3132 Clear 14 1020 35 10000 1.03 0 15:33 11.02.2022
3133 Clear 13 1020 38 10000 1.54 90 14:38 11.02.2022
3134 Clear 13 1020 38 10000 1.54 90 14:20 11.02.2022
3135 Clear 13 1021 38 10000 1.03 0 13:47 11.02.2022
3136 Clear 12 1021 43 10000 1.54 250 13:28 11.02.2022
3137 Clear 7 1023 61 10000 0.51 0 11:27 11.02.2022
3138 Clear 2 1024 87 8000 1.03 0 09:39 11.02.2022
3139 Clear 0 1024 93 7000 1.54 50 08:39 11.02.2022
3140 Mist -1 1024 100 5000 1.03 0 08:21 11.02.2022
3141 Mist -4 1024 100 3000 1.54 120 06:31 11.02.2022
3142 Mist -3 1024 100 1500 0 0 02:24 11.02.2022
3143 Mist -1 1026 90 4000 1.03 250 00:44 11.02.2022
3144 Clear 0 1027 85 8000 2.06 140 22:39 10.02.2022
3145 Clear 2 1027 79 10000 1.54 220 21:43 10.02.2022
3146 Clear 2 1027 80 8000 2.57 160 20:50 10.02.2022
3147 Clear 2 1027 83 7000 1.54 130 19:59 10.02.2022
3148 Clear 2 1028 78 7000 1.54 150 19:23 10.02.2022
3149 Clear 3 1028 75 8000 1.54 140 18:33 10.02.2022
3150 Clear 6 1028 70 10000 1.54 120 17:23 10.02.2022
3151 Clear 8 1028 64 10000 2.57 160 16:43 10.02.2022
3152 Clear 10 1028 60 10000 1.54 170 15:41 10.02.2022
3153 Clear 11 1028 59 10000 1.54 180 15:21 10.02.2022
3154 Clear 12 1029 54 10000 1.54 150 14:35 10.02.2022
3155 Clear 9 1026 61 10000 0.51 0 13:56 10.02.2022
3156 Clear 8 1026 66 10000 1.54 210 13:19 10.02.2022
3157 Clear 5 1028 75 10000 1.03 0 11:53 10.02.2022
3158 Clear 5 1028 75 10000 1.03 0 11:32 10.02.2022
3159 Clouds 3 1028 81 10000 1.54 110 10:23 10.02.2022
3160 Clouds 2 1028 80 10000 1.03 0 09:44 10.02.2022
3161 Mist -2 1029 93 2000 1.03 150 08:40 10.02.2022
3162 Fog -3 1031 95 600 1.54 90 06:33 10.02.2022
3163 Mist -2 1030 90 1500 1.54 290 03:21 10.02.2022
3164 Clouds 2 1031 84 6000 1.34 0 00:56 10.02.2022
3165 Clouds 2 1031 82 6000 0.51 0 00:38 10.02.2022
3166 Clouds 3 1031 81 7000 1.54 110 00:20 10.02.2022
3167 Clouds 4 1032 78 10000 3.6 270 22:54 09.02.2022
3168 Clouds 5 1031 76 10000 3.09 270 22:30 09.02.2022
3169 Clouds 5 1032 76 10000 4.12 270 21:47 09.02.2022
3170 Clouds 5 1032 76 10000 3.6 280 21:27 09.02.2022
3171 Clouds 5 1031 77 10000 4.12 280 20:43 09.02.2022
3172 Clouds 5 1031 78 10000 5.14 280 20:22 09.02.2022
3173 Clouds 5 1031 78 10000 5.66 280 19:40 09.02.2022
3174 Clouds 5 1031 78 10000 6.69 270 18:31 09.02.2022
3175 Clouds 5 1030 79 10000 6.69 280 16:55 09.02.2022
3176 Clouds 5 1030 79 10000 8.23 280 15:59 09.02.2022
3177 Clouds 5 1030 77 10000 9.26 270 15:22 09.02.2022
3178 Clouds 5 1030 77 10000 9.26 270 15:22 09.02.2022
3179 Clouds 7 1029 63 10000 7.2 280 12:43 09.02.2022
3180 Clouds 6 1026 65 10000 7.72 280 11:23 09.02.2022
3181 Clouds 5 1026 65 10000 7.2 280 10:33 09.02.2022
3182 Clouds 4 1026 70 10000 6.69 280 09:45 09.02.2022
3183 Clouds 3 1026 70 10000 5.66 290 09:20 09.02.2022
3184 Clouds 3 1028 73 10000 5.66 290 08:43 09.02.2022
3185 Clouds 2 1025 69 10000 6.17 280 05:37 09.02.2022
3186 Clouds 1 1024 69 10000 6.17 280 03:51 09.02.2022
3187 Clouds 0 1024 69 10000 5.14 280 01:33 09.02.2022
3188 Clouds 0 1024 69 10000 4.63 260 23:42 08.02.2022
3189 Clouds 0 1024 64 10000 3.6 270 22:53 08.02.2022
3190 Clouds 1 1024 60 10000 5.66 270 22:27 08.02.2022
3191 Clouds 1 1024 55 10000 3.09 280 21:58 08.02.2022
3192 Clouds 1 1023 60 10000 3.09 280 21:21 08.02.2022
3193 Clouds 1 1023 60 10000 3.09 310 20:55 08.02.2022
3194 Clouds 1 1026 63 10000 4.92 293 20:23 08.02.2022
3195 Clouds 1 1026 61 10000 4.12 310 18:53 08.02.2022
3196 Clouds 3 1021 48 10000 5.14 320 17:50 08.02.2022
3197 Clouds 3 1020 48 10000 4.63 350 16:35 08.02.2022
3198 Clouds 3 1021 54 10000 5.14 320 15:39 08.02.2022
3199 Clouds 3 1020 53 10000 6.69 320 14:56 08.02.2022
3200 Clouds 3 1019 56 10000 7.2 320 13:29 08.02.2022
3201 Clouds 3 1019 57 10000 7.72 330 12:18 08.02.2022
3202 Clouds 2 1019 64 10000 5.66 330 10:39 08.02.2022
3203 Clouds 1 1018 68 10000 5.66 300 09:46 08.02.2022
3204 Clouds 0 1017 74 10000 4.02 293 08:25 08.02.2022
3205 Clouds 0 1014 75 10000 5.66 280 05:41 08.02.2022
3206 Clouds 0 1013 76 10000 7.2 290 04:39 08.02.2022
3207 Clouds 0 1013 76 10000 7.2 280 04:21 08.02.2022
3208 Clouds 0 1012 79 10000 7.72 280 03:36 08.02.2022
3209 Clouds 0 1012 79 10000 8.23 280 03:18 08.02.2022
3210 Clouds 1 1012 77 10000 8.75 280 02:59 08.02.2022
3211 Clouds 1 1012 77 10000 8.75 280 02:36 08.02.2022
3212 Clear 1 1012 77 10000 8.23 280 02:18 08.02.2022
3213 Clouds 1 1011 77 10000 7.72 290 01:44 08.02.2022
3214 Clouds 1 1011 80 10000 7.2 290 01:24 08.02.2022
3215 Clouds 1 1011 81 10000 7.72 280 00:55 08.02.2022
3216 Clouds 0 1012 91 7000 7.2 280 23:58 07.02.2022
3217 Clouds 0 1012 91 7000 7.2 280 23:40 07.02.2022
3218 Clouds 1 1011 89 6000 7.2 280 23:18 07.02.2022
3219 Clouds 1 1012 88 10000 7.2 280 22:42 07.02.2022
3220 Clouds 1 1011 88 10000 7.2 280 22:18 07.02.2022
3221 Clouds 0 1011 95 8000 6.69 280 21:43 07.02.2022
3222 Clouds 1 1011 88 1700 8.23 280 21:25 07.02.2022
3223 Clouds 1 1010 90 6000 8.75 280 20:41 07.02.2022
3224 Clouds 2 1009 88 10000 9.26 280 19:54 07.02.2022
3225 Clouds 2 1009 88 10000 10.29 280 19:36 07.02.2022
3226 Clouds 3 1008 85 10000 10.8 280 18:18 07.02.2022
3227 Clouds 9 1003 57 10000 1.03 0 16:53 07.02.2022
3228 Clouds 8 1003 61 10000 1.54 40 15:49 07.02.2022
3229 Clouds 9 1004 53 10000 4.12 40 14:56 07.02.2022
3230 Clouds 8 1005 61 10000 3.09 20 13:36 07.02.2022
3231 Clouds 8 1005 61 10000 3.09 20 13:18 07.02.2022
3232 Clouds 7 1007 65 10000 2.57 120 11:58 07.02.2022
3233 Clouds 6 1007 70 10000 2.57 140 11:36 07.02.2022
3234 Clouds 7 1010 68 10000 2.68 180 10:51 07.02.2022
3235 Clouds 7 1010 69 10000 3.13 113 10:31 07.02.2022
3236 Clouds 4 1009 81 10000 3.09 90 09:53 07.02.2022
3237 Clouds 4 1009 81 10000 3.6 120 09:18 07.02.2022
3238 Clouds 3 1010 81 10000 2.06 100 08:38 07.02.2022
3239 Clouds 0 1010 86 10000 2.57 60 06:58 07.02.2022
3240 Clouds 0 1010 86 10000 1.03 0 06:34 07.02.2022
3241 Clear 0 1014 85 10000 1.03 0 02:59 07.02.2022
3242 Clear 0 1016 79 10000 2.06 130 00:45 07.02.2022
3243 Clear 0 1016 79 10000 2.06 130 00:45 07.02.2022
3244 Clouds 0 1017 82 9000 2.57 140 23:47 06.02.2022
3245 Clear 1 1018 71 10000 1.54 0 22:48 06.02.2022
3246 Clouds 1 1019 74 8000 2.06 210 21:54 06.02.2022
3247 Clouds 1 1020 74 8000 2.06 210 21:35 06.02.2022
3248 Clouds 2 1020 70 10000 1.54 70 20:54 06.02.2022
3249 Clouds 0 1018 74 10000 1.54 70 20:31 06.02.2022
3250 Clouds 3 1021 63 10000 1.54 130 19:38 06.02.2022
3251 Clear 2 1022 69 10000 2.06 120 18:40 06.02.2022
3252 Clear 3 1019 65 10000 3.09 90 17:55 06.02.2022
3253 Clear 4 1019 56 10000 2.57 110 17:18 06.02.2022
3254 Clear 8 1019 46 10000 2.06 130 16:38 06.02.2022
3255 Clear 8 1020 46 10000 2.57 150 15:48 06.02.2022
3256 Clear 8 1020 46 10000 2.57 150 15:26 06.02.2022
3257 Clear 9 1021 43 10000 2.06 140 14:33 06.02.2022
3258 Clear 9 1022 40 10000 0.51 0 13:25 06.02.2022
3259 Clear 8 1022 36 10000 1.54 0 12:49 06.02.2022
3260 Clear 6 1024 49 10000 4.12 300 11:24 06.02.2022
3261 Clear 5 1024 56 10000 4.12 310 10:29 06.02.2022
3262 Clear 2 1024 80 10000 2.57 300 08:49 06.02.2022
3263 Clear 1 1024 80 10000 2.57 330 07:36 06.02.2022
3264 Clouds 3 1023 75 10000 3.6 290 05:29 06.02.2022
3265 Clouds 3 1023 87 10000 5.14 270 02:26 06.02.2022
3266 Clouds 3 1023 87 10000 5.14 270 01:32 06.02.2022
3267 Clear 4 1022 81 10000 4.63 270 00:24 06.02.2022
3268 Clear 4 1021 81 10000 4.12 270 22:19 05.02.2022
3269 Clouds 5 1020 70 10000 3.6 280 20:52 05.02.2022
3270 Clouds 5 1020 70 10000 5.66 270 20:24 05.02.2022
3271 Clouds 5 1020 70 10000 6.17 270 19:45 05.02.2022
3272 Clouds 6 1019 61 10000 6.17 290 18:49 05.02.2022
3273 Clouds 7 1018 57 10000 4.63 290 17:37 05.02.2022
3274 Clouds 7 1018 57 10000 5.14 280 16:37 05.02.2022
3275 Clouds 8 1017 53 10000 3.6 290 15:33 05.02.2022
3276 Clouds 6 1017 56 10000 1.54 120 14:40 05.02.2022
3277 Clouds 5 1018 52 10000 1.54 180 12:46 05.02.2022
3278 Clear 2 1018 60 10000 1.54 130 11:49 05.02.2022
3279 Clear 2 1019 60 8000 1.03 0 10:46 05.02.2022
3280 Clear -1 1019 74 8000 1.54 270 09:52 05.02.2022
3281 Clear -3 1019 74 8000 0 0 09:25 05.02.2022
3282 Clear -1 1022 88 8000 1.54 90 07:36 05.02.2022
3283 Clear -4 1021 89 8000 1.03 0 06:56 05.02.2022
3284 Clear -5 1021 87 8000 1.03 130 03:22 05.02.2022
3285 Clear -5 1021 86 6000 2.06 120 01:19 05.02.2022
3286 Clear -5 1021 86 6000 2.06 120 01:19 05.02.2022
3287 Clear -4 1021 86 6000 1.03 130 00:39 05.02.2022
3288 Clear -4 1021 85 7000 2.57 100 23:33 04.02.2022
3289 Clear -3 1021 85 7000 0 0 22:55 04.02.2022
3290 Clear -3 1021 83 7000 0.51 0 21:36 04.02.2022
3291 Clear -3 1021 83 7000 0.51 0 21:18 04.02.2022
3292 Clear -3 1020 81 8000 1.54 190 20:40 04.02.2022
3293 Clear -2 1021 78 10000 1.03 100 19:30 04.02.2022
3294 Clear 1 1018 64 10000 2.57 130 16:56 04.02.2022
3295 Clear 2 1019 60 10000 0 0 15:34 04.02.2022
3296 Clouds 2 1019 60 10000 2.06 160 14:51 04.02.2022
3297 Clear 1 1020 60 10000 1.54 150 12:43 04.02.2022
3298 Clear 1 1021 64 10000 0.51 0 11:46 04.02.2022
3299 Clouds -2 1021 74 8000 0.51 0 10:59 04.02.2022
3300 Clear -3 1021 80 10000 1.03 0 10:22 04.02.2022
3301 Clouds -1 1024 83 7000 2.06 90 08:31 04.02.2022
3302 Clouds -3 1024 78 8000 1.54 150 04:45 04.02.2022
3303 Clear -3 1023 78 10000 2.24 293 02:38 04.02.2022
3304 Clear -2 1023 76 10000 1.34 293 00:18 04.02.2022
3305 Clouds -2 1023 77 10000 4.92 293 22:52 03.02.2022
3306 Clear -1 1023 75 10000 4.47 293 21:58 03.02.2022
3307 Clear -1 1023 75 10000 3.13 293 21:37 03.02.2022
3308 Clear 0 1023 76 10000 5.66 280 20:22 03.02.2022
3309 Clouds 0 1023 75 10000 2.24 293 19:46 03.02.2022
3310 Clouds 0 1023 75 10000 1.79 293 19:20 03.02.2022
3311 Clouds 2 1019 64 10000 5.66 280 17:59 03.02.2022
3312 Clouds 2 1018 64 10000 7.2 280 17:19 03.02.2022
3313 Clouds 2 1019 81 10000 4.92 0 15:34 03.02.2022
3314 Clouds 3 1019 70 10000 0.89 0 13:50 03.02.2022
3315 Clouds 3 1017 70 10000 5.14 290 12:32 03.02.2022
3316 Clouds 1 1017 79 10000 3.58 0 08:56 03.02.2022
3317 Clouds 1 1016 81 10000 3.58 293 07:43 03.02.2022
3318 Clouds 0 1009 80 10000 4.12 280 00:49 03.02.2022
3319 Clouds 0 1009 80 10000 5.14 280 00:22 03.02.2022
3320 Clouds -1 1008 86 10000 5.66 280 22:39 02.02.2022
3321 Clouds 0 1008 80 10000 4.63 280 21:46 02.02.2022
3322 Clouds 0 1008 74 10000 6.17 280 21:28 02.02.2022
3323 Clouds 0 1008 74 10000 6.17 270 20:24 02.02.2022
3324 Clouds 0 1008 69 10000 5.66 270 19:46 02.02.2022
3325 Clouds 1 1007 69 10000 5.14 270 18:56 02.02.2022
3326 Clouds 1 1007 69 10000 4.63 280 18:24 02.02.2022
3327 Clouds 1 1006 69 10000 2.57 240 17:20 02.02.2022
3328 Clouds 1 1006 69 10000 2.57 240 16:54 02.02.2022
3329 Clear 2 1008 66 10000 2.68 293 14:42 02.02.2022
3330 Clouds -1 1006 80 10000 5.66 280 12:29 02.02.2022
3331 Clouds 0 1008 74 10000 3.58 293 11:44 02.02.2022
3332 Clouds 1 1009 75 10000 4.92 293 11:24 02.02.2022
3333 Clouds -1 1009 91 1200 4.12 270 08:27 02.02.2022
3334 Clouds -1 1009 95 3200 2.57 270 01:37 02.02.2022
3335 Clouds -1 1010 94 7000 3.09 270 22:29 01.02.2022
3336 Clouds -1 1011 94 3000 3.6 270 20:50 01.02.2022
3337 Clouds -1 1010 94 2500 2.57 290 18:55 01.02.2022
3338 Clouds 0 1009 92 1400 2.57 280 16:46 01.02.2022
3339 Clouds 0 1009 91 1200 3.09 270 15:44 01.02.2022
3340 Clouds 3 1007 57 10000 3.13 113 12:49 01.02.2022
3341 Clouds 4 1007 54 10000 1.34 113 11:51 01.02.2022
3342 Clouds 1 1007 72 8000 1.54 310 08:37 01.02.2022
3343 Clear -2 1007 76 10000 2.06 210 00:28 01.02.2022
3344 Clear -1 1007 74 10000 2.57 150 23:36 31.01.2022
3345 Clear 0 1007 74 10000 0.51 0 22:30 31.01.2022
3346 Clear 0 1008 72 10000 2.06 130 21:34 31.01.2022
3347 Clear 1 1008 64 10000 1.03 0 20:34 31.01.2022
3348 Clear 0 1009 66 10000 2.57 80 19:46 31.01.2022
3349 Clear 2 1009 58 10000 0.45 135 18:31 31.01.2022
3350 Clear 2 1009 58 10000 0.45 135 18:31 31.01.2022
3351 Clear 2 1009 58 10000 0.45 135 18:31 31.01.2022
3352 Clear 2 1009 58 10000 0.89 113 17:53 31.01.2022
3353 Clear 3 1010 50 10000 1.34 113 16:58 31.01.2022
3354 Clear 5 1008 42 10000 3.09 330 15:46 31.01.2022
3355 Clear 6 1010 36 10000 6.69 270 14:27 31.01.2022
3356 Clouds 5 1011 42 10000 5.66 290 12:55 31.01.2022
3357 Clouds 3 1012 48 10000 6.17 290 11:59 31.01.2022
3358 Clouds 4 1014 48 10000 5.66 300 10:54 31.01.2022
3359 Clouds 2 1014 51 10000 5.66 300 10:36 31.01.2022
3360 Clouds 3 1014 52 10000 6.17 290 09:34 31.01.2022
3361 Clouds 2 1015 55 10000 6.17 280 08:52 31.01.2022
3362 Clouds 2 1015 60 10000 5.66 280 08:20 31.01.2022
3363 Clouds 1 1017 66 10000 5.36 0 06:53 31.01.2022
3364 Clouds 2 1017 59 10000 4.47 293 05:24 31.01.2022
3365 Clouds 2 1017 76 10000 1.79 0 23:30 30.01.2022
3366 Clouds 2 1017 77 10000 2.68 293 22:30 30.01.2022
3367 Clouds 2 1017 80 10000 3.58 293 21:44 30.01.2022
3368 Clouds 2 1017 74 10000 8.05 293 21:44 30.01.2022
3369 Clouds 2 1017 79 10000 4.47 293 21:21 30.01.2022
3370 Clouds 2 1017 79 10000 2.68 293 20:50 30.01.2022
3371 Clear 2 1017 80 10000 4.47 270 20:30 30.01.2022
3372 Clouds 2 1017 78 10000 4.92 293 19:54 30.01.2022
3373 Clouds 2 1016 78 10000 3.58 293 18:45 30.01.2022
3374 Clouds 2 1016 86 10000 5.36 293 18:21 30.01.2022
3375 Clouds 2 1015 84 4200 3.13 0 17:29 30.01.2022
3376 Clouds 4 1013 56 10000 6.69 310 16:41 30.01.2022
3377 Clouds 5 1012 52 10000 2.06 290 16:22 30.01.2022
3378 Clouds 5 1012 48 10000 0.51 0 15:53 30.01.2022
3379 Clouds 5 1012 48 10000 1.54 200 15:32 30.01.2022
3380 Clouds 6 1014 50 10000 7.15 293 14:46 30.01.2022
3381 Clouds 5 1015 48 10000 1.54 0 13:36 30.01.2022
3382 Clear 4 1015 48 10000 2.06 120 12:40 30.01.2022
3383 Clouds 0 1017 59 10000 2.06 360 10:38 30.01.2022
3384 Clouds -2 1017 74 10000 1.54 200 09:56 30.01.2022
3385 Clouds -2 1019 76 10000 1.79 90 09:21 30.01.2022
3386 Clouds -4 1019 80 10000 2.57 190 07:56 30.01.2022
3387 Clouds -5 1022 85 8000 3.13 0 02:42 30.01.2022
3388 Clear -5 1023 84 10000 1.79 293 01:50 30.01.2022
3389 Clear -3 1003 76 10000 1.34 293 23:30 29.01.2022
3390 Clear -2 992 75 10000 4.63 280 22:34 29.01.2022
3391 Clear -2 1025 78 10000 3.13 293 21:27 29.01.2022
3392 Clear -1 1024 80 10000 6.17 280 20:38 29.01.2022
3393 Clear -1 1027 77 10000 4.02 0 19:36 29.01.2022
3394 Clouds 0 1024 74 10000 5.14 280 18:59 29.01.2022
3395 Clouds 0 1024 74 10000 5.66 280 18:30 29.01.2022
3396 Clouds 1 1023 69 10000 5.66 280 17:41 29.01.2022
3397 Clouds 1 1023 75 10000 5.14 290 16:38 29.01.2022
3398 Clouds 2 1023 69 10000 5.66 290 14:24 29.01.2022
3399 Clouds 2 1023 69 10000 5.66 290 13:45 29.01.2022
3400 Clouds 2 1023 69 10000 5.66 300 13:24 29.01.2022
3401 Clouds 2 1023 69 10000 6.17 290 12:35 29.01.2022
3402 Clouds 2 1023 69 10000 6.69 290 11:38 29.01.2022
3403 Clouds 2 1025 73 10000 5.66 280 09:49 29.01.2022
3404 Clouds 1 1022 69 10000 5.14 290 06:55 29.01.2022
3405 Clouds 1 1021 64 10000 4.12 310 00:49 29.01.2022
3406 Clouds 0 1021 74 10000 5.14 260 00:31 29.01.2022
3407 Clouds 2 1022 64 10000 3.09 290 22:51 28.01.2022
3408 Clouds 1 1022 69 10000 3.6 290 22:26 28.01.2022
3409 Clouds 2 1022 64 10000 4.12 290 21:50 28.01.2022
3410 Clouds 2 1022 64 10000 4.63 280 20:30 28.01.2022
3411 Clouds 2 1022 64 10000 4.63 280 19:42 28.01.2022
3412 Clouds 2 1021 69 10000 4.63 280 18:47 28.01.2022
3413 Clouds 2 960 63 10000 4.63 280 17:42 28.01.2022
3414 Clouds 3 989 66 10000 6.69 290 15:21 28.01.2022
3415 Clouds 4 988 56 10000 5.66 290 13:57 28.01.2022
3416 Clouds 3 989 56 8000 1.54 280 12:31 28.01.2022
3417 Clouds 3 1001 57 8000 0.45 90 11:36 28.01.2022
3418 Clouds 0 989 64 7000 1.03 0 09:52 28.01.2022
3419 Clouds -4 959 71 7000 1.54 80 08:26 28.01.2022
3420 Clouds -7 1001 88 6000 2.06 140 07:34 28.01.2022
3421 Clouds -7 1000 86 7000 1.54 110 05:23 28.01.2022
3422 Clouds -7 1001 86 6000 2.06 110 03:44 28.01.2022
3423 Mist -6 1002 85 5000 2.57 110 02:22 28.01.2022
3424 Mist -6 1002 84 5000 2.06 130 01:32 28.01.2022
3425 Clouds -5 1024 90 8000 1.03 0 22:52 27.01.2022
3426 Snow -5 1025 85 10000 0 0 21:47 27.01.2022
3427 Snow -5 1024 85 10000 0 0 21:29 27.01.2022
3428 Clear -3 1004 82 10000 2.06 200 20:26 27.01.2022
3429 Clear -1 1025 81 10000 2.24 270 18:40 27.01.2022
3430 Clear -1 1025 81 10000 1.79 0 17:55 27.01.2022
3431 Clouds 2 1025 68 10000 4.47 0 14:42 27.01.2022
3432 Clouds 1 1024 69 10000 6.17 270 13:26 27.01.2022
3433 Clouds 1 1024 69 10000 6.69 260 12:39 27.01.2022
3434 Clouds 0 1025 86 10000 4.63 280 10:23 27.01.2022
3435 Clouds -1 1024 86 10000 4.63 280 08:52 27.01.2022
3436 Clouds -1 1024 86 10000 4.63 280 08:30 27.01.2022
3437 Clouds -1 1023 86 10000 4.63 280 05:49 27.01.2022
3438 Clouds -1 1024 86 10000 5.14 280 01:45 27.01.2022
3439 Clouds -1 1024 80 10000 4.12 290 22:39 26.01.2022
3440 Clouds -2 1024 86 10000 3.6 270 21:45 26.01.2022
3441 Clouds -2 1024 86 10000 3.09 270 21:26 26.01.2022
3442 Clouds -2 1024 86 10000 3.6 280 20:35 26.01.2022
3443 Clouds -2 1024 86 10000 5.14 280 19:52 26.01.2022
3444 Clouds -2 1024 86 10000 5.66 270 19:18 26.01.2022
3445 Clouds -2 1024 86 10000 5.66 280 18:26 26.01.2022
3446 Clouds -2 1024 86 10000 6.17 280 17:49 26.01.2022
3447 Clouds -2 992 80 10000 6.17 270 17:19 26.01.2022
3448 Clouds -2 1004 79 10000 1.34 293 16:26 26.01.2022
3449 Clouds -1 1004 79 10000 2.68 293 15:24 26.01.2022
3450 Clouds -1 1004 75 10000 4.02 293 12:52 26.01.2022
3451 Clouds -2 1005 71 10000 4.02 293 10:57 26.01.2022
3452 Clouds -4 993 69 10000 3.6 300 09:59 26.01.2022
3453 Clouds -3 1005 71 10000 4.02 293 09:40 26.01.2022
3454 Clouds -10 1024 85 7000 1.54 100 07:28 26.01.2022
3455 Clouds -10 994 70 8000 1.03 0 00:42 26.01.2022
3456 Clouds -13 1026 85 8000 1.03 0 23:43 25.01.2022
3457 Clear -9 995 68 10000 2.06 360 22:49 25.01.2022
3458 Clear -9 995 65 10000 2.06 360 22:19 25.01.2022
3459 Clear -8 995 62 10000 4.12 280 21:34 25.01.2022
3460 Clear -7 995 63 10000 4.12 290 20:45 25.01.2022
3461 Clear -7 995 63 10000 5.14 280 19:58 25.01.2022
3462 Clear -7 995 63 10000 5.14 280 19:58 25.01.2022
3463 Clear -7 995 63 10000 5.14 280 19:32 25.01.2022
3464 Clear -7 1007 67 10000 2.24 293 17:56 25.01.2022
3465 Clear -6 1007 65 10000 1.79 293 17:37 25.01.2022
3466 Clear -6 1006 65 10000 4.02 293 16:35 25.01.2022
3467 Clear -5 1006 60 10000 1.34 293 15:39 25.01.2022
3468 Clear -5 1006 60 10000 1.79 0 15:20 25.01.2022
3469 Clear -5 1006 60 10000 1.79 0 15:20 25.01.2022
3470 Clear -5 1006 59 10000 6.17 290 14:56 25.01.2022
3471 Clouds -6 1028 68 10000 6.69 290 12:23 25.01.2022
3472 Mist -5 968 53 5000 1.03 0 09:39 25.01.2022
3473 Mist -13 998 76 4700 1.54 110 08:21 25.01.2022
3474 Mist -14 998 78 5000 1.03 0 07:27 25.01.2022
3475 Clear -15 999 79 10000 1.54 130 05:26 25.01.2022
3476 Clear -10 970 64 10000 1.03 0 00:35 25.01.2022
3477 Clear -9 1014 79 10000 1.79 293 23:36 24.01.2022
3478 Clear -10 1012 77 10000 1.79 293 23:18 24.01.2022
3479 Clouds -10 1012 78 8000 0.89 293 22:42 24.01.2022
3480 Clouds -11 1012 79 8000 0.45 270 22:23 24.01.2022
3481 Clear -10 1012 76 10000 3.09 280 21:42 24.01.2022
3482 Clear -11 1012 76 10000 3.09 290 21:23 24.01.2022
3483 Clear -9 1011 73 10000 1.54 280 20:26 24.01.2022
3484 Clouds -9 1011 74 10000 2.06 250 19:38 24.01.2022
3485 Clouds -8 1011 73 10000 0.51 0 18:50 24.01.2022
3486 Clouds -6 1011 74 10000 0.89 113 17:26 24.01.2022
3487 Clouds -6 1010 74 2300 2.24 113 16:59 24.01.2022
3488 Clouds -6 1010 69 8000 3.13 90 16:30 24.01.2022
3489 Clouds -4 1009 56 10000 0.89 113 14:56 24.01.2022
3490 Clouds -5 1030 61 10000 1.79 90 13:39 24.01.2022
3491 Clouds -5 1028 68 10000 2.57 10 12:33 24.01.2022
3492 Clouds -3 1030 60 10000 2.06 320 11:41 24.01.2022
3493 Clouds -4 1009 68 10000 1.54 320 10:18 24.01.2022
3494 Clouds -4 1009 72 10000 1.79 90 09:44 24.01.2022
3495 Clouds -6 1007 74 10000 2.06 40 07:40 24.01.2022
3496 Clouds -6 1004 84 7000 0.89 293 01:38 24.01.2022
3497 Clouds -6 1004 86 6000 4.12 280 00:50 24.01.2022
3498 Clouds -6 1004 86 4000 1.79 293 00:29 24.01.2022
3499 Clouds -6 1004 85 3500 1.34 293 22:58 23.01.2022
3500 Clouds -5 1003 83 4000 1.34 293 21:52 23.01.2022
3501 Snow -5 1003 82 4500 1.79 293 21:27 23.01.2022
3502 Snow -5 1003 83 3500 1.79 293 20:55 23.01.2022
3503 Snow -5 1003 82 6000 1.79 270 20:21 23.01.2022
3504 Clouds -5 991 77 8000 6.69 280 18:53 23.01.2022
3505 Clouds -5 991 74 8000 6.69 280 17:56 23.01.2022
3506 Clouds -4 990 71 6000 6.69 300 16:54 23.01.2022
3507 Clouds -4 1002 64 8000 7.2 300 15:45 23.01.2022
3508 Clouds -3 1001 63 10000 4.92 293 14:34 23.01.2022
3509 Clouds -3 989 60 10000 8.75 290 13:43 23.01.2022
3510 Clouds -3 989 58 10000 8.75 290 12:40 23.01.2022
3511 Clouds -4 990 60 10000 8.75 280 12:18 23.01.2022
3512 Clouds -3 999 62 10000 1.34 0 11:25 23.01.2022
3513 Clouds -3 1003 63 10000 4.92 293 10:57 23.01.2022
3514 Clouds -4 991 62 10000 7.72 280 10:23 23.01.2022
3515 Clouds -5 1022 74 10000 5.66 280 09:25 23.01.2022
3516 Clouds -6 1021 79 10000 5.14 270 05:59 23.01.2022
3517 Clouds -6 989 75 10000 5.14 280 03:20 23.01.2022
3518 Clouds -5 989 71 10000 6.17 290 01:36 23.01.2022
3519 Clouds -5 1001 73 10000 5.66 280 00:42 23.01.2022
3520 Clouds -5 989 70 10000 4.63 270 23:57 22.01.2022
3521 Clouds -5 988 73 10000 4.12 280 22:48 22.01.2022
3522 Clouds -5 1000 76 10000 5.14 290 21:58 22.01.2022
3523 Clouds -4 998 76 10000 4.47 0 20:26 22.01.2022
3524 Clouds -3 997 76 7000 3.58 293 19:37 22.01.2022
3525 Snow -3 997 75 5000 4.47 0 18:36 22.01.2022
3526 Clouds -3 984 75 7000 5.14 280 17:42 22.01.2022
3527 Clouds -3 984 75 7000 5.14 280 17:42 22.01.2022
3528 Clouds -3 984 75 5000 4.63 290 16:57 22.01.2022
3529 Clouds -3 983 71 10000 5.14 300 16:22 22.01.2022
3530 Clouds -3 983 68 10000 5.66 290 15:44 22.01.2022
3531 Clouds -2 995 65 8000 6.71 293 14:22 22.01.2022
3532 Clouds -2 996 62 8000 7.72 290 13:27 22.01.2022
3533 Clouds -3 1015 63 10000 8.75 290 12:32 22.01.2022
3534 Clouds -3 1016 68 10000 8.23 290 11:58 22.01.2022
3535 Clouds -4 1017 74 10000 4.63 300 10:39 22.01.2022
3536 Clouds -4 1017 74 10000 4.63 300 10:19 22.01.2022
3537 Clouds -5 986 73 10000 1.54 350 08:54 22.01.2022
3538 Clouds -6 986 77 10000 2.06 10 08:31 22.01.2022
3539 Clear -7 1018 73 10000 3.6 350 05:20 22.01.2022
3540 Clouds -8 1019 86 10000 2.57 10 02:27 22.01.2022
3541 Clear -6 1022 74 10000 4.02 293 23:49 21.01.2022
3542 Clear -6 1022 74 10000 4.02 293 23:49 21.01.2022
3543 Clouds -6 1023 74 10000 4.63 290 22:58 21.01.2022
3544 Clouds -4 1022 74 10000 7.72 280 20:48 21.01.2022
3545 Clouds -3 1021 79 10000 6.69 280 19:20 21.01.2022
3546 Clouds -3 1021 81 10000 2.68 293 17:48 21.01.2022
3547 Clouds -1 1021 72 10000 4.02 293 15:48 21.01.2022
3548 Clouds -1 1020 77 10000 6.17 280 14:37 21.01.2022
3549 Snow -1 1022 78 10000 2.49 286 12:42 21.01.2022
3550 Clouds 0 1021 83 10000 3.09 280 11:29 21.01.2022
3551 Clouds 0 1022 86 6000 2.57 250 10:27 21.01.2022
3552 Clouds -1 1021 88 10000 1.54 280 08:50 21.01.2022
3553 Clouds -1 1020 91 2500 3.09 350 07:26 21.01.2022
3554 Clouds 2 1014 64 10000 1.54 150 00:59 21.01.2022
3555 Clouds 1 1015 69 10000 2.06 110 22:45 20.01.2022
3556 Clouds 3 1016 60 10000 1.54 150 21:48 20.01.2022
3557 Clouds 4 1016 56 10000 3.09 360 20:56 20.01.2022
3558 Clouds 3 1017 56 10000 1.54 240 19:21 20.01.2022
3559 Clouds 3 1017 52 10000 2.57 340 18:51 20.01.2022
3560 Clear 3 1017 48 10000 3.09 280 17:31 20.01.2022
3561 Clear 8 1018 34 10000 5.14 290 15:46 20.01.2022
3562 Clear 7 1020 37 10000 4.63 280 15:25 20.01.2022
3563 Clear 8 1019 34 10000 6.17 310 13:42 20.01.2022
3564 Clear 5 1020 42 10000 2.06 180 12:38 20.01.2022
3565 Clear 4 1020 45 10000 2.06 180 11:57 20.01.2022
3566 Clear 1 1022 55 10000 2.06 230 10:47 20.01.2022
3567 Clear -3 1022 74 6000 2.06 250 09:43 20.01.2022
3568 Clear 0 1020 62 7000 0.89 113 08:35 20.01.2022
3569 Clear 0 1020 62 7000 0.89 113 08:35 20.01.2022
3570 Clear -9 1022 86 7000 2.57 110 05:38 20.01.2022
3571 Clear -5 1025 80 10000 1.54 310 23:42 19.01.2022
3572 Clear -4 1028 77 10000 2.06 300 22:37 19.01.2022
3573 Clear -3 1028 76 10000 2.57 260 21:24 19.01.2022
3574 Clear -3 1028 75 10000 4.12 270 20:51 19.01.2022
3575 Clear -3 1028 75 10000 2.57 270 19:58 19.01.2022
3576 Clear -2 1029 72 10000 3.09 280 18:43 19.01.2022
3577 Clear -2 1029 70 10000 2.57 270 17:49 19.01.2022
3578 Clear 0 1029 64 10000 2.57 300 16:59 19.01.2022
3579 Clear 2 1030 55 10000 0.45 23 14:42 19.01.2022
3580 Clear 1 1029 55 10000 5.66 300 12:53 19.01.2022
3581 Clouds 1 1030 55 10000 6.69 300 11:42 19.01.2022
3582 Clouds 1 1031 55 10000 6.17 280 10:37 19.01.2022
3583 Clouds -1 1031 74 10000 6.17 290 09:34 19.01.2022
3584 Clear -3 1033 77 10000 5.14 280 07:18 19.01.2022
3585 Clear -4 1032 76 10000 4.12 280 05:18 19.01.2022
3586 Clear -3 1032 73 10000 6.17 270 23:20 18.01.2022
3587 Clear -2 1032 70 10000 2.24 0 22:44 18.01.2022
3588 Clear -3 1031 72 10000 5.14 280 21:20 18.01.2022
3589 Clear -2 1031 69 10000 2.68 293 19:55 18.01.2022
3590 Clear -2 1031 69 10000 6.17 290 19:37 18.01.2022
3591 Clear -1 1030 63 10000 8.75 280 18:54 18.01.2022
3592 Clouds -1 1029 63 10000 6.71 293 17:58 18.01.2022
3593 Snow 0 1029 60 10000 7.6 293 16:58 18.01.2022
3594 Snow 0 1029 55 10000 8.49 0 15:47 18.01.2022
3595 Snow 1 1029 55 10000 4.02 0 15:47 18.01.2022
3596 Clouds 1 1028 55 10000 11.62 0 15:22 18.01.2022
3597 Clouds 1 1026 60 10000 10.29 280 12:49 18.01.2022
3598 Clouds 0 1027 69 10000 8.23 280 10:47 18.01.2022
3599 Clouds 1 1028 63 10000 4.47 293 09:21 18.01.2022
3600 Clear -2 1025 74 10000 8.23 270 07:55 18.01.2022
3601 Clouds 1 1021 88 8000 5.81 315 02:35 18.01.2022
3602 Clouds 3 1020 76 10000 4.92 293 23:47 17.01.2022
3603 Clouds 2 1018 60 10000 4.12 290 22:27 17.01.2022
3604 Clouds 2 1018 60 10000 4.12 290 21:35 17.01.2022
3605 Clouds 2 1017 60 10000 2.57 340 20:24 17.01.2022
3606 Clear 3 1017 56 10000 4.63 300 18:30 17.01.2022
3607 Clear 3 1018 56 10000 5.14 290 17:44 17.01.2022
3608 Clear 4 1017 52 10000 6.17 290 16:40 17.01.2022
3609 Clear 5 1018 48 10000 8.23 280 15:19 17.01.2022
3610 Clouds 5 1020 54 10000 4.92 293 14:55 17.01.2022
3611 Clouds 6 1022 51 10000 9.77 280 13:22 17.01.2022
3612 Clouds 6 1023 51 10000 5.81 293 12:55 17.01.2022
3613 Clear 4 1022 60 10000 10.8 300 11:49 17.01.2022
3614 Clear 3 1023 60 10000 5.66 300 10:21 17.01.2022
3615 Clear 2 1022 64 10000 5.14 300 09:34 17.01.2022
3616 Clear -6 1024 90 8000 1.54 90 07:24 17.01.2022
3617 Mist -6 1022 93 5000 2.06 110 02:59 17.01.2022
3618 Mist -7 1023 100 5000 1.03 0 00:55 17.01.2022
3619 Clear -4 1025 88 6000 1.54 150 22:22 16.01.2022
3620 Mist -3 1026 84 4600 2.06 190 20:35 16.01.2022
3621 Clear -2 1026 82 7000 2.06 120 18:51 16.01.2022
3622 Clear -2 1026 81 10000 1.54 140 17:59 16.01.2022
3623 Clear 0 1026 70 10000 3.6 160 16:59 16.01.2022
3624 Clear 1 1026 66 10000 2.57 130 16:29 16.01.2022
3625 Clear 4 1027 58 10000 1.03 0 14:30 16.01.2022
3626 Clear 4 1027 58 10000 1.03 0 14:30 16.01.2022
3627 Clear 3 1025 60 10000 0.51 0 13:33 16.01.2022
3628 Clear 2 1026 64 10000 1.03 0 12:26 16.01.2022
3629 Clouds 1 1026 69 10000 1.54 10 11:38 16.01.2022
3630 Clouds 0 1027 74 10000 3.09 320 10:45 16.01.2022
3631 Clouds -1 1028 80 10000 0 0 09:59 16.01.2022
3632 Clouds -1 1028 80 10000 0 0 09:38 16.01.2022
3633 Clouds -3 1027 86 8000 0 0 09:20 16.01.2022
3634 Clouds -3 1028 86 8000 0.45 293 07:21 16.01.2022
3635 Clear -1 1028 73 10000 3.13 293 00:36 16.01.2022
3636 Clear -1 1027 72 10000 4.63 280 22:55 15.01.2022
3637 Clear 0 1030 72 10000 1.34 293 21:22 15.01.2022
3638 Clear 0 1029 71 10000 4.12 290 20:45 15.01.2022
3639 Clear 1 1028 70 10000 5.14 280 20:22 15.01.2022
3640 Clear 1 1028 68 10000 2.24 293 19:27 15.01.2022
3641 Rain 1 1027 70 10000 1.79 293 18:20 15.01.2022
3642 Clear 2 1027 67 10000 4.12 290 16:49 15.01.2022
3643 Clouds 5 1026 61 10000 5.66 280 14:38 15.01.2022
3644 Clouds 4 1023 65 10000 6.17 270 12:52 15.01.2022
3645 Clouds 5 1026 68 10000 3.13 293 11:26 15.01.2022
3646 Clouds 3 1025 71 10000 6.71 293 09:46 15.01.2022
3647 Clear 4 1019 65 10000 8.75 280 04:46 15.01.2022
3648 Clear 4 1020 65 10000 6.17 290 23:21 14.01.2022
3649 Clear 4 1020 65 10000 4.63 290 21:18 14.01.2022
3650 Clear 4 1020 65 10000 5.14 290 20:25 14.01.2022
3651 Clear 4 1020 65 10000 6.69 290 19:50 14.01.2022
3652 Clear 4 1020 65 10000 6.17 280 18:41 14.01.2022
3653 Clear 3 1021 70 10000 7.72 290 17:36 14.01.2022
3654 Clear 3 1021 70 10000 7.72 280 16:42 14.01.2022
3655 Clouds 4 1023 66 10000 1.79 270 15:30 14.01.2022
3656 Clouds 5 1024 62 10000 2.68 293 14:25 14.01.2022
3657 Clouds 3 1025 64 10000 6.69 300 12:58 14.01.2022
3658 Clouds 3 1026 67 10000 2.68 293 11:52 14.01.2022
3659 Clouds -2 1027 74 10000 5.14 300 10:30 14.01.2022
3660 Clouds -1 1029 75 10000 3.58 293 08:52 14.01.2022
3661 Clear -5 1030 75 8000 2.57 350 07:30 14.01.2022
3662 Clear -5 1032 77 10000 1.79 0 02:20 14.01.2022
3663 Clear -6 1033 80 10000 1.79 0 23:40 13.01.2022
3664 Snow -6 1034 79 10000 3.58 0 21:47 13.01.2022
3665 Snow -6 1034 76 10000 0.89 0 21:28 13.01.2022
3666 Clear -6 1035 79 10000 1.79 0 19:45 13.01.2022
3667 Snow -6 1035 76 10000 1.79 0 19:23 13.01.2022
3668 Clear -6 1035 76 10000 2.24 0 18:36 13.01.2022
3669 Clear -5 1035 76 10000 1.79 0 16:48 13.01.2022
3670 Clear -5 1034 71 10000 2.68 0 15:38 13.01.2022
3671 Clear -4 1032 63 10000 7.2 280 15:18 13.01.2022
3672 Clear -3 1034 62 10000 0.45 0 13:22 13.01.2022
3673 Clouds -4 1036 66 10000 4.47 0 10:39 13.01.2022
3674 Clouds -5 1036 70 10000 7.72 290 09:23 13.01.2022
3675 Clouds -5 1035 71 10000 6.69 280 08:28 13.01.2022
3676 Clouds -5 1035 75 10000 2.24 0 07:58 13.01.2022
3677 Clouds -5 1034 76 10000 2.68 0 07:18 13.01.2022
3678 Clouds -5 1033 79 10000 1.79 0 05:20 13.01.2022
3679 Clouds -5 1033 83 10000 2.68 0 03:33 13.01.2022
3680 Clouds -4 1032 78 10000 2.06 10 00:57 13.01.2022
3681 Clouds -3 1032 72 10000 2.24 0 23:53 12.01.2022
3682 Clouds -3 1032 71 10000 2.06 20 23:32 12.01.2022
3683 Clouds -3 1032 69 10000 0.89 0 21:58 12.01.2022
3684 Clouds -3 1032 70 10000 0.45 0 21:24 12.01.2022
3685 Clouds -3 1032 70 10000 1.54 330 20:57 12.01.2022
3686 Clouds -3 1032 70 10000 3.09 20 20:19 12.01.2022
3687 Clouds -3 1031 72 10000 0.89 0 18:48 12.01.2022
3688 Clouds -3 1031 72 10000 0.89 0 17:53 12.01.2022
3689 Clouds -3 1030 69 10000 3.09 20 16:42 12.01.2022
3690 Clouds -2 1029 62 10000 4.12 10 14:49 12.01.2022
3691 Clouds -1 1029 63 10000 3.6 10 13:37 12.01.2022
3692 Clouds -1 1029 65 10000 2.24 0 12:56 12.01.2022
3693 Clouds -3 1028 76 10000 3.6 10 08:55 12.01.2022
3694 Clouds -4 1028 79 10000 4.12 30 07:55 12.01.2022
3695 Clouds -4 1028 80 10000 4.12 30 07:32 12.01.2022
3696 Clouds -3 1024 82 10000 3.09 360 01:34 12.01.2022
3697 Clouds -2 1023 77 10000 2.24 0 23:25 11.01.2022
3698 Clouds -1 1023 73 10000 1.79 0 22:24 11.01.2022
3699 Clouds -1 1022 74 10000 1.54 350 21:28 11.01.2022
3700 Snow -1 1022 74 10000 2.06 270 20:35 11.01.2022
3701 Clouds -1 1021 78 10000 3.6 50 18:52 11.01.2022
3702 Clouds -1 1021 79 4200 1.34 0 17:46 11.01.2022
3703 Clouds -1 1020 79 10000 0.45 0 16:39 11.01.2022
3704 Clouds -2 1020 81 8000 0.45 0 16:18 11.01.2022
3705 Clouds -1 1019 76 10000 1.79 0 14:45 11.01.2022
3706 Clouds -1 1018 75 10000 0.89 0 14:18 11.01.2022
3707 Clouds -1 1018 75 10000 5.14 20 13:42 11.01.2022
3708 Clouds 0 1018 73 10000 0.89 0 13:24 11.01.2022
3709 Clouds 0 1018 79 6000 1.79 0 12:24 11.01.2022
3710 Clouds 0 1017 78 4600 1.34 0 10:26 11.01.2022
3711 Clouds 1 1015 85 10000 1.34 0 07:38 11.01.2022
3712 Clouds 1 1013 93 10000 1.54 260 02:57 11.01.2022
3713 Clouds 2 1013 94 10000 0.89 23 00:24 11.01.2022
3714 Clouds 2 1012 94 10000 0.51 0 23:38 10.01.2022
3715 Drizzle 2 1011 94 10000 0.89 113 22:20 10.01.2022
3716 Clouds 2 1012 94 10000 1.34 113 21:56 10.01.2022
3717 Clouds 2 1011 94 10000 2.24 113 21:33 10.01.2022
3718 Clouds 2 1011 94 10000 3.13 90 20:58 10.01.2022
3719 Clouds 2 1010 93 10000 0.89 23 20:29 10.01.2022
3720 Clouds 2 1009 93 10000 2.06 210 19:48 10.01.2022
3721 Rain 2 1009 50 10000 12.96 90 19:23 10.01.2022
3722 Clouds 2 1009 90 10000 0.45 90 18:55 10.01.2022
3723 Clouds 2 1009 90 10000 0.45 90 18:37 10.01.2022
3724 Clouds 3 1007 93 10000 1.03 0 16:48 10.01.2022
3725 Clouds 3 1007 92 8000 0.89 23 16:18 10.01.2022
3726 Clouds 3 1005 93 8000 1.54 210 14:41 10.01.2022
3727 Clouds 3 1005 93 7000 0.89 23 12:43 10.01.2022
3728 Mist 3 1004 96 4300 0.89 23 11:40 10.01.2022
3729 Clouds 4 1004 93 8000 1.54 320 10:45 10.01.2022
3730 Clouds 4 1004 94 10000 0.89 113 08:57 10.01.2022
3731 Clouds 5 1002 87 10000 4.47 90 05:51 10.01.2022
3732 Clouds 5 1002 93 8000 1.79 113 01:33 10.01.2022
3733 Clouds 5 1002 89 10000 2.24 113 00:36 10.01.2022
3734 Clouds 5 1003 89 10000 2.57 110 23:54 09.01.2022
3735 Clouds 5 1003 87 10000 4.63 100 22:43 09.01.2022
3736 Clouds 5 1003 89 10000 4.63 100 21:47 09.01.2022
3737 Clouds 4 1003 86 10000 5.14 110 21:25 09.01.2022
3738 Clouds 4 1003 86 10000 5.14 110 21:25 09.01.2022
3739 Clouds 4 1003 87 10000 0.89 90 20:55 09.01.2022
3740 Clouds 4 1004 88 10000 5.66 110 20:37 09.01.2022
3741 Clouds 4 1004 88 10000 0.89 90 20:18 09.01.2022
3742 Clouds 4 1004 87 10000 4.12 110 19:37 09.01.2022
3743 Clouds 4 1004 87 10000 0.89 90 19:18 09.01.2022
3744 Clouds 4 1004 86 10000 0.89 90 18:37 09.01.2022
3745 Clouds 5 1004 85 10000 5.66 110 17:48 09.01.2022
3746 Clouds 4 1004 85 10000 0.45 90 17:26 09.01.2022
3747 Clouds 6 1004 80 10000 1.34 90 16:40 09.01.2022
3748 Clouds 6 1004 79 10000 2.24 90 15:40 09.01.2022
3749 Clouds 7 1004 75 10000 6.69 100 14:50 09.01.2022
3750 Clouds 7 1004 75 10000 3.13 113 14:23 09.01.2022
3751 Clouds 7 1004 73 10000 6.17 90 13:48 09.01.2022
3752 Clouds 8 1005 74 10000 2.68 113 11:56 09.01.2022
3753 Clouds 7 1006 74 10000 5.14 100 11:25 09.01.2022
3754 Clouds 6 1007 78 10000 1.54 110 09:55 09.01.2022
3755 Clouds 5 1007 86 10000 1.03 0 08:56 09.01.2022
3756 Clouds 2 1008 92 10000 1.34 0 06:21 09.01.2022
3757 Clouds 2 1010 91 10000 3.09 90 01:28 09.01.2022
3758 Clouds 3 1010 91 10000 3.6 80 00:37 09.01.2022
3759 Clouds 2 1011 91 10000 3.09 100 23:30 08.01.2022
3760 Clouds 2 1011 91 10000 2.57 100 22:44 08.01.2022
3761 Clouds 3 1012 88 10000 4.12 110 21:27 08.01.2022
3762 Clouds 3 1012 90 10000 1.79 90 20:43 08.01.2022
3763 Clouds 4 1013 88 10000 4.12 110 20:21 08.01.2022
3764 Clouds 4 1013 86 10000 4.63 110 19:22 08.01.2022
3765 Clouds 4 1013 86 10000 2.68 90 17:25 08.01.2022
3766 Clouds 4 1013 85 10000 5.66 130 16:42 08.01.2022
3767 Clouds 5 1014 79 10000 3.13 113 14:52 08.01.2022
3768 Clouds 6 1014 78 10000 4.92 113 13:57 08.01.2022
3769 Clouds 5 1014 81 10000 6.17 110 11:30 08.01.2022
3770 Clouds 4 1014 87 10000 6.17 120 10:33 08.01.2022
3771 Clouds 4 1015 87 10000 7.72 110 09:57 08.01.2022
3772 Clouds 5 1016 82 10000 3.58 113 09:30 08.01.2022
3773 Clouds 3 1017 86 10000 6.17 110 05:39 08.01.2022
3774 Clouds 3 1019 85 10000 6.69 110 01:24 08.01.2022
3775 Clouds 3 1019 84 10000 7.72 110 23:30 07.01.2022
3776 Clouds 3 1020 82 10000 4.92 113 21:47 07.01.2022
3777 Clouds 4 1020 83 10000 4.47 90 20:26 07.01.2022
3778 Clouds 4 1020 82 10000 4.92 90 19:26 07.01.2022
3779 Clouds 4 1020 78 10000 5.81 90 18:46 07.01.2022
3780 Clouds 4 1019 78 10000 4.47 90 18:18 07.01.2022
3781 Clouds 4 1020 72 10000 1.79 90 17:23 07.01.2022
3782 Clouds 5 1020 66 10000 0.89 90 14:55 07.01.2022
3783 Clouds 5 1020 66 10000 0.51 0 13:52 07.01.2022
3784 Clouds 5 1020 67 10000 1.03 280 12:50 07.01.2022
3785 Clouds 4 1021 73 10000 4.12 270 10:18 07.01.2022
3786 Clouds 2 1019 79 10000 7.72 270 02:59 07.01.2022
3787 Clouds 3 1019 75 10000 4.02 293 02:21 07.01.2022
3788 Clouds 2 1019 79 10000 6.69 280 01:45 07.01.2022
3789 Clouds 2 1019 79 10000 4.02 0 01:23 07.01.2022
3790 Clouds 2 1018 80 10000 6.69 270 00:29 07.01.2022
3791 Clouds 3 1017 75 10000 6.69 270 21:57 06.01.2022
3792 Clouds 4 1016 75 10000 4.63 270 20:37 06.01.2022
3793 Clouds 4 1015 78 10000 2.68 293 19:54 06.01.2022
3794 Clouds 4 1015 80 10000 1.79 0 19:29 06.01.2022
3795 Clouds 6 1013 71 10000 3.13 293 17:51 06.01.2022
3796 Clouds 9 1012 63 10000 6.69 300 17:19 06.01.2022
3797 Clouds 15 1009 38 10000 2.57 90 16:22 06.01.2022
3798 Clear 15 1010 38 10000 3.09 50 15:41 06.01.2022
3799 Clear 15 1009 38 10000 0 0 15:20 06.01.2022
3800 Clear 15 1008 41 10000 1.54 70 14:19 06.01.2022
3801 Clear 13 1009 54 10000 2.57 70 12:59 06.01.2022
3802 Clear 11 1009 58 10000 2.57 90 11:58 06.01.2022
3803 Clear 10 1009 57 10000 1.54 0 11:29 06.01.2022
3804 Clouds 5 1010 87 7000 1.54 0 09:33 06.01.2022
3805 Clear 0 1008 93 7000 2.06 110 01:57 06.01.2022
3806 Clouds 1 1008 93 7000 1.03 0 23:54 05.01.2022
3807 Clouds 1 1008 93 7000 1.54 0 23:19 05.01.2022
3808 Clouds 2 1008 87 7000 1.54 0 22:41 05.01.2022
3809 Clouds 4 1008 87 8000 1.54 250 21:59 05.01.2022
3810 Clouds 4 1008 81 8000 2.06 300 21:22 05.01.2022
3811 Mist 5 1009 82 5000 1.54 280 20:21 05.01.2022
3812 Clouds 6 1010 76 8000 1.03 0 19:27 05.01.2022
3813 Clouds 6 1009 76 8000 1.54 310 17:50 05.01.2022
3814 Clear 7 1009 72 10000 1.54 340 16:56 05.01.2022
3815 Clear 10 1009 60 10000 1.03 0 15:46 05.01.2022
3816 Clear 12 1009 57 10000 0.89 135 14:50 05.01.2022
3817 Clear 12 1009 53 10000 1.03 0 13:33 05.01.2022
3818 Clear 8 1009 66 10000 1.54 0 11:46 05.01.2022
3819 Clouds 2 1012 91 7000 2.06 110 08:20 05.01.2022
3820 Mist -2 1010 93 5000 1.03 290 06:36 05.01.2022
3821 Clear 0 1011 93 7000 1.54 80 00:59 05.01.2022
3822 Clear 2 1013 90 6000 0.45 180 23:38 04.01.2022
3823 Clear -1 1011 100 6000 1.54 130 23:18 04.01.2022
3824 Mist 3 1015 86 5000 4.12 110 21:31 04.01.2022
3825 Mist 3 1015 84 8000 1.54 230 19:55 04.01.2022
3826 Clear 4 1014 83 10000 0 0 18:19 04.01.2022
3827 Clear 6 1014 73 10000 0.89 113 16:53 04.01.2022
3828 Clear 7 1014 69 10000 1.03 80 16:30 04.01.2022
3829 Clear 9 1014 62 10000 0.89 90 14:54 04.01.2022
3830 Clear 9 1014 61 10000 1.03 0 14:36 04.01.2022
3831 Clear 9 1015 63 10000 1.54 130 13:40 04.01.2022
3832 Clear 4 1016 81 10000 1.54 220 10:52 04.01.2022
3833 Clouds 5 1018 81 8000 0.51 0 09:47 04.01.2022
3834 Clouds 4 1016 79 8000 1.03 20 08:34 04.01.2022
3835 Mist 3 1016 79 4000 0.51 150 02:52 04.01.2022
3836 Clouds 3 1018 87 7000 1.03 0 00:42 04.01.2022
3837 Clouds 4 1019 86 7000 2.06 20 23:34 03.01.2022
3838 Clear 6 1018 74 10000 1.34 293 22:21 03.01.2022
3839 Clouds 5 1019 77 6000 2.57 250 21:34 03.01.2022
3840 Smoke 8 1020 69 3000 0.51 0 20:26 03.01.2022
3841 Smoke 7 1018 77 2800 1.03 280 18:54 03.01.2022
3842 Smoke 7 1017 78 10000 0.45 293 18:28 03.01.2022
3843 Clear 9 1017 71 10000 1.54 180 16:59 03.01.2022
3844 Clear 11 1015 62 10000 1.54 220 15:40 03.01.2022
3845 Clear 11 1015 62 10000 1.03 0 14:31 03.01.2022
3846 Clear 11 1015 62 10000 1.03 0 14:31 03.01.2022
3847 Clear 9 1016 71 10000 1.54 270 12:48 03.01.2022
3848 Clear 8 1017 76 10000 1.03 0 11:39 03.01.2022
3849 Clouds 8 1018 69 8000 1.54 50 10:37 03.01.2022
3850 Mist 7 1018 78 5000 2.06 130 08:48 03.01.2022
3851 Mist 3 1016 71 5000 1.03 0 07:36 03.01.2022
3852 Fog 0 1022 93 700 1.54 130 00:29 03.01.2022
3853 Mist 1 1022 100 2000 1.54 0 23:22 02.01.2022
3854 Mist 1 1022 93 4500 1.03 30 22:55 02.01.2022
3855 Clouds 3 1025 89 8000 2.06 170 21:46 02.01.2022
3856 Clouds 4 1025 88 7000 2.57 130 20:38 02.01.2022
3857 Clear 4 1025 90 10000 1.54 160 20:18 02.01.2022
3858 Clear 6 1023 81 10000 1.54 0 19:31 02.01.2022
3859 Clear 6 1023 81 10000 3.09 210 18:46 02.01.2022
3860 Clear 8 1024 71 10000 2.57 250 17:54 02.01.2022
3861 Clear 8 1024 71 10000 2.57 250 17:36 02.01.2022
3862 Clear 8 1024 71 10000 2.06 250 17:18 02.01.2022
3863 Clear 9 1026 37 10000 2.57 280 16:26 02.01.2022
3864 Clear 12 1026 64 10000 3.6 300 14:32 02.01.2022
3865 Clouds 12 1024 62 10000 4.12 280 12:50 02.01.2022
3866 Clouds 11 1025 66 10000 4.63 290 11:58 02.01.2022
3867 Clouds 11 1025 66 10000 4.63 290 11:32 02.01.2022
3868 Clouds 11 1026 71 10000 4.63 280 10:46 02.01.2022
3869 Clouds 11 1029 73 8000 2.24 293 09:45 02.01.2022
3870 Clouds 9 1027 82 10000 4.12 280 05:21 02.01.2022
3871 Clouds 9 1024 81 10000 2.57 300 01:42 02.01.2022
3872 Clouds 8 1026 81 10000 3.09 290 23:39 01.01.2022
3873 Clouds 8 1026 84 10000 4.47 293 22:57 01.01.2022
3874 Clear 8 1026 81 10000 3.13 0 22:22 01.01.2022
3875 Clear 8 1025 81 10000 5.36 293 21:43 01.01.2022
3876 Clouds 8 1025 80 10000 5.14 280 20:55 01.01.2022
3877 Clouds 9 1025 77 10000 1.79 293 19:58 01.01.2022
3878 Clouds 9 1025 77 10000 0.89 293 19:19 01.01.2022
3879 Clouds 9 1024 78 10000 2.68 293 17:58 01.01.2022
3880 Clouds 10 1023 76 10000 3.13 293 16:37 01.01.2022
3881 Clouds 10 1023 76 10000 8.75 280 16:19 01.01.2022
3882 Clouds 10 1023 77 10000 5.36 315 15:26 01.01.2022
3883 Clouds 10 1022 76 10000 7.2 290 13:46 01.01.2022
3884 Clouds 10 1022 76 10000 5.36 293 13:46 01.01.2022
3885 Clouds 12 1024 63 10000 0.89 293 12:49 01.01.2022
3886 Clouds 12 1021 62 10000 6.17 290 11:56 01.01.2022
3887 Clouds 11 1021 71 10000 3.6 310 11:22 01.01.2022
3888 Clouds 7 1021 87 7000 2.06 10 10:27 01.01.2022
3889 Mist 5 1021 93 5000 1.54 360 09:45 01.01.2022
3890 Mist 5 1022 87 1800 1.54 30 08:25 01.01.2022
3891 Mist 3 1022 89 2000 1.54 260 07:43 01.01.2022
3892 Fog 3 1022 86 800 1.54 80 06:47 01.01.2022
3893 Fog 2 1022 88 300 1.54 100 05:26 01.01.2022
3894 Fog 1 1022 96 250 1.03 90 04:37 01.01.2022
3895 Mist 1 1023 95 1100 1.54 110 01:28 01.01.2022
3896 Smoke 4 1024 93 3000 1.03 0 23:35 31.12.2021
3897 Clouds 3 1023 93 8000 1.03 0 21:52 31.12.2021
3898 Clouds 4 1023 100 10000 3.6 360 20:37 31.12.2021
3899 Clear 6 1023 87 10000 2.06 360 19:30 31.12.2021
3900 Clouds 6 1023 87 10000 2.06 340 18:35 31.12.2021
3901 Clouds 7 1023 81 10000 2.57 330 17:38 31.12.2021
3902 Clouds 8 1023 81 10000 2.06 310 17:18 31.12.2021
3903 Clouds 9 1023 76 10000 3.6 300 16:24 31.12.2021
3904 Clouds 9 1023 76 10000 4.63 300 15:56 31.12.2021
3905 Clouds 10 1025 77 10000 4.63 280 15:28 31.12.2021
3906 Clouds 10 1025 74 10000 5.66 280 14:52 31.12.2021
3907 Clouds 10 1025 73 10000 2.24 293 14:29 31.12.2021
3908 Clouds 10 1025 71 10000 2.24 0 13:36 31.12.2021
3909 Clouds 10 1025 67 10000 5.81 293 12:45 31.12.2021
3910 Clouds 7 1024 76 10000 3.6 310 11:43 31.12.2021
3911 Clouds 6 1024 75 10000 3.6 330 11:24 31.12.2021
3912 Clouds 6 1024 75 10000 3.09 310 10:34 31.12.2021
3913 Clouds 4 1025 81 10000 2.57 320 09:52 31.12.2021
3914 Clouds 6 1027 77 10000 1.34 23 09:32 31.12.2021
3915 Clouds 3 1025 87 10000 3.09 300 08:25 31.12.2021
3916 Clouds 3 1026 84 10000 2.57 300 07:30 31.12.2021
3917 Clouds 4 1025 87 10000 3.09 300 23:23 30.12.2021
3918 Clouds 4 1024 86 10000 3.09 280 22:33 30.12.2021
3919 Clouds 4 1024 86 10000 1.79 293 21:54 30.12.2021
3920 Clouds 4 1024 86 10000 4.12 280 21:36 30.12.2021
3921 Clouds 5 1024 84 10000 3.13 293 20:45 30.12.2021
3922 Clouds 4 1024 86 10000 0.89 293 20:24 30.12.2021
3923 Clouds 4 1024 83 10000 2.24 293 19:44 30.12.2021
3924 Clouds 5 1023 80 10000 3.09 310 18:29 30.12.2021
3925 Clouds 5 1022 80 10000 3.09 300 17:52 30.12.2021
3926 Clouds 5 1021 77 10000 3.09 300 16:19 30.12.2021
3927 Clouds 5 1021 76 10000 3.09 320 15:42 30.12.2021
3928 Clouds 5 1020 75 10000 2.06 310 14:38 30.12.2021
3929 Clouds 5 1020 74 10000 2.57 320 13:49 30.12.2021
3930 Clouds 5 1019 74 10000 3.09 340 12:40 30.12.2021
3931 Clouds 4 1019 77 10000 0.45 90 10:58 30.12.2021
3932 Clouds 3 1018 82 10000 2.06 30 09:58 30.12.2021
3933 Clouds 3 1017 83 10000 1.54 340 08:56 30.12.2021
3934 Clouds 3 1015 88 10000 0.89 293 06:52 30.12.2021
3935 Clouds 4 1013 91 10000 3.13 293 03:42 30.12.2021
3936 Clouds 4 1012 88 10000 1.79 0 02:47 30.12.2021
3937 Clouds 5 1011 89 10000 5.14 280 23:43 29.12.2021
3938 Clouds 5 1011 89 10000 4.92 0 23:22 29.12.2021
3939 Clouds 5 1011 92 10000 3.58 293 22:21 29.12.2021
3940 Clouds 5 1011 93 7000 1.34 293 21:33 29.12.2021
3941 Clouds 6 1010 92 7000 1.79 293 20:38 29.12.2021
3942 Mist 6 1010 92 4000 0.89 293 19:48 29.12.2021
3943 Mist 6 1010 96 5000 1.79 293 18:52 29.12.2021
3944 Clouds 7 1009 91 7000 1.54 290 17:56 29.12.2021
3945 Clouds 7 1009 91 8000 0 0 17:27 29.12.2021
3946 Clouds 7 1009 91 8000 1.03 290 16:24 29.12.2021
3947 Clouds 8 1009 88 8000 1.54 280 15:48 29.12.2021
3948 Clouds 8 1008 86 10000 1.03 0 14:19 29.12.2021
3949 Clouds 7 1009 91 6000 2.06 100 12:37 29.12.2021
3950 Mist 8 1009 91 5000 4.12 100 11:35 29.12.2021
3951 Mist 5 1011 93 1300 1.54 270 09:58 29.12.2021
3952 Mist 5 1010 93 2600 0.51 0 07:51 29.12.2021
3953 Mist 4 1010 96 4000 1.54 290 06:38 29.12.2021
3954 Mist 4 1010 94 4300 1.54 340 05:59 29.12.2021
3955 Mist 3 1010 94 4300 1.54 340 05:36 29.12.2021
3956 Mist 5 1011 93 5000 4.63 120 02:40 29.12.2021
3957 Clouds 5 1011 90 10000 2.57 160 00:22 29.12.2021
3958 Clear 5 1011 90 10000 2.57 150 23:34 28.12.2021
3959 Clouds 4 1011 95 8000 3.09 90 22:42 28.12.2021
3960 Mist 4 1011 95 5000 3.09 110 22:24 28.12.2021
3961 Mist 5 1011 90 5000 2.57 110 21:36 28.12.2021
3962 Mist 5 1012 93 2500 1.54 110 20:36 28.12.2021
3963 Fog 5 1012 93 2000 2.06 140 19:22 28.12.2021
3964 Clouds 5 1011 92 7000 1.03 0 18:35 28.12.2021
3965 Clouds 6 1012 87 7000 1.03 0 17:57 28.12.2021
3966 Clear 8 1011 82 10000 1.03 180 16:34 28.12.2021
3967 Clear 10 1011 79 10000 1.03 190 15:49 28.12.2021
3968 Clear 10 1011 76 10000 1.79 113 15:20 28.12.2021
3969 Clouds 10 1009 76 10000 1.54 190 14:46 28.12.2021
3970 Clouds 11 1011 74 10000 1.03 0 14:20 28.12.2021
3971 Clouds 11 1009 66 10000 1.03 0 13:42 28.12.2021
3972 Clouds 11 1009 71 10000 0.51 0 13:24 28.12.2021
3973 Clouds 10 1010 76 10000 1.54 330 12:39 28.12.2021
3974 Clouds 8 1010 87 10000 1.54 320 11:27 28.12.2021
3975 Fog 5 1012 96 500 2.57 90 07:40 28.12.2021
3976 Fog 5 1012 95 800 2.06 180 06:41 28.12.2021
3977 Clouds 7 1013 91 10000 1.03 0 23:43 27.12.2021
3978 Drizzle 7 1013 90 10000 0.45 90 22:58 27.12.2021
3979 Clouds 7 1012 91 10000 2.57 50 21:33 27.12.2021
3980 Clouds 8 1012 85 10000 4.63 80 20:46 27.12.2021
3981 Rain 8 1012 85 10000 3.09 110 19:57 27.12.2021
3982 Rain 8 1012 83 10000 3.09 110 19:39 27.12.2021
3983 Drizzle 9 1009 76 10000 3.09 60 17:55 27.12.2021
3984 Drizzle 9 1009 76 10000 3.09 60 17:55 27.12.2021
3985 Drizzle 9 1009 76 10000 3.09 60 17:37 27.12.2021
3986 Clouds 10 1008 66 10000 1.54 360 16:36 27.12.2021
3987 Clouds 13 1008 54 10000 4.12 150 15:51 27.12.2021
3988 Clouds 11 1008 62 10000 3.09 0 14:31 27.12.2021
3989 Clouds 13 1010 58 10000 4.12 350 13:39 27.12.2021
3990 Clouds 11 1011 69 10000 6.17 100 11:53 27.12.2021
3991 Clouds 10 1010 66 10000 5.14 100 10:29 27.12.2021
3992 Clouds 8 1014 76 10000 4.12 90 09:39 27.12.2021
3993 Clouds 6 1013 83 10000 3.6 110 07:35 27.12.2021
3994 Clouds 5 1013 85 10000 1.03 0 06:38 27.12.2021
3995 Mist 4 1014 87 5000 2.57 260 01:59 27.12.2021
3996 Mist 5 1015 85 5000 0.45 23 23:57 26.12.2021
3997 Mist 5 1015 85 5000 1.03 0 23:34 26.12.2021
3998 Mist 4 1014 86 5000 2.06 0 21:53 26.12.2021
3999 Clouds 5 1014 83 8000 2.57 50 20:42 26.12.2021
4000 Clouds 5 1014 81 8000 1.54 90 19:46 26.12.2021
4001 Clouds 5 1014 87 6000 0.89 180 18:23 26.12.2021
4002 Clear 7 1014 80 10000 1.54 130 15:57 26.12.2021
4003 Clouds 8 1012 76 10000 1.03 0 14:27 26.12.2021
4004 Clouds 8 1012 76 10000 2.06 150 13:40 26.12.2021
4005 Clouds 8 1012 76 10000 1.03 0 13:18 26.12.2021
4006 Clouds 5 1012 87 10000 2.06 280 12:27 26.12.2021
4007 Clear 6 1014 86 10000 2.06 20 10:22 26.12.2021
4008 Clouds 5 1015 86 10000 3.13 113 09:19 26.12.2021
4009 Clouds 3 1015 86 10000 2.06 220 08:40 26.12.2021
4010 Rain 2 1014 93 8000 1.03 0 07:25 26.12.2021
4011 Clouds 1 1014 91 9000 1.03 0 00:59 26.12.2021
4012 Clouds 1 1015 91 7000 1.34 113 23:51 25.12.2021
4013 Clouds 1 1015 93 7000 3.09 130 23:26 25.12.2021
4014 Mist 1 1015 89 5000 1.03 0 22:23 25.12.2021
4015 Clouds 2 1015 88 9000 2.57 150 20:48 25.12.2021
4016 Clouds 2 1015 86 8000 2.57 160 19:22 25.12.2021
4017 Clear 2 1015 85 10000 3.09 100 18:54 25.12.2021
4018 Clear 2 1013 88 10000 2.57 190 17:29 25.12.2021
4019 Clear 4 1013 75 10000 1.54 140 16:35 25.12.2021
4020 Clear 9 1013 57 10000 1.54 110 14:38 25.12.2021
4021 Clouds 10 1013 53 10000 1.54 30 12:49 25.12.2021
4022 Clouds 8 1014 61 10000 1.03 0 11:45 25.12.2021
4023 Clouds 7 1018 69 10000 1.54 220 09:50 25.12.2021
4024 Clouds 0 1015 93 10000 1.54 0 08:19 25.12.2021
4025 Clouds 0 1016 90 10000 1.34 180 02:22 25.12.2021
4026 Clear 1 1016 87 10000 0.89 90 00:33 25.12.2021
4027 Clouds 2 1017 87 10000 1.03 0 23:38 24.12.2021
4028 Clear 0 1014 80 10000 1.54 40 19:39 24.12.2021
4029 Clear 0 1014 80 10000 1.54 40 19:39 24.12.2021
4030 Clear 1 1014 75 10000 1.54 330 19:21 24.12.2021
4031 Clear 5 1013 56 10000 1.03 0 16:50 24.12.2021
4032 Clear 6 1013 56 10000 2.06 0 16:21 24.12.2021
4033 Clear 9 1013 46 10000 3.6 310 15:46 24.12.2021
4034 Clear 10 1013 43 10000 3.6 300 14:46 24.12.2021
4035 Clear 10 1013 43 10000 1.03 0 14:23 24.12.2021
4036 Clear 8 1014 46 10000 2.06 110 13:37 24.12.2021
4037 Clear 7 1016 48 10000 1.03 0 12:48 24.12.2021
4038 Clear 5 1018 49 10000 2.06 0 11:52 24.12.2021
4039 Clear 5 1018 47 10000 1.03 0 11:26 24.12.2021
4040 Clear 2 1016 55 10000 1.54 100 10:50 24.12.2021
4041 Clear 1 1017 60 10000 1.54 90 10:18 24.12.2021
4042 Clouds -2 1019 79 10000 2.57 100 08:24 24.12.2021
4043 Clouds -2 1020 75 8000 2.57 90 07:48 24.12.2021
4044 Clouds -4 1021 81 10000 1.03 0 02:52 24.12.2021
4045 Clouds -3 1022 73 10000 1.03 0 00:19 24.12.2021
4046 Clouds -3 1022 72 10000 1.03 90 23:22 23.12.2021
4047 Clouds -2 1023 72 10000 1.03 0 22:37 23.12.2021
4048 Clouds -2 1023 72 10000 1.03 0 22:37 23.12.2021
4049 Clouds -2 1023 71 10000 0 0 22:19 23.12.2021
4050 Clouds -2 1023 71 10000 1.03 170 21:33 23.12.2021
4051 Clouds -2 1024 71 10000 1.03 0 20:19 23.12.2021
4052 Clouds -3 1025 72 9000 1.54 110 18:37 23.12.2021
4053 Clear -3 1024 69 10000 1.03 0 17:57 23.12.2021
4054 Clear -3 1024 70 10000 1.54 130 16:47 23.12.2021
4055 Clear -2 1024 67 10000 0.89 113 16:24 23.12.2021
4056 Clear -1 1025 61 10000 1.34 135 15:31 23.12.2021
4057 Clear 0 1024 58 10000 1.79 90 14:52 23.12.2021
4058 Clear 0 1024 56 10000 1.34 90 14:31 23.12.2021
4059 Clear 1 1025 54 10000 1.03 0 13:19 23.12.2021
4060 Clear -2 1026 60 10000 1.54 290 10:53 23.12.2021
4061 Clear -3 1026 68 10000 0.51 0 09:47 23.12.2021
4062 Clear -6 1026 79 8000 1.03 0 09:19 23.12.2021
4063 Clear -9 1028 88 10000 1.54 80 06:59 23.12.2021
4064 Clear -9 1027 83 10000 2.06 160 04:33 23.12.2021
4065 Clouds -4 1028 75 10000 0.89 0 23:26 22.12.2021
4066 Clouds -4 1028 74 10000 2.68 293 22:47 22.12.2021
4067 Clouds -3 1028 70 10000 0.89 293 21:56 22.12.2021
4068 Clouds -3 1028 70 10000 1.34 293 21:29 22.12.2021
4069 Clouds -3 1028 70 10000 3.13 293 20:47 22.12.2021
4070 Clear -3 1028 70 10000 5.81 293 20:26 22.12.2021
4071 Clear -3 1027 65 10000 2.24 293 19:28 22.12.2021
4072 Clouds -3 1027 64 10000 0.89 293 17:50 22.12.2021
4073 Clouds -2 1028 65 10000 0.89 0 16:40 22.12.2021
4074 Clouds 0 1028 59 10000 2.06 310 15:40 22.12.2021
4075 Clouds 1 1027 57 10000 2.06 280 13:33 22.12.2021
4076 Clouds 1 1027 59 10000 1.54 310 12:40 22.12.2021
4077 Clouds -4 1026 74 8000 1.03 0 10:19 22.12.2021
4078 Clouds -5 1026 74 8000 1.03 0 09:38 22.12.2021
4079 Clear -8 1027 89 10000 1.03 0 07:25 22.12.2021
4080 Clear -8 1027 89 10000 1.03 0 05:43 22.12.2021
4081 Clear -8 1026 88 10000 0.51 30 05:24 22.12.2021
4082 Clear -8 1026 85 10000 1.03 140 04:50 22.12.2021
4083 Clear -8 1026 85 10000 0.51 0 04:26 22.12.2021
4084 Clouds -7 1026 84 10000 2.06 260 03:32 22.12.2021
4085 Clouds -6 1027 80 10000 1.03 0 00:47 22.12.2021
4086 Clear -5 1027 78 10000 1.34 293 22:52 21.12.2021
4087 Clear -4 1026 75 10000 2.06 350 22:28 21.12.2021
4088 Clear -4 1026 75 10000 2.24 293 21:44 21.12.2021
4089 Clear -4 1026 71 10000 1.34 293 20:55 21.12.2021
4090 Clear -3 1026 67 10000 0.45 293 20:21 21.12.2021
4091 Clear -3 1026 67 10000 2.24 293 19:41 21.12.2021
4092 Clear -3 1025 67 10000 4.02 0 18:46 21.12.2021
4093 Clouds -2 1025 65 10000 3.13 293 18:21 21.12.2021
4094 Clouds -2 1027 64 10000 5.66 280 17:41 21.12.2021
4095 Clear -1 1024 59 10000 1.34 293 15:59 21.12.2021
4096 Clouds 0 1025 53 10000 4.92 293 15:20 21.12.2021
4097 Clouds 1 1023 52 10000 2.68 270 13:50 21.12.2021
4098 Clouds 1 1023 50 10000 5.81 270 13:30 21.12.2021
4099 Clouds 2 1024 52 10000 10.8 280 11:36 21.12.2021
4100 Clouds 1 1023 55 10000 4.92 293 10:21 21.12.2021
4101 Clouds 0 1021 64 10000 7.72 280 09:19 21.12.2021
4102 Clouds -1 1020 69 10000 6.69 280 07:55 21.12.2021
4103 Clouds -1 1019 69 10000 6.69 280 07:26 21.12.2021
4104 Clouds -1 1021 66 10000 4.47 293 05:31 21.12.2021
4105 Clouds 0 1021 72 10000 3.13 338 02:40 21.12.2021
4106 Clouds 0 1020 64 10000 2.24 293 23:58 20.12.2021
4107 Clouds 0 1020 64 10000 2.68 293 23:24 20.12.2021
4108 Clouds 1 1020 62 10000 5.36 293 22:28 20.12.2021
4109 Clouds 1 1020 63 10000 2.24 270 21:47 20.12.2021
4110 Clouds 1 1020 63 10000 4.92 293 21:23 20.12.2021
4111 Clouds 1 1020 65 10000 3.58 293 20:44 20.12.2021
4112 Clouds 1 1016 60 10000 6.69 280 19:50 20.12.2021
4113 Clouds 0 1016 69 10000 7.2 280 19:30 20.12.2021
4114 Clouds 1 1016 64 10000 6.17 280 18:53 20.12.2021
4115 Clouds 1 1017 64 10000 2.68 0 17:52 20.12.2021
4116 Clouds 1 1017 64 10000 2.68 0 17:52 20.12.2021
4117 Clouds 1 1016 66 10000 7.2 290 17:23 20.12.2021
4118 Clouds 2 1016 62 10000 2.24 0 16:38 20.12.2021
4119 Clouds 2 1015 64 10000 5.36 293 15:48 20.12.2021
4120 Clouds 4 1015 64 10000 1.79 293 14:42 20.12.2021
4121 Clouds 5 1014 67 10000 4.92 293 12:51 20.12.2021
4122 Clouds 5 1014 66 10000 2.68 293 11:18 20.12.2021
4123 Clouds 4 1014 67 10000 0.89 293 09:47 20.12.2021
4124 Clouds 4 1014 70 10000 7.15 293 08:57 20.12.2021
4125 Clouds 4 1014 72 10000 4.47 293 08:38 20.12.2021
4126 Clouds 3 1014 76 10000 2.68 293 07:46 20.12.2021
4127 Clouds 3 1013 78 10000 3.13 293 06:47 20.12.2021
4128 Clouds 3 1012 71 10000 4.92 293 03:41 20.12.2021
4129 Clouds 1 1010 80 10000 3.09 340 23:50 19.12.2021
4130 Clouds 0 1011 80 10000 1.54 340 22:44 19.12.2021
4131 Clear 1 1011 75 10000 2.57 330 21:49 19.12.2021
4132 Clear 0 1011 80 10000 3.6 310 21:25 19.12.2021
4133 Clouds 2 1012 75 10000 4.63 300 20:29 19.12.2021
4134 Clouds 2 1012 75 10000 4.63 300 19:45 19.12.2021
4135 Clouds 3 1015 72 10000 3.13 338 18:57 19.12.2021
4136 Clouds 2 1014 77 10000 5.14 290 18:24 19.12.2021
4137 Clouds 2 1015 77 10000 0.45 293 17:46 19.12.2021
4138 Clouds 2 1015 80 10000 1.79 0 16:55 19.12.2021
4139 Clouds 2 1016 80 10000 4.47 0 16:24 19.12.2021
4140 Clouds 2 1016 74 10000 2.68 293 15:26 19.12.2021
4141 Clouds 2 1017 74 10000 4.02 293 14:49 19.12.2021
4142 Clouds 2 1018 69 10000 5.14 290 13:41 19.12.2021
4143 Clouds 2 1018 69 10000 4.63 300 13:20 19.12.2021
4144 Clouds 2 1019 70 10000 3.58 293 12:33 19.12.2021
4145 Clouds 2 1020 70 10000 1.34 293 11:40 19.12.2021
4146 Clouds 1 1020 74 10000 4.47 293 10:52 19.12.2021
4147 Clouds 2 1022 71 10000 6.17 290 10:23 19.12.2021
4148 Clouds 0 1021 79 10000 1.54 340 09:20 19.12.2021
4149 Clouds -2 1022 87 10000 3.58 293 07:35 19.12.2021
4150 Clear -1 1025 85 10000 2.24 293 02:30 19.12.2021
4151 Clouds 0 1025 81 10000 6.26 293 00:55 19.12.2021
4152 Clouds 0 1026 80 10000 2.68 293 23:21 18.12.2021
4153 Clouds 0 1026 81 10000 4.02 293 22:29 18.12.2021
4154 Clouds 0 1026 82 10000 2.24 293 21:51 18.12.2021
4155 Clouds 0 1026 85 10000 2.24 293 21:30 18.12.2021
4156 Snow 0 1026 85 10000 2.57 290 20:43 18.12.2021
4157 Snow 1 1026 82 10000 0.89 293 19:50 18.12.2021
4158 Smoke 0 1026 81 10000 1.79 293 18:26 18.12.2021
4159 Clouds 1 1026 79 10000 1.54 170 17:49 18.12.2021
4160 Snow 0 1026 84 8000 1.79 293 16:55 18.12.2021
4161 Clouds 0 1025 82 10000 0.89 293 16:21 18.12.2021
4162 Clouds 2 1025 75 10000 2.68 293 15:25 18.12.2021
4163 Clouds 2 1025 74 8000 2.68 293 14:19 18.12.2021
4164 Clouds 3 1024 72 10000 1.79 113 11:59 18.12.2021
4165 Clouds 3 1025 71 10000 1.79 293 10:42 18.12.2021
4166 Clouds 1 1024 85 10000 2.68 293 09:32 18.12.2021
4167 Snow 1 1025 84 5000 3.6 270 08:36 18.12.2021
4168 Snow 1 1024 83 8000 1.34 293 07:42 18.12.2021
4169 Clouds 0 1022 85 8000 0.45 293 01:47 18.12.2021
4170 Clouds 1 1022 82 10000 3.13 293 23:56 17.12.2021
4171 Clouds 1 1022 85 10000 1.79 293 22:51 17.12.2021
4172 Snow 1 1023 87 5000 4.12 290 21:50 17.12.2021
4173 Snow 1 1023 90 10000 4.63 290 20:48 17.12.2021
4174 Snow 2 1023 86 10000 2.68 293 19:58 17.12.2021
4175 Snow 2 1023 87 10000 3.13 293 18:40 17.12.2021
4176 Snow 2 1022 86 10000 5.81 293 18:18 17.12.2021
4177 Clouds 3 1022 78 10000 2.68 293 16:57 17.12.2021
4178 Clouds 3 1022 77 10000 7.6 293 16:28 17.12.2021
4179 Clouds 4 1022 74 10000 3.13 338 15:51 17.12.2021
4180 Clouds 4 1022 74 10000 7.15 293 14:43 17.12.2021
4181 Clouds 4 1021 78 10000 6.71 293 13:55 17.12.2021
4182 Clouds 4 1022 83 10000 6.26 180 12:37 17.12.2021
4183 Clouds 4 1024 84 10000 6.26 293 10:42 17.12.2021
4184 Clouds 4 1025 85 10000 4.02 293 09:47 17.12.2021
4185 Clouds 3 1025 86 10000 5.81 293 08:43 17.12.2021
4186 Clouds 3 1025 85 10000 5.66 290 08:18 17.12.2021
4187 Rain 2 1025 81 10000 0.89 293 04:57 17.12.2021
4188 Clouds 3 1026 79 10000 6.71 293 00:57 17.12.2021
4189 Clouds 3 1027 78 10000 3.58 293 22:44 16.12.2021
4190 Clouds 3 1027 78 10000 1.79 0 22:22 16.12.2021
4191 Clouds 2 1027 78 10000 4.02 293 21:43 16.12.2021
4192 Clouds 2 1027 77 10000 2.68 293 20:42 16.12.2021
4193 Clouds 2 1027 76 10000 3.13 293 20:21 16.12.2021
4194 Clouds 2 1027 76 10000 3.13 293 20:21 16.12.2021
4195 Clouds 3 1027 75 10000 2.24 293 19:27 16.12.2021
4196 Clouds 2 1027 75 10000 2.24 293 18:31 16.12.2021
4197 Clouds 2 1027 76 10000 6.26 293 17:36 16.12.2021
4198 Clouds 2 1027 76 10000 4.02 293 16:24 16.12.2021
4199 Clouds 2 1027 75 10000 3.58 0 15:26 16.12.2021
4200 Clouds 3 1027 77 10000 2.24 293 13:45 16.12.2021
4201 Clouds 3 1027 74 10000 5.81 203 11:48 16.12.2021
4202 Clouds 3 1027 74 10000 7.2 290 11:18 16.12.2021
4203 Clouds 3 1028 74 10000 3.13 293 10:39 16.12.2021
4204 Clouds 2 1028 76 10000 7.6 293 09:39 16.12.2021
4205 Clouds 0 1028 85 10000 1.34 0 06:23 16.12.2021
4206 Clouds 0 1028 82 10000 2.68 293 03:54 16.12.2021
4207 Clouds 0 1028 87 10000 4.47 293 23:36 15.12.2021
4208 Clouds 0 1028 86 10000 4.92 0 22:49 15.12.2021
4209 Clouds 0 1028 86 10000 3.13 0 22:19 15.12.2021
4210 Clouds 0 1028 86 10000 4.47 293 21:31 15.12.2021
4211 Clouds 0 1028 86 10000 4.47 293 20:36 15.12.2021
4212 Clouds 0 1028 85 10000 1.34 293 19:53 15.12.2021
4213 Clouds 1 1027 82 10000 4.92 0 18:41 15.12.2021
4214 Clouds 1 1027 82 10000 2.68 293 18:18 15.12.2021
4215 Clouds 0 1027 84 10000 1.79 293 17:40 15.12.2021
4216 Clouds 1 1027 79 10000 3.13 293 16:57 15.12.2021
4217 Clouds 2 1027 79 10000 1.79 293 15:47 15.12.2021
4218 Clouds 2 1027 78 10000 2.24 0 15:29 15.12.2021
4219 Clouds 2 1026 79 10000 2.68 293 14:44 15.12.2021
4220 Clouds 2 1027 78 10000 5.36 0 13:27 15.12.2021
4221 Clouds 1 1027 76 10000 3.13 293 10:58 15.12.2021
4222 Clouds 1 1027 78 10000 2.68 0 09:31 15.12.2021
4223 Clouds 1 1026 78 10000 6.69 280 07:47 15.12.2021
4224 Clouds 1 1025 84 10000 2.24 293 02:40 15.12.2021
4225 Clouds 2 1025 85 10000 0.89 293 23:44 14.12.2021
4226 Clouds 2 1026 85 10000 3.13 293 22:49 14.12.2021
4227 Clouds 2 1026 85 10000 3.13 293 22:49 14.12.2021
4228 Clouds 1 1026 85 10000 3.13 293 22:30 14.12.2021
4229 Clouds 2 1025 85 10000 2.68 293 21:24 14.12.2021
4230 Clouds 2 1025 85 10000 2.68 293 19:44 14.12.2021
4231 Clouds 2 1025 85 10000 2.68 293 19:44 14.12.2021
4232 Clouds 1 1024 88 10000 2.68 293 19:20 14.12.2021
4233 Clouds 1 1024 91 10000 3.13 293 18:34 14.12.2021
4234 Clouds 2 1024 85 10000 2.06 280 17:34 14.12.2021
4235 Clouds 2 1024 85 10000 1.34 293 16:43 14.12.2021
4236 Clouds 2 1024 85 10000 0.89 293 15:41 14.12.2021
4237 Clouds 2 1023 86 8000 4.63 260 13:32 14.12.2021
4238 Clouds 2 1024 87 7000 4.63 270 12:27 14.12.2021
4239 Clouds 2 1024 87 8000 4.12 280 11:24 14.12.2021
4240 Snow 1 1025 88 3200 4.12 280 10:25 14.12.2021
4241 Snow 1 1025 88 1900 3.6 280 09:53 14.12.2021
4242 Snow 1 1024 88 2400 2.24 293 08:28 14.12.2021
4243 Snow 1 1024 88 8000 1.79 293 07:59 14.12.2021
4244 Snow 1 1023 87 8000 1.79 293 05:38 14.12.2021
4245 Snow 1 1023 85 10000 3.13 293 23:39 13.12.2021
4246 Rain 1 1023 83 10000 1.79 293 21:54 13.12.2021
4247 Rain 1 1023 83 10000 1.79 293 21:34 13.12.2021
4248 Rain 1 1023 83 10000 2.24 270 20:45 13.12.2021
4249 Rain 1 1022 83 10000 4.92 293 19:57 13.12.2021
4250 Rain 1 1022 83 10000 3.13 293 19:20 13.12.2021
4251 Rain 1 1022 81 10000 4.63 280 17:26 13.12.2021
4252 Rain 1 1021 82 10000 2.68 293 16:20 13.12.2021
4253 Rain 1 1021 84 10000 1.34 293 15:38 13.12.2021
4254 Clouds 2 1020 82 10000 3.13 293 13:49 13.12.2021
4255 Rain 2 1020 83 10000 2.24 293 13:18 13.12.2021
4256 Rain 2 1020 80 10000 2.24 293 12:22 13.12.2021
4257 Rain 1 1021 83 10000 3.58 293 11:36 13.12.2021
4258 Rain 1 1021 84 10000 3.13 293 10:53 13.12.2021
4259 Rain 1 1021 84 10000 2.68 293 10:21 13.12.2021
4260 Snow 0 1020 87 5000 5.36 293 08:28 13.12.2021
4261 Snow 0 1019 84 10000 5.36 293 05:37 13.12.2021
4262 Snow 1 1019 80 10000 4.47 293 03:31 13.12.2021
4263 Snow 1 1019 84 8000 2.68 293 23:27 12.12.2021
4264 Clouds 1 1019 79 10000 8.94 293 21:50 12.12.2021
4265 Clouds 1 1018 81 10000 3.13 293 20:28 12.12.2021
4266 Rain 1 1017 81 10000 25.48 338 18:43 12.12.2021
4267 Rain 1 1017 80 10000 1.79 293 17:46 12.12.2021
4268 Rain 2 1016 83 8000 4.02 293 16:28 12.12.2021
4269 Clouds 2 1016 83 8000 4.47 293 15:51 12.12.2021
4270 Clouds 2 1015 84 6000 2.24 293 15:26 12.12.2021
4271 Clouds 2 1015 88 4000 4.63 270 14:37 12.12.2021
4272 Clouds 2 1014 85 8000 3.58 0 13:34 12.12.2021
4273 Clouds 2 1014 86 10000 0.89 293 12:32 12.12.2021
4274 Clouds 3 1014 85 10000 0.45 293 11:44 12.12.2021
4275 Clouds 3 1014 86 10000 2.68 293 11:24 12.12.2021
4276 Clouds 3 1013 83 10000 4.92 270 10:28 12.12.2021
4277 Clouds 3 1012 86 10000 2.24 0 09:38 12.12.2021
4278 Clouds 3 1011 84 10000 3.58 293 08:33 12.12.2021
4279 Clouds 4 1008 88 10000 2.68 293 06:20 12.12.2021
4280 Clouds 5 1006 90 10000 3.09 330 04:56 12.12.2021
4281 Clouds 6 1005 87 10000 4.02 293 03:57 12.12.2021
4282 Clouds 8 1003 93 7000 2.24 293 23:47 11.12.2021
4283 Clouds 9 1002 93 8000 25.48 338 22:23 11.12.2021
4284 Rain 9 1002 92 10000 6.69 110 21:52 11.12.2021
4285 Drizzle 9 1003 89 10000 2.68 90 20:51 11.12.2021
4286 Clouds 9 1004 89 10000 4.63 120 19:27 11.12.2021
4287 Clouds 9 1004 88 10000 1.34 90 18:52 11.12.2021
4288 Clouds 8 1004 90 10000 1.03 0 18:25 11.12.2021
4289 Clouds 8 1005 86 10000 1.34 90 17:21 11.12.2021
4290 Clouds 9 1005 83 10000 3.09 130 15:54 11.12.2021
4291 Clouds 9 1005 82 10000 3.09 120 15:28 11.12.2021
4292 Clouds 8 1006 73 10000 2.24 90 12:57 11.12.2021
4293 Clouds 6 1005 70 10000 1.54 260 11:25 11.12.2021
4294 Clouds 5 1006 81 10000 2.06 110 09:46 11.12.2021
4295 Clouds 5 1008 86 10000 1.54 300 08:28 11.12.2021
4296 Clear 2 1009 84 10000 3.6 110 02:29 11.12.2021
4297 Clouds 3 1007 87 10000 3.09 50 00:36 11.12.2021
4298 Clouds 3 1009 90 8000 1.34 0 23:21 10.12.2021
4299 Clouds 4 1006 87 8000 1.54 220 21:57 10.12.2021
4300 Clouds 3 1008 91 7000 1.54 0 21:28 10.12.2021
4301 Clouds 5 1007 91 7000 3.09 350 19:21 10.12.2021
4302 Clouds 5 1007 89 8000 3.09 110 18:19 10.12.2021
4303 Clouds 4 1006 88 10000 4.12 240 16:56 10.12.2021
4304 Clouds 5 1006 87 10000 1.54 0 16:28 10.12.2021
4305 Clouds 5 1005 88 10000 3.09 40 15:41 10.12.2021
4306 Clouds 6 1006 86 7000 1.34 293 15:21 10.12.2021
4307 Mist 4 1004 93 5000 2.57 350 13:52 10.12.2021
4308 Mist 7 1005 85 2700 1.54 50 13:26 10.12.2021
4309 Mist 5 1005 87 2300 1.03 0 12:39 10.12.2021
4310 Mist 4 1005 93 2500 1.54 350 11:28 10.12.2021
4311 Mist 5 1008 91 4500 2.24 293 10:26 10.12.2021
4312 Mist 4 1008 94 1300 1.54 90 08:57 10.12.2021
4313 Mist 3 1008 94 1100 1.54 90 06:50 10.12.2021
4314 Rain 0 1006 100 5000 1.03 40 02:48 10.12.2021
4315 Rain 0 1006 100 5000 1.03 40 02:48 10.12.2021
4316 Clouds 1 1009 92 8000 3.6 310 00:32 10.12.2021
4317 Mist 1 1009 92 5000 1.54 200 23:22 09.12.2021
4318 Clouds 2 1009 90 10000 3.09 150 22:26 09.12.2021
4319 Clouds 2 1009 87 10000 2.24 270 21:59 09.12.2021
4320 Mist 2 1012 87 2600 1.03 0 20:44 09.12.2021
4321 Mist 2 1010 89 7000 25.48 338 20:21 09.12.2021
4322 Clouds 3 1010 86 8000 1.03 0 19:21 09.12.2021
4323 Mist 2 1010 88 5000 4.12 100 18:46 09.12.2021
4324 Mist 1 1011 87 5000 2.06 280 17:52 09.12.2021
4325 Mist 1 1011 87 5000 3.13 338 17:26 09.12.2021
4326 Mist 2 1011 86 5000 2.06 320 16:54 09.12.2021
4327 Mist 2 1012 78 5000 2.06 0 15:34 09.12.2021
4328 Mist 2 1012 83 4000 1.03 0 14:46 09.12.2021
4329 Mist 5 1014 74 1900 1.54 320 13:20 09.12.2021
4330 Mist 5 1014 71 1100 0.51 0 12:37 09.12.2021
4331 Fog 4 1015 75 550 1.54 110 11:24 09.12.2021
4332 Mist 1 1017 84 1500 0.51 0 09:21 09.12.2021
4333 Mist -2 1016 93 5000 1.54 100 06:44 09.12.2021
4334 Mist -4 1014 93 4000 1.54 350 03:40 09.12.2021
4335 Fog -6 1014 92 200 1.03 0 23:43 08.12.2021
4336 Fog -5 1014 92 800 1.54 60 23:21 08.12.2021
4337 Fog -5 1014 92 1000 0 0 22:47 08.12.2021
4338 Fog -4 1014 96 800 2.06 110 21:40 08.12.2021
4339 Fog -4 1014 92 800 2.57 110 20:59 08.12.2021
4340 Mist -3 1012 93 4000 1.03 0 19:58 08.12.2021
4341 Mist -2 1012 86 5000 2.57 270 19:33 08.12.2021
4342 Clouds -3 1012 100 7000 2.57 260 18:44 08.12.2021
4343 Clouds -2 1011 86 8000 2.06 250 17:36 08.12.2021
4344 Clouds -2 1011 86 8000 2.06 250 17:36 08.12.2021
4345 Clouds -1 1013 86 10000 3.6 280 15:49 08.12.2021
4346 Clouds 1 1013 81 10000 3.13 338 15:28 08.12.2021
4347 Clouds 1 1012 80 10000 6.69 300 14:30 08.12.2021
4348 Clouds 2 1012 80 10000 7.2 280 10:55 08.12.2021
4349 Clouds 1 1012 83 10000 7.72 280 10:31 08.12.2021
4350 Clouds 1 1012 83 10000 7.72 280 10:31 08.12.2021
4351 Clouds 0 1012 87 10000 5.66 290 08:55 08.12.2021
4352 Clouds -1 1009 93 10000 7.2 280 07:25 08.12.2021
4353 Snow 0 1009 89 7000 6.17 280 02:30 08.12.2021
4354 Snow 0 1008 90 2900 6.69 280 23:33 07.12.2021
4355 Snow -1 1006 94 1500 6.69 280 21:43 07.12.2021
4356 Snow -1 1006 94 1400 6.69 280 21:23 07.12.2021
4357 Snow 0 1006 89 2000 7.72 280 20:20 07.12.2021
4358 Snow 0 1006 89 3000 7.72 280 18:43 07.12.2021
4359 Snow 0 1005 88 4100 7.72 280 17:48 07.12.2021
4360 Snow 0 1005 90 2300 7.72 280 17:19 07.12.2021
4361 Rain 1 1005 88 2200 7.72 280 16:28 07.12.2021
4362 Snow 1 1005 87 7000 8.23 280 15:23 07.12.2021
4363 Snow 2 1004 87 8000 7.72 280 13:53 07.12.2021
4364 Snow 2 1004 89 3300 7.2 280 12:49 07.12.2021
4365 Snow 1 1004 91 1200 3.13 338 11:25 07.12.2021
4366 Clouds 2 1007 86 1500 6.69 280 09:55 07.12.2021
4367 Clouds 2 1004 88 8000 6.69 280 07:55 07.12.2021
4368 Clouds 3 1004 88 10000 2.24 0 05:55 07.12.2021
4369 Clouds 3 1004 89 10000 0.89 293 05:33 07.12.2021
4370 Clouds 6 1005 91 7000 0.89 0 23:45 06.12.2021
4371 Rain 6 1006 91 7000 3.09 280 22:44 06.12.2021
4372 Rain 7 1006 91 6000 0.45 0 22:22 06.12.2021
4373 Mist 7 1006 94 5000 3.6 300 21:42 06.12.2021
4374 Mist 7 1006 96 1400 2.57 160 20:33 06.12.2021
4375 Mist 7 1006 96 3700 1.54 310 19:27 06.12.2021
4376 Clouds 7 1006 96 1600 2.06 290 18:57 06.12.2021
4377 Clouds 8 1006 89 7000 1.03 0 17:56 06.12.2021
4378 Rain 8 1006 88 7000 1.03 0 17:36 06.12.2021
4379 Clouds 9 1006 79 10000 0.89 113 16:21 06.12.2021
4380 Clouds 9 1006 78 10000 0.89 113 14:54 06.12.2021
4381 Clouds 9 1006 75 10000 2.06 130 13:45 06.12.2021
4382 Clouds 9 1006 75 10000 2.06 130 13:45 06.12.2021
4383 Clouds 9 1006 77 10000 6.17 100 12:39 06.12.2021
4384 Clouds 9 1007 75 10000 0.45 113 10:32 06.12.2021
4385 Clouds 8 1008 82 10000 0.89 90 08:35 06.12.2021
4386 Clouds 4 1008 87 10000 3.09 90 04:28 06.12.2021
4387 Clouds 3 1009 92 10000 0.89 293 22:30 05.12.2021
4388 Clouds 5 1009 85 10000 5.66 80 21:26 05.12.2021
4389 Clouds 5 1009 86 10000 5.14 90 20:59 05.12.2021
4390 Clouds 5 1009 85 10000 6.17 100 20:18 05.12.2021
4391 Clear 5 1010 84 10000 7.72 90 19:33 05.12.2021
4392 Clear 5 1010 86 10000 6.69 100 18:39 05.12.2021
4393 Clear 5 1010 85 10000 0.45 293 18:19 05.12.2021
4394 Clear 6 1009 82 10000 7.2 90 17:45 05.12.2021
4395 Clear 7 1009 78 10000 5.66 90 16:41 05.12.2021
4396 Clear 6 1009 82 10000 5.66 90 16:22 05.12.2021
4397 Clear 9 1009 71 10000 4.12 90 14:48 05.12.2021
4398 Clear 9 1008 70 10000 1.34 180 14:30 05.12.2021
4399 Clouds 10 1009 68 10000 1.34 23 13:38 05.12.2021
4400 Clouds 9 1009 70 10000 2.57 110 12:47 05.12.2021
4401 Clouds 9 1009 70 10000 1.54 140 12:29 05.12.2021
4402 Clouds 8 1010 74 10000 1.54 160 11:47 05.12.2021
4403 Clouds 8 1011 76 8000 0.89 113 10:44 05.12.2021
4404 Clouds 6 1012 83 6000 0.89 113 09:51 05.12.2021
4405 Mist 4 1012 93 2400 2.57 150 07:33 05.12.2021
4406 Mist 4 1013 84 1500 0 0 02:25 05.12.2021
4407 Clouds 4 1012 87 8000 2.06 140 23:25 04.12.2021
4408 Clouds 5 1012 89 8000 1.34 113 21:52 04.12.2021
4409 Clouds 4 1012 89 8000 1.79 90 20:47 04.12.2021
4410 Clouds 4 1012 89 10000 2.57 110 19:54 04.12.2021
4411 Clouds 4 1012 89 8000 1.79 113 19:30 04.12.2021
4412 Clouds 5 1012 83 10000 1.54 0 17:58 04.12.2021
4413 Clouds 5 1012 83 10000 1.54 0 17:36 04.12.2021
4414 Clouds 5 1012 83 10000 2.06 160 16:47 04.12.2021
4415 Clouds 5 1012 83 10000 2.06 160 16:47 04.12.2021
4416 Clouds 5 1012 82 10000 1.03 120 16:28 04.12.2021
4417 Clouds 5 1012 80 10000 2.57 300 13:39 04.12.2021
4418 Clouds 5 1012 80 10000 4.12 290 11:44 04.12.2021
4419 Clouds 5 1012 83 10000 4.12 310 11:20 04.12.2021
4420 Clouds 5 1013 76 10000 2.57 260 10:24 04.12.2021
4421 Clouds 3 1013 82 10000 1.79 315 08:42 04.12.2021
4422 Clouds 2 1012 86 10000 2.68 293 05:30 04.12.2021
4423 Clouds 4 1012 78 10000 0.45 0 04:40 04.12.2021
4424 Clouds 4 1013 86 10000 0.89 293 23:49 03.12.2021
4425 Clouds 4 1013 88 10000 3.6 280 22:55 03.12.2021
4426 Clouds 4 1013 88 10000 3.13 293 21:58 03.12.2021
4427 Clouds 4 1013 88 10000 0.89 315 21:24 03.12.2021
4428 Clouds 4 1012 85 10000 1.79 309 20:43 03.12.2021
4429 Clouds 6 1012 75 10000 3.13 293 19:29 03.12.2021
4430 Clouds 6 1010 79 10000 6.69 300 18:24 03.12.2021
4431 Clouds 8 1007 76 10000 5.66 340 17:33 03.12.2021
4432 Clouds 14 1006 44 10000 10.29 210 13:45 03.12.2021
4433 Clouds 14 1007 44 10000 9.77 200 12:51 03.12.2021
4434 Clouds 14 1007 47 10000 8.75 200 11:24 03.12.2021
4435 Clouds 14 1007 51 10000 9.26 200 09:44 03.12.2021
4436 Clouds 13 1006 50 10000 10.8 200 08:21 03.12.2021
4437 Clouds 9 1009 92 10000 1.13 144 07:23 03.12.2021
4438 Clouds 4 1005 75 10000 3.09 0 01:43 03.12.2021
4439 Clouds 6 1006 65 10000 2.06 230 00:34 03.12.2021
4440 Clouds 4 1007 75 10000 4.12 50 23:40 02.12.2021
4441 Clouds 3 1007 75 10000 3.09 80 21:42 02.12.2021
4442 Clouds 4 1008 70 7000 1.54 0 20:49 02.12.2021
4443 Clouds 3 1010 83 8000 0.89 113 20:29 02.12.2021
4444 Clouds 3 1008 81 6000 1.54 0 19:23 02.12.2021
4445 Clouds 3 1010 79 10000 1.03 0 17:36 02.12.2021
4446 Clear 7 1008 65 10000 1.54 80 15:42 02.12.2021
4447 Clear 7 1010 64 10000 1.79 0 14:57 02.12.2021
4448 Clear 8 1011 58 10000 1.54 130 13:54 02.12.2021
4449 Clear 6 1009 61 10000 1.54 90 12:52 02.12.2021
4450 Clear 4 1010 75 10000 1.54 80 11:53 02.12.2021
4451 Clouds -1 1012 86 8000 1.54 0 09:29 02.12.2021
4452 Clouds 0 1014 87 8000 1.03 0 08:27 02.12.2021
4453 Mist -1 1015 89 5000 0.51 0 03:33 02.12.2021
4454 Clouds -2 1014 95 6000 1.54 120 00:51 02.12.2021
4455 Mist -1 1014 91 4700 2.57 190 22:41 01.12.2021
4456 Clouds -1 1015 90 6000 2.06 150 22:23 01.12.2021
4457 Clouds 0 1015 86 8000 1.54 310 20:35 01.12.2021
4458 Clear 1 1015 82 9000 1.03 0 19:51 01.12.2021
4459 Clear 2 1015 80 10000 2.06 90 18:57 01.12.2021
4460 Clear 1 1013 86 10000 1.03 0 17:42 01.12.2021
4461 Clear 5 1013 65 10000 2.06 350 16:38 01.12.2021
4462 Clear 5 1012 65 10000 4.12 320 14:49 01.12.2021
4463 Clear 5 1014 67 10000 2.57 250 13:44 01.12.2021
4464 Clouds 5 1017 61 10000 2.57 120 11:34 01.12.2021
4465 Clouds 2 1014 64 10000 2.06 120 10:41 01.12.2021
4466 Clouds -2 1014 80 10000 2.06 150 08:55 01.12.2021
4467 Clouds -4 1014 86 10000 2.06 90 08:26 01.12.2021
4468 Clouds -1 1013 74 10000 4.12 330 07:32 01.12.2021
4469 Clouds -3 1014 85 10000 1.03 0 04:20 01.12.2021
4470 Clouds -3 1015 84 10000 1.03 0 03:38 01.12.2021
4471 Clear -4 1013 86 10000 2.06 0 00:48 01.12.2021
4472 Clear -3 1013 80 10000 3.6 320 23:37 30.11.2021
4473 Clear -3 1013 80 10000 3.09 340 22:42 30.11.2021
4474 Clouds -2 1016 80 10000 3.09 280 20:53 30.11.2021
4475 Clouds 0 1013 69 10000 3.09 280 20:34 30.11.2021
4476 Clouds 0 1013 69 10000 6.17 280 19:51 30.11.2021
4477 Clouds 0 1013 74 10000 5.66 260 19:27 30.11.2021
4478 Clouds -1 1012 80 10000 6.69 280 18:24 30.11.2021
4479 Clouds -1 1013 81 10000 7.2 280 16:25 30.11.2021
4480 Clouds 1 1012 77 10000 8.23 280 14:35 30.11.2021
4481 Clouds 1 1012 77 10000 8.23 280 13:52 30.11.2021
4482 Clouds 1 1012 78 10000 8.75 280 13:23 30.11.2021
4483 Clouds 1 1011 78 10000 6.69 280 12:44 30.11.2021
4484 Clouds 1 1011 82 6000 8.23 280 11:26 30.11.2021
4485 Clouds 1 1010 85 6000 8.23 280 10:37 30.11.2021
4486 Snow 0 1009 87 6000 8.23 280 09:44 30.11.2021
4487 Snow 0 1008 89 500 6.69 280 08:48 30.11.2021
4488 Snow 0 1008 90 1400 6.69 280 08:19 30.11.2021
4489 Snow 0 1006 91 2800 6.69 280 07:35 30.11.2021
4490 Mist 4 1001 91 4700 1.54 110 01:52 30.11.2021
4491 Mist 4 1001 91 5000 0 0 01:31 30.11.2021
4492 Mist 5 1002 89 5000 2.57 110 23:55 29.11.2021
4493 Mist 5 1002 90 5000 1.54 60 23:20 29.11.2021
4494 Clouds 4 1003 91 8000 1.03 0 22:44 29.11.2021
4495 Clouds 4 1003 93 7000 2.57 260 22:25 29.11.2021
4496 Mist 4 1002 91 5000 2.06 0 21:21 29.11.2021
4497 Mist 4 1002 89 5000 2.06 120 20:56 29.11.2021
4498 Mist 4 1002 88 5000 1.54 70 20:22 29.11.2021
4499 Mist 4 1002 88 5000 2.06 110 19:44 29.11.2021
4500 Mist 4 1002 88 5000 2.06 110 19:44 29.11.2021
4501 Clouds 4 1002 89 6000 2.06 110 19:25 29.11.2021
4502 Clouds 5 1001 91 10000 0.73 31 18:45 29.11.2021
4503 Clouds 5 1000 90 10000 0.42 91 17:22 29.11.2021
4504 Clouds 5 1000 90 10000 0.4 89 16:54 29.11.2021
4505 Clouds 5 1000 91 10000 0.55 136 16:25 29.11.2021
4506 Clouds 5 1000 91 10000 0.94 345 14:52 29.11.2021
4507 Clouds 5 1000 91 3268 0.69 259 14:29 29.11.2021
4508 Clouds 5 999 91 1552 2.72 288 13:25 29.11.2021
4509 Clouds 6 998 84 6692 3.49 307 12:20 29.11.2021
4510 Clouds 6 998 84 6692 3.49 307 11:31 29.11.2021
4511 Clouds 7 998 81 10000 4.96 300 10:27 29.11.2021
4512 Clouds 10 994 81 10000 3.09 90 07:48 29.11.2021
4513 Clouds 10 994 87 10000 3.6 280 05:52 29.11.2021
4514 Clouds 8 996 93 10000 1.54 0 01:30 29.11.2021
4515 Clouds 8 997 93 10000 2.06 270 23:59 28.11.2021
4516 Clouds 8 997 93 10000 2.06 270 23:40 28.11.2021
4517 Clouds 9 998 81 10000 1.03 0 22:29 28.11.2021
4518 Clouds 10 998 76 10000 2.57 110 21:40 28.11.2021
4519 Clouds 9 998 76 10000 3.09 80 20:44 28.11.2021
4520 Clouds 10 1000 71 10000 3.09 130 19:53 28.11.2021
4521 Clouds 11 1000 66 10000 5.14 80 18:40 28.11.2021
4522 Clouds 11 1000 66 10000 5.14 80 18:22 28.11.2021
4523 Clouds 11 1000 66 10000 3.6 100 17:45 28.11.2021
4524 Clouds 13 1001 50 10000 3.09 60 16:48 28.11.2021
4525 Clouds 15 1001 38 10000 5.14 220 16:28 28.11.2021
4526 Clouds 15 1002 36 10000 8.23 200 15:50 28.11.2021
4527 Clouds 15 1001 41 10000 6.17 200 14:55 28.11.2021
4528 Clouds 15 1002 41 10000 8.75 210 14:28 28.11.2021
4529 Clouds 15 1002 41 10000 8.75 210 14:28 28.11.2021
4530 Clouds 14 1003 54 10000 2.57 20 12:54 28.11.2021
4531 Clouds 13 1003 58 10000 3.09 10 11:39 28.11.2021
4532 Clouds 12 1004 66 10000 3.09 50 10:34 28.11.2021
4533 Clear 9 1003 76 10000 2.57 120 09:51 28.11.2021
4534 Clear 8 1004 81 10000 2.06 160 09:30 28.11.2021
4535 Clouds 7 1003 81 10000 2.57 70 00:52 28.11.2021
4536 Clouds 7 1004 76 10000 1.03 0 21:54 27.11.2021
4537 Clouds 9 1004 66 10000 5.66 80 19:50 27.11.2021
4538 Clear 10 1004 66 10000 5.66 80 18:26 27.11.2021
4539 Clouds 15 1004 41 10000 2.06 190 16:18 27.11.2021
4540 Clouds 16 1003 41 10000 3.6 290 14:51 27.11.2021
4541 Clouds 16 1003 39 10000 1.03 0 13:39 27.11.2021
4542 Clouds 15 1004 44 10000 3.6 270 11:37 27.11.2021
4543 Clouds 14 1005 47 10000 6.69 230 10:19 27.11.2021
4544 Clouds 13 1005 50 10000 2.06 0 08:54 27.11.2021
4545 Clouds 13 1003 50 10000 2.06 0 06:59 27.11.2021
4546 Clouds 12 1002 54 10000 2.06 0 04:53 27.11.2021
4547 Clouds 13 1001 47 10000 3.09 0 00:25 27.11.2021
4548 Clear 5 1002 81 10000 2.57 0 22:51 26.11.2021
4549 Clouds 5 1002 81 10000 2.06 0 22:24 26.11.2021
4550 Smoke 3 1002 87 10000 3.09 250 21:31 26.11.2021
4551 Clear 3 1002 81 10000 2.57 280 20:41 26.11.2021
4552 Clouds 4 1003 81 10000 3.09 110 19:56 26.11.2021
4553 Clouds 4 1003 81 10000 4.12 50 18:47 26.11.2021
4554 Clouds 4 1003 81 10000 2.06 0 17:45 26.11.2021
4555 Clouds 4 1002 81 10000 4.63 140 17:21 26.11.2021
4556 Clouds 5 1003 75 10000 9.77 90 15:22 26.11.2021
4557 Clouds 5 1006 79 10000 3.13 90 13:35 26.11.2021
4558 Clouds 5 1009 76 10000 2.68 90 10:45 26.11.2021
4559 Clouds 5 1011 74 10000 5.36 113 09:54 26.11.2021
4560 Clouds 5 1012 77 8000 3.58 90 08:53 26.11.2021
4561 Clouds 4 1013 80 8000 2.68 135 08:20 26.11.2021
4562 Clouds 3 1014 83 8000 0.45 113 06:41 26.11.2021
4563 Clouds 3 1014 85 10000 1.34 113 06:22 26.11.2021
4564 Clouds 3 1016 83 10000 2.57 130 03:44 26.11.2021
4565 Clouds 2 1018 85 8000 3.09 140 00:57 26.11.2021
4566 Clouds 0 1019 91 10000 3.09 120 22:38 25.11.2021
4567 Clouds 2 1020 84 10000 4.12 90 21:20 25.11.2021
4568 Clouds 3 1020 83 10000 5.66 100 19:54 25.11.2021
4569 Clouds 5 1020 79 10000 6.69 110 18:45 25.11.2021
4570 Clouds 5 1020 77 10000 5.14 100 17:29 25.11.2021
4571 Clouds 5 1020 78 10000 5.14 100 16:58 25.11.2021
4572 Clouds 6 1020 72 10000 4.63 110 16:29 25.11.2021
4573 Clouds 7 1020 69 10000 1.34 113 14:56 25.11.2021
4574 Clouds 7 1021 66 10000 0.45 113 13:25 25.11.2021
4575 Clouds 7 1022 67 10000 0.45 113 12:19 25.11.2021
4576 Clouds 7 1022 68 10000 3.58 113 11:40 25.11.2021
4577 Clouds 6 1023 69 10000 7.2 110 08:42 25.11.2021
4578 Clouds 4 1025 78 10000 0.89 90 03:42 25.11.2021
4579 Clouds 5 1024 77 10000 1.34 113 02:45 25.11.2021
4580 Clouds 6 1025 75 10000 1.34 180 22:44 24.11.2021
4581 Clouds 5 1025 75 10000 1.79 90 22:21 24.11.2021
4582 Clouds 5 1025 75 10000 5.66 100 21:27 24.11.2021
4583 Clouds 5 1026 75 10000 1.79 135 20:42 24.11.2021
4584 Clouds 6 1026 74 10000 1.79 135 20:18 24.11.2021
4585 Clouds 6 1026 73 10000 2.68 135 18:30 24.11.2021
4586 Clouds 6 1026 74 10000 3.58 90 16:53 24.11.2021
4587 Clouds 7 1026 73 10000 3.13 90 15:22 24.11.2021
4588 Clouds 7 1026 75 10000 2.24 113 14:42 24.11.2021
4589 Clouds 7 1026 75 10000 1.34 113 14:19 24.11.2021
4590 Clouds 8 1027 79 8000 3.13 90 11:50 24.11.2021
4591 Clouds 7 1027 80 8000 2.24 90 11:20 24.11.2021
4592 Clouds 8 1027 77 8000 1.03 0 10:39 24.11.2021
4593 Clouds 7 1027 79 8000 1.54 280 09:40 24.11.2021
4594 Clouds 6 1027 81 8000 1.03 0 07:42 24.11.2021
4595 Clouds 6 1026 82 8000 3.6 270 06:21 24.11.2021
4596 Clouds 5 1025 83 10000 3.6 270 03:48 24.11.2021
4597 Clouds 6 1026 83 7000 0.89 293 23:42 23.11.2021
4598 Clouds 6 1025 85 8000 2.24 293 22:39 23.11.2021
4599 Clouds 7 1025 85 8000 1.79 293 21:46 23.11.2021
4600 Clouds 7 1025 85 7000 3.58 293 20:47 23.11.2021
4601 Clouds 6 1024 89 6000 1.79 293 19:37 23.11.2021
4602 Mist 7 1024 87 5000 2.68 293 18:37 23.11.2021
4603 Drizzle 7 1023 85 7000 2.24 293 17:57 23.11.2021
4604 Clouds 7 1023 84 10000 3.13 293 16:54 23.11.2021
4605 Clouds 7 1023 83 10000 3.13 293 16:54 23.11.2021
4606 Clouds 7 1022 84 10000 3.58 293 15:41 23.11.2021
4607 Clouds 8 1022 82 10000 3.13 293 15:19 23.11.2021
4608 Clouds 9 1021 82 10000 5.36 293 13:33 23.11.2021
4609 Clouds 9 1021 86 10000 4.47 293 10:41 23.11.2021
4610 Clouds 9 1021 87 8000 3.13 293 09:48 23.11.2021
4611 Mist 8 1020 90 2000 2.06 250 08:43 23.11.2021
4612 Mist 8 1019 93 2600 0 0 05:57 23.11.2021
4613 Mist 8 1018 90 4000 1.03 0 03:39 23.11.2021
4614 Mist 8 1018 79 4500 2.06 190 23:43 22.11.2021
4615 Mist 8 1018 80 5000 1.03 0 23:20 22.11.2021
4616 Mist 8 1018 80 5000 2.06 90 22:32 22.11.2021
4617 Mist 8 1018 83 4000 1.54 90 21:45 22.11.2021
4618 Mist 9 1017 78 4000 1.34 23 21:21 22.11.2021
4619 Mist 8 1017 80 4500 0.45 23 20:43 22.11.2021
4620 Clouds 9 1017 76 4500 0.45 23 19:24 22.11.2021
4621 Clouds 9 1017 74 5000 1.03 0 18:41 22.11.2021
4622 Clouds 9 1017 74 5000 1.03 0 18:41 22.11.2021
4623 Clouds 9 1017 71 6000 1.54 350 18:22 22.11.2021
4624 Clear 9 1016 70 10000 0.51 0 16:50 22.11.2021
4625 Clear 11 1016 64 10000 2.06 80 15:39 22.11.2021
4626 Clear 12 1016 60 10000 0.51 0 12:52 22.11.2021
4627 Clouds 12 1016 59 10000 1.03 0 11:39 22.11.2021
4628 Clouds 9 1016 68 8000 1.03 0 10:27 22.11.2021
4629 Mist 8 1017 74 1800 0 0 08:44 22.11.2021
4630 Fog 7 1017 74 450 1.03 0 08:24 22.11.2021
4631 Fog 1 1017 87 250 2.06 120 01:43 22.11.2021
4632 Fog 3 1017 83 450 0 0 23:21 21.11.2021
4633 Fog 3 1017 85 500 0.51 0 22:45 21.11.2021
4634 Mist 3 1016 81 2600 0.51 0 21:22 21.11.2021
4635 Mist 5 1016 78 5000 1.54 150 20:36 21.11.2021
4636 Clear 5 1016 80 6000 2.06 130 19:35 21.11.2021
4637 Clear 7 1016 72 10000 2.06 200 17:57 21.11.2021
4638 Clear 8 1016 71 10000 1.03 0 17:36 21.11.2021
4639 Clear 10 1016 64 10000 0.89 0 14:56 21.11.2021
4640 Clear 10 1016 63 10000 1.54 150 14:38 21.11.2021
4641 Clear 10 1017 62 10000 2.24 113 12:59 21.11.2021
4642 Clear 11 1018 62 10000 0.45 158 12:25 21.11.2021
4643 Clear 10 1018 64 10000 2.57 290 11:37 21.11.2021
4644 Clouds 8 1020 72 8000 2.06 300 10:19 21.11.2021
4645 Clouds 6 1021 80 7000 0 0 09:45 21.11.2021
4646 Mist 4 1021 82 3000 1.03 0 08:32 21.11.2021
4647 Mist 4 1021 85 3000 1.54 90 07:53 21.11.2021
4648 Clouds 2 1021 83 6000 1.03 0 06:28 21.11.2021
4649 Clouds 2 1021 86 6000 1.03 120 05:41 21.11.2021
4650 Clear 2 1021 85 7000 2.06 130 03:22 21.11.2021
4651 Clear 2 1021 86 6000 3.09 110 02:55 21.11.2021
4652 Clouds 5 1023 78 6000 2.06 80 01:28 21.11.2021
4653 Clouds 6 1023 80 6000 1.03 0 00:43 21.11.2021
4654 Clear 4 1020 87 10000 2.57 30 22:35 20.11.2021
4655 Clear 7 1022 75 10000 3.13 270 21:32 20.11.2021
4656 Clear 7 1022 77 10000 5.36 0 19:58 20.11.2021
4657 Clear 8 1022 74 10000 3.58 293 18:45 20.11.2021
4658 Clear 8 1022 72 10000 3.13 293 18:23 20.11.2021
4659 Clear 9 1022 68 10000 2.68 293 17:22 20.11.2021
4660 Clouds 11 1022 63 10000 2.24 293 14:57 20.11.2021
4661 Clouds 11 1022 64 10000 0.45 270 14:28 20.11.2021
4662 Clouds 11 1022 65 10000 2.68 293 13:53 20.11.2021
4663 Clouds 11 1020 66 10000 6.26 0 11:46 20.11.2021
4664 Clouds 11 1023 64 10000 6.71 293 09:58 20.11.2021
4665 Clouds 9 1024 69 10000 5.36 293 08:40 20.11.2021
4666 Clouds 7 1021 76 10000 6.69 290 06:50 20.11.2021
4667 Clouds 7 1024 80 10000 3.58 293 05:18 20.11.2021
4668 Clouds 7 1024 80 10000 3.13 293 04:49 20.11.2021
4669 Clouds 7 1024 73 10000 0.89 293 00:43 20.11.2021
4670 Clouds 7 1025 70 10000 5.81 293 23:57 19.11.2021
4671 Clouds 6 1025 71 10000 0.89 293 22:53 19.11.2021
4672 Clouds 6 1025 70 10000 3.13 293 21:28 19.11.2021
4673 Clouds 6 1025 68 10000 4.47 293 20:42 19.11.2021
4674 Clouds 6 1025 68 10000 4.92 0 20:23 19.11.2021
4675 Clouds 6 1026 67 10000 4.47 293 19:44 19.11.2021
4676 Clear 6 1026 67 10000 2.68 293 18:46 19.11.2021
4677 Clear 6 1026 64 10000 6.71 293 17:45 19.11.2021
4678 Clear 6 1026 61 10000 2.68 293 16:43 19.11.2021
4679 Clouds 7 1025 60 10000 3.13 0 15:21 19.11.2021
4680 Clouds 9 1027 55 10000 4.47 293 11:44 19.11.2021
4681 Clouds 8 1028 61 10000 0.45 293 10:25 19.11.2021
4682 Clouds 6 1028 67 10000 2.68 0 08:37 19.11.2021
4683 Clouds 5 1027 72 10000 2.68 293 06:29 19.11.2021
4684 Clouds 6 1028 75 10000 1.79 293 04:19 19.11.2021
4685 Clouds 6 1028 74 10000 4.92 293 23:54 18.11.2021
4686 Clouds 6 1028 74 10000 3.13 293 23:18 18.11.2021
4687 Clouds 6 1028 77 10000 2.24 293 21:18 18.11.2021
4688 Clouds 6 1028 80 10000 3.58 0 20:44 18.11.2021
4689 Clouds 7 1024 77 10000 2.68 329 20:23 18.11.2021
4690 Clouds 7 1027 75 10000 5.66 280 19:36 18.11.2021
4691 Clouds 7 1027 75 8000 5.14 290 18:38 18.11.2021
4692 Clouds 7 1026 75 7000 7.2 290 17:52 18.11.2021
4693 Clouds 8 1026 68 8000 4.63 290 17:22 18.11.2021
4694 Clouds 8 1026 66 10000 4.63 290 16:42 18.11.2021
4695 Clouds 8 1026 61 10000 7.2 290 15:23 18.11.2021
4696 Clouds 9 1025 64 10000 5.66 290 12:56 18.11.2021
4697 Clouds 8 1026 74 10000 3.09 290 11:44 18.11.2021
4698 Clouds 7 1026 77 6000 1.03 0 11:26 18.11.2021
4699 Clouds 7 1026 77 6000 1.03 0 11:26 18.11.2021
4700 Clouds 5 1025 81 6000 1.03 0 10:35 18.11.2021
4701 Clouds 6 1027 77 6000 0.51 0 08:44 18.11.2021
4702 Mist 3 1025 86 5000 1.54 90 06:49 18.11.2021
4703 Clouds 2 1025 90 7000 1.03 0 05:46 18.11.2021
4704 Clouds 4 1025 85 6000 1.03 0 01:27 18.11.2021
4705 Clouds 4 1025 85 6000 1.03 0 01:27 18.11.2021
4706 Clouds 4 1025 85 10000 0 0 23:46 17.11.2021
4707 Clear 5 1025 81 10000 2.06 130 22:40 17.11.2021
4708 Clear 5 1025 81 10000 2.06 130 22:19 17.11.2021
4709 Clear 5 1025 78 10000 3.09 90 21:36 17.11.2021
4710 Clouds 5 1024 80 10000 3.6 90 20:18 17.11.2021
4711 Clear 6 1023 74 10000 5.14 90 17:36 17.11.2021
4712 Clouds 7 1023 71 10000 5.14 90 16:28 17.11.2021
4713 Clouds 8 1023 66 10000 6.17 90 13:41 17.11.2021
4714 Clouds 8 1023 68 10000 6.17 100 12:38 17.11.2021
4715 Clouds 8 1024 70 10000 6.17 100 10:54 17.11.2021
4716 Clouds 7 1025 72 10000 5.66 110 09:44 17.11.2021
4717 Clouds 7 1025 73 10000 3.6 120 08:30 17.11.2021
4718 Clouds 7 1024 74 10000 4.12 120 07:41 17.11.2021
4719 Clouds 6 1023 81 10000 4.12 100 02:49 17.11.2021
4720 Clouds 6 1024 81 10000 4.63 110 00:35 17.11.2021
4721 Clouds 7 1025 76 10000 5.66 110 22:32 16.11.2021
4722 Clouds 7 1026 74 10000 4.12 100 20:19 16.11.2021
4723 Clouds 7 1026 74 10000 4.12 110 19:41 16.11.2021
4724 Clouds 7 1026 73 10000 4.12 100 18:52 16.11.2021
4725 Clouds 7 1027 73 10000 4.12 100 18:29 16.11.2021
4726 Clouds 8 1027 71 10000 4.63 100 17:26 16.11.2021
4727 Clouds 8 1027 75 10000 3.6 110 16:20 16.11.2021
4728 Clouds 8 1027 75 10000 4.12 100 15:44 16.11.2021
4729 Clouds 8 1027 80 10000 4.63 100 13:47 16.11.2021
4730 Clouds 8 1029 72 10000 3.6 110 10:27 16.11.2021
4731 Clouds 7 1029 73 10000 4.63 120 09:42 16.11.2021
4732 Clouds 6 1029 73 10000 4.63 120 07:53 16.11.2021
4733 Clouds 6 1029 76 10000 3.6 140 07:29 16.11.2021
4734 Clouds 7 1029 74 10000 1.03 0 23:54 15.11.2021
4735 Clouds 7 1029 71 10000 2.57 140 22:41 15.11.2021
4736 Clouds 7 1029 70 10000 2.06 0 22:20 15.11.2021
4737 Clouds 7 1029 73 10000 2.06 120 21:32 15.11.2021
4738 Clouds 7 1028 73 10000 2.06 140 20:59 15.11.2021
4739 Clouds 8 1028 70 10000 2.57 130 19:26 15.11.2021
4740 Clouds 8 1025 71 10000 4.12 110 17:35 15.11.2021
4741 Clouds 10 1026 60 10000 5.66 130 15:55 15.11.2021
4742 Clouds 10 1026 59 10000 5.66 130 15:36 15.11.2021
4743 Clouds 10 1025 62 10000 6.17 130 14:32 15.11.2021
4744 Clouds 11 1025 56 10000 7.72 120 12:39 15.11.2021
4745 Clouds 10 1025 69 9000 5.66 100 10:33 15.11.2021
4746 Mist 5 1024 93 3500 2.06 110 09:23 15.11.2021
4747 Mist 3 1026 88 2000 1.03 70 07:23 15.11.2021
4748 Mist 3 1025 83 5000 1.54 250 02:34 15.11.2021
4749 Clouds 5 1024 77 7000 1.54 90 22:45 14.11.2021
4750 Clouds 5 1024 79 6000 3.6 110 22:19 14.11.2021
4751 Clouds 6 1023 71 8000 3.09 100 19:24 14.11.2021
4752 Clouds 5 1023 77 8000 2.57 90 18:55 14.11.2021
4753 Clouds 5 1023 79 8000 1.03 70 18:36 14.11.2021
4754 Clouds 6 1023 73 8000 1.03 70 18:18 14.11.2021
4755 Clouds 6 1022 75 8000 1.03 150 17:58 14.11.2021
4756 Clear 6 1022 72 10000 2.06 50 17:40 14.11.2021
4757 Clear 7 1022 66 10000 2.06 50 17:22 14.11.2021
4758 Clear 8 1018 66 10000 0.51 330 16:58 14.11.2021
4759 Clear 7 1018 67 10000 1.03 230 16:40 14.11.2021
4760 Clear 7 1018 66 10000 1.03 230 16:18 14.11.2021
4761 Clear 10 1020 53 10000 0.51 0 15:19 14.11.2021
4762 Clear 10 1020 57 10000 1.03 0 14:45 14.11.2021
4763 Clear 11 1020 53 10000 0.51 0 14:20 14.11.2021
4764 Clear 9 1019 63 10000 0.45 23 13:51 14.11.2021
4765 Clear 10 1019 61 10000 0.89 68 13:27 14.11.2021
4766 Clouds 11 1020 58 8000 1.34 0 12:22 14.11.2021
4767 Clouds 10 1020 63 6000 1.79 0 10:58 14.11.2021
4768 Mist 8 1020 66 5000 1.03 0 10:36 14.11.2021
4769 Mist 6 1017 70 3500 2.06 270 09:26 14.11.2021
4770 Mist 5 1017 74 2500 2.57 260 08:51 14.11.2021
4771 Mist 4 1020 73 5000 0 0 04:46 14.11.2021
4772 Clear 5 1023 75 10000 3.09 110 22:50 13.11.2021
4773 Clear 6 1023 71 10000 2.06 130 21:59 13.11.2021
4774 Clear 5 1023 78 10000 2.06 130 21:32 13.11.2021
4775 Clear 5 1022 75 10000 3.09 120 20:43 13.11.2021
4776 Clear 7 1021 62 10000 2.57 120 18:54 13.11.2021
4777 Clear 7 1020 64 10000 3.6 120 18:32 13.11.2021
4778 Clear 8 1019 61 10000 3.09 80 17:34 13.11.2021
4779 Clear 12 1019 45 10000 0 0 15:45 13.11.2021
4780 Clear 14 1019 40 10000 0 0 14:41 13.11.2021
4781 Clear 14 1020 41 10000 1.54 220 13:46 13.11.2021
4782 Clear 12 1021 45 10000 1.03 0 12:43 13.11.2021
4783 Clear 11 1022 45 10000 1.03 0 11:46 13.11.2021
4784 Clear 11 1022 46 10000 1.03 0 11:18 13.11.2021
4785 Clear 11 1022 47 10000 0 0 10:32 13.11.2021
4786 Clear 10 1023 52 10000 0.51 0 09:43 13.11.2021
4787 Clear 9 1023 54 10000 0 0 09:22 13.11.2021
4788 Clear 8 1021 67 10000 1.03 0 08:41 13.11.2021
4789 Clouds 4 1019 72 7000 1.03 0 07:26 13.11.2021
4790 Clouds 3 1021 71 8000 0 0 04:40 13.11.2021
4791 Clouds 4 1020 70 7000 1.03 0 02:41 13.11.2021
4792 Clouds 4 1024 75 7000 1.03 0 23:33 12.11.2021
4793 Clear 4 1024 72 10000 1.03 0 21:52 12.11.2021
4794 Clear 6 1024 69 10000 1.54 150 20:35 12.11.2021
4795 Clear 7 1024 67 10000 3.09 120 19:31 12.11.2021
4796 Clear 6 1023 65 10000 2.06 140 18:54 12.11.2021
4797 Clear 8 1022 63 10000 1.54 70 17:36 12.11.2021
4798 Clear 11 1020 49 10000 0.89 0 15:51 12.11.2021
4799 Clear 13 1021 44 10000 1.03 0 13:26 12.11.2021
4800 Clear 10 1023 52 10000 1.03 0 11:23 12.11.2021
4801 Clear 5 1023 70 10000 1.03 0 09:54 12.11.2021
4802 Clear 10 1021 63 10000 0.51 0 08:45 12.11.2021
4803 Clouds 2 1028 76 8000 0.51 320 06:34 12.11.2021
4804 Clear 4 1029 69 10000 3.09 110 23:55 11.11.2021
4805 Clear 4 1028 70 10000 3.09 140 22:46 11.11.2021
4806 Clear 4 1026 68 10000 4.12 90 21:43 11.11.2021
4807 Clear 4 1026 68 10000 5.66 100 20:51 11.11.2021
4808 Clear 5 1026 61 10000 6.17 90 19:36 11.11.2021
4809 Clear 5 1026 64 10000 3.6 120 18:25 11.11.2021
4810 Clear 6 1026 68 10000 2.57 90 17:37 11.11.2021
4811 Clear 9 1026 55 10000 1.03 200 15:20 11.11.2021
4812 Clear 10 1027 53 10000 1.03 0 14:36 11.11.2021
4813 Clear 10 1027 51 10000 1.03 0 14:18 11.11.2021
4814 Clear 10 1027 53 10000 1.54 250 13:34 11.11.2021
4815 Clear 7 1029 57 10000 1.54 270 11:57 11.11.2021
4816 Clear 8 1030 59 10000 2.06 90 09:54 11.11.2021
4817 Clear 5 1031 68 10000 3.09 120 08:28 11.11.2021
4818 Clear 2 1032 78 10000 1.54 130 06:44 11.11.2021
4819 Clear 3 1033 70 10000 6.17 90 00:37 11.11.2021
4820 Clear 4 1033 66 10000 6.17 90 22:38 10.11.2021
4821 Clear 4 1033 63 10000 2.68 90 21:46 10.11.2021
4822 Clear 5 1033 61 10000 2.68 90 20:53 10.11.2021
4823 Clear 6 1033 61 10000 3.58 23 19:48 10.11.2021
4824 Clear 6 1033 64 10000 3.13 23 19:30 10.11.2021
4825 Clear 8 1033 62 10000 3.13 135 16:40 10.11.2021
4826 Clear 9 1033 60 10000 2.68 113 15:46 10.11.2021
4827 Clear 10 1033 54 10000 1.79 90 14:22 10.11.2021
4828 Clear 11 1033 52 10000 7.6 90 13:26 10.11.2021
4829 Clouds 11 1035 53 10000 4.92 90 11:38 10.11.2021
4830 Clear 8 1035 69 10000 2.68 113 08:59 10.11.2021
4831 Clear 8 1034 71 10000 4.02 90 08:39 10.11.2021
4832 Clouds 5 1035 80 10000 4.02 135 06:41 10.11.2021
4833 Clear 4 1035 82 10000 4.47 113 05:52 10.11.2021
4834 Mist 4 1035 90 4000 1.54 150 01:31 10.11.2021
4835 Clouds 7 1034 84 10000 0.89 23 21:58 09.11.2021
4836 Clouds 7 1034 82 10000 2.06 280 20:32 09.11.2021
4837 Clouds 8 1033 84 10000 2.57 280 19:26 09.11.2021
4838 Clouds 8 1033 84 10000 2.24 0 18:44 09.11.2021
4839 Clouds 8 1031 83 10000 4.02 293 16:27 09.11.2021
4840 Clouds 8 1029 85 8000 2.68 293 14:58 09.11.2021
4841 Clouds 9 1029 84 8000 6.69 280 13:21 09.11.2021
4842 Clouds 10 1028 80 6000 5.14 280 12:22 09.11.2021
4843 Clouds 11 1027 69 10000 3.6 290 10:46 09.11.2021
4844 Clouds 11 1027 75 8000 4.12 300 09:42 09.11.2021
4845 Clouds 10 1024 79 8000 0.89 293 08:37 09.11.2021
4846 Clouds 8 1022 88 10000 1.03 0 05:58 09.11.2021
4847 Clear 9 1020 85 10000 2.06 40 02:28 09.11.2021
4848 Clear 10 1020 82 10000 0.89 0 01:48 09.11.2021
4849 Clear 10 1020 82 10000 3.6 270 00:19 09.11.2021
4850 Clear 11 1020 78 10000 4.12 300 23:20 08.11.2021
4851 Clear 12 1019 76 10000 1.54 300 22:32 08.11.2021
4852 Clear 13 1019 75 10000 2.24 0 21:20 08.11.2021
4853 Clear 13 1018 73 10000 2.24 23 19:56 08.11.2021
4854 Clear 14 1018 69 10000 2.24 293 18:57 08.11.2021
4855 Clear 16 1016 62 10000 2.68 0 17:22 08.11.2021
4856 Clear 20 1015 50 10000 2.68 315 15:31 08.11.2021
4857 Clear 20 1015 51 10000 1.79 293 14:53 08.11.2021
4858 Clouds 20 1015 51 8000 0.89 293 13:56 08.11.2021
4859 Clouds 18 1015 58 8000 0.51 0 12:44 08.11.2021
4860 Clouds 16 1016 70 8000 0.51 0 11:27 08.11.2021
4861 Mist 19 1016 57 1400 1.54 30 10:00 08.11.2021
4862 Fog 14 1016 77 200 0 0 08:56 08.11.2021
4863 Fog 8 1018 97 300 1.54 80 07:38 08.11.2021
4864 Fog 8 1018 95 250 1.54 340 06:20 08.11.2021
4865 Fog 7 1018 93 350 1.03 70 03:33 08.11.2021
4866 Mist 9 1019 100 5000 1.03 0 23:51 07.11.2021
4867 Clouds 10 1019 90 7000 0 0 22:30 07.11.2021
4868 Clouds 12 1019 89 8000 1.03 0 21:22 07.11.2021
4869 Clear 13 1019 83 10000 1.34 293 19:55 07.11.2021
4870 Clear 12 1019 87 10000 0.45 113 18:26 07.11.2021
4871 Clear 14 1019 80 10000 3.09 120 17:38 07.11.2021
4872 Clear 18 1020 66 10000 2.57 90 15:55 07.11.2021
4873 Clear 20 919 71 10000 1.34 90 14:40 07.11.2021
4874 Clear 19 1021 65 10000 1.79 90 13:55 07.11.2021
4875 Clear 18 1023 68 10000 4.12 110 11:53 07.11.2021
4876 Clouds 16 1024 76 10000 2.68 90 10:19 07.11.2021
4877 Clouds 14 1025 80 8000 1.03 0 08:48 07.11.2021
4878 Clouds 10 1027 91 7000 0.51 0 02:46 07.11.2021
4879 Mist 9 1028 91 5000 0.51 0 23:42 06.11.2021
4880 Clouds 9 1028 90 7000 0 0 22:52 06.11.2021
4881 Mist 10 1027 89 10000 1.54 80 21:36 06.11.2021
4882 Clear 11 1027 88 10000 1.54 360 20:52 06.11.2021
4883 Clear 13 1026 81 10000 1.54 270 18:56 06.11.2021
4884 Clear 13 1026 77 10000 1.54 290 17:18 06.11.2021
4885 Clear 17 1024 65 10000 1.54 280 15:31 06.11.2021
4886 Clear 18 1025 65 10000 2.24 0 13:39 06.11.2021
4887 Clear 17 1025 65 10000 1.54 290 12:29 06.11.2021
4888 Clouds 16 1026 74 7000 0 0 09:39 06.11.2021
4889 Clouds 12 1025 83 6000 2.06 270 07:57 06.11.2021
4890 Clear 11 1023 85 10000 0.51 0 02:40 06.11.2021
4891 Clear 12 1022 78 10000 0.45 180 23:38 05.11.2021
4892 Clear 13 1021 73 10000 1.03 0 22:39 05.11.2021
4893 Clear 14 1021 72 10000 1.54 140 21:54 05.11.2021
4894 Clear 15 1020 67 10000 1.54 340 20:20 05.11.2021
4895 Clear 17 1020 62 10000 1.54 340 19:48 05.11.2021
4896 Clear 18 1019 56 10000 2.06 90 18:41 05.11.2021
4897 Clear 17 1018 59 10000 5.14 110 17:30 05.11.2021
4898 Clear 23 1017 40 10000 4.12 180 15:43 05.11.2021
4899 Clear 24 1016 39 10000 2.57 210 13:38 05.11.2021
4900 Clear 21 1017 53 10000 1.54 270 11:27 05.11.2021
4901 Mist 17 1019 71 5000 0 0 08:40 05.11.2021
4902 Mist 12 1019 92 2400 2.57 280 07:39 05.11.2021
4903 Mist 10 1020 95 2300 1.54 300 05:33 05.11.2021
4904 Clouds 10 1020 94 8000 1.54 270 02:26 05.11.2021
4905 Clouds 11 1020 88 8000 1.54 130 00:52 05.11.2021
4906 Clear 11 1019 88 10000 1.03 0 23:23 04.11.2021
4907 Clear 12 1019 82 10000 3.09 150 22:19 04.11.2021
4908 Clear 13 1019 81 10000 4.12 140 21:35 04.11.2021
4909 Clear 13 1019 79 10000 3.09 110 20:41 04.11.2021
4910 Clear 13 1019 77 10000 1.79 293 20:21 04.11.2021
4911 Clear 14 1018 74 10000 3.09 110 19:44 04.11.2021
4912 Clear 14 1018 72 10000 1.54 120 18:44 04.11.2021
4913 Clear 15 1018 68 10000 0.45 113 17:54 04.11.2021
4914 Clear 17 1017 65 10000 6.17 100 16:47 04.11.2021
4915 Clear 20 1017 56 10000 6.17 90 14:38 04.11.2021
4916 Clear 20 1017 54 10000 1.79 90 12:32 04.11.2021
4917 Clear 12 1019 82 8000 0 0 09:31 04.11.2021
4918 Mist 11 1020 88 4000 2.06 140 08:30 04.11.2021
4919 Fog 9 1019 97 350 1.54 230 07:34 04.11.2021
4920 Clear 9 1017 93 10000 5.66 100 23:59 03.11.2021
4921 Clouds 8 1018 95 8000 2.06 180 22:50 03.11.2021
4922 Clouds 9 1017 93 8000 0.89 315 21:48 03.11.2021
4923 Clouds 8 1017 94 8000 3.09 10 21:28 03.11.2021
4924 Fog 7 1017 94 450 1.54 290 20:35 03.11.2021
4925 Mist 8 1017 96 1400 0.51 0 19:47 03.11.2021
4926 Clouds 8 1017 95 6000 1.54 350 18:55 03.11.2021
4927 Clouds 9 1016 93 6000 1.03 0 18:19 03.11.2021
4928 Clouds 9 1016 91 6000 1.79 0 17:34 03.11.2021
4929 Mist 11 1016 85 5000 1.54 120 16:18 03.11.2021
4930 Mist 11 1015 83 4300 2.06 60 15:42 03.11.2021
4931 Mist 12 1014 82 2900 0.89 23 13:49 03.11.2021
4932 Fog 11 1015 87 500 0.51 0 11:39 03.11.2021
4933 Fog 6 1017 100 400 1.54 0 10:53 03.11.2021
4934 Fog 5 1017 100 350 0.51 0 10:28 03.11.2021
4935 Fog 5 1017 100 350 1.54 0 09:29 03.11.2021
4936 Fog 4 1017 100 450 1.03 0 08:22 03.11.2021
4937 Fog 4 1016 100 300 0.51 0 07:38 03.11.2021
4938 Fog 5 1017 100 250 0 0 04:24 03.11.2021
4939 Fog 3 1013 100 550 0 0 01:45 03.11.2021
4940 Fog 5 1014 97 400 1.54 160 23:33 02.11.2021
4941 Fog 6 1013 97 800 2.06 70 22:29 02.11.2021
4942 Mist 7 1012 97 5000 0.51 0 20:54 02.11.2021
4943 Mist 7 1010 93 4000 1.54 190 20:23 02.11.2021
4944 Mist 7 1010 94 4000 1.54 190 19:46 02.11.2021
4945 Clouds 7 1009 93 8000 1.03 0 18:43 02.11.2021
4946 Clear 8 1009 90 10000 3.6 90 17:57 02.11.2021
4947 Clear 8 1008 92 10000 4.12 110 17:31 02.11.2021
4948 Clouds 9 1008 88 10000 4.63 90 16:27 02.11.2021
4949 Clouds 11 1007 81 10000 6.17 100 14:58 02.11.2021
4950 Clouds 11 1007 84 10000 7.2 90 13:44 02.11.2021
4951 Clouds 11 1007 87 10000 5.14 80 13:26 02.11.2021
4952 Clouds 10 1007 90 10000 0.45 0 12:28 02.11.2021
4953 Rain 8 1008 93 5000 3.13 338 11:28 02.11.2021
4954 Rain 8 1009 94 5000 1.34 113 10:50 02.11.2021
4955 Rain 8 1009 91 6000 2.06 120 10:23 02.11.2021
4956 Mist 8 1008 83 5000 3.6 100 08:25 02.11.2021
4957 Mist 5 1009 91 4500 2.06 320 06:32 02.11.2021
4958 Mist 4 1011 89 5000 0.51 0 03:30 02.11.2021
4959 Clear 4 1014 87 6000 1.54 140 00:25 02.11.2021
4960 Clear 6 1015 83 8000 2.57 130 22:19 01.11.2021
4961 Clear 6 1015 79 10000 3.6 120 20:46 01.11.2021
4962 Clear 6 1013 81 10000 3.09 110 20:26 01.11.2021
4963 Clear 7 1013 76 10000 2.06 120 19:42 01.11.2021
4964 Clear 7 1013 75 10000 3.09 110 18:50 01.11.2021
4965 Clear 9 1012 71 10000 2.06 230 17:49 01.11.2021
4966 Clear 10 1012 64 10000 1.54 160 16:57 01.11.2021
4967 Clear 11 1012 58 10000 1.03 140 16:25 01.11.2021
4968 Clear 14 1012 55 10000 2.24 135 15:37 01.11.2021
4969 Clear 13 1012 56 10000 1.79 113 15:18 01.11.2021
4970 Clear 14 1012 54 10000 0.45 90 14:37 01.11.2021
4971 Clear 14 1013 55 10000 1.34 90 14:18 01.11.2021
4972 Clear 12 1015 58 10000 1.54 0 12:38 01.11.2021
4973 Clear 12 1016 60 10000 2.06 100 11:39 01.11.2021
4974 Clear 9 1016 76 8000 2.06 90 10:20 01.11.2021
4975 Mist 6 1018 84 3500 1.03 0 08:19 01.11.2021
4976 Mist 6 1017 82 3000 1.54 230 07:46 01.11.2021
4977 Mist 2 1019 91 4500 2.06 350 03:53 01.11.2021
4978 Mist 3 1020 86 4600 1.03 0 01:44 01.11.2021
4979 Clear 5 1021 85 8000 1.54 140 23:18 31.10.2021
4980 Clear 6 1019 78 10000 3.09 130 20:51 31.10.2021
4981 Clear 7 1019 77 10000 3.09 130 19:22 31.10.2021
4982 Clear 7 1019 74 10000 3.58 135 18:41 31.10.2021
4983 Clear 8 1019 71 10000 2.06 90 17:54 31.10.2021
4984 Clear 10 1019 62 10000 1.79 113 16:25 31.10.2021
4985 Clouds 12 1019 54 10000 2.24 135 14:39 31.10.2021
4986 Clouds 12 1020 54 10000 4.63 120 12:54 31.10.2021
4987 Clouds 12 1021 57 10000 2.68 113 11:42 31.10.2021
4988 Clouds 12 1022 66 10000 2.24 113 10:47 31.10.2021
4989 Clouds 9 1023 72 8000 1.54 340 09:22 31.10.2021
4990 Clouds 7 1024 77 8000 1.03 0 08:37 31.10.2021
4991 Clear 5 1024 82 10000 2.06 130 01:57 31.10.2021
4992 Clouds 7 1024 75 10000 3.6 110 22:47 30.10.2021
4993 Clouds 9 1023 71 10000 4.63 110 21:35 30.10.2021
4994 Clouds 8 1023 72 10000 2.68 113 20:50 30.10.2021
4995 Clouds 10 1021 65 10000 2.68 180 18:48 30.10.2021
4996 Clear 11 1022 58 10000 5.81 113 17:27 30.10.2021
4997 Clear 14 1022 45 10000 4.02 90 15:21 30.10.2021
4998 Clear 14 1022 47 10000 5.81 113 13:40 30.10.2021
4999 Clear 14 1022 47 10000 5.81 113 13:21 30.10.2021
5000 Clear 14 1023 49 10000 7.72 110 12:51 30.10.2021
5001 Clear 13 1024 52 10000 6.17 100 11:44 30.10.2021
5002 Clear 10 1025 66 10000 7.2 90 10:32 30.10.2021
5003 Clouds 8 1026 76 10000 4.63 90 08:53 30.10.2021
5004 Mist 6 1025 86 5000 4.12 100 07:25 30.10.2021
5005 Clear 5 1024 87 8000 2.57 110 05:39 30.10.2021
5006 Clear 7 1025 67 10000 4.02 90 00:47 30.10.2021
5007 Clear 8 1025 61 10000 2.24 90 22:43 29.10.2021
5008 Clear 8 1025 59 10000 5.14 110 22:20 29.10.2021
5009 Clear 9 1024 52 10000 1.79 113 20:46 29.10.2021
5010 Clear 9 1023 54 10000 5.66 100 20:18 29.10.2021
5011 Clear 11 1023 35 10000 2.24 113 18:33 29.10.2021
5012 Clear 14 1023 29 10000 6.17 120 16:54 29.10.2021
5013 Clear 16 1022 29 10000 7.2 120 14:38 29.10.2021
5014 Clear 14 1025 48 10000 2.57 0 11:56 29.10.2021
5015 Clear 13 1024 57 10000 3.09 130 10:44 29.10.2021
5016 Clear 8 1023 68 8000 2.57 110 08:38 29.10.2021
5017 Clear 6 1026 72 10000 3.09 100 00:37 29.10.2021
5018 Clear 8 1026 66 10000 1.54 130 23:19 28.10.2021
5019 Clear 8 1026 65 10000 1.34 90 21:56 28.10.2021
5020 Clear 9 1026 60 10000 3.58 113 20:32 28.10.2021
5021 Clear 9 1025 58 10000 2.57 120 19:50 28.10.2021
5022 Clear 11 1025 47 10000 3.6 100 18:23 28.10.2021
5023 Clear 14 1023 41 10000 1.79 135 16:58 28.10.2021
5024 Clear 15 1024 34 10000 5.14 120 15:24 28.10.2021
5025 Clear 15 1025 42 10000 2.68 90 13:46 28.10.2021
5026 Clear 14 1027 47 10000 3.09 120 13:22 28.10.2021
5027 Clear 13 1027 55 10000 2.57 80 12:41 28.10.2021
5028 Clear 10 1028 63 7000 0.51 0 10:57 28.10.2021
5029 Fog 8 1024 68 400 1.03 0 09:38 28.10.2021
5030 Fog 6 1025 72 400 0 0 08:58 28.10.2021
5031 Fog 5 1025 77 300 0 0 08:34 28.10.2021
5032 Clear 3 1031 84 6000 0 0 04:48 28.10.2021
5033 Clear 4 1029 86 10000 1.03 160 23:50 27.10.2021
5034 Clear 4 1027 84 10000 1.54 160 22:31 27.10.2021
5035 Clear 5 1027 79 10000 1.03 0 21:33 27.10.2021
5036 Clear 6 1027 80 10000 0 0 20:53 27.10.2021
5037 Clear 6 1027 76 10000 0.89 180 19:57 27.10.2021
5038 Clear 7 1027 76 10000 2.06 140 19:38 27.10.2021
5039 Clear 8 1026 67 10000 2.06 350 18:39 27.10.2021
5040 Clear 13 1024 50 10000 1.79 90 16:27 27.10.2021
5041 Clear 13 1024 50 10000 1.54 150 15:30 27.10.2021
5042 Clear 13 1025 51 10000 1.54 70 14:39 27.10.2021
5043 Clear 10 1027 58 10000 1.54 180 11:28 27.10.2021
5044 Clear 9 1027 65 10000 1.54 180 10:58 27.10.2021
5045 Clouds 7 1028 69 8000 1.54 230 09:45 27.10.2021
5046 Mist 2 1028 84 4000 1.03 0 07:53 27.10.2021
5047 Mist 2 1027 81 5000 1.54 350 06:53 27.10.2021
5048 Clear 2 1025 87 10000 2.06 160 01:45 27.10.2021
5049 Clear 3 1025 85 10000 3.6 110 00:56 27.10.2021
5050 Clear 3 1025 85 10000 2.57 110 00:24 27.10.2021
5051 Clear 3 1025 84 10000 0.45 113 23:40 26.10.2021
5052 Clear 4 1025 80 10000 3.6 120 22:36 26.10.2021
5053 Clear 5 1025 77 10000 3.09 130 21:57 26.10.2021
5054 Clear 7 1025 68 10000 4.12 90 20:27 26.10.2021
5055 Clear 7 1024 65 10000 0.45 113 19:26 26.10.2021
5056 Clear 7 1024 58 10000 5.81 113 18:40 26.10.2021
5057 Clear 7 1024 58 10000 5.81 113 18:40 26.10.2021
5058 Clear 11 1023 46 10000 2.24 113 16:22 26.10.2021
5059 Clear 11 1024 50 10000 0.45 135 14:18 26.10.2021
5060 Clouds 9 1028 61 10000 5.66 100 11:33 26.10.2021
5061 Clouds 6 1027 72 10000 4.63 100 09:29 26.10.2021
5062 Clear 1 1028 85 10000 2.57 150 07:24 26.10.2021
5063 Clear 2 1028 82 10000 3.09 90 03:37 26.10.2021
5064 Clear 4 1029 70 10000 3.6 100 23:49 25.10.2021
5065 Clear 5 1029 68 10000 5.14 110 22:39 25.10.2021
5066 Clear 5 1029 67 10000 1.34 90 21:55 25.10.2021
5067 Clear 6 1029 65 10000 2.68 113 21:25 25.10.2021
5068 Clear 3 1028 75 10000 3.09 120 19:45 25.10.2021
5069 Clear 6 1027 61 10000 4.12 120 19:24 25.10.2021
5070 Clear 6 1027 59 10000 3.6 120 18:50 25.10.2021
5071 Clear 9 1028 51 10000 0.89 113 17:42 25.10.2021
5072 Clear 11 1029 42 10000 0.89 180 15:31 25.10.2021
5073 Clear 12 1029 44 10000 7.72 100 13:54 25.10.2021
5074 Clouds 11 1032 48 10000 7.2 120 11:58 25.10.2021
5075 Clouds 9 1030 70 10000 3.58 113 09:58 25.10.2021
5076 Clouds 5 1031 83 10000 3.09 120 07:40 25.10.2021
5077 Clear 4 1031 85 10000 2.68 113 05:55 25.10.2021
5078 Clear 5 1031 79 10000 2.24 68 00:52 25.10.2021
5079 Clear 5 1031 79 10000 2.06 160 00:34 25.10.2021
5080 Clear 5 1031 79 10000 2.06 160 00:34 25.10.2021
5081 Clouds 5 1031 78 10000 3.58 90 23:44 24.10.2021
5082 Clouds 5 1031 76 10000 0.45 113 22:39 24.10.2021
5083 Clouds 5 1031 78 10000 2.06 120 22:20 24.10.2021
5084 Clear 4 1031 80 10000 1.54 110 21:33 24.10.2021
5085 Clear 5 1031 77 10000 2.06 180 20:42 24.10.2021
5086 Clear 6 1031 67 10000 2.06 210 19:49 24.10.2021
5087 Clear 8 1030 59 10000 2.57 60 18:30 24.10.2021
5088 Clear 10 1030 51 10000 3.09 40 17:46 24.10.2021
5089 Clear 11 1029 50 10000 1.34 293 15:57 24.10.2021
5090 Clear 12 1029 51 10000 4.12 280 15:19 24.10.2021
5091 Clouds 12 1031 52 10000 5.14 280 13:19 24.10.2021
5092 Clouds 11 1031 56 10000 4.12 270 12:23 24.10.2021
5093 Clouds 10 1031 59 10000 5.14 270 11:34 24.10.2021
5094 Clouds 10 1029 63 10000 6.17 270 10:38 24.10.2021
5095 Clouds 10 1029 63 10000 6.17 270 10:38 24.10.2021
5096 Clouds 7 1030 82 10000 2.24 0 08:39 24.10.2021
5097 Drizzle 8 1028 88 5000 2.24 270 01:53 24.10.2021
5098 Clouds 9 1023 79 10000 2.68 0 23:51 23.10.2021
5099 Clouds 10 1022 79 10000 2.24 0 22:40 23.10.2021
5100 Clouds 12 1022 76 10000 6.17 280 20:39 23.10.2021
5101 Clouds 13 1023 89 10000 2.68 293 19:00 23.10.2021
5102 Clouds 13 1023 88 10000 4.02 293 18:41 23.10.2021
5103 Clouds 14 1022 85 10000 3.09 280 17:44 23.10.2021
5104 Rain 15 1022 76 10000 4.12 290 16:45 23.10.2021
5105 Clouds 17 1022 70 10000 2.68 293 14:45 23.10.2021
5106 Clouds 13 1022 81 10000 0 0 09:45 23.10.2021
5107 Clouds 10 1020 90 9000 1.03 10 00:28 23.10.2021
5108 Clear 11 1020 86 10000 1.54 180 23:23 22.10.2021
5109 Clear 12 1020 81 10000 2.06 60 20:55 22.10.2021
5110 Clear 14 1019 73 10000 2.06 200 18:57 22.10.2021
5111 Clear 16 1018 64 10000 0 0 17:44 22.10.2021
5112 Clear 20 1017 49 10000 1.03 0 15:57 22.10.2021
5113 Clear 18 1018 55 10000 2.06 300 14:30 22.10.2021
5114 Clear 16 1020 61 10000 1.03 0 12:41 22.10.2021
5115 Clear 15 1021 62 10000 0.51 0 10:50 22.10.2021
5116 Clear 13 1021 68 10000 1.03 0 09:56 22.10.2021
5117 Clear 13 1021 68 10000 1.03 0 09:56 22.10.2021
5118 Clear 11 1021 76 10000 1.03 0 09:32 22.10.2021
5119 Mist 6 1020 94 3000 1.54 100 07:26 22.10.2021
5120 Clouds 7 1020 87 6000 0 0 04:59 22.10.2021
5121 Clouds 10 1018 78 8000 0.51 0 00:24 22.10.2021
5122 Clouds 10 1018 76 8000 1.79 23 23:40 21.10.2021
5123 Clear 12 1018 69 10000 1.03 0 22:21 21.10.2021
5124 Clear 11 1018 76 8000 2.06 150 20:55 21.10.2021
5125 Clear 13 1019 63 8000 2.06 60 20:20 21.10.2021
5126 Clear 12 1018 69 10000 1.54 360 19:30 21.10.2021
5127 Clear 12 1018 69 10000 1.54 360 19:30 21.10.2021
5128 Clear 13 1017 67 10000 0.51 0 18:52 21.10.2021
5129 Clear 13 1017 67 10000 1.54 220 18:22 21.10.2021
5130 Clear 15 1017 59 10000 2.06 180 17:42 21.10.2021
5131 Clear 17 1016 52 10000 4.02 158 16:18 21.10.2021
5132 Clear 17 1017 52 10000 1.03 0 15:21 21.10.2021
5133 Clear 17 1018 51 10000 1.03 0 14:39 21.10.2021
5134 Clear 16 1019 56 10000 2.68 90 13:20 21.10.2021
5135 Clear 14 1022 63 10000 0.51 0 11:27 21.10.2021
5136 Fog 8 1020 79 250 1.54 100 08:59 21.10.2021
5137 Fog 4 1023 93 300 1.03 140 07:29 21.10.2021
5138 Clear 6 1027 85 6000 0.51 0 03:49 21.10.2021
5139 Clear 7 1026 87 10000 2.06 170 23:31 20.10.2021
5140 Clear 8 1026 85 10000 2.57 130 22:18 20.10.2021
5141 Clear 8 1026 84 10000 2.06 140 21:38 20.10.2021
5142 Clear 8 1026 83 10000 2.57 120 20:54 20.10.2021
5143 Clear 9 1026 82 10000 2.57 120 20:35 20.10.2021
5144 Clear 10 1026 79 10000 3.6 100 19:59 20.10.2021
5145 Clear 10 1025 76 10000 3.09 100 18:56 20.10.2021
5146 Clear 13 1025 66 10000 0 0 17:51 20.10.2021
5147 Clear 16 1026 55 10000 2.68 113 15:44 20.10.2021
5148 Clear 13 1030 58 8000 1.03 0 11:42 20.10.2021
5149 Mist 9 1026 74 3000 1.03 30 08:54 20.10.2021
5150 Mist 5 1032 85 4000 0 0 04:50 20.10.2021
5151 Clouds 6 1031 85 10000 2.06 130 00:48 20.10.2021
5152 Clear 6 1032 84 7000 1.03 0 00:18 20.10.2021
5153 Clear 7 1029 80 8000 2.06 100 21:44 19.10.2021
5154 Clouds 8 1029 73 10000 2.06 240 20:54 19.10.2021
5155 Clouds 9 1029 72 10000 2.06 280 20:25 19.10.2021
5156 Clear 10 1029 67 10000 1.54 330 19:41 19.10.2021
5157 Clear 10 1029 69 10000 2.06 310 19:19 19.10.2021
5158 Clear 12 1028 59 10000 0.89 0 17:58 19.10.2021
5159 Clear 15 1027 47 10000 2.57 290 15:39 19.10.2021
5160 Clouds 15 1027 47 10000 2.06 320 15:19 19.10.2021
5161 Clouds 15 1028 48 10000 1.54 0 14:26 19.10.2021
5162 Clouds 14 1029 50 10000 2.06 360 13:29 19.10.2021
5163 Clear 14 1030 51 10000 2.06 300 11:36 19.10.2021
5164 Clear 9 1030 71 10000 1.54 270 10:23 19.10.2021
5165 Clouds 8 1031 75 8000 1.03 0 08:58 19.10.2021
5166 Clouds 6 1028 84 7000 2.06 340 06:50 19.10.2021
5167 Clouds 11 1027 69 10000 5.14 280 00:24 19.10.2021
5168 Clouds 11 1025 71 10000 3.13 293 23:50 18.10.2021
5169 Clouds 11 1025 74 10000 2.68 293 23:19 18.10.2021
5170 Clouds 12 1025 73 10000 4.12 280 22:53 18.10.2021
5171 Clouds 12 1024 75 10000 2.24 293 21:19 18.10.2021
5172 Clouds 12 1025 76 10000 1.79 293 20:41 18.10.2021
5173 Clouds 12 1024 75 10000 0.89 293 19:53 18.10.2021
5174 Clouds 13 1024 73 10000 4.12 280 19:29 18.10.2021
5175 Clouds 13 1024 72 10000 4.12 270 18:54 18.10.2021
5176 Clouds 14 1023 68 10000 3.6 270 15:32 18.10.2021
5177 Clouds 14 1023 71 10000 2.57 300 13:32 18.10.2021
5178 Clouds 13 1024 76 10000 1.54 330 10:42 18.10.2021
5179 Clouds 11 1024 82 8000 1.54 300 09:28 18.10.2021
5180 Clouds 9 1021 92 10000 2.06 310 03:22 18.10.2021
5181 Clouds 10 1022 88 10000 1.54 290 23:31 17.10.2021
5182 Clear 10 1022 87 10000 1.54 300 21:55 17.10.2021
5183 Clear 11 1022 86 10000 1.54 300 21:18 17.10.2021
5184 Clear 11 1021 85 10000 2.06 300 20:38 17.10.2021
5185 Clear 11 1021 83 10000 1.54 280 19:39 17.10.2021
5186 Clouds 12 1022 81 10000 1.1 102 18:58 17.10.2021
5187 Clouds 12 1020 77 10000 1.54 330 17:32 17.10.2021
5188 Clouds 14 1021 71 10000 3.09 290 15:19 17.10.2021
5189 Clouds 14 1021 71 10000 2.57 300 14:24 17.10.2021
5190 Clouds 13 1021 73 10000 2.57 0 13:38 17.10.2021
5191 Clouds 12 1022 74 8000 2.06 290 11:55 17.10.2021
5192 Clouds 11 1021 76 8000 3.09 280 10:34 17.10.2021
5193 Clouds 11 1021 76 8000 3.09 280 10:34 17.10.2021
5194 Clouds 10 1022 85 8000 3.09 280 09:30 17.10.2021
5195 Clouds 8 1020 93 8000 3.09 270 07:19 17.10.2021
5196 Clouds 9 1019 93 10000 3.58 293 00:53 17.10.2021
5197 Clouds 9 1019 93 10000 1.79 293 00:22 17.10.2021
5198 Clouds 9 1019 90 10000 3.6 280 21:49 16.10.2021
5199 Clouds 9 1018 91 10000 0.89 0 20:32 16.10.2021
5200 Clouds 9 1018 93 10000 4.47 293 19:46 16.10.2021
5201 Clouds 9 1018 92 10000 2.24 293 19:23 16.10.2021
5202 Clouds 9 1017 94 10000 1.34 293 18:55 16.10.2021
5203 Clouds 9 1017 94 10000 0.45 0 18:36 16.10.2021
5204 Clouds 9 1017 94 10000 4.12 280 18:18 16.10.2021
5205 Clouds 10 1016 93 10000 3.6 280 17:23 16.10.2021
5206 Clouds 11 1015 88 10000 2.68 0 15:25 16.10.2021
5207 Clouds 10 1015 95 10000 2.06 290 11:55 16.10.2021
5208 Clouds 9 1015 97 10000 4.63 270 10:43 16.10.2021
5209 Mist 8 1014 99 4000 4.12 270 08:20 16.10.2021
5210 Clouds 7 1014 99 6000 2.57 270 01:25 16.10.2021
5211 Clouds 7 1014 96 8000 2.57 260 23:55 15.10.2021
5212 Rain 7 1015 99 7000 1.03 0 23:20 15.10.2021
5213 Clouds 7 1014 99 7000 3.09 250 22:19 15.10.2021
5214 Drizzle 7 1015 95 5000 2.06 260 21:26 15.10.2021
5215 Drizzle 7 1015 95 4000 2.06 250 20:46 15.10.2021
5216 Drizzle 7 1015 95 6000 1.54 70 19:26 15.10.2021
5217 Drizzle 7 1015 95 6000 1.54 350 18:40 15.10.2021
5218 Drizzle 8 1016 96 4000 2.06 70 16:28 15.10.2021
5219 Drizzle 8 1016 96 3700 2.06 60 15:36 15.10.2021
5220 Rain 6 1018 96 10000 1.54 50 12:42 15.10.2021
5221 Clouds 6 1018 95 10000 1.03 0 11:31 15.10.2021
5222 Rain 6 1019 96 10000 2.57 110 10:43 15.10.2021
5223 Mist 5 1019 95 5000 1.03 0 08:59 15.10.2021
5224 Clouds 5 1019 93 10000 1.54 80 05:31 15.10.2021
5225 Clouds 5 1021 93 8000 2.57 250 00:48 15.10.2021
5226 Clouds 5 1021 92 7000 2.57 250 00:21 15.10.2021
5227 Clouds 5 1022 93 10000 2.57 250 22:51 14.10.2021
5228 Clouds 5 1022 93 10000 2.57 250 22:51 14.10.2021
5229 Clouds 5 1022 88 10000 2.57 290 21:44 14.10.2021
5230 Clouds 4 1022 90 10000 2.06 300 20:38 14.10.2021
5231 Clouds 5 1022 90 10000 3.09 270 20:18 14.10.2021
5232 Clouds 5 1022 91 8000 3.09 260 19:32 14.10.2021
5233 Clouds 5 1022 88 6000 3.09 270 17:26 14.10.2021
5234 Clouds 5 1022 88 5000 3.09 270 16:48 14.10.2021
5235 Clouds 5 1022 86 6000 2.57 260 15:35 14.10.2021
5236 Clouds 5 1022 88 6000 2.06 270 14:41 14.10.2021
5237 Clouds 5 1023 88 6000 2.57 280 13:37 14.10.2021
5238 Rain 5 1023 88 5000 2.06 270 11:43 14.10.2021
5239 Mist 6 1023 91 5000 3.09 300 09:55 14.10.2021
5240 Rain 8 1023 90 1637 2.38 42 06:54 14.10.2021
5241 Clouds 9 1021 75 10000 1.46 311 00:57 14.10.2021
5242 Clouds 8 1020 75 10000 4.63 270 00:22 14.10.2021
5243 Clouds 9 1019 74 10000 2.57 280 21:45 13.10.2021
5244 Clouds 9 1019 76 10000 2.57 300 21:27 13.10.2021
5245 Clouds 9 1017 71 10000 2.06 310 19:48 13.10.2021
5246 Clouds 9 1017 69 10000 2.06 350 18:49 13.10.2021
5247 Clouds 9 1017 69 10000 2.06 350 18:49 13.10.2021
5248 Clouds 10 1016 65 8000 3.09 300 17:49 13.10.2021
5249 Clouds 11 1015 59 10000 5.14 290 15:24 13.10.2021
5250 Clouds 11 1015 60 10000 3.13 0 14:44 13.10.2021
5251 Clouds 12 1014 58 10000 0.89 293 12:55 13.10.2021
5252 Clouds 12 1014 58 10000 6.69 300 11:55 13.10.2021
5253 Clouds 10 1014 66 10000 5.66 280 10:39 13.10.2021
5254 Clouds 8 1014 79 8000 3.13 315 07:58 13.10.2021
5255 Clouds 7 1013 82 10000 2.24 293 06:33 13.10.2021
5256 Clouds 7 1012 91 10000 1.34 293 02:24 13.10.2021
5257 Clouds 7 1013 93 10000 3.58 293 23:55 12.10.2021
5258 Clouds 7 1013 93 10000 2.24 293 23:29 12.10.2021
5259 Clouds 7 1013 93 10000 3.13 293 22:43 12.10.2021
5260 Clouds 7 1013 94 10000 2.68 293 21:19 12.10.2021
5261 Clouds 8 1013 92 10000 3.13 293 20:33 12.10.2021
5262 Clouds 8 1012 95 10000 1.34 293 19:51 12.10.2021
5263 Clouds 9 1012 95 10000 4.92 293 18:27 12.10.2021
5264 Clouds 9 1011 96 8000 4.12 280 17:35 12.10.2021
5265 Rain 9 1011 95 8000 1.34 293 16:36 12.10.2021
5266 Rain 9 1011 95 8000 2.24 293 15:43 12.10.2021
5267 Clouds 9 1011 95 8000 2.24 0 14:25 12.10.2021
5268 Clouds 9 1011 95 8000 0.89 0 13:41 12.10.2021
5269 Clouds 8 1012 95 8000 0.89 293 11:36 12.10.2021
5270 Clouds 8 1012 95 7000 3.13 293 09:41 12.10.2021
5271 Clouds 8 1012 94 8000 2.24 293 08:42 12.10.2021
5272 Drizzle 8 1012 92 5000 3.13 293 06:49 12.10.2021
5273 Clouds 9 1012 90 10000 2.24 293 05:29 12.10.2021
5274 Clouds 9 1012 94 10000 4.12 290 04:29 12.10.2021
5275 Clouds 10 1014 96 8000 0.51 0 23:59 11.10.2021
5276 Rain 10 1014 96 8000 0.51 0 23:37 11.10.2021
5277 Rain 10 1014 96 10000 2.24 90 22:55 11.10.2021
5278 Clouds 10 1015 92 10000 0.45 113 21:32 11.10.2021
5279 Clouds 10 1015 92 10000 1.34 113 20:31 11.10.2021
5280 Clouds 11 1014 91 10000 3.09 120 19:36 11.10.2021
5281 Clouds 11 1014 90 10000 2.24 90 18:23 11.10.2021
5282 Clouds 12 1014 86 10000 2.24 113 16:41 11.10.2021
5283 Clouds 12 1015 86 10000 2.24 90 16:21 11.10.2021
5284 Clouds 12 1015 85 10000 0.89 90 15:45 11.10.2021
5285 Clouds 13 1016 84 10000 5.66 120 14:54 11.10.2021
5286 Clouds 12 1015 84 10000 4.02 90 14:22 11.10.2021
5287 Clouds 12 1017 90 10000 4.12 120 13:35 11.10.2021
5288 Clouds 11 1017 92 10000 1.79 113 11:24 11.10.2021
5289 Clouds 10 1017 94 10000 1.34 113 09:47 11.10.2021
5290 Rain 9 1017 95 10000 2.24 113 08:40 11.10.2021
5291 Clouds 10 1019 90 10000 9.39 113 01:47 11.10.2021
5292 Clouds 10 1020 91 10000 5.81 90 00:59 11.10.2021
5293 Clouds 10 1020 91 10000 2.24 90 00:40 11.10.2021
5294 Clouds 10 1021 95 10000 5.81 113 22:42 10.10.2021
5295 Clouds 9 1021 95 10000 4.47 113 21:50 10.10.2021
5296 Clouds 9 1022 95 10000 4.47 90 21:20 10.10.2021
5297 Clouds 9 1022 95 10000 2.68 90 20:40 10.10.2021
5298 Clouds 9 1022 95 10000 2.68 90 20:40 10.10.2021
5299 Clouds 9 1022 95 10000 4.02 90 20:19 10.10.2021
5300 Clouds 9 1022 95 10000 5.14 100 19:44 10.10.2021
5301 Clouds 9 1022 95 10000 2.24 90 19:26 10.10.2021
5302 Clouds 9 1022 95 10000 0.45 135 18:20 10.10.2021
5303 Rain 9 1023 94 8000 1.34 113 15:49 10.10.2021
5304 Rain 10 1023 91 7000 6.17 130 14:57 10.10.2021
5305 Rain 10 1023 90 10000 4.02 113 13:41 10.10.2021
5306 Clouds 10 1023 90 10000 2.68 113 12:43 10.10.2021
5307 Rain 10 1023 91 10000 2.24 113 11:31 10.10.2021
5308 Clouds 9 1024 94 10000 1.34 90 10:29 10.10.2021
5309 Clouds 9 1023 92 8000 1.34 90 09:19 10.10.2021
5310 Clouds 9 1023 94 8000 4.12 110 08:50 10.10.2021
5311 Clouds 9 1023 94 10000 2.68 113 04:51 10.10.2021
5312 Clouds 8 1023 94 10000 2.68 90 02:20 10.10.2021
5313 Clouds 8 1024 95 10000 2.68 90 00:47 10.10.2021
5314 Clouds 8 1024 95 10000 3.13 113 23:45 09.10.2021
5315 Clouds 8 1024 95 10000 2.68 90 21:55 09.10.2021
5316 Clouds 7 1024 96 10000 4.47 113 21:30 09.10.2021
5317 Clouds 7 1024 94 10000 3.6 110 20:19 09.10.2021
5318 Clouds 7 1024 94 10000 4.92 90 19:41 09.10.2021
5319 Clouds 7 1024 94 10000 2.24 90 18:48 09.10.2021
5320 Clouds 7 1024 95 8000 3.6 120 17:57 09.10.2021
5321 Rain 7 1024 93 6000 2.06 20 16:20 09.10.2021
5322 Rain 8 1023 90 8000 2.68 135 14:28 09.10.2021
5323 Clouds 8 1025 89 10000 2.06 180 13:38 09.10.2021
5324 Clouds 8 1025 89 10000 1.03 0 12:27 09.10.2021
5325 Clouds 7 1025 88 10000 2.57 170 10:44 09.10.2021
5326 Clouds 7 1025 89 10000 2.06 120 10:19 09.10.2021
5327 Clouds 6 1024 94 10000 1.03 60 08:33 09.10.2021
5328 Clouds 6 1024 93 10000 0.51 20 07:54 09.10.2021
5329 Clouds 6 1024 90 10000 1.54 340 06:29 09.10.2021
5330 Rain 6 1024 94 7000 2.06 30 04:31 09.10.2021
5331 Rain 6 1024 95 10000 1.54 60 02:44 09.10.2021
5332 Clouds 7 1025 92 7000 0 0 00:23 09.10.2021
5333 Clouds 7 1025 93 10000 1.54 350 23:31 08.10.2021
5334 Clouds 7 1024 94 7000 1.03 310 22:42 08.10.2021
5335 Clouds 8 1024 94 10000 0 0 21:44 08.10.2021
5336 Clouds 8 1024 94 10000 0 0 19:49 08.10.2021
5337 Clouds 8 1024 91 10000 2.57 40 18:23 08.10.2021
5338 Clouds 9 1023 91 10000 4.12 50 16:54 08.10.2021
5339 Clouds 9 1023 92 10000 3.6 50 16:24 08.10.2021
5340 Clouds 10 1023 93 10000 3.6 50 14:56 08.10.2021
5341 Clouds 10 1023 93 10000 5.14 120 13:45 08.10.2021
5342 Rain 10 1023 94 6000 4.12 110 11:41 08.10.2021
5343 Rain 9 1023 100 7000 5.14 110 10:42 08.10.2021
5344 Rain 10 1023 97 7000 5.66 110 09:46 08.10.2021
5345 Clouds 10 1022 95 10000 5.66 110 03:36 08.10.2021
5346 Clouds 10 1023 94 10000 5.66 100 23:22 07.10.2021
5347 Clouds 10 1022 94 10000 5.66 110 21:47 07.10.2021
5348 Rain 10 1023 92 10000 5.66 100 21:28 07.10.2021
5349 Clouds 10 1022 92 10000 4.12 90 20:29 07.10.2021
5350 Clouds 10 1022 91 10000 4.63 100 19:32 07.10.2021
5351 Clouds 11 1022 90 10000 3.6 100 18:40 07.10.2021
5352 Rain 11 1022 81 10000 4.12 130 17:27 07.10.2021
5353 Clouds 12 1022 74 10000 5.66 110 15:58 07.10.2021
5354 Rain 12 1022 62 10000 8.23 100 14:48 07.10.2021
5355 Rain 12 1022 68 10000 7.72 100 13:43 07.10.2021
5356 Clouds 12 1022 66 10000 6.17 110 12:49 07.10.2021
5357 Clouds 11 1023 73 10000 6.17 120 10:57 07.10.2021
5358 Clouds 11 1023 74 10000 5.14 130 10:22 07.10.2021
5359 Clouds 11 1022 73 10000 5.66 120 09:34 07.10.2021
5360 Clouds 11 1022 73 10000 5.66 120 09:34 07.10.2021
5361 Clouds 11 1022 73 10000 7.2 110 08:52 07.10.2021
5362 Clouds 11 1022 72 10000 5.14 120 07:56 07.10.2021
5363 Clouds 11 1022 72 10000 5.14 120 07:36 07.10.2021
5364 Clouds 11 1023 75 10000 5.66 110 04:24 07.10.2021
5365 Clouds 12 1024 70 10000 6.17 120 00:29 07.10.2021
5366 Clear 10 1024 73 10000 5.14 110 22:55 06.10.2021
5367 Clear 11 1023 66 10000 4.12 120 22:23 06.10.2021
5368 Clear 11 1023 66 10000 2.57 110 20:43 06.10.2021
5369 Clear 11 1023 68 10000 4.12 100 20:20 06.10.2021
5370 Clear 13 1023 56 10000 3.6 140 18:42 06.10.2021
5371 Clear 15 1023 54 10000 6.69 110 16:58 06.10.2021
5372 Clear 15 1023 54 10000 6.69 110 16:58 06.10.2021
5373 Clear 15 1023 55 10000 7.72 110 15:31 06.10.2021
5374 Clear 14 1023 58 10000 7.2 110 14:28 06.10.2021
5375 Clouds 13 1024 67 10000 6.69 130 13:23 06.10.2021
5376 Clouds 13 1024 62 10000 8.75 110 12:44 06.10.2021
5377 Clouds 14 1024 57 10000 7.2 110 12:22 06.10.2021
5378 Clouds 14 1025 58 10000 7.2 100 10:23 06.10.2021
5379 Clouds 13 1024 63 10000 8.23 110 09:39 06.10.2021
5380 Clouds 12 1025 68 10000 6.69 90 08:51 06.10.2021
5381 Clear 9 1025 77 10000 5.66 100 07:50 06.10.2021
5382 Clouds 9 1026 81 10000 5.66 100 05:27 06.10.2021
5383 Clear 11 1027 65 10000 6.69 100 01:23 06.10.2021
5384 Clear 11 1025 62 10000 8.23 100 00:18 06.10.2021
5385 Clear 10 1025 66 10000 6.17 110 23:45 05.10.2021
5386 Clear 9 1025 76 10000 4.63 110 23:27 05.10.2021
5387 Clear 11 1024 71 10000 5.66 110 22:28 05.10.2021
5388 Clear 13 1025 64 10000 6.17 100 21:49 05.10.2021
5389 Clear 10 1024 76 10000 6.17 90 20:48 05.10.2021
5390 Clear 14 1025 61 10000 5.66 90 20:24 05.10.2021
5391 Clear 14 1024 57 10000 5.66 90 19:47 05.10.2021
5392 Clear 15 1024 55 10000 4.63 110 18:57 05.10.2021
5393 Clear 19 1022 46 10000 6.69 130 16:48 05.10.2021
5394 Clear 20 1022 42 10000 5.14 100 14:38 05.10.2021
5395 Clear 20 1023 41 10000 3.6 110 13:35 05.10.2021
5396 Clear 20 1023 43 10000 3.6 100 12:47 05.10.2021
5397 Clear 19 1023 46 10000 2.57 90 12:18 05.10.2021
5398 Clear 19 1023 47 10000 1.54 0 10:59 05.10.2021
5399 Clear 15 1025 59 10000 2.06 110 09:26 05.10.2021
5400 Clear 9 1026 79 10000 1.03 0 04:47 05.10.2021
5401 Clear 11 1026 70 10000 1.54 0 23:53 04.10.2021
5402 Clear 11 1025 68 10000 1.54 120 22:38 04.10.2021
5403 Clear 14 1024 55 10000 4.63 100 19:59 04.10.2021
5404 Clear 15 1023 52 10000 3.6 110 18:34 04.10.2021
5405 Clear 21 1022 32 10000 1.54 150 16:24 04.10.2021
5406 Clear 21 1022 30 10000 1.54 0 15:31 04.10.2021
5407 Clear 22 1023 28 10000 1.03 0 14:42 04.10.2021
5408 Clear 20 1023 34 10000 2.06 250 13:57 04.10.2021
5409 Clear 19 1023 37 10000 1.54 0 13:24 04.10.2021
5410 Clear 18 1024 38 10000 1.03 0 12:26 04.10.2021
5411 Clear 18 1024 42 10000 0.51 0 11:30 04.10.2021
5412 Clear 16 1025 51 10000 1.03 0 09:59 04.10.2021
5413 Clear 9 1027 75 8000 0 0 08:41 04.10.2021
5414 Clear 6 1027 84 7000 0.51 0 07:26 04.10.2021
5415 Clear 10 1027 68 10000 2.57 130 00:33 04.10.2021
5416 Clear 11 1025 62 10000 2.06 140 22:35 03.10.2021
5417 Clear 12 1025 59 10000 3.09 130 21:39 03.10.2021
5418 Clear 12 1025 59 10000 3.09 130 21:19 03.10.2021
5419 Clear 13 1024 58 10000 3.6 140 19:58 03.10.2021
5420 Clear 14 1024 58 10000 3.09 110 18:56 03.10.2021
5421 Clear 16 1024 52 10000 3.09 30 18:27 03.10.2021
5422 Clear 20 1022 29 10000 2.06 100 16:34 03.10.2021
5423 Clear 19 1022 32 10000 2.06 130 14:46 03.10.2021
5424 Clear 19 1022 32 10000 2.06 130 14:46 03.10.2021
5425 Clear 18 1023 36 10000 2.06 0 13:58 03.10.2021
5426 Clear 18 1023 40 10000 2.06 250 13:22 03.10.2021
5427 Clear 17 1024 42 10000 1.54 0 12:29 03.10.2021
5428 Clear 12 1025 62 10000 1.03 0 10:37 03.10.2021
5429 Clear 7 1027 79 10000 0.51 0 08:36 03.10.2021
5430 Clear 7 1026 73 10000 2.57 130 01:30 03.10.2021
5431 Clear 9 1026 64 10000 3.6 130 22:34 02.10.2021
5432 Clear 11 1025 61 10000 3.09 140 20:56 02.10.2021
5433 Clear 12 1024 58 10000 4.63 120 19:40 02.10.2021
5434 Clear 13 1024 53 10000 2.06 100 18:51 02.10.2021
5435 Clear 16 1023 44 10000 4.63 60 17:41 02.10.2021
5436 Clear 17 1023 42 10000 4.12 50 17:19 02.10.2021
5437 Clear 17 1023 38 10000 4.12 100 14:49 02.10.2021
5438 Clouds 16 1025 61 10000 4.63 70 16:34 30.09.2021
5439 Clouds 15 1026 64 10000 5.66 80 14:48 30.09.2021
5440 Clouds 16 1025 58 10000 4.63 110 12:36 30.09.2021
5441 Clouds 16 1026 62 10000 6.69 110 11:35 30.09.2021
5442 Clouds 14 1025 67 10000 7.72 110 10:41 30.09.2021
5443 Clouds 13 1026 76 10000 6.17 100 08:56 30.09.2021
5444 Clouds 13 1026 80 10000 6.17 100 08:27 30.09.2021
5445 Clouds 12 1025 80 10000 5.66 100 06:41 30.09.2021
5446 Clouds 13 1025 79 10000 5.66 100 04:36 30.09.2021
5447 Clouds 13 1026 82 10000 5.14 100 00:40 30.09.2021
5448 Clouds 13 1026 86 10000 4.63 100 23:30 29.09.2021
5449 Clouds 13 1025 90 10000 4.63 90 21:55 29.09.2021
5450 Clouds 13 1025 81 10000 6.17 100 20:57 29.09.2021
5451 Clouds 14 1025 83 10000 4.63 100 20:23 29.09.2021
5452 Clouds 14 1025 82 10000 4.63 110 19:38 29.09.2021
5453 Clouds 14 1025 79 10000 5.66 110 18:22 29.09.2021
5454 Clouds 15 1024 72 10000 6.69 100 16:56 29.09.2021
5455 Clouds 15 1024 71 10000 6.69 100 16:32 29.09.2021
5456 Clouds 15 1024 75 10000 5.66 120 15:45 29.09.2021
5457 Clouds 16 1024 75 10000 5.66 120 15:45 29.09.2021
5458 Clouds 15 1024 75 10000 5.66 130 14:38 29.09.2021
5459 Clouds 15 1024 76 10000 6.17 100 13:36 29.09.2021
5460 Clouds 15 1024 76 10000 5.14 100 12:41 29.09.2021
5461 Clouds 14 1024 80 10000 5.14 100 11:24 29.09.2021
5462 Clouds 14 1024 84 10000 5.66 100 10:34 29.09.2021
5463 Clouds 14 1024 84 10000 6.17 100 09:44 29.09.2021
5464 Clouds 13 1024 85 10000 6.17 100 08:44 29.09.2021
5465 Clouds 13 1023 85 10000 6.17 100 06:53 29.09.2021
5466 Clouds 14 1022 93 10000 3.6 80 00:51 29.09.2021
5467 Clouds 15 1022 90 10000 3.09 100 23:20 28.09.2021
5468 Clouds 15 1022 90 10000 2.06 120 22:22 28.09.2021
5469 Clouds 16 1022 89 10000 3.6 90 21:24 28.09.2021
5470 Clouds 15 1022 89 10000 3.6 70 20:24 28.09.2021
5471 Clouds 15 1021 89 10000 3.09 90 19:40 28.09.2021
5472 Rain 16 1020 88 8000 3.09 120 18:42 28.09.2021
5473 Rain 17 1019 76 10000 3.09 70 17:29 28.09.2021
5474 Clouds 19 1019 67 10000 5.14 100 15:21 28.09.2021
5475 Clouds 20 1018 62 10000 4.63 90 13:28 28.09.2021
5476 Clouds 20 1019 61 10000 4.12 110 12:26 28.09.2021
5477 Clouds 19 1019 64 10000 4.12 100 11:52 28.09.2021
5478 Clouds 19 1019 66 10000 5.66 90 11:34 28.09.2021
5479 Clouds 19 1018 65 10000 7.2 100 10:30 28.09.2021
5480 Clouds 16 1020 80 10000 5.14 100 09:29 28.09.2021
5481 Clouds 16 1020 80 10000 4.63 100 08:44 28.09.2021
5482 Clouds 15 1020 87 10000 4.63 100 08:24 28.09.2021
5483 Clouds 15 1020 89 10000 2.57 100 06:46 28.09.2021
5484 Clear 16 1019 90 10000 3.6 100 02:56 28.09.2021
5485 Clouds 17 1018 85 10000 3.09 130 00:34 28.09.2021
5486 Clouds 17 1019 85 10000 2.57 160 23:52 27.09.2021
5487 Clouds 18 1020 77 10000 3.09 310 23:27 27.09.2021
5488 Rain 18 1019 62 10000 6.17 280 22:44 27.09.2021
5489 Clouds 18 1017 59 10000 3.09 130 21:38 27.09.2021
5490 Clear 20 1017 57 10000 5.14 80 20:33 27.09.2021
5491 Clear 20 1016 57 10000 3.6 110 19:40 27.09.2021
5492 Clear 21 1016 55 10000 3.09 130 18:55 27.09.2021
5493 Clear 24 1015 44 10000 4.12 30 17:41 27.09.2021
5494 Clear 26 1015 35 10000 0 0 17:21 27.09.2021
5495 Clear 26 1016 35 10000 1.03 0 16:37 27.09.2021
5496 Clear 26 1016 35 10000 1.03 0 16:37 27.09.2021
5497 Clear 27 1017 34 10000 1.03 0 15:39 27.09.2021
5498 Clear 25 1018 41 10000 1.03 0 13:57 27.09.2021
5499 Clear 24 1018 44 10000 1.03 0 12:26 27.09.2021
5500 Clear 23 1019 48 10000 1.03 0 10:51 27.09.2021
5501 Clear 21 1017 51 10000 0.51 0 09:46 27.09.2021
5502 Clear 12 1021 82 10000 1.03 0 08:26 27.09.2021
5503 Clear 12 1021 85 10000 0 0 04:51 27.09.2021
5504 Clear 16 1021 67 10000 0 0 00:21 27.09.2021
5505 Clear 15 1021 69 10000 0 0 22:18 26.09.2021
5506 Clear 17 1021 62 10000 0 0 21:30 26.09.2021
5507 Clear 19 1021 54 10000 2.06 210 20:38 26.09.2021
5508 Clear 20 1020 52 10000 1.54 160 19:59 26.09.2021
5509 Clear 21 1020 50 10000 1.54 0 19:26 26.09.2021
5510 Clear 21 1020 50 10000 1.54 0 19:26 26.09.2021
5511 Clear 21 1020 50 10000 1.54 0 19:26 26.09.2021
5512 Clear 21 1020 50 10000 1.54 0 19:26 26.09.2021
5513 Clear 21 1020 50 10000 1.54 0 19:26 26.09.2021
5514 Clear 23 1019 46 10000 2.06 130 18:41 26.09.2021
5515 Clear 23 1019 43 10000 1.03 0 17:48 26.09.2021
5516 Clear 26 1019 34 10000 1.54 320 17:20 26.09.2021
5517 Clear 27 1019 30 10000 1.54 310 16:24 26.09.2021
5518 Clear 27 1020 31 10000 0.89 0 15:47 26.09.2021
5519 Clear 27 1021 34 10000 2.06 340 14:23 26.09.2021
5520 Clear 27 1021 35 10000 1.54 0 13:43 26.09.2021
5521 Clear 24 1022 44 10000 1.54 200 12:31 26.09.2021
5522 Clear 24 1022 44 10000 1.54 200 12:31 26.09.2021
5523 Clear 24 1024 41 10000 1.03 0 11:56 26.09.2021
5524 Clear 23 1024 48 10000 0 0 11:32 26.09.2021
5525 Clear 22 1020 49 10000 0.51 0 09:52 26.09.2021
5526 Clear 18 1018 61 10000 0 0 08:52 26.09.2021
5527 Clear 14 1023 78 10000 3.09 160 01:18 26.09.2021
5528 Clear 16 1023 68 10000 2.06 140 00:20 26.09.2021
5529 Clear 17 1023 64 10000 2.06 80 22:40 25.09.2021
5530 Clear 17 1023 64 10000 2.06 80 22:20 25.09.2021
5531 Clear 18 1023 59 10000 1.79 293 21:47 25.09.2021
5532 Clear 19 1022 57 10000 0.45 293 20:53 25.09.2021
5533 Clear 20 1022 54 10000 1.54 290 19:53 25.09.2021
5534 Clear 22 1021 47 10000 2.57 290 18:31 25.09.2021
5535 Clear 23 1020 42 10000 2.57 310 17:46 25.09.2021
5536 Clear 25 1020 37 10000 4.12 280 14:46 25.09.2021
5537 Clear 25 1021 38 10000 4.12 270 13:55 25.09.2021
5538 Clear 23 1021 40 10000 2.57 290 12:46 25.09.2021
5539 Clear 21 1022 49 10000 4.12 290 11:29 25.09.2021
5540 Clear 19 1022 50 10000 3.09 300 10:20 25.09.2021
5541 Clear 18 1022 51 10000 3.6 250 09:22 25.09.2021
5542 Clear 14 1021 66 10000 1.54 190 07:49 25.09.2021
5543 Clear 12 1019 60 10000 2.06 310 00:56 25.09.2021
5544 Clear 15 1018 50 10000 1.54 40 23:25 24.09.2021
5545 Clear 16 1018 47 10000 0.51 0 21:34 24.09.2021
5546 Clear 17 1017 40 10000 1.79 315 20:32 24.09.2021
5547 Clear 18 1017 37 10000 2.06 310 19:32 24.09.2021
5548 Clear 18 1017 37 10000 2.06 310 19:32 24.09.2021
5549 Clear 20 1016 33 10000 4.63 290 18:21 24.09.2021
5550 Clear 20 1016 32 10000 5.66 290 17:53 24.09.2021
5551 Clear 22 1015 30 10000 5.36 0 17:34 24.09.2021
5552 Clear 22 1015 27 10000 3.58 293 15:50 24.09.2021
5553 Clear 21 1016 31 10000 1.79 0 13:27 24.09.2021
5554 Clear 21 1017 29 10000 5.14 300 12:43 24.09.2021
5555 Clear 20 1017 32 10000 2.06 180 12:25 24.09.2021
5556 Clear 20 1017 33 10000 2.06 180 12:25 24.09.2021
5557 Clear 13 1019 58 10000 2.06 200 10:56 24.09.2021
5558 Clear 14 1019 53 10000 0.89 90 09:55 24.09.2021
5559 Clear 8 1020 70 10000 2.57 250 08:21 24.09.2021
5560 Clear 6 1019 79 10000 1.54 270 06:59 24.09.2021
5561 Clear 5 1019 83 10000 1.54 270 05:57 24.09.2021
5562 Clear 6 1020 79 10000 1.34 113 03:56 24.09.2021
5563 Clear 9 1020 62 10000 3.09 290 22:37 23.09.2021
5564 Clear 10 1020 63 10000 2.06 290 21:59 23.09.2021
5565 Clear 11 1020 59 10000 1.79 315 20:54 23.09.2021
5566 Clear 12 1019 57 10000 2.68 293 20:31 23.09.2021
5567 Clouds 14 1020 49 10000 3.13 293 18:32 23.09.2021
5568 Clouds 16 1020 44 10000 3.58 0 15:53 23.09.2021
5569 Clouds 16 1020 44 10000 2.24 338 15:19 23.09.2021
5570 Clouds 16 1020 44 10000 4.63 290 14:24 23.09.2021
5571 Clouds 16 1021 44 10000 5.66 280 13:26 23.09.2021
5572 Clouds 15 1021 47 10000 6.69 280 12:54 23.09.2021
5573 Clouds 14 1021 51 10000 5.66 270 12:26 23.09.2021
5574 Clouds 13 1021 54 10000 6.69 280 11:57 23.09.2021
5575 Clouds 11 1021 66 10000 5.14 290 10:30 23.09.2021
5576 Clouds 12 1020 69 10000 5.14 290 09:54 23.09.2021
5577 Clouds 11 1020 76 10000 3.6 280 08:55 23.09.2021
5578 Clouds 9 1019 82 10000 1.79 293 05:29 23.09.2021
5579 Clouds 9 1020 77 10000 3.58 293 23:50 22.09.2021
5580 Clouds 9 1020 78 10000 5.36 293 22:50 22.09.2021
5581 Clouds 9 1020 78 10000 2.68 293 22:18 22.09.2021
5582 Clouds 8 1021 78 10000 0.89 293 21:42 22.09.2021
5583 Clouds 8 1021 81 10000 1.34 293 20:57 22.09.2021
5584 Clouds 8 1020 79 10000 3.13 293 19:47 22.09.2021
5585 Clouds 9 1020 79 10000 0.89 293 19:26 22.09.2021
5586 Clouds 8 1020 80 10000 4.63 280 18:25 22.09.2021
5587 Clouds 9 1021 77 10000 2.68 293 16:57 22.09.2021
5588 Rain 13 1020 59 10000 5.81 0 15:38 22.09.2021
5589 Rain 13 1020 56 10000 3.58 0 14:25 22.09.2021
5590 Clouds 13 1020 54 10000 4.47 293 12:55 22.09.2021
5591 Clouds 12 1021 56 10000 0.89 293 10:59 22.09.2021
5592 Clouds 12 1021 58 10000 5.66 280 09:29 22.09.2021
5593 Clouds 12 1021 57 10000 4.63 290 08:36 22.09.2021
5594 Clouds 11 1020 64 10000 4.02 293 07:30 22.09.2021
5595 Clouds 11 1022 62 10000 5.66 280 06:19 22.09.2021
5596 Clouds 11 1022 62 10000 4.63 290 05:42 22.09.2021
5597 Clouds 11 1021 72 10000 4.12 280 03:58 22.09.2021
5598 Clouds 11 1021 72 10000 4.12 280 03:58 22.09.2021
5599 Clouds 12 1022 72 10000 5.36 293 02:55 22.09.2021
5600 Clouds 13 1024 67 10000 1.79 293 23:31 21.09.2021
5601 Clouds 14 1023 62 10000 4.63 280 21:47 21.09.2021
5602 Clouds 14 1023 62 10000 4.02 293 20:28 21.09.2021
5603 Clouds 15 1023 58 10000 2.68 293 19:24 21.09.2021
5604 Clouds 16 1023 55 10000 6.17 280 18:19 21.09.2021
5605 Clouds 17 1022 52 10000 5.36 0 16:41 21.09.2021
5606 Clouds 18 1022 50 10000 3.13 0 15:56 21.09.2021
5607 Clouds 18 1022 52 10000 7.15 293 14:58 21.09.2021
5608 Clouds 18 1023 52 10000 5.14 290 13:57 21.09.2021
5609 Clouds 18 1023 52 10000 5.14 290 13:39 21.09.2021
5610 Clouds 18 1023 51 10000 5.14 300 12:44 21.09.2021
5611 Clouds 13 1023 71 10000 5.14 260 10:39 21.09.2021
5612 Clouds 12 1022 76 10000 5.66 280 08:45 21.09.2021
5613 Clouds 11 1021 82 10000 4.63 270 07:37 21.09.2021
5614 Clouds 12 1020 76 10000 6.69 280 01:53 21.09.2021
5615 Clouds 15 1019 72 10000 8.75 280 22:50 20.09.2021
5616 Clouds 16 1018 77 10000 7.2 280 21:42 20.09.2021
5617 Clouds 17 1018 72 10000 7.72 280 21:20 20.09.2021
5618 Clouds 18 1016 72 10000 0.89 293 19:46 20.09.2021
5619 Clouds 20 1014 67 10000 5.66 280 17:54 20.09.2021
5620 Clouds 22 1013 66 10000 0.89 315 16:58 20.09.2021
5621 Clouds 26 1010 43 10000 6.71 293 15:57 20.09.2021
5622 Clouds 25 1010 48 10000 1.03 0 15:34 20.09.2021
5623 Clouds 27 1010 47 10000 4.02 293 14:26 20.09.2021
5624 Clouds 27 1012 54 10000 1.03 0 12:44 20.09.2021
5625 Clouds 26 1012 56 10000 1.54 330 12:21 20.09.2021
5626 Rain 26 1011 40 10000 2.31 246 10:49 20.09.2021
5627 Mist 14 1014 94 5000 1.03 0 09:48 20.09.2021
5628 Mist 13 1014 100 3300 1.54 0 09:29 20.09.2021
5629 Fog 15 1015 94 600 0.51 0 08:34 20.09.2021
5630 Fog 13 1014 97 8000 1.03 0 06:21 20.09.2021
5631 Clouds 15 1014 93 10000 1.03 0 22:57 19.09.2021
5632 Clouds 16 1014 92 10000 1.03 0 21:48 19.09.2021
5633 Clouds 16 1014 90 10000 0 0 20:59 19.09.2021
5634 Clear 17 1014 87 10000 2.57 190 19:54 19.09.2021
5635 Clouds 19 1014 81 10000 1.54 190 18:42 19.09.2021
5636 Clouds 22 1013 69 10000 0.45 113 17:33 19.09.2021
5637 Clouds 20 1014 73 10000 2.57 290 16:32 19.09.2021
5638 Clouds 21 1014 68 10000 3.09 270 15:31 19.09.2021
5639 Clouds 21 1013 66 10000 3.09 290 14:48 19.09.2021
5640 Clouds 23 1014 61 10000 3.09 280 13:49 19.09.2021
5641 Clouds 23 1014 61 10000 1.54 0 12:52 19.09.2021
5642 Clouds 17 1016 72 10000 1.54 0 11:42 19.09.2021
5643 Rain 19 1016 65 10000 2.06 290 11:21 19.09.2021
5644 Rain 21 1016 65 10000 1.03 0 09:50 19.09.2021
5645 Rain 21 1016 65 10000 1.03 0 09:50 19.09.2021
5646 Mist 17 1016 84 5000 1.03 0 08:49 19.09.2021
5647 Mist 13 1016 94 5000 0 0 06:43 19.09.2021
5648 Rain 14 1016 81 10000 0 0 00:20 19.09.2021
5649 Clouds 15 1016 77 10000 1.03 0 22:54 18.09.2021
5650 Clouds 15 1016 77 10000 2.68 293 21:26 18.09.2021
5651 Clouds 15 1016 78 10000 2.24 293 20:45 18.09.2021
5652 Clear 15 1015 78 10000 1.34 293 19:41 18.09.2021
5653 Clouds 16 1015 77 10000 5.14 280 19:21 18.09.2021
5654 Clouds 16 1015 77 10000 2.68 0 18:37 18.09.2021
5655 Clouds 17 1015 79 10000 8.23 300 17:46 18.09.2021
5656 Clouds 17 1015 77 10000 6.69 300 16:34 18.09.2021
5657 Clouds 18 1014 87 6000 2.57 320 13:50 18.09.2021
5658 Thunderstorm 15 1015 94 7000 4.12 260 13:30 18.09.2021
5659 Rain 16 1015 88 7000 6.69 270 12:51 18.09.2021
5660 Rain 19 1013 84 5000 6.17 280 11:42 18.09.2021
5661 Clouds 20 1013 81 10000 4.12 290 10:35 18.09.2021
5662 Rain 21 1013 78 10000 2.57 240 09:52 18.09.2021
5663 Clouds 21 1013 74 10000 3.58 293 09:20 18.09.2021
5664 Rain 17 1012 92 8000 1.79 315 06:54 18.09.2021
5665 Clouds 20 1012 70 10000 1.59 251 00:42 18.09.2021
5666 Clouds 19 1013 80 10000 1.79 293 23:52 17.09.2021
5667 Clouds 19 1012 85 10000 0.89 315 22:40 17.09.2021
5668 Clear 19 1012 86 10000 0.51 0 22:20 17.09.2021
5669 Clear 19 1013 84 10000 0 0 21:23 17.09.2021
5670 Clouds 20 1012 83 10000 3.09 90 19:26 17.09.2021
5671 Clouds 21 1012 73 10000 4.12 120 17:29 17.09.2021
5672 Clouds 21 1013 78 10000 2.57 60 16:27 17.09.2021
5673 Rain 28 1012 39 10000 1.79 23 14:23 17.09.2021
5674 Clear 31 1015 34 10000 0.89 90 10:53 17.09.2021
5675 Clouds 24 1015 49 10000 2.06 80 08:52 17.09.2021
5676 Clear 18 1016 69 10000 0.51 0 07:33 17.09.2021
5677 Clear 18 1017 65 10000 1.03 0 03:54 17.09.2021
5678 Clouds 21 1017 53 10000 2.06 120 23:35 16.09.2021
5679 Clear 22 1017 47 10000 2.06 80 22:28 16.09.2021
5680 Clear 22 1017 46 10000 1.54 240 21:51 16.09.2021
5681 Clouds 23 1017 42 10000 2.06 270 21:24 16.09.2021
5682 Clouds 25 1018 37 10000 2.57 290 20:18 16.09.2021
5683 Clouds 26 1016 35 10000 3.09 200 18:20 16.09.2021
5684 Clear 27 1016 32 10000 0 0 17:33 16.09.2021
5685 Clear 29 1017 26 10000 1.54 0 14:58 16.09.2021
5686 Clear 30 1017 26 10000 1.54 0 14:24 16.09.2021
5687 Clear 26 1018 37 10000 1.03 0 12:51 16.09.2021
5688 Clear 26 1018 38 10000 0.51 0 12:29 16.09.2021
5689 Clear 26 1018 39 10000 1.03 0 11:26 16.09.2021
5690 Clear 20 1020 56 10000 1.03 0 10:33 16.09.2021
5691 Clear 26 1018 39 10000 1.03 0 09:57 16.09.2021
5692 Clear 22 1020 51 10000 0 0 08:42 16.09.2021
5693 Clear 20 1019 59 10000 1.03 130 07:36 16.09.2021
5694 Clear 13 1020 79 10000 1.54 110 06:46 16.09.2021
5695 Clear 14 1021 76 10000 0 0 05:26 16.09.2021
5696 Clear 16 1020 69 10000 1.03 160 01:40 16.09.2021
5697 Clear 15 1019 68 10000 1.54 0 23:45 15.09.2021
5698 Clear 16 1019 66 10000 1.79 180 22:47 15.09.2021
5699 Clear 17 1019 63 10000 1.54 100 21:44 15.09.2021
5700 Clear 18 1019 58 10000 2.06 220 21:25 15.09.2021
5701 Clear 21 1018 50 10000 1.54 0 19:53 15.09.2021
5702 Clouds 22 1018 46 10000 1.03 0 19:21 15.09.2021
5703 Clouds 24 1017 41 10000 0 0 17:57 15.09.2021
5704 Clouds 25 1017 33 10000 1.54 300 16:55 15.09.2021
5705 Clouds 27 1017 28 10000 1.54 0 15:34 15.09.2021
5706 Clouds 27 1017 27 10000 3.09 300 14:44 15.09.2021
5707 Clouds 26 1018 30 10000 2.06 120 13:51 15.09.2021
5708 Clouds 26 1018 29 10000 2.06 0 13:30 15.09.2021
5709 Clouds 26 1019 31 10000 1.54 220 12:44 15.09.2021
5710 Clear 25 1019 38 10000 1.03 0 11:52 15.09.2021
5711 Clear 25 1019 40 10000 1.03 0 11:21 15.09.2021
5712 Clear 24 1019 41 10000 1.03 0 10:50 15.09.2021
5713 Clear 16 1021 63 10000 2.06 120 09:26 15.09.2021
5714 Clouds 17 1020 63 10000 0.51 0 07:37 15.09.2021
5715 Clear 15 1020 68 10000 1.54 110 04:24 15.09.2021
5716 Clouds 16 1019 59 10000 1.03 100 22:56 14.09.2021
5717 Clear 18 1019 46 10000 1.54 210 21:38 14.09.2021
5718 Clear 19 1018 45 10000 2.06 180 20:27 14.09.2021
5719 Clear 20 1017 41 10000 1.54 0 19:41 14.09.2021
5720 Clear 24 1015 31 10000 0.51 0 17:34 14.09.2021
5721 Clear 26 1016 25 10000 1.54 0 16:56 14.09.2021
5722 Clear 27 1016 27 10000 1.03 0 15:27 14.09.2021
5723 Clear 27 1017 28 10000 2.06 0 14:28 14.09.2021
5724 Clear 25 1017 33 10000 1.54 0 11:50 14.09.2021
5725 Clear 24 1018 38 10000 1.54 210 10:49 14.09.2021
5726 Clear 25 1018 39 10000 2.24 68 09:50 14.09.2021
5727 Clear 19 1019 57 10000 1.03 0 08:24 14.09.2021
5728 Clear 13 1019 77 10000 2.06 110 05:38 14.09.2021
5729 Clear 15 1018 65 10000 1.54 290 23:36 13.09.2021
5730 Clear 16 1017 59 10000 1.54 230 22:29 13.09.2021
5731 Clear 17 1017 55 10000 1.54 290 21:59 13.09.2021
5732 Clear 18 1017 54 10000 1.54 290 21:39 13.09.2021
5733 Clear 19 1015 47 10000 0.89 135 19:41 13.09.2021
5734 Clouds 22 1015 40 10000 3.09 80 18:45 13.09.2021
5735 Clouds 25 1015 33 10000 0.89 113 17:39 13.09.2021
5736 Clouds 26 1014 31 10000 1.79 135 16:49 13.09.2021
5737 Clouds 26 1015 31 10000 1.54 0 14:47 13.09.2021
5738 Clear 25 1016 35 10000 1.54 0 11:45 13.09.2021
5739 Clear 19 1018 48 10000 1.03 0 10:50 13.09.2021
5740 Clear 17 1018 57 10000 0 0 08:41 13.09.2021
5741 Clear 13 1016 69 10000 1.03 0 00:38 13.09.2021
5742 Clear 15 1016 64 10000 2.06 60 22:51 12.09.2021
5743 Clear 16 1016 57 10000 2.06 220 22:22 12.09.2021
5744 Clear 17 1016 53 10000 2.57 200 21:21 12.09.2021
5745 Clear 18 1014 50 10000 2.57 160 20:19 12.09.2021
5746 Clear 19 1015 45 10000 2.57 40 19:36 12.09.2021
5747 Clear 20 1014 44 10000 2.57 40 19:18 12.09.2021
5748 Clear 24 1014 33 10000 1.34 68 17:50 12.09.2021
5749 Clear 25 1014 32 10000 1.79 45 15:56 12.09.2021
5750 Clear 25 1014 31 10000 2.57 120 14:47 12.09.2021
5751 Clear 25 1015 31 10000 2.57 0 12:42 12.09.2021
5752 Clear 17 1018 51 10000 1.03 0 10:32 12.09.2021
5753 Clear 20 1017 47 10000 1.54 240 08:39 12.09.2021
5754 Clear 12 1019 64 10000 0 0 07:30 12.09.2021
5755 Rain 12 1017 67 10000 1.54 130 00:47 12.09.2021
5756 Clear 15 1017 50 10000 1.03 0 22:39 11.09.2021
5757 Clear 16 1017 47 10000 2.57 140 21:39 11.09.2021
5758 Clear 19 1016 34 10000 2.06 30 19:39 11.09.2021
5759 Clear 24 1015 23 10000 3.6 30 17:57 11.09.2021
5760 Clear 25 1015 22 10000 4.63 30 17:27 11.09.2021
5761 Clear 25 1015 17 10000 2.06 130 15:35 11.09.2021
5762 Clear 24 1017 28 10000 1.54 0 13:22 11.09.2021
5763 Clear 20 1019 45 10000 1.03 0 11:41 11.09.2021
5764 Clear 24 1018 40 10000 0.51 0 09:50 11.09.2021
5765 Clear 20 1019 47 10000 1.03 0 08:42 11.09.2021
5766 Clear 15 1020 67 10000 0 0 07:43 11.09.2021
5767 Clear 11 1019 77 10000 1.54 130 02:52 11.09.2021
5768 Clear 15 1019 65 10000 1.54 120 22:28 10.09.2021
5769 Clear 15 1019 61 10000 0 0 21:56 10.09.2021
5770 Clouds 16 1019 58 10000 2.06 200 21:35 10.09.2021
5771 Clouds 19 1018 42 10000 2.06 60 19:30 10.09.2021
5772 Clouds 19 1018 42 10000 2.06 60 19:30 10.09.2021
5773 Clouds 23 1017 35 10000 2.06 40 17:54 10.09.2021
5774 Clouds 24 1017 33 10000 0.89 113 15:51 10.09.2021
5775 Clear 23 1018 32 10000 2.06 0 13:20 10.09.2021
5776 Clear 20 1020 52 10000 0.51 0 10:32 10.09.2021
5777 Clouds 15 1021 85 10000 0 0 07:52 10.09.2021
5778 Clear 13 1020 90 10000 0 0 05:23 10.09.2021
5779 Clear 14 1020 81 10000 2.06 90 23:52 09.09.2021
5780 Clouds 15 1020 84 10000 1.34 90 21:47 09.09.2021
5781 Clouds 15 1020 81 10000 2.57 80 20:47 09.09.2021
5782 Clouds 16 1020 76 10000 2.24 90 20:24 09.09.2021
5783 Clouds 16 1020 76 10000 2.68 23 18:39 09.09.2021
5784 Rain 17 1020 69 8000 3.13 113 17:41 09.09.2021
5785 Rain 17 1020 66 10000 0.89 113 16:27 09.09.2021
5786 Clouds 18 1021 66 10000 3.6 110 13:35 09.09.2021
5787 Rain 18 1020 74 10000 6.26 113 11:50 09.09.2021
5788 Rain 16 1020 74 10000 1.79 158 10:54 09.09.2021
5789 Rain 16 1021 72 10000 4.63 100 09:27 09.09.2021
5790 Clouds 14 1022 78 10000 4.12 90 06:55 09.09.2021
5791 Clouds 14 1022 73 10000 4.92 113 04:18 09.09.2021
5792 Clouds 15 1022 66 10000 2.06 120 22:58 08.09.2021
5793 Clouds 16 1022 59 10000 1.79 90 21:47 08.09.2021
5794 Clouds 17 1022 55 10000 2.68 90 20:21 08.09.2021
5795 Clouds 17 1022 52 10000 3.6 100 19:37 08.09.2021
5796 Clouds 18 1022 47 10000 3.6 110 18:33 08.09.2021
5797 Clouds 19 1022 46 10000 1.34 158 17:58 08.09.2021
5798 Clouds 20 1022 46 10000 0.89 68 16:55 08.09.2021
5799 Clouds 21 1023 44 10000 4.92 90 14:50 08.09.2021
5800 Clear 20 1024 42 10000 7.2 110 13:21 08.09.2021
5801 Clear 21 1023 40 10000 4.47 113 12:41 08.09.2021
5802 Clouds 20 1024 43 10000 4.12 110 12:19 08.09.2021
5803 Clear 20 1024 47 10000 2.24 135 10:59 08.09.2021
5804 Clear 19 1025 51 10000 4.63 130 10:27 08.09.2021
5805 Clear 17 1024 63 10000 3.13 113 09:25 08.09.2021
5806 Clear 14 1025 71 10000 4.02 90 07:41 08.09.2021
5807 Clear 12 1025 77 10000 4.63 100 05:44 08.09.2021
5808 Clouds 15 1023 60 10000 2.24 113 22:51 07.09.2021
5809 Clouds 16 1023 58 10000 3.58 90 22:18 07.09.2021
5810 Clouds 17 1024 53 10000 0.89 90 20:23 07.09.2021
5811 Clouds 19 1023 42 10000 2.68 113 18:45 07.09.2021
5812 Clouds 20 1023 40 10000 0.89 158 18:21 07.09.2021
5813 Clouds 21 1023 37 10000 5.81 180 16:48 07.09.2021
5814 Clouds 21 1023 36 10000 3.13 180 15:40 07.09.2021
5815 Clouds 21 1024 37 10000 5.14 150 14:44 07.09.2021
5816 Clouds 21 1025 40 10000 4.63 120 12:44 07.09.2021
5817 Clouds 21 1025 40 10000 4.92 90 11:51 07.09.2021
5818 Clouds 19 1026 48 10000 2.24 90 10:41 07.09.2021
5819 Clear 17 1026 64 10000 4.12 110 08:39 07.09.2021
5820 Clear 15 1026 68 10000 3.6 120 07:44 07.09.2021
5821 Clear 11 1025 84 10000 1.54 140 05:41 07.09.2021
5822 Clear 13 1024 77 10000 2.24 113 02:36 07.09.2021
5823 Clouds 14 1026 62 10000 2.24 90 00:46 07.09.2021
5824 Clear 13 1025 66 10000 2.57 170 23:34 06.09.2021
5825 Clear 13 1025 66 10000 2.06 160 22:54 06.09.2021
5826 Clear 14 1025 61 10000 2.06 170 22:33 06.09.2021
5827 Clear 16 1025 54 10000 2.57 150 21:25 06.09.2021
5828 Clear 18 1024 47 10000 0.45 113 19:31 06.09.2021
5829 Clouds 19 1024 44 10000 0.45 113 18:50 06.09.2021
5830 Clouds 21 1024 41 10000 3.58 113 18:23 06.09.2021
5831 Clear 21 1024 43 10000 1.79 90 17:36 06.09.2021
5832 Clouds 21 1023 46 10000 5.66 60 15:52 06.09.2021
5833 Clouds 21 1023 47 10000 6.17 100 13:48 06.09.2021
5834 Clouds 21 1023 43 10000 5.14 70 12:47 06.09.2021
5835 Clouds 21 1024 54 10000 2.68 180 10:48 06.09.2021
5836 Clear 16 1024 77 10000 5.14 100 08:35 06.09.2021
5837 Clear 15 1022 71 10000 3.13 90 04:48 06.09.2021
5838 Clear 16 1021 61 10000 2.24 90 23:35 05.09.2021
5839 Clouds 17 1021 58 10000 1.34 113 22:48 05.09.2021
5840 Clouds 17 1020 58 10000 2.06 130 21:58 05.09.2021
5841 Clouds 17 1020 56 10000 1.34 113 21:31 05.09.2021
5842 Clouds 17 1020 56 10000 1.34 113 21:30 05.09.2021
5843 Clouds 19 1020 51 10000 1.79 135 20:21 05.09.2021
5844 Clouds 21 1019 43 10000 4.63 70 18:42 05.09.2021
5845 Clouds 22 1018 42 10000 0.89 113 17:31 05.09.2021
5846 Clouds 22 1018 42 10000 0.89 113 17:30 05.09.2021
5847 Clouds 23 1018 36 10000 1.79 90 15:27 05.09.2021
5848 Clouds 23 1018 36 10000 0.45 45 14:19 05.09.2021
5849 Clouds 23 1018 40 10000 1.54 0 12:26 05.09.2021
5850 Clouds 21 1019 52 10000 0.45 68 10:48 05.09.2021
5851 Clouds 19 1019 59 10000 1.03 0 10:23 05.09.2021
5852 Clouds 17 1020 64 10000 2.06 40 09:21 05.09.2021
5853 Clouds 15 1019 68 10000 0 0 07:43 05.09.2021
5854 Clear 14 1018 76 10000 2.06 100 00:48 05.09.2021
5855 Clear 14 1018 75 10000 2.06 120 00:22 05.09.2021
5856 Clouds 15 1018 70 10000 1.03 30 23:32 04.09.2021
5857 Clouds 17 1018 64 10000 0 0 22:35 04.09.2021
5858 Clouds 17 1017 64 10000 1.54 210 21:55 04.09.2021
5859 Clouds 20 1016 50 10000 1.54 50 19:41 04.09.2021
5860 Clouds 23 1014 39 10000 2.57 360 18:19 04.09.2021
5861 Clouds 24 1015 36 10000 0.89 0 15:54 04.09.2021
5862 Clear 23 1017 38 10000 2.57 300 12:48 04.09.2021
5863 Clear 19 1019 52 10000 1.03 0 11:19 04.09.2021
5864 Clear 14 1019 72 10000 0 0 08:58 04.09.2021
5865 Clear 11 1018 86 10000 2.06 110 04:50 04.09.2021
5866 Clear 13 1019 78 10000 0 0 00:24 04.09.2021
5867 Clear 14 1019 72 10000 1.03 0 23:31 03.09.2021
5868 Clear 16 1019 64 10000 2.06 220 21:53 03.09.2021
5869 Clear 16 1019 63 10000 2.06 220 21:33 03.09.2021
5870 Clouds 17 1019 58 10000 0.51 0 20:41 03.09.2021
5871 Clouds 19 1018 48 10000 1.34 293 19:46 03.09.2021
5872 Clear 21 1018 44 10000 0 0 18:55 03.09.2021
5873 Clear 23 1018 37 10000 1.54 340 17:40 03.09.2021
5874 Clouds 23 1019 36 10000 1.34 45 16:23 03.09.2021
5875 Clouds 24 1020 36 10000 1.54 0 14:47 03.09.2021
5876 Clouds 19 1022 45 10000 2.57 270 11:56 03.09.2021
5877 Clouds 18 1023 52 10000 1.54 0 10:22 03.09.2021
5878 Clear 13 1023 71 10000 0 0 08:39 03.09.2021
5879 Clear 14 1024 66 10000 0 0 07:37 03.09.2021
5880 Clouds 16 1023 54 10000 1.34 293 00:24 03.09.2021
5881 Clouds 16 1023 55 10000 2.06 290 22:54 02.09.2021
5882 Clouds 17 1022 56 10000 2.57 330 21:19 02.09.2021
5883 Clouds 19 1021 45 10000 3.09 310 19:24 02.09.2021
5884 Clouds 21 1020 42 10000 4.63 290 17:30 02.09.2021
5885 Clouds 22 1020 40 10000 3.58 0 15:48 02.09.2021
5886 Clouds 21 1020 44 10000 7.2 270 13:51 02.09.2021
5887 Clouds 22 1020 45 10000 7.2 270 12:21 02.09.2021
5888 Clouds 21 1021 50 10000 4.92 293 11:33 02.09.2021
5889 Clouds 17 1021 59 10000 7.2 300 09:30 02.09.2021
5890 Clouds 16 1021 64 10000 4.63 280 07:45 02.09.2021
5891 Clouds 11 1021 87 10000 1.03 0 06:47 02.09.2021
5892 Clear 13 1020 70 10000 2.68 293 02:44 02.09.2021
5893 Clear 14 1020 65 10000 1.79 293 01:53 02.09.2021
5894 Clear 14 1020 64 10000 2.68 293 01:18 02.09.2021
5895 Clear 15 1020 64 10000 2.68 293 23:34 01.09.2021
5896 Clear 16 1019 57 10000 4.02 0 22:31 01.09.2021
5897 Clear 17 1019 57 10000 2.68 293 21:33 01.09.2021
5898 Clouds 18 1018 57 10000 2.24 293 19:55 01.09.2021
5899 Clouds 21 1017 47 10000 3.13 293 17:58 01.09.2021
5900 Clouds 20 1018 46 10000 5.81 293 17:18 01.09.2021
5901 Clouds 21 1017 46 10000 4.02 293 16:46 01.09.2021
5902 Clouds 22 1017 41 10000 2.68 0 15:23 01.09.2021
5903 Clouds 23 1017 42 10000 4.02 315 11:48 01.09.2021
5904 Clouds 23 1018 45 10000 7.2 280 10:42 01.09.2021
5905 Clouds 17 1018 67 10000 2.57 320 08:46 01.09.2021
5906 Clouds 19 1018 57 10000 0 0 07:50 01.09.2021
5907 Clear 16 1017 70 10000 0 0 23:41 31.08.2021
5908 Clear 18 1017 62 10000 1.54 290 22:24 31.08.2021
5909 Clear 20 1016 53 10000 1.03 0 20:34 31.08.2021
5910 Clouds 21 1015 45 10000 1.54 320 19:43 31.08.2021
5911 Clear 24 1013 36 10000 3.09 290 17:53 31.08.2021
5912 Clouds 25 1014 35 10000 2.06 330 17:26 31.08.2021
5913 Clouds 26 1014 36 10000 1.79 0 16:41 31.08.2021
5914 Clear 27 1014 34 10000 1.54 220 15:39 31.08.2021
5915 Clear 24 1015 38 10000 1.03 0 12:43 31.08.2021
5916 Clear 20 1017 52 10000 0.51 0 11:20 31.08.2021
5917 Clear 18 1018 59 10000 0 0 10:43 31.08.2021
5918 Clear 17 1018 63 10000 0.51 0 09:41 31.08.2021
5919 Clear 15 1018 73 10000 1.54 90 07:52 31.08.2021
5920 Clear 11 1017 87 10000 2.06 140 05:57 31.08.2021
5921 Clear 14 1016 72 10000 1.54 240 23:36 30.08.2021
5922 Clear 14 1016 70 10000 1.03 0 22:52 30.08.2021
5923 Clear 16 1016 58 10000 1.03 0 21:38 30.08.2021
5924 Clear 18 1016 53 10000 2.06 360 20:41 30.08.2021
5925 Clear 19 1015 51 10000 3.6 270 19:54 30.08.2021
5926 Clear 20 1014 44 10000 0.89 293 19:19 30.08.2021
5927 Clear 23 1014 41 10000 5.14 300 17:50 30.08.2021
5928 Clear 23 1013 43 10000 4.63 310 16:28 30.08.2021
5929 Clear 23 1013 44 10000 5.66 310 15:45 30.08.2021
5930 Clear 23 1013 43 10000 1.79 0 13:59 30.08.2021
5931 Clear 24 1014 44 10000 1.34 23 13:19 30.08.2021
5932 Clouds 21 1014 53 10000 2.68 0 10:59 30.08.2021
5933 Clear 14 1013 86 10000 3.13 293 03:31 30.08.2021
5934 Clouds 17 1011 87 10000 2.68 0 21:57 29.08.2021
5935 Clouds 17 1011 87 10000 2.68 0 20:48 29.08.2021
5936 Thunderstorm 18 1009 84 10000 6.17 270 19:28 29.08.2021
5937 Clouds 21 1008 73 10000 2.06 360 18:24 29.08.2021
5938 Clouds 22 1007 71 10000 1.03 0 15:58 29.08.2021
5939 Clouds 24 1008 70 10000 2.06 290 14:28 29.08.2021
5940 Clouds 22 1009 71 10000 1.03 0 13:55 29.08.2021
5941 Clouds 22 1009 71 10000 1.03 0 13:55 29.08.2021
5942 Clouds 21 1009 78 10000 1.54 290 12:57 29.08.2021
5943 Clouds 20 1009 80 5000 1.54 270 11:59 29.08.2021
5944 Clouds 21 1009 80 5000 1.54 270 11:40 29.08.2021
5945 Rain 16 1010 94 8000 0 0 10:46 29.08.2021
5946 Rain 18 1009 88 8000 0 0 10:28 29.08.2021
5947 Clouds 17 1010 89 10000 2.06 290 09:26 29.08.2021
5948 Clouds 17 1009 95 10000 1.03 0 03:26 29.08.2021
5949 Clouds 18 1011 91 7000 3.13 135 22:29 28.08.2021
5950 Clouds 19 1011 87 10000 3.09 260 20:30 28.08.2021
5951 Clouds 19 1011 87 10000 2.57 140 19:19 28.08.2021
5952 Clouds 20 1010 88 3700 5.66 60 18:22 28.08.2021
5953 Thunderstorm 22 1011 70 6000 2.06 0 17:45 28.08.2021
5954 Clouds 24 1010 63 7000 1.34 113 16:21 28.08.2021
5955 Clouds 27 1010 53 10000 0.45 113 14:43 28.08.2021
5956 Clouds 26 1010 52 10000 1.34 113 13:47 28.08.2021
5957 Clouds 25 1011 53 10000 2.06 0 12:46 28.08.2021
5958 Clouds 26 1012 49 10000 2.06 0 11:58 28.08.2021
5959 Clouds 24 1013 56 10000 1.03 0 10:44 28.08.2021
5960 Clouds 19 1014 68 10000 1.03 0 09:33 28.08.2021
5961 Clouds 18 1015 72 10000 1.34 293 07:25 28.08.2021
5962 Clouds 22 1013 64 10000 2.24 315 22:50 27.08.2021
5963 Clouds 23 1012 64 10000 0.45 293 21:26 27.08.2021
5964 Clouds 23 1012 62 10000 3.09 140 20:33 27.08.2021
5965 Clouds 24 1011 58 10000 0.89 135 19:26 27.08.2021
5966 Clouds 26 1010 50 10000 2.57 120 18:38 27.08.2021
5967 Clouds 28 1010 45 10000 1.34 135 17:27 27.08.2021
5968 Clouds 27 1010 47 10000 2.06 280 16:28 27.08.2021
5969 Clouds 27 1010 48 10000 3.09 330 14:44 27.08.2021
5970 Clouds 27 1010 55 10000 2.06 0 12:55 27.08.2021
5971 Clouds 28 1011 57 10000 1.03 0 11:37 27.08.2021
5972 Clouds 28 1011 59 10000 0.45 113 10:44 27.08.2021
5973 Clouds 22 1012 85 10000 2.06 150 09:48 27.08.2021
5974 Clouds 19 1012 94 10000 0.89 293 08:48 27.08.2021
5975 Clouds 17 1011 96 6000 2.57 110 06:58 27.08.2021
5976 Clouds 17 1011 96 4000 3.6 100 05:28 27.08.2021
5977 Clouds 18 1012 94 10000 1.54 110 00:36 27.08.2021
5978 Clouds 18 1012 94 10000 1.54 120 22:49 26.08.2021
5979 Clouds 18 1012 94 10000 2.06 120 22:19 26.08.2021
5980 Clouds 18 1011 93 10000 1.03 0 20:44 26.08.2021
5981 Rain 19 1011 90 10000 3.09 120 18:53 26.08.2021
5982 Clouds 19 1011 91 10000 3.09 140 17:45 26.08.2021
5983 Rain 20 1011 83 10000 2.68 113 16:35 26.08.2021
5984 Rain 22 1011 68 10000 1.54 140 15:55 26.08.2021
5985 Clouds 21 1012 71 10000 0.51 0 13:48 26.08.2021
5986 Clouds 20 1013 75 10000 1.03 0 12:54 26.08.2021
5987 Clouds 19 1013 76 10000 1.03 0 12:30 26.08.2021
5988 Clouds 19 1013 79 10000 2.06 310 10:21 26.08.2021
5989 Clouds 18 1014 86 10000 1.03 0 08:34 26.08.2021
5990 Clouds 17 1014 87 10000 1.54 20 06:18 26.08.2021
5991 Clouds 18 1014 89 8000 2.57 240 22:50 25.08.2021
5992 Rain 18 1015 91 8000 2.68 90 22:32 25.08.2021
5993 Rain 19 1015 91 8000 1.79 293 21:41 25.08.2021
5994 Clouds 19 1014 90 10000 2.57 70 20:46 25.08.2021
5995 Clouds 19 1014 91 8000 2.06 0 20:27 25.08.2021
5996 Thunderstorm 20 1012 83 10000 1.79 113 18:42 25.08.2021
5997 Thunderstorm 21 1012 81 10000 2.24 113 17:31 25.08.2021
5998 Thunderstorm 25 1012 55 10000 1.79 293 15:44 25.08.2021
5999 Thunderstorm 26 1012 56 10000 1.54 0 14:48 25.08.2021
6000 Rain 25 1014 53 10000 2.06 310 14:26 25.08.2021
6001 Clouds 26 1014 54 10000 2.68 23 12:55 25.08.2021
6002 Clouds 27 1014 45 10000 2.57 0 11:26 25.08.2021
6003 Clouds 27 1014 45 10000 2.57 0 11:26 25.08.2021
6004 Clear 28 1014 44 10000 1.79 293 10:40 25.08.2021
6005 Clear 26 1014 48 10000 1.54 330 09:51 25.08.2021
6006 Clear 25 1013 48 10000 2.06 40 08:41 25.08.2021
6007 Clear 20 1015 64 10000 0.51 0 08:21 25.08.2021
6008 Clear 18 1015 74 10000 4.12 290 03:49 25.08.2021
6009 Clear 19 1015 55 10000 0.89 293 23:42 24.08.2021
6010 Clear 22 1014 48 10000 0.89 113 21:48 24.08.2021
6011 Clear 23 1015 43 10000 1.79 113 20:46 24.08.2021
6012 Clear 25 1015 40 10000 3.13 135 19:45 24.08.2021
6013 Clear 30 1013 27 10000 2.57 80 17:58 24.08.2021
6014 Clear 31 1013 25 10000 0.45 113 17:26 24.08.2021
6015 Clear 31 1013 26 10000 1.79 113 16:41 24.08.2021
6016 Clear 31 1014 26 10000 2.06 0 14:25 24.08.2021
6017 Clear 31 1014 29 10000 0.89 158 13:23 24.08.2021
6018 Clear 29 1015 36 10000 1.54 0 11:26 24.08.2021
6019 Clear 24 1017 46 10000 1.54 170 10:48 24.08.2021
6020 Clear 23 1017 53 10000 2.06 0 10:25 24.08.2021
6021 Clear 26 1015 42 10000 2.06 130 08:46 24.08.2021
6022 Clear 17 1017 71 10000 3.6 110 06:35 24.08.2021
6023 Clear 18 1017 68 10000 3.09 140 03:59 24.08.2021
6024 Clear 21 1018 46 10000 6.17 120 00:00 24.08.2021
6025 Clear 21 1018 46 10000 5.14 120 22:51 23.08.2021
6026 Clear 20 1017 45 10000 4.63 110 21:52 23.08.2021
6027 Clear 25 1015 34 10000 2.68 135 20:25 23.08.2021
6028 Clear 28 1015 28 10000 2.24 113 18:47 23.08.2021
6029 Clear 30 1015 24 10000 4.02 113 16:29 23.08.2021
6030 Clear 30 1016 27 10000 3.09 110 13:58 23.08.2021
6031 Clear 30 1016 27 10000 5.14 100 12:34 23.08.2021
6032 Clear 29 1017 35 10000 2.57 110 11:24 23.08.2021
6033 Clear 28 1019 40 10000 1.34 113 10:36 23.08.2021
6034 Clear 23 1019 49 10000 2.57 120 09:21 23.08.2021
6035 Clear 23 1018 48 10000 3.09 130 07:54 23.08.2021
6036 Clear 19 1019 64 10000 3.09 120 06:43 23.08.2021
6037 Clear 17 1019 66 10000 3.6 120 04:46 23.08.2021
6038 Clear 21 1019 54 10000 0.45 113 00:47 23.08.2021
6039 Clear 21 1019 49 10000 2.06 130 22:43 22.08.2021
6040 Clear 23 1019 42 10000 1.03 0 21:37 22.08.2021
6041 Clear 24 1018 40 10000 0.45 113 20:20 22.08.2021
6042 Clouds 28 1015 28 10000 4.12 70 18:37 22.08.2021
6043 Clouds 30 1017 25 10000 2.06 0 16:22 22.08.2021
6044 Clouds 30 1018 28 10000 2.57 60 14:54 22.08.2021
6045 Clouds 30 1018 27 10000 0.45 315 13:59 22.08.2021
6046 Clouds 29 1017 27 10000 2.57 0 13:20 22.08.2021
6047 Clouds 30 1019 28 10000 1.34 158 12:49 22.08.2021
6048 Clouds 29 1018 32 10000 1.03 0 11:53 22.08.2021
6049 Clear 25 1020 41 10000 1.54 0 11:32 22.08.2021
6050 Clear 20 1021 56 10000 1.03 0 09:21 22.08.2021
6051 Clouds 22 1020 46 10000 2.57 300 07:55 22.08.2021
6052 Clear 15 1019 70 10000 1.54 160 04:43 22.08.2021
6053 Clouds 21 1019 51 10000 0.89 315 22:42 21.08.2021
6054 Clear 22 1019 46 10000 2.06 260 21:42 21.08.2021
6055 Clear 26 1017 35 10000 2.57 40 18:58 21.08.2021
6056 Clear 26 1017 34 10000 2.57 40 18:39 21.08.2021
6057 Clouds 27 1017 32 10000 2.06 30 17:18 21.08.2021
6058 Clouds 27 1017 33 10000 3.6 60 16:49 21.08.2021
6059 Clouds 28 1017 31 10000 2.57 50 15:40 21.08.2021
6060 Clouds 28 1017 31 10000 1.03 0 15:22 21.08.2021
6061 Clouds 30 1017 28 10000 3.6 80 13:43 21.08.2021
6062 Clear 29 1016 30 10000 2.06 0 12:40 21.08.2021
6063 Clear 29 1018 32 10000 2.06 0 11:36 21.08.2021
6064 Clear 24 1018 44 10000 3.09 120 08:54 21.08.2021
6065 Clouds 19 1017 60 10000 1.34 113 00:46 21.08.2021
6066 Clouds 22 1017 55 10000 3.09 140 22:29 20.08.2021
6067 Clouds 25 1016 45 10000 4.63 110 19:43 20.08.2021
6068 Clouds 30 1014 33 10000 2.06 90 17:35 20.08.2021
6069 Clouds 29 1015 36 10000 0.89 90 14:34 20.08.2021
6070 Clear 28 1015 40 10000 3.09 130 11:59 20.08.2021
6071 Clear 24 1017 46 10000 4.12 100 11:29 20.08.2021
6072 Clear 23 1018 49 10000 2.06 0 10:21 20.08.2021
6073 Clear 20 1018 60 10000 2.06 0 09:18 20.08.2021
6074 Clear 22 1017 53 10000 1.54 0 08:36 20.08.2021
6075 Clear 15 1017 65 10000 2.06 100 04:40 20.08.2021
6076 Clear 15 1017 63 10000 2.57 130 04:20 20.08.2021
6077 Clear 16 1016 60 10000 2.06 80 23:27 19.08.2021
6078 Clear 16 1016 59 10000 1.03 0 22:37 19.08.2021
6079 Clear 19 1016 47 10000 1.03 0 21:49 19.08.2021
6080 Clear 22 1015 38 10000 1.03 0 20:19 19.08.2021
6081 Clear 27 1013 25 10000 1.54 0 17:52 19.08.2021
6082 Clear 28 1013 25 10000 2.06 0 16:42 19.08.2021
6083 Clear 28 1014 25 10000 2.57 0 14:33 19.08.2021
6084 Clear 26 1014 28 10000 2.06 0 12:45 19.08.2021
6085 Clear 26 1014 29 10000 3.09 270 12:27 19.08.2021
6086 Clear 24 1017 37 10000 2.06 290 10:47 19.08.2021
6087 Clear 24 1017 37 10000 2.06 290 10:47 19.08.2021
6088 Clear 23 1017 42 10000 3.13 293 09:48 19.08.2021
6089 Clear 18 1017 52 10000 3.09 290 09:26 19.08.2021
6090 Clear 16 1017 59 10000 3.6 280 08:24 19.08.2021
6091 Clouds 16 1016 68 10000 3.13 293 02:53 19.08.2021
6092 Clouds 17 1016 64 10000 5.14 280 01:58 19.08.2021
6093 Clouds 18 1016 64 10000 4.02 293 23:21 18.08.2021
6094 Clouds 18 1015 66 10000 2.68 315 21:44 18.08.2021
6095 Clouds 18 1015 75 10000 1.34 293 20:39 18.08.2021
6096 Clouds 20 1014 67 10000 8.23 280 20:18 18.08.2021
6097 Clouds 23 1013 45 10000 9.77 280 18:57 18.08.2021
6098 Rain 25 1011 37 10000 9.77 280 18:33 18.08.2021
6099 Clouds 29 1011 36 10000 3.6 300 16:40 18.08.2021
6100 Clouds 28 1011 36 10000 4.63 280 15:39 18.08.2021
6101 Clear 28 1011 37 10000 4.12 280 15:20 18.08.2021
6102 Clear 28 1013 39 10000 1.34 293 12:44 18.08.2021
6103 Clear 28 1013 39 10000 0.89 315 12:26 18.08.2021
6104 Clear 27 1013 41 10000 1.34 315 11:22 18.08.2021
6105 Clear 21 1015 55 10000 5.81 293 07:49 18.08.2021
6106 Clouds 21 1014 72 10000 1.34 293 00:46 18.08.2021
6107 Rain 21 1014 72 10000 4.63 270 22:32 17.08.2021
6108 Thunderstorm 25 1014 49 10000 2.57 240 21:43 17.08.2021
6109 Thunderstorm 25 1013 49 8000 3.09 360 20:45 17.08.2021
6110 Clouds 30 1008 29 10000 3.09 80 19:20 17.08.2021
6111 Clouds 33 1008 23 10000 2.57 300 17:33 17.08.2021
6112 Clouds 33 1008 24 10000 3.6 300 16:46 17.08.2021
6113 Clear 35 1010 22 10000 3.09 320 15:40 17.08.2021
6114 Clouds 35 1011 25 10000 1.34 90 14:39 17.08.2021
6115 Clear 32 1011 27 10000 2.06 300 12:35 17.08.2021
6116 Clear 23 1014 43 10000 2.06 130 09:22 17.08.2021
6117 Clear 23 1013 41 10000 1.54 0 07:54 17.08.2021
6118 Clear 18 1014 51 10000 2.57 110 05:48 17.08.2021
6119 Clear 22 1015 35 10000 4.12 120 23:18 16.08.2021
6120 Clear 23 1015 32 10000 3.13 113 22:46 16.08.2021
6121 Clear 23 1014 32 10000 1.34 113 22:27 16.08.2021
6122 Clear 23 1015 31 10000 3.6 120 21:36 16.08.2021
6123 Clear 25 1014 29 10000 2.68 113 20:49 16.08.2021
6124 Clear 29 1013 23 10000 1.79 113 19:25 16.08.2021
6125 Clear 33 1012 17 10000 1.79 113 18:25 16.08.2021
6126 Clear 32 1012 17 10000 4.12 120 17:51 16.08.2021
6127 Clear 33 1013 20 10000 2.68 315 15:49 16.08.2021
6128 Clear 34 1014 21 10000 3.09 0 14:56 16.08.2021
6129 Clear 33 1015 23 10000 1.79 113 13:38 16.08.2021
6130 Clear 34 1016 24 10000 2.57 0 12:55 16.08.2021
6131 Clear 31 1016 29 10000 2.06 340 11:29 16.08.2021
6132 Clear 28 1016 34 10000 2.06 90 08:53 16.08.2021
6133 Clear 28 1016 34 10000 2.06 90 08:53 16.08.2021
6134 Clear 22 1017 48 10000 2.06 110 07:45 16.08.2021
6135 Clear 21 1018 50 10000 2.06 90 07:25 16.08.2021
6136 Clear 20 1017 56 10000 3.09 140 02:23 16.08.2021
6137 Clear 22 1018 49 10000 2.57 0 23:00 15.08.2021
6138 Clear 25 1018 39 10000 1.79 135 20:51 15.08.2021
6139 Clear 30 1014 24 10000 4.12 70 18:47 15.08.2021
6140 Clear 31 1015 23 10000 3.09 50 17:56 15.08.2021
6141 Clear 31 1015 23 10000 3.09 50 17:34 15.08.2021
6142 Clouds 31 1016 26 10000 2.06 10 16:26 15.08.2021
6143 Clear 32 1017 26 10000 2.57 70 14:48 15.08.2021
6144 Clear 31 1017 27 10000 2.57 160 14:26 15.08.2021
6145 Clear 27 1021 36 10000 1.54 0 11:30 15.08.2021
6146 Clear 21 1021 52 10000 1.03 0 09:26 15.08.2021
6147 Clear 16 1020 71 10000 2.06 140 03:23 15.08.2021
6148 Clear 20 1021 57 10000 2.57 150 00:38 15.08.2021
6149 Clouds 23 1022 48 10000 0.45 135 22:18 14.08.2021
6150 Clouds 24 1022 44 10000 2.68 158 20:58 14.08.2021
6151 Clouds 27 1020 37 10000 0.89 90 19:44 14.08.2021
6152 Clear 29 1020 32 10000 3.6 50 18:56 14.08.2021
6153 Clouds 31 1020 30 10000 0.45 90 16:59 14.08.2021
6154 Clouds 31 1021 30 10000 3.6 50 15:48 14.08.2021
6155 Clouds 30 1021 32 10000 0.45 45 14:25 14.08.2021
6156 Clouds 29 1021 35 10000 3.6 0 12:19 14.08.2021
6157 Clouds 26 1024 47 10000 1.54 0 10:45 14.08.2021
6158 Clear 22 1024 58 10000 2.06 110 07:40 14.08.2021
6159 Clouds 21 1024 65 10000 0.45 90 23:53 13.08.2021
6160 Clear 22 1024 61 10000 1.54 120 22:26 13.08.2021
6161 Clouds 25 1023 50 10000 1.03 0 20:31 13.08.2021
6162 Clear 28 1020 36 10000 4.63 60 18:47 13.08.2021
6163 Clear 28 1021 35 10000 5.66 40 17:43 13.08.2021
6164 Clear 30 1020 32 10000 4.63 10 16:24 13.08.2021
6165 Clear 30 1021 29 10000 2.06 0 12:51 13.08.2021
6166 Clear 26 1024 38 10000 2.06 0 11:20 13.08.2021
6167 Clear 24 1024 43 10000 3.09 280 09:40 13.08.2021
6168 Clear 28 1021 36 10000 0 0 08:36 13.08.2021
6169 Clear 20 1023 53 10000 1.54 90 07:18 13.08.2021
6170 Clear 15 1023 77 10000 1.54 160 04:59 13.08.2021
6171 Clear 23 1021 49 10000 3.6 270 22:56 12.08.2021
6172 Clear 25 1022 38 10000 1.54 210 21:20 12.08.2021
6173 Clouds 27 1020 39 10000 2.57 60 20:21 12.08.2021
6174 Clear 28 1019 36 10000 3.09 70 19:42 12.08.2021
6175 Clouds 30 1018 33 10000 1.54 210 17:51 12.08.2021
6176 Clouds 28 1018 45 8000 2.57 0 16:29 12.08.2021
6177 Clouds 30 1018 33 10000 6.69 90 14:31 12.08.2021
6178 Thunderstorm 32 1018 32 10000 5.66 70 12:44 12.08.2021
6179 Clouds 28 1021 44 10000 1.54 0 10:48 12.08.2021
6180 Clear 24 1019 52 10000 0.51 0 07:54 12.08.2021
6181 Clouds 20 1019 68 10000 3.09 80 01:29 12.08.2021
6182 Clear 24 1018 50 10000 1.54 0 22:51 11.08.2021
6183 Clear 29 1014 36 10000 3.09 40 19:36 11.08.2021
6184 Clear 31 1013 32 10000 4.12 40 18:28 11.08.2021
6185 Clear 31 1013 32 10000 4.12 40 18:28 11.08.2021
6186 Clear 33 1013 26 10000 5.14 40 15:38 11.08.2021
6187 Clear 32 1013 26 10000 4.12 330 15:20 11.08.2021
6188 Clear 32 1013 24 10000 3.09 310 14:22 11.08.2021
6189 Clear 33 1015 23 10000 2.57 310 12:30 11.08.2021
6190 Clear 33 1015 23 10000 2.57 310 12:30 11.08.2021
6191 Clear 33 1015 23 10000 2.57 310 12:30 11.08.2021
6192 Clear 33 1015 26 10000 1.54 0 11:46 11.08.2021
6193 Clear 32 1015 29 10000 2.06 0 11:21 11.08.2021
6194 Clear 26 1018 50 10000 1.54 20 09:44 11.08.2021
6195 Clear 23 1016 56 10000 1.54 150 07:23 11.08.2021
6196 Clear 23 1017 64 10000 1.03 0 22:53 10.08.2021
6197 Clear 26 1018 50 10000 1.54 230 22:28 10.08.2021
6198 Clear 28 1018 42 10000 1.03 260 20:57 10.08.2021
6199 Clear 31 1014 35 10000 3.09 40 19:33 10.08.2021
6200 Clear 32 1015 32 10000 2.06 0 18:29 10.08.2021
6201 Clouds 35 1015 23 10000 3.6 30 15:48 10.08.2021
6202 Clouds 35 1015 25 10000 5.14 280 14:41 10.08.2021
6203 Clear 34 1016 28 10000 1.54 0 11:33 10.08.2021
6204 Clear 34 1016 30 10000 1.54 0 09:39 10.08.2021
6205 Clear 22 1019 61 10000 0 0 06:24 10.08.2021
6206 Clear 22 1018 60 10000 1.03 50 02:40 10.08.2021
6207 Clear 25 1019 51 10000 1.54 150 23:38 09.08.2021
6208 Clear 27 1018 41 10000 2.57 200 21:54 09.08.2021
6209 Clear 28 1018 39 10000 2.57 170 21:29 09.08.2021
6210 Clouds 31 1015 27 10000 1.54 330 18:56 09.08.2021
6211 Clouds 35 1018 25 10000 2.24 68 16:58 09.08.2021
6212 Clouds 36 1018 22 10000 1.34 338 15:27 09.08.2021
6213 Clear 35 1018 25 10000 3.58 315 13:32 09.08.2021
6214 Clear 33 1017 26 10000 2.06 0 12:40 09.08.2021
6215 Clear 34 1018 29 10000 0 0 09:56 09.08.2021
6216 Clear 28 1018 37 10000 1.03 0 08:25 09.08.2021
6217 Clear 23 1017 47 10000 1.54 110 22:41 08.08.2021
6218 Clear 25 1017 40 10000 1.79 113 21:25 08.08.2021
6219 Clear 25 1017 40 10000 1.79 113 21:25 08.08.2021
6220 Clear 31 1013 25 10000 0.51 0 18:50 08.08.2021
6221 Clear 34 1015 21 10000 2.57 350 16:39 08.08.2021
6222 Clear 35 1017 21 10000 2.57 0 15:30 08.08.2021
6223 Clear 33 1016 25 10000 2.68 0 12:48 08.08.2021
6224 Clear 33 1016 27 10000 1.54 0 10:43 08.08.2021
6225 Clear 19 1018 59 10000 1.03 280 06:42 08.08.2021
6226 Clear 16 1017 73 10000 0 0 05:34 08.08.2021
6227 Clear 19 1016 57 10000 2.06 100 00:28 08.08.2021
6228 Clear 20 1015 53 10000 1.03 0 22:18 07.08.2021
6229 Clear 21 1015 48 10000 0.51 0 21:38 07.08.2021
6230 Clear 28 1011 28 10000 3.6 300 18:42 07.08.2021
6231 Clear 31 1012 26 10000 1.34 293 17:18 07.08.2021
6232 Clear 30 1013 28 10000 2.06 0 16:24 07.08.2021
6233 Clear 30 1013 29 10000 1.79 293 13:59 07.08.2021
6234 Clouds 29 1013 30 10000 5.14 290 12:23 07.08.2021
6235 Clear 23 1014 43 10000 3.09 280 09:43 07.08.2021
6236 Clear 15 1013 72 10000 2.57 310 04:56 07.08.2021
6237 Clear 20 1011 54 10000 2.68 293 23:49 06.08.2021
6238 Clear 22 1010 46 10000 2.06 310 20:45 06.08.2021
6239 Clear 23 1010 43 10000 1.34 293 20:25 06.08.2021
6240 Clouds 24 1008 38 10000 3.13 0 19:49 06.08.2021
6241 Clouds 28 1007 28 10000 5.36 293 17:51 06.08.2021
6242 Clouds 29 1006 33 10000 6.71 315 13:37 06.08.2021
6243 Clouds 26 1009 58 10000 3.58 293 09:57 06.08.2021
6244 Clouds 25 1008 60 10000 2.24 0 08:38 06.08.2021
6245 Clear 25 1007 52 10000 1.79 293 00:35 06.08.2021
6246 Clouds 26 1008 46 10000 0.45 293 23:18 05.08.2021
6247 Clouds 32 1006 27 7000 4.63 220 20:48 05.08.2021
6248 Clouds 32 1005 28 10000 3.09 170 19:49 05.08.2021
6249 Clouds 36 1004 20 10000 2.24 135 18:25 05.08.2021
6250 Clear 38 1009 15 10000 7.72 210 15:35 05.08.2021
6251 Clear 38 1009 25 10000 3.58 113 12:39 05.08.2021
6252 Clear 31 1012 42 10000 0.89 45 08:51 05.08.2021
6253 Clear 20 1014 62 10000 1.54 320 05:47 05.08.2021
6254 Clear 22 1015 55 10000 2.06 120 00:55 05.08.2021
6255 Clear 25 1015 46 10000 2.06 80 22:21 04.08.2021
6256 Clear 26 1015 41 10000 2.06 130 21:25 04.08.2021
6257 Clear 31 1013 28 10000 0.51 0 19:19 04.08.2021
6258 Clear 33 1014 22 10000 5.66 320 16:43 04.08.2021
6259 Clear 33 1014 26 10000 3.09 0 14:45 04.08.2021
6260 Clear 33 1015 26 10000 2.06 0 11:49 04.08.2021
6261 Clear 19 1016 67 10000 1.03 0 04:56 04.08.2021
6262 Clear 25 1016 44 10000 3.6 140 20:41 03.08.2021
6263 Clear 28 1014 31 10000 1.03 0 19:59 03.08.2021
6264 Clouds 30 1014 29 10000 2.57 290 18:33 03.08.2021
6265 Clouds 33 1014 27 10000 3.6 340 16:27 03.08.2021
6266 Clouds 33 1015 24 10000 3.09 340 12:52 03.08.2021
6267 Clear 28 1018 45 10000 2.06 290 10:40 03.08.2021
6268 Clear 23 1017 60 10000 3.09 300 07:40 03.08.2021
6269 Clear 36 1009 11 10000 12.35 250 17:48 02.08.2021
6270 Clear 37 1008 14 10000 7.72 240 16:38 02.08.2021
6271 Clear 38 1009 14 10000 6.69 290 15:25 02.08.2021
6272 Clear 37 1009 22 10000 2.06 60 11:59 02.08.2021
6273 Clear 37 1009 25 10000 2.06 60 11:36 02.08.2021
6274 Clear 36 1009 26 10000 1.03 0 09:49 02.08.2021
6275 Clear 25 1012 51 10000 1.54 160 22:45 01.08.2021
6276 Clear 35 1009 25 10000 2.57 50 18:19 01.08.2021
6277 Clear 35 1012 26 10000 3.6 140 15:29 01.08.2021
6278 Clear 32 1013 39 10000 1.54 0 11:38 01.08.2021
6279 Clear 28 1013 51 10000 1.03 0 08:51 01.08.2021
6280 Clear 20 1014 81 9000 2.06 140 03:47 01.08.2021
6281 Clear 22 1014 77 9000 0.51 0 22:52 31.07.2021
6282 Clear 23 1013 72 10000 2.06 90 20:52 31.07.2021
6283 Thunderstorm 24 1012 69 10000 11.32 90 17:49 31.07.2021
6284 Clouds 32 1011 35 10000 8.75 120 16:28 31.07.2021
6285 Clear 35 1009 29 10000 3.09 0 12:31 31.07.2021
6286 Clear 26 1013 53 10000 1.54 290 08:34 31.07.2021
6287 Clear 25 1011 50 10000 2.06 220 00:23 31.07.2021
6288 Clear 29 1010 33 10000 0 0 20:28 30.07.2021
6289 Clear 32 1008 27 10000 3.09 300 19:18 30.07.2021
6290 Clear 26 1013 41 10000 1.03 0 22:30 29.07.2021
6291 Clear 36 1014 23 10000 3.09 300 12:34 29.07.2021
6292 Clear 23 1016 53 10000 1.54 100 05:23 29.07.2021
6293 Clear 21 1016 63 10000 2.57 130 04:28 29.07.2021
6294 Clear 29 1017 34 10000 3.09 200 20:54 28.07.2021
6295 Clouds 36 1017 20 10000 3.09 190 17:19 28.07.2021
6296 Clear 35 1016 31 10000 1.54 0 10:54 28.07.2021
6297 Clear 21 1019 69 10000 1.03 0 03:46 28.07.2021
6298 Clear 25 1020 57 10000 2.57 120 21:37 27.07.2021
6299 Clouds 34 1017 27 10000 4.63 290 18:30 27.07.2021
6300 Clear 34 1018 24 10000 2.06 0 14:51 27.07.2021
6301 Clear 34 1018 29 10000 1.54 0 10:44 27.07.2021
6302 Clear 21 1021 62 10000 1.03 0 07:31 27.07.2021
6303 Clear 32 1017 26 10000 1.54 0 15:48 26.07.2021
6304 Clear 31 1018 29 10000 2.06 0 13:58 26.07.2021
6305 Clear 22 1019 53 10000 3.6 140 21:44 25.07.2021
6306 Clear 24 1018 46 10000 2.06 150 20:55 25.07.2021
6307 Clear 26 996 33 10000 3.09 180 17:45 25.07.2021
6308 Clouds 28 995 31 10000 3.6 180 15:27 25.07.2021
6309 Clear 24 988 46 10000 1.03 0 10:19 25.07.2021
6310 Clear 21 1019 60 10000 1.03 0 08:18 25.07.2021
6311 Clear 22 1016 56 10000 2.57 190 20:23 24.07.2021
6312 Clear 23 1016 50 10000 3.09 190 19:36 24.07.2021
6313 Clouds 25 996 40 10000 5.66 50 11:59 24.07.2021
6314 Clouds 26 1014 40 10000 3.09 10 17:36 23.07.2021
6315 Clouds 27 995 32 10000 3.09 20 14:35 23.07.2021
6316 Clouds 26 995 33 10000 2.06 0 12:40 23.07.2021
6317 Clouds 26 995 33 10000 2.06 0 12:40 23.07.2021
6318 Clear 18 1019 68 10000 2.06 200 22:51 22.07.2021
6319 Clouds 26 997 37 10000 4.63 70 14:58 22.07.2021
6320 Clouds 25 1019 42 10000 2.06 0 11:19 22.07.2021
6321 Clouds 20 1020 60 10000 2.57 280 08:34 22.07.2021
6322 Clear 19 1019 59 10000 4.12 270 22:35 21.07.2021
6323 Clear 20 1019 52 10000 3.09 290 21:34 21.07.2021
6324 Clear 23 1017 39 10000 5.66 280 19:27 21.07.2021
6325 Clear 25 1018 40 10000 8.23 280 11:27 21.07.2021
6326 Clear 22 1018 51 10000 7.72 280 09:19 21.07.2021
6327 Clear 22 1018 51 10000 7.72 280 09:19 21.07.2021
6328 Clear 19 1016 77 10000 4.12 290 05:41 21.07.2021
6329 Clear 22 1015 68 10000 5.66 280 21:43 20.07.2021
6330 Clouds 27 1011 47 10000 7.72 280 16:36 20.07.2021
6331 Clouds 27 990 45 10000 5.66 300 15:27 20.07.2021
6332 Clouds 25 1011 57 10000 4.63 300 11:22 20.07.2021
6333 Clouds 20 1012 81 7000 2.06 300 07:45 20.07.2021
6334 Clear 19 1011 88 10000 2.06 300 03:18 20.07.2021
6335 Thunderstorm 23 1010 75 10000 8.75 260 18:24 19.07.2021
6336 Clouds 27 987 46 10000 4.12 120 12:47 19.07.2021
6337 Clear 17 1009 88 10000 2.06 90 04:59 19.07.2021
6338 Rain 30 1003 38 10000 6.17 70 15:45 18.07.2021
6339 Clear 27 986 41 10000 4.12 110 10:19 18.07.2021
6340 Clear 24 1008 46 10000 2.57 110 22:58 17.07.2021
6341 Clear 26 1006 42 10000 1.54 140 21:58 17.07.2021
6342 Clear 25 1008 47 10000 1.54 140 21:40 17.07.2021
6343 Clear 25 1008 47 10000 1.54 140 21:40 17.07.2021
6344 Clouds 31 1006 26 10000 7.72 110 13:46 17.07.2021
6345 Clear 30 1007 30 10000 7.2 110 11:30 17.07.2021
6346 Clouds 17 1011 88 10000 3.6 120 04:47 17.07.2021
6347 Clouds 32 1007 32 10000 6.69 150 15:34 16.07.2021
6348 Clear 32 1010 35 10000 6.17 120 11:43 16.07.2021
6349 Clear 22 1012 57 10000 2.57 150 07:24 16.07.2021
6350 Clear 30 1012 42 10000 5.14 150 18:33 15.07.2021
6351 Clear 32 1013 40 10000 5.66 120 13:49 15.07.2021
6352 Clear 28 1015 51 10000 5.66 100 09:25 15.07.2021
6353 Clear 21 727 81 10000 5.66 120 00:31 15.07.2021
6354 Clear 34 1014 22 10000 3.09 130 16:48 14.07.2021
6355 Clear 31 1016 35 10000 3.09 140 11:59 14.07.2021
6356 Clear 19 1016 72 10000 1.54 130 04:44 14.07.2021
6357 Clear 21 801 67 10000 3.09 60 20:22 13.07.2021
6358 Clear 22 727 81 10000 4.12 50 19:50 13.07.2021
6359 Clear 26 982 38 10000 3.6 50 19:21 13.07.2021
6360 Clear 31 1014 35 10000 4.63 50 18:43 13.07.2021
6361 Clear 32 1014 33 10000 4.63 60 18:23 13.07.2021
6362 Clouds 33 1014 21 10000 3.6 260 14:34 13.07.2021
6363 Clear 28 1014 42 10000 2.06 0 09:38 13.07.2021
6364 Clear 22 865 69 10000 1.03 0 22:51 12.07.2021
6365 Clear 31 1015 27 10000 3.6 50 17:28 12.07.2021
6366 Clouds 31 1015 27 10000 4.63 30 15:20 12.07.2021
6367 Clear 21 865 75 10000 3.6 90 00:31 12.07.2021
6368 Clear 21 801 67 10000 2.57 140 20:53 11.07.2021
6369 Clouds 30 1014 26 10000 3.09 110 15:30 11.07.2021
6370 Clear 16 1016 67 10000 3.09 120 01:54 11.07.2021
6371 Clouds 28 1013 35 10000 5.14 20 17:19 10.07.2021
6372 Clear 22 1017 55 10000 2.06 130 07:52 10.07.2021
6373 Clouds 19 1019 68 10000 4.12 100 02:27 10.07.2021
6374 Clear 27 1018 47 10000 5.66 130 19:47 09.07.2021
6375 Clouds 29 997 39 10000 4.12 150 14:50 09.07.2021
6376 Clouds 28 999 44 10000 5.66 150 12:46 09.07.2021
6377 Clear 21 1022 73 10000 2.57 120 23:53 08.07.2021
6378 Clear 23 1022 68 10000 2.06 120 22:49 08.07.2021
6379 Clear 27 1021 50 10000 4.12 40 19:49 08.07.2021
6380 Clouds 28 999 42 10000 4.12 50 17:47 08.07.2021
6381 Clouds 31 1018 39 10000 4.63 40 13:48 08.07.2021
6382 Clouds 29 999 39 10000 3.6 0 13:29 08.07.2021
6383 Clouds 29 999 40 10000 3.6 40 12:32 08.07.2021
6384 Clouds 27 989 43 10000 1.54 0 10:54 08.07.2021
6385 Clear 21 1020 74 10000 1.54 310 05:38 08.07.2021
6386 Clear 21 1020 73 10000 2.06 120 02:28 08.07.2021
6387 Clear 22 988 50 10000 1.03 0 22:57 07.07.2021
6388 Clouds 24 1020 60 10000 2.06 200 22:19 07.07.2021
6389 Clear 24 1019 60 10000 2.57 180 21:44 07.07.2021
6390 Clouds 25 1019 57 10000 2.06 170 21:24 07.07.2021
6391 Clear 21 957 36 10000 3.09 50 19:57 07.07.2021
6392 Clear 26 996 39 10000 3.6 40 19:29 07.07.2021
6393 Clear 29 997 36 10000 3.6 20 17:36 07.07.2021
6394 Clouds 30 995 37 10000 3.6 90 15:45 07.07.2021
6395 Clouds 29 1015 37 10000 2.06 30 13:56 07.07.2021
6396 Clear 25 1001 49 10000 1.03 0 08:53 07.07.2021
6397 Clear 18 1017 75 10000 1.54 100 06:46 07.07.2021
6398 Clear 19 1017 73 10000 0 0 05:48 07.07.2021
6399 Clear 16 1016 82 10000 0 0 02:48 07.07.2021
6400 Clouds 26 993 39 10000 3.09 40 19:31 06.07.2021
6401 Clear 27 993 37 10000 3.09 50 18:48 06.07.2021
6402 Clear 27 993 37 10000 4.63 60 18:30 06.07.2021
6403 Clouds 28 991 38 10000 3.09 30 14:58 06.07.2021
6404 Clouds 27 992 37 10000 2.57 0 13:33 06.07.2021
6405 Clear 25 1013 52 10000 3.6 290 09:42 06.07.2021
6406 Clear 24 1014 60 10000 3.09 300 08:35 06.07.2021
6407 Clouds 21 1014 74 8000 0.51 0 07:38 06.07.2021
6408 Clear 17 1013 94 10000 1.54 250 01:53 06.07.2021
6409 Clouds 19 1013 88 10000 1.03 0 22:44 05.07.2021
6410 Clouds 22 1011 68 8000 6.69 280 20:27 05.07.2021
6411 Clouds 26 988 48 10000 3.09 360 16:50 05.07.2021
6412 Clouds 20 990 51 10000 1.54 250 08:45 05.07.2021
6413 Clear 18 1011 62 10000 1.54 130 05:47 05.07.2021
6414 Clear 18 1011 63 10000 1.54 140 04:40 05.07.2021
6415 Clear 17 1013 67 10000 1.54 360 23:19 04.07.2021
6416 Clear 24 1012 41 10000 4.12 300 19:55 04.07.2021
6417 Clouds 26 991 34 10000 5.66 290 16:51 04.07.2021
6418 Clouds 26 991 34 10000 7.72 280 13:27 04.07.2021
6419 Clear 22 1014 53 10000 4.63 300 09:25 04.07.2021
6420 Clouds 19 1015 59 10000 2.57 310 23:34 03.07.2021
6421 Clouds 19 1015 59 10000 4.12 280 22:40 03.07.2021
6422 Clouds 24 1012 40 10000 7.2 290 14:58 03.07.2021
6423 Clouds 22 1014 49 10000 7.72 280 12:38 03.07.2021
6424 Clouds 21 1014 48 10000 7.2 280 09:39 03.07.2021
6425 Clouds 21 1015 48 10000 8.75 280 09:20 03.07.2021
6426 Clouds 20 1015 52 10000 6.69 280 08:44 03.07.2021
6427 Clouds 25 1010 37 10000 4.12 330 17:28 02.07.2021
6428 Clouds 20 1013 72 10000 6.17 290 07:41 02.07.2021
6429 Clouds 17 1012 82 10000 4.63 280 06:24 02.07.2021
6430 Clear 19 1012 88 10000 2.57 290 22:57 01.07.2021
6431 Clouds 20 1012 83 10000 0.51 0 21:56 01.07.2021
6432 Clouds 20 1012 83 10000 0.51 0 21:33 01.07.2021
6433 Clouds 22 1011 73 10000 3.6 10 19:36 01.07.2021
6434 Clouds 25 1010 61 10000 2.57 350 19:18 01.07.2021
6435 Clouds 24 1010 69 10000 3.09 350 18:35 01.07.2021
6436 Clouds 24 1010 62 7000 5.14 310 17:19 01.07.2021
6437 Clouds 32 1005 35 10000 3.09 150 15:31 01.07.2021
6438 Clouds 32 1008 34 10000 2.57 0 14:25 01.07.2021
6439 Clear 31 1012 36 10000 2.57 310 10:56 01.07.2021
6440 Clear 25 1012 73 10000 1.54 160 07:40 01.07.2021
6441 Clear 24 1013 78 10000 6.69 90 23:23 30.06.2021
6442 Clear 25 1013 73 10000 5.66 110 22:20 30.06.2021
6443 Clear 25 1013 73 10000 7.2 110 21:44 30.06.2021
6444 Clear 27 1012 65 10000 6.17 110 20:58 30.06.2021
6445 Clouds 28 1012 57 10000 6.69 100 19:43 30.06.2021
6446 Clear 32 1011 42 10000 3.6 100 14:35 30.06.2021
6447 Clear 31 1012 48 10000 3.09 120 13:24 30.06.2021
6448 Clear 27 1015 57 10000 1.54 100 08:56 30.06.2021
6449 Clear 23 1016 73 10000 4.12 110 22:36 29.06.2021
6450 Clouds 30 1013 47 10000 4.63 180 19:28 29.06.2021
6451 Clouds 31 1013 42 10000 4.12 130 17:44 29.06.2021
6452 Clear 31 1013 43 10000 2.57 120 17:22 29.06.2021
6453 Clear 31 1012 39 10000 2.57 80 15:50 29.06.2021
6454 Clear 31 1013 38 10000 1.54 0 14:54 29.06.2021
6455 Clear 31 1015 41 10000 1.54 0 13:20 29.06.2021
6456 Clear 19 1019 72 10000 2.06 120 01:24 29.06.2021
6457 Clear 19 1019 72 10000 2.06 120 01:24 29.06.2021
6458 Clear 22 1019 64 10000 3.09 170 21:48 28.06.2021
6459 Clear 26 1018 53 10000 2.57 60 19:53 28.06.2021
6460 Clear 29 1015 26 10000 4.12 60 17:32 28.06.2021
6461 Clouds 30 1018 32 10000 2.06 340 15:23 28.06.2021
6462 Clouds 30 1016 29 10000 2.06 10 14:24 28.06.2021
6463 Clear 27 1020 44 10000 1.54 0 10:50 28.06.2021
6464 Clear 20 1018 77 10000 1.03 0 23:47 27.06.2021
6465 Clouds 23 1018 64 10000 2.06 190 21:54 27.06.2021
6466 Clouds 26 1017 53 10000 2.57 100 19:42 27.06.2021
6467 Clouds 28 1013 45 10000 3.09 20 16:54 27.06.2021
6468 Clouds 29 1013 43 10000 2.57 0 14:23 27.06.2021
6469 Clear 22 1017 73 10000 1.54 310 09:33 27.06.2021
6470 Clear 19 1017 81 10000 1.54 170 23:30 26.06.2021
6471 Rain 20 1016 74 10000 2.06 80 21:24 26.06.2021
6472 Rain 18 1016 82 10000 3.6 90 20:42 26.06.2021
6473 Clouds 18 1016 88 10000 7.2 160 19:25 26.06.2021
6474 Rain 27 1013 50 10000 7.72 270 15:33 26.06.2021
6475 Clear 33 1013 32 10000 2.06 280 12:57 26.06.2021
6476 Clear 30 1013 41 10000 3.09 290 09:32 26.06.2021
6477 Clear 22 1015 78 10000 2.57 40 06:20 26.06.2021
6478 Clear 25 1016 69 10000 4.12 120 21:23 25.06.2021
6479 Clear 29 1015 51 10000 1.54 160 19:56 25.06.2021
6480 Clear 33 1013 29 10000 4.12 310 17:55 25.06.2021
6481 Clouds 33 1012 27 10000 5.66 290 16:56 25.06.2021
6482 Clouds 33 1012 26 10000 5.14 270 15:47 25.06.2021
6483 Clear 34 1014 31 10000 3.6 280 13:19 25.06.2021
6484 Clear 28 1018 51 10000 0.51 0 09:35 25.06.2021
6485 Clear 23 1017 75 10000 0 0 07:21 25.06.2021
6486 Clear 21 1017 75 10000 1.03 0 03:55 25.06.2021
6487 Clear 24 1018 69 10000 1.54 150 22:48 24.06.2021
6488 Clear 24 1018 69 10000 1.54 150 22:48 24.06.2021
6489 Clear 27 1019 50 10000 2.06 290 21:47 24.06.2021
6490 Clear 28 1018 51 10000 1.54 130 20:41 24.06.2021
6491 Clear 30 1014 44 10000 2.57 20 18:50 24.06.2021
6492 Clear 33 1014 35 10000 2.06 360 16:37 24.06.2021
6493 Clear 33 1015 36 10000 2.57 320 15:22 24.06.2021
6494 Clear 33 1015 32 10000 3.09 270 14:49 24.06.2021
6495 Clear 33 1018 37 10000 1.54 0 11:51 24.06.2021
6496 Clear 29 1018 54 10000 0.51 0 09:35 24.06.2021
6497 Clear 24 1019 65 10000 0.51 0 08:24 24.06.2021
6498 Clear 19 1020 87 7000 1.03 0 05:41 24.06.2021
6499 Clear 23 1019 72 10000 2.06 130 23:28 23.06.2021
6500 Clear 23 1019 68 10000 1.54 160 21:46 23.06.2021
6501 Clear 27 1017 56 10000 1.54 310 20:48 23.06.2021
6502 Clear 29 1016 42 10000 3.09 350 18:38 23.06.2021
6503 Clear 29 1015 44 10000 3.6 340 17:39 23.06.2021
6504 Clouds 30 1015 32 10000 4.12 10 16:34 23.06.2021
6505 Clouds 31 1015 38 10000 4.63 340 14:29 23.06.2021
6506 Clouds 32 1016 40 10000 4.12 300 11:59 23.06.2021
6507 Clear 29 1018 52 10000 1.03 0 10:22 23.06.2021
6508 Clear 25 1018 68 10000 1.54 10 08:50 23.06.2021
6509 Clear 23 1016 70 10000 1.03 0 07:52 23.06.2021
6510 Clear 22 1016 73 10000 1.03 0 07:25 23.06.2021
6511 Clear 17 1016 94 10000 1.54 240 04:34 23.06.2021
6512 Clear 20 1016 88 10000 2.06 90 00:44 23.06.2021
6513 Clear 21 1015 88 10000 2.06 140 23:56 22.06.2021
6514 Clear 22 1015 83 10000 3.09 100 22:46 22.06.2021
6515 Clear 23 1015 83 10000 1.54 0 22:22 22.06.2021
6516 Clear 23 1015 83 10000 1.03 0 21:37 22.06.2021
6517 Clear 28 1014 57 10000 1.03 350 19:45 22.06.2021
6518 Clear 30 1013 45 10000 1.54 330 18:54 22.06.2021
6519 Clouds 29 1011 46 10000 1.54 300 18:24 22.06.2021
6520 Clouds 30 1012 46 10000 1.54 360 17:22 22.06.2021
6521 Clouds 30 1012 42 10000 3.6 10 16:30 22.06.2021
6522 Clouds 31 1011 42 10000 4.12 30 14:36 22.06.2021
6523 Clouds 30 1011 45 10000 2.06 0 13:48 22.06.2021
6524 Clear 30 1012 52 10000 2.57 0 12:53 22.06.2021
6525 Clear 27 1015 57 10000 1.54 0 11:18 22.06.2021
6526 Clear 24 1015 64 10000 1.54 130 09:31 22.06.2021
6527 Clear 20 1014 83 10000 1.03 0 06:41 22.06.2021
6528 Clear 20 1014 83 10000 3.09 100 00:42 22.06.2021
6529 Clear 20 1013 83 10000 3.09 130 22:59 21.06.2021
6530 Clear 21 1013 78 10000 3.09 110 21:48 21.06.2021
6531 Clear 23 1013 73 10000 1.54 80 20:53 21.06.2021
6532 Clear 24 1013 64 10000 2.06 50 20:28 21.06.2021
6533 Clear 25 1012 57 10000 1.03 0 19:50 21.06.2021
6534 Clear 27 1011 45 10000 3.09 310 18:30 21.06.2021
6535 Clouds 28 1010 42 10000 3.09 340 16:56 21.06.2021
6536 Clouds 27 1009 40 10000 3.09 340 16:38 21.06.2021
6537 Clouds 27 1009 40 10000 3.09 340 16:38 21.06.2021
6538 Clouds 27 1009 40 10000 2.57 20 16:19 21.06.2021
6539 Clouds 28 1010 37 10000 1.54 0 15:29 21.06.2021
6540 Clouds 28 1011 42 10000 3.09 330 13:52 21.06.2021
6541 Clouds 27 1012 47 10000 2.06 0 12:56 21.06.2021
6542 Clouds 28 1012 48 10000 2.06 0 12:35 21.06.2021
6543 Clouds 24 1014 62 10000 1.54 0 10:55 21.06.2021
6544 Clouds 23 1014 65 10000 1.03 0 10:23 21.06.2021
6545 Clear 21 1013 68 10000 1.54 0 08:47 21.06.2021
6546 Clouds 19 1013 75 8000 1.54 130 07:57 21.06.2021
6547 Clouds 15 1014 94 10000 1.54 210 01:53 21.06.2021
6548 Clear 16 1014 88 10000 1.03 0 23:52 20.06.2021
6549 Clear 16 1014 88 10000 1.03 0 23:32 20.06.2021
6550 Clouds 17 1014 88 10000 1.54 0 22:47 20.06.2021
6551 Clouds 18 1014 88 10000 2.06 50 21:44 20.06.2021
6552 Clouds 20 1013 73 10000 2.57 120 20:27 20.06.2021
6553 Clouds 22 1012 61 10000 2.57 110 19:38 20.06.2021
6554 Clouds 22 1013 68 10000 2.06 120 18:49 20.06.2021
6555 Clouds 22 1012 64 10000 1.54 200 17:37 20.06.2021
6556 Clouds 23 1012 65 10000 3.09 20 16:39 20.06.2021
6557 Rain 23 1012 60 10000 3.09 270 15:38 20.06.2021
6558 Clouds 24 1012 51 10000 2.57 60 14:55 20.06.2021
6559 Clouds 24 1012 51 10000 2.57 60 14:36 20.06.2021
6560 Clouds 23 1014 56 10000 2.57 280 13:19 20.06.2021
6561 Clouds 21 1015 60 10000 1.54 300 11:48 20.06.2021
6562 Clouds 22 1015 61 10000 1.03 0 10:55 20.06.2021
6563 Clouds 20 1015 65 10000 1.54 0 09:49 20.06.2021
6564 Clouds 19 1015 76 10000 0.51 0 08:57 20.06.2021
6565 Clouds 17 1015 84 10000 1.54 270 00:38 20.06.2021
6566 Clouds 17 1016 86 10000 1.54 310 23:33 19.06.2021
6567 Clouds 18 1016 82 10000 1.03 0 22:30 19.06.2021
6568 Clouds 18 1015 85 10000 2.57 360 21:44 19.06.2021
6569 Clouds 19 1015 83 10000 3.09 290 20:29 19.06.2021
6570 Clouds 21 1014 80 10000 3.6 280 18:47 19.06.2021
6571 Clouds 20 1014 84 10000 1.79 293 17:51 19.06.2021
6572 Rain 20 1014 83 10000 1.54 290 17:19 19.06.2021
6573 Rain 22 1013 74 10000 2.68 315 15:49 19.06.2021
6574 Clouds 20 1015 80 7000 6.69 300 14:19 19.06.2021
6575 Clouds 22 1013 73 10000 4.12 280 12:45 19.06.2021
6576 Rain 24 1014 60 10000 4.12 70 11:43 19.06.2021
6577 Clouds 22 1015 68 10000 2.57 0 10:39 19.06.2021
6578 Clouds 22 1015 68 10000 3.09 270 10:21 19.06.2021
6579 Rain 19 1015 77 10000 2.06 280 08:36 19.06.2021
6580 Clouds 18 1015 88 10000 2.06 290 07:41 19.06.2021
6581 Clouds 17 1014 88 10000 1.79 293 05:44 19.06.2021
6582 Clouds 18 1016 88 10000 2.06 290 00:26 19.06.2021
6583 Clouds 19 1016 82 10000 1.54 250 23:58 18.06.2021
6584 Clouds 19 1016 82 10000 1.03 0 23:18 18.06.2021
6585 Rain 18 1016 88 10000 2.06 170 22:41 18.06.2021
6586 Clouds 19 1017 77 10000 1.03 0 21:53 18.06.2021
6587 Clouds 19 1016 77 10000 1.54 60 21:28 18.06.2021
6588 Clouds 20 1016 68 10000 0 0 20:35 18.06.2021
6589 Clouds 22 1016 56 10000 1.54 200 18:57 18.06.2021
6590 Clouds 21 1016 64 10000 2.57 200 18:18 18.06.2021
6591 Clouds 20 1017 73 10000 2.57 10 16:52 18.06.2021
6592 Clouds 23 1017 53 10000 3.6 320 15:53 18.06.2021
6593 Clouds 24 1016 56 10000 4.12 340 14:51 18.06.2021
6594 Clouds 24 1016 55 10000 2.57 330 13:56 18.06.2021
6595 Clouds 24 1016 54 10000 2.06 330 13:23 18.06.2021
6596 Clouds 24 1016 53 10000 2.06 330 12:43 18.06.2021
6597 Clouds 24 1016 53 10000 2.06 330 12:43 18.06.2021
6598 Clouds 23 1017 57 10000 1.54 350 11:48 18.06.2021
6599 Clouds 22 1018 64 10000 2.06 40 11:19 18.06.2021
6600 Clouds 22 1018 60 10000 1.03 0 10:42 18.06.2021
6601 Clouds 21 1018 73 10000 1.54 0 10:19 18.06.2021
6602 Clouds 20 1019 68 10000 1.03 0 09:27 18.06.2021
6603 Clouds 19 1019 73 10000 1.03 0 08:38 18.06.2021
6604 Clouds 18 1019 80 6000 1.03 0 07:43 18.06.2021
6605 Mist 16 1019 86 1500 2.06 220 06:30 18.06.2021
6606 Mist 15 1019 90 1500 2.06 220 06:30 18.06.2021
6607 Clear 16 1019 90 10000 1.03 0 00:40 18.06.2021
6608 Clear 16 1019 90 10000 1.54 40 23:33 17.06.2021
6609 Clear 17 1020 84 10000 0.89 158 22:41 17.06.2021
6610 Clear 17 1020 85 10000 0.89 158 22:22 17.06.2021
6611 Clear 18 1020 81 10000 1.54 300 21:25 17.06.2021
6612 Clouds 19 1019 78 10000 3.09 200 20:45 17.06.2021
6613 Clouds 19 1019 75 10000 2.57 130 20:22 17.06.2021
6614 Rain 20 1019 75 10000 4.63 270 19:44 17.06.2021
6615 Rain 21 1017 70 10000 4.63 240 18:00 17.06.2021
6616 Clouds 22 1017 68 10000 3.58 158 17:40 17.06.2021
6617 Rain 21 1017 67 10000 1.79 90 17:18 17.06.2021
6618 Clouds 25 1016 49 10000 3.09 100 16:24 17.06.2021
6619 Clouds 26 1016 43 10000 3.6 0 14:54 17.06.2021
6620 Clouds 26 1016 45 10000 4.12 40 13:57 17.06.2021
6621 Clouds 25 1018 50 10000 2.57 360 12:36 17.06.2021
6622 Clouds 24 1019 60 10000 2.06 310 11:58 17.06.2021
6623 Clouds 23 1019 61 10000 2.06 270 10:49 17.06.2021
6624 Clouds 22 1019 62 10000 1.54 0 10:29 17.06.2021
6625 Clouds 21 1020 68 10000 1.54 360 09:50 17.06.2021
6626 Clouds 20 1020 72 10000 1.54 40 09:22 17.06.2021
6627 Fog 17 1020 86 900 0 0 07:58 17.06.2021
6628 Fog 16 1020 89 250 1.54 350 06:48 17.06.2021
6629 Fog 16 1020 89 250 1.54 350 06:48 17.06.2021
6630 Clear 15 1018 93 10000 1.03 0 03:25 17.06.2021
6631 Clouds 17 1018 88 10000 5.14 200 23:46 16.06.2021
6632 Clouds 17 1017 86 8000 4.12 200 23:22 16.06.2021
6633 Rain 16 1017 92 10000 2.24 135 22:34 16.06.2021
6634 Rain 21 1017 64 10000 3.09 220 21:46 16.06.2021
6635 Clouds 20 1017 68 10000 2.57 250 21:22 16.06.2021
6636 Clouds 20 1017 68 10000 1.54 0 20:44 16.06.2021
6637 Clouds 23 1016 49 10000 1.54 60 19:59 16.06.2021
6638 Clouds 23 1016 49 10000 1.54 60 19:37 16.06.2021
6639 Clouds 24 1016 46 10000 2.57 340 18:55 16.06.2021
6640 Clouds 22 1015 59 10000 3.6 360 18:28 16.06.2021
6641 Clouds 22 1014 62 10000 2.06 350 17:44 16.06.2021
6642 Clouds 23 1014 58 10000 1.79 0 17:26 16.06.2021
6643 Clouds 23 1014 55 10000 4.12 290 16:44 16.06.2021
6644 Clouds 23 1014 55 10000 0.45 270 16:18 16.06.2021
6645 Clouds 23 1014 52 10000 4.63 310 15:36 16.06.2021
6646 Clouds 23 1014 47 10000 2.06 50 14:50 16.06.2021
6647 Clouds 23 1014 47 10000 3.6 30 14:30 16.06.2021
6648 Clouds 23 1015 49 10000 4.12 330 13:56 16.06.2021
6649 Clouds 23 1015 53 10000 4.12 310 13:23 16.06.2021
6650 Clouds 23 1014 51 10000 4.12 320 12:54 16.06.2021
6651 Clouds 23 1014 51 10000 3.13 315 12:31 16.06.2021
6652 Clouds 22 1014 57 10000 3.6 280 11:46 16.06.2021
6653 Clouds 21 1015 60 10000 3.6 310 10:53 16.06.2021
6654 Clouds 21 1015 60 10000 3.6 310 10:53 16.06.2021
6655 Clouds 21 1015 60 10000 3.6 310 10:34 16.06.2021
6656 Clouds 21 1014 63 10000 4.12 280 09:38 16.06.2021
6657 Clouds 19 1014 63 10000 5.14 290 08:33 16.06.2021
6658 Clouds 19 1014 65 10000 5.66 280 07:46 16.06.2021
6659 Clouds 17 1014 72 10000 6.69 270 07:24 16.06.2021
6660 Clouds 16 1014 72 10000 4.63 270 02:48 16.06.2021
6661 Clouds 16 1014 72 10000 4.63 270 02:48 16.06.2021
6662 Clouds 16 1014 72 10000 6.17 280 23:48 15.06.2021
6663 Clouds 17 1015 67 10000 6.69 280 23:22 15.06.2021
6664 Clouds 17 1015 67 10000 6.69 280